<?xml version="1.0" encoding="UTF-8" standalone="no" ?>
<gpx xmlns="http://www.topografix.com/GPX/1/1" xmlns:xsi="http://www.w3.org/2001/XMLSchema-instance" xsi:schemaLocation="http://www.topografix.com/GPX/1/1 http://www.topografix.com/GPX/1/1/gpx.xsd" version="1.1" creator="VisuGPX - https://www.visugpx.com">
  <metadata>
    <name>Pornichet 26/05/2022</name>
    <desc><![CDATA[Sortie jeudi 26 mai 2022]]></desc>
  </metadata>
  <trk>
    <name><![CDATA[Pornichet Cyclisme]]></name>
    <trkseg>
      <trkpt lat="47.26404" lon="-2.31566">
        <ele>9.5</ele>
        <time>2022-05-26T06:52:06.000Z</time>
      </trkpt>
      <trkpt lat="47.26405" lon="-2.31576">
        <ele>9.6</ele>
        <time>2022-05-26T06:52:09.000Z</time>
      </trkpt>
      <trkpt lat="47.26405" lon="-2.3158">
        <ele>9.6</ele>
        <time>2022-05-26T06:52:10.000Z</time>
      </trkpt>
      <trkpt lat="47.26406" lon="-2.31605">
        <ele>9.6</ele>
        <time>2022-05-26T06:52:16.000Z</time>
      </trkpt>
      <trkpt lat="47.26407" lon="-2.31641">
        <ele>8.9</ele>
        <time>2022-05-26T06:52:23.000Z</time>
      </trkpt>
      <trkpt lat="47.26405" lon="-2.31659">
        <ele>8.3</ele>
        <time>2022-05-26T06:52:27.000Z</time>
      </trkpt>
      <trkpt lat="47.26399" lon="-2.31665">
        <ele>8</ele>
        <time>2022-05-26T06:52:31.000Z</time>
      </trkpt>
      <trkpt lat="47.26384" lon="-2.31673">
        <ele>-0.40000000596046</ele>
        <time>2022-05-26T06:52:38.000Z</time>
      </trkpt>
      <trkpt lat="47.2638" lon="-2.31676">
        <ele>-0.80000001192093</ele>
        <time>2022-05-26T06:52:39.000Z</time>
      </trkpt>
      <trkpt lat="47.26377" lon="-2.31679">
        <ele>-1.2000000476837</ele>
        <time>2022-05-26T06:52:40.000Z</time>
      </trkpt>
      <trkpt lat="47.26372" lon="-2.31682">
        <ele>-1.7999999523163</ele>
        <time>2022-05-26T06:52:41.000Z</time>
      </trkpt>
      <trkpt lat="47.26368" lon="-2.31684">
        <ele>-2.2000000476837</ele>
        <time>2022-05-26T06:52:42.000Z</time>
      </trkpt>
      <trkpt lat="47.26363" lon="-2.31687">
        <ele>-2.2000000476837</ele>
        <time>2022-05-26T06:52:43.000Z</time>
      </trkpt>
      <trkpt lat="47.26354" lon="-2.31693">
        <ele>-2.2000000476837</ele>
        <time>2022-05-26T06:52:45.000Z</time>
      </trkpt>
      <trkpt lat="47.26343" lon="-2.31698">
        <ele>-2.2000000476837</ele>
        <time>2022-05-26T06:52:47.000Z</time>
      </trkpt>
      <trkpt lat="47.26332" lon="-2.31703">
        <ele>-2.2000000476837</ele>
        <time>2022-05-26T06:52:49.000Z</time>
      </trkpt>
      <trkpt lat="47.26314" lon="-2.3171">
        <ele>-3</ele>
        <time>2022-05-26T06:52:52.000Z</time>
      </trkpt>
      <trkpt lat="47.2631" lon="-2.31713">
        <ele>-3.4000000953674</ele>
        <time>2022-05-26T06:52:53.000Z</time>
      </trkpt>
      <trkpt lat="47.26306" lon="-2.31717">
        <ele>-3.7999999523163</ele>
        <time>2022-05-26T06:52:54.000Z</time>
      </trkpt>
      <trkpt lat="47.26302" lon="-2.31722">
        <ele>-4.1999998092651</ele>
        <time>2022-05-26T06:52:55.000Z</time>
      </trkpt>
      <trkpt lat="47.26301" lon="-2.3173">
        <ele>-4.1999998092651</ele>
        <time>2022-05-26T06:52:57.000Z</time>
      </trkpt>
      <trkpt lat="47.26304" lon="-2.31749">
        <ele>-4.1999998092651</ele>
        <time>2022-05-26T06:53:01.000Z</time>
      </trkpt>
      <trkpt lat="47.26304" lon="-2.31778">
        <ele>-4.1999998092651</ele>
        <time>2022-05-26T06:53:07.000Z</time>
      </trkpt>
      <trkpt lat="47.26301" lon="-2.3181">
        <ele>-4.1999998092651</ele>
        <time>2022-05-26T06:53:13.000Z</time>
      </trkpt>
      <trkpt lat="47.26297" lon="-2.31854">
        <ele>-4.1999998092651</ele>
        <time>2022-05-26T06:53:20.000Z</time>
      </trkpt>
      <trkpt lat="47.26285" lon="-2.31868">
        <ele>-4.1999998092651</ele>
        <time>2022-05-26T06:53:23.000Z</time>
      </trkpt>
      <trkpt lat="47.26267" lon="-2.31901">
        <ele>-4.1999998092651</ele>
        <time>2022-05-26T06:53:29.000Z</time>
      </trkpt>
      <trkpt lat="47.26259" lon="-2.31917">
        <ele>-4.5999999046326</ele>
        <time>2022-05-26T06:53:32.000Z</time>
      </trkpt>
      <trkpt lat="47.26257" lon="-2.31922">
        <ele>-5</ele>
        <time>2022-05-26T06:53:33.000Z</time>
      </trkpt>
      <trkpt lat="47.26254" lon="-2.31927">
        <ele>-5.4000000953674</ele>
        <time>2022-05-26T06:53:34.000Z</time>
      </trkpt>
      <trkpt lat="47.26252" lon="-2.31931">
        <ele>-5.8000001907349</ele>
        <time>2022-05-26T06:53:35.000Z</time>
      </trkpt>
      <trkpt lat="47.26249" lon="-2.31935">
        <ele>-6.1999998092651</ele>
        <time>2022-05-26T06:53:36.000Z</time>
      </trkpt>
      <trkpt lat="47.2624" lon="-2.31953">
        <ele>-6.1999998092651</ele>
        <time>2022-05-26T06:53:40.000Z</time>
      </trkpt>
      <trkpt lat="47.2623" lon="-2.31972">
        <ele>-6.1999998092651</ele>
        <time>2022-05-26T06:53:45.000Z</time>
      </trkpt>
      <trkpt lat="47.26228" lon="-2.31973">
        <ele>-6.1999998092651</ele>
        <time>2022-05-26T06:53:46.000Z</time>
      </trkpt>
      <trkpt lat="47.26223" lon="-2.31981">
        <ele>-6.1999998092651</ele>
        <time>2022-05-26T06:53:48.000Z</time>
      </trkpt>
      <trkpt lat="47.2621" lon="-2.31994">
        <ele>-6.1999998092651</ele>
        <time>2022-05-26T06:53:53.000Z</time>
      </trkpt>
      <trkpt lat="47.26205" lon="-2.32005">
        <ele>-6.1999998092651</ele>
        <time>2022-05-26T06:53:57.000Z</time>
      </trkpt>
      <trkpt lat="47.26197" lon="-2.32011">
        <ele>-6.1999998092651</ele>
        <time>2022-05-26T06:54:01.000Z</time>
      </trkpt>
      <trkpt lat="47.26181" lon="-2.32015">
        <ele>-6.1999998092651</ele>
        <time>2022-05-26T06:54:06.000Z</time>
      </trkpt>
      <trkpt lat="47.26162" lon="-2.3203">
        <ele>-6.1999998092651</ele>
        <time>2022-05-26T06:54:11.000Z</time>
      </trkpt>
      <trkpt lat="47.26153" lon="-2.32051">
        <ele>-6.1999998092651</ele>
        <time>2022-05-26T06:54:15.000Z</time>
      </trkpt>
      <trkpt lat="47.26152" lon="-2.32058">
        <ele>-6.1999998092651</ele>
        <time>2022-05-26T06:54:16.000Z</time>
      </trkpt>
      <trkpt lat="47.26143" lon="-2.32091">
        <ele>-6.1999998092651</ele>
        <time>2022-05-26T06:54:22.000Z</time>
      </trkpt>
      <trkpt lat="47.26132" lon="-2.32128">
        <ele>-6.1999998092651</ele>
        <time>2022-05-26T06:54:29.000Z</time>
      </trkpt>
      <trkpt lat="47.26122" lon="-2.32158">
        <ele>-6.1999998092651</ele>
        <time>2022-05-26T06:54:34.000Z</time>
      </trkpt>
      <trkpt lat="47.26119" lon="-2.32165">
        <ele>-6.1999998092651</ele>
        <time>2022-05-26T06:54:35.000Z</time>
      </trkpt>
      <trkpt lat="47.26098" lon="-2.32212">
        <ele>-6.1999998092651</ele>
        <time>2022-05-26T06:54:42.000Z</time>
      </trkpt>
      <trkpt lat="47.26072" lon="-2.3225">
        <ele>-6.1999998092651</ele>
        <time>2022-05-26T06:54:49.000Z</time>
      </trkpt>
      <trkpt lat="47.26059" lon="-2.32265">
        <ele>-6.1999998092651</ele>
        <time>2022-05-26T06:54:52.000Z</time>
      </trkpt>
      <trkpt lat="47.26054" lon="-2.32269">
        <ele>-6.1999998092651</ele>
        <time>2022-05-26T06:54:53.000Z</time>
      </trkpt>
      <trkpt lat="47.26039" lon="-2.32283">
        <ele>-6.1999998092651</ele>
        <time>2022-05-26T06:54:56.000Z</time>
      </trkpt>
      <trkpt lat="47.26031" lon="-2.32294">
        <ele>-6.1999998092651</ele>
        <time>2022-05-26T06:54:58.000Z</time>
      </trkpt>
      <trkpt lat="47.26015" lon="-2.32314">
        <ele>-6.1999998092651</ele>
        <time>2022-05-26T06:55:02.000Z</time>
      </trkpt>
      <trkpt lat="47.26004" lon="-2.32331">
        <ele>-6.1999998092651</ele>
        <time>2022-05-26T06:55:05.000Z</time>
      </trkpt>
      <trkpt lat="47.25972" lon="-2.32373">
        <ele>-6.1999998092651</ele>
        <time>2022-05-26T06:55:13.000Z</time>
      </trkpt>
      <trkpt lat="47.25947" lon="-2.32407">
        <ele>-6.1999998092651</ele>
        <time>2022-05-26T06:55:20.000Z</time>
      </trkpt>
      <trkpt lat="47.25926" lon="-2.32435">
        <ele>-6.1999998092651</ele>
        <time>2022-05-26T06:55:26.000Z</time>
      </trkpt>
      <trkpt lat="47.25914" lon="-2.32444">
        <ele>-6.1999998092651</ele>
        <time>2022-05-26T06:55:29.000Z</time>
      </trkpt>
      <trkpt lat="47.25904" lon="-2.3246">
        <ele>-6.1999998092651</ele>
        <time>2022-05-26T06:55:33.000Z</time>
      </trkpt>
      <trkpt lat="47.25903" lon="-2.32462">
        <ele>-6.1999998092651</ele>
        <time>2022-05-26T06:55:36.000Z</time>
      </trkpt>
      <trkpt lat="47.25906" lon="-2.32466">
        <ele>-6.1999998092651</ele>
        <time>2022-05-26T06:56:20.000Z</time>
      </trkpt>
      <trkpt lat="47.25913" lon="-2.32465">
        <ele>-6.1999998092651</ele>
        <time>2022-05-26T06:56:23.000Z</time>
      </trkpt>
      <trkpt lat="47.25916" lon="-2.32467">
        <ele>-6.1999998092651</ele>
        <time>2022-05-26T06:56:24.000Z</time>
      </trkpt>
      <trkpt lat="47.25924" lon="-2.32484">
        <ele>-6.1999998092651</ele>
        <time>2022-05-26T06:56:28.000Z</time>
      </trkpt>
      <trkpt lat="47.25931" lon="-2.3251">
        <ele>-6.1999998092651</ele>
        <time>2022-05-26T06:56:32.000Z</time>
      </trkpt>
      <trkpt lat="47.25944" lon="-2.32553">
        <ele>-6.1999998092651</ele>
        <time>2022-05-26T06:56:39.000Z</time>
      </trkpt>
      <trkpt lat="47.25945" lon="-2.3256">
        <ele>-6.1999998092651</ele>
        <time>2022-05-26T06:56:40.000Z</time>
      </trkpt>
      <trkpt lat="47.25948" lon="-2.32572">
        <ele>-6.1999998092651</ele>
        <time>2022-05-26T06:56:42.000Z</time>
      </trkpt>
      <trkpt lat="47.25953" lon="-2.32591">
        <ele>-6.1999998092651</ele>
        <time>2022-05-26T06:56:45.000Z</time>
      </trkpt>
      <trkpt lat="47.25962" lon="-2.32629">
        <ele>-6.1999998092651</ele>
        <time>2022-05-26T06:56:51.000Z</time>
      </trkpt>
      <trkpt lat="47.25963" lon="-2.32642">
        <ele>-6.1999998092651</ele>
        <time>2022-05-26T06:56:53.000Z</time>
      </trkpt>
      <trkpt lat="47.25968" lon="-2.32659">
        <ele>-6.1999998092651</ele>
        <time>2022-05-26T06:56:57.000Z</time>
      </trkpt>
      <trkpt lat="47.25978" lon="-2.32656">
        <ele>-6.1999998092651</ele>
        <time>2022-05-26T06:57:00.000Z</time>
      </trkpt>
      <trkpt lat="47.25986" lon="-2.32658">
        <ele>-6.1999998092651</ele>
        <time>2022-05-26T06:57:02.000Z</time>
      </trkpt>
      <trkpt lat="47.26" lon="-2.32657">
        <ele>-6.1999998092651</ele>
        <time>2022-05-26T06:57:05.000Z</time>
      </trkpt>
      <trkpt lat="47.26026" lon="-2.32653">
        <ele>-6.1999998092651</ele>
        <time>2022-05-26T06:57:11.000Z</time>
      </trkpt>
      <trkpt lat="47.2603" lon="-2.32653">
        <ele>-6.1999998092651</ele>
        <time>2022-05-26T06:57:12.000Z</time>
      </trkpt>
      <trkpt lat="47.26035" lon="-2.32652">
        <ele>-6.1999998092651</ele>
        <time>2022-05-26T06:57:13.000Z</time>
      </trkpt>
      <trkpt lat="47.26057" lon="-2.32646">
        <ele>-6.1999998092651</ele>
        <time>2022-05-26T06:57:18.000Z</time>
      </trkpt>
      <trkpt lat="47.26095" lon="-2.32639">
        <ele>-6.1999998092651</ele>
        <time>2022-05-26T06:57:27.000Z</time>
      </trkpt>
      <trkpt lat="47.2612" lon="-2.32638">
        <ele>-6.1999998092651</ele>
        <time>2022-05-26T06:57:33.000Z</time>
      </trkpt>
      <trkpt lat="47.26124" lon="-2.32639">
        <ele>-6.1999998092651</ele>
        <time>2022-05-26T06:57:34.000Z</time>
      </trkpt>
      <trkpt lat="47.26138" lon="-2.32641">
        <ele>-5.8000001907349</ele>
        <time>2022-05-26T06:57:37.000Z</time>
      </trkpt>
      <trkpt lat="47.26142" lon="-2.32642">
        <ele>-5.4000000953674</ele>
        <time>2022-05-26T06:57:38.000Z</time>
      </trkpt>
      <trkpt lat="47.26147" lon="-2.32644">
        <ele>-5</ele>
        <time>2022-05-26T06:57:39.000Z</time>
      </trkpt>
      <trkpt lat="47.26151" lon="-2.32646">
        <ele>-4.5999999046326</ele>
        <time>2022-05-26T06:57:40.000Z</time>
      </trkpt>
      <trkpt lat="47.26155" lon="-2.32648">
        <ele>-4.1999998092651</ele>
        <time>2022-05-26T06:57:41.000Z</time>
      </trkpt>
      <trkpt lat="47.26186" lon="-2.32667">
        <ele>-4.1999998092651</ele>
        <time>2022-05-26T06:57:48.000Z</time>
      </trkpt>
      <trkpt lat="47.26202" lon="-2.32682">
        <ele>-4.1999998092651</ele>
        <time>2022-05-26T06:57:52.000Z</time>
      </trkpt>
      <trkpt lat="47.26214" lon="-2.32695">
        <ele>-4.1999998092651</ele>
        <time>2022-05-26T06:57:55.000Z</time>
      </trkpt>
      <trkpt lat="47.26237" lon="-2.32729">
        <ele>-4.1999998092651</ele>
        <time>2022-05-26T06:58:01.000Z</time>
      </trkpt>
      <trkpt lat="47.26265" lon="-2.32772">
        <ele>-4.1999998092651</ele>
        <time>2022-05-26T06:58:08.000Z</time>
      </trkpt>
      <trkpt lat="47.26275" lon="-2.32791">
        <ele>-4.5999999046326</ele>
        <time>2022-05-26T06:58:11.000Z</time>
      </trkpt>
      <trkpt lat="47.26278" lon="-2.32799">
        <ele>-5</ele>
        <time>2022-05-26T06:58:12.000Z</time>
      </trkpt>
      <trkpt lat="47.26281" lon="-2.32805">
        <ele>-5.4000000953674</ele>
        <time>2022-05-26T06:58:13.000Z</time>
      </trkpt>
      <trkpt lat="47.26283" lon="-2.32812">
        <ele>-6</ele>
        <time>2022-05-26T06:58:14.000Z</time>
      </trkpt>
      <trkpt lat="47.26285" lon="-2.3282">
        <ele>-6.4000000953674</ele>
        <time>2022-05-26T06:58:15.000Z</time>
      </trkpt>
      <trkpt lat="47.26288" lon="-2.32835">
        <ele>-6.4000000953674</ele>
        <time>2022-05-26T06:58:17.000Z</time>
      </trkpt>
      <trkpt lat="47.26291" lon="-2.3285">
        <ele>-6.4000000953674</ele>
        <time>2022-05-26T06:58:19.000Z</time>
      </trkpt>
      <trkpt lat="47.26298" lon="-2.32861">
        <ele>-6.4000000953674</ele>
        <time>2022-05-26T06:58:21.000Z</time>
      </trkpt>
      <trkpt lat="47.26303" lon="-2.32862">
        <ele>-6.4000000953674</ele>
        <time>2022-05-26T06:58:22.000Z</time>
      </trkpt>
      <trkpt lat="47.26318" lon="-2.32869">
        <ele>-6.4000000953674</ele>
        <time>2022-05-26T06:58:25.000Z</time>
      </trkpt>
      <trkpt lat="47.2632" lon="-2.32875">
        <ele>-6.4000000953674</ele>
        <time>2022-05-26T06:58:26.000Z</time>
      </trkpt>
      <trkpt lat="47.26328" lon="-2.32903">
        <ele>-6.4000000953674</ele>
        <time>2022-05-26T06:58:30.000Z</time>
      </trkpt>
      <trkpt lat="47.26342" lon="-2.32952">
        <ele>-6.4000000953674</ele>
        <time>2022-05-26T06:58:37.000Z</time>
      </trkpt>
      <trkpt lat="47.26344" lon="-2.32959">
        <ele>-6.4000000953674</ele>
        <time>2022-05-26T06:58:38.000Z</time>
      </trkpt>
      <trkpt lat="47.26351" lon="-2.32971">
        <ele>-6.4000000953674</ele>
        <time>2022-05-26T06:58:40.000Z</time>
      </trkpt>
      <trkpt lat="47.26359" lon="-2.3298">
        <ele>-6.4000000953674</ele>
        <time>2022-05-26T06:58:42.000Z</time>
      </trkpt>
      <trkpt lat="47.26367" lon="-2.32999">
        <ele>-6.4000000953674</ele>
        <time>2022-05-26T06:58:45.000Z</time>
      </trkpt>
      <trkpt lat="47.26368" lon="-2.33013">
        <ele>-6.4000000953674</ele>
        <time>2022-05-26T06:58:47.000Z</time>
      </trkpt>
      <trkpt lat="47.2637" lon="-2.33043">
        <ele>-6.4000000953674</ele>
        <time>2022-05-26T06:58:51.000Z</time>
      </trkpt>
      <trkpt lat="47.26372" lon="-2.33104">
        <ele>-6.4000000953674</ele>
        <time>2022-05-26T06:58:59.000Z</time>
      </trkpt>
      <trkpt lat="47.26376" lon="-2.33177">
        <ele>-6.4000000953674</ele>
        <time>2022-05-26T06:59:09.000Z</time>
      </trkpt>
      <trkpt lat="47.2638" lon="-2.33235">
        <ele>-6.4000000953674</ele>
        <time>2022-05-26T06:59:17.000Z</time>
      </trkpt>
      <trkpt lat="47.26382" lon="-2.33249">
        <ele>-6.4000000953674</ele>
        <time>2022-05-26T06:59:19.000Z</time>
      </trkpt>
      <trkpt lat="47.26388" lon="-2.3326">
        <ele>-6.4000000953674</ele>
        <time>2022-05-26T06:59:21.000Z</time>
      </trkpt>
      <trkpt lat="47.26408" lon="-2.33267">
        <ele>-6.4000000953674</ele>
        <time>2022-05-26T06:59:25.000Z</time>
      </trkpt>
      <trkpt lat="47.26443" lon="-2.3327">
        <ele>-6.4000000953674</ele>
        <time>2022-05-26T06:59:32.000Z</time>
      </trkpt>
      <trkpt lat="47.26462" lon="-2.33273">
        <ele>-6.4000000953674</ele>
        <time>2022-05-26T06:59:36.000Z</time>
      </trkpt>
      <trkpt lat="47.2647" lon="-2.33274">
        <ele>-6.4000000953674</ele>
        <time>2022-05-26T06:59:38.000Z</time>
      </trkpt>
      <trkpt lat="47.26503" lon="-2.33282">
        <ele>-6.4000000953674</ele>
        <time>2022-05-26T06:59:46.000Z</time>
      </trkpt>
      <trkpt lat="47.26522" lon="-2.33298">
        <ele>-6.4000000953674</ele>
        <time>2022-05-26T06:59:51.000Z</time>
      </trkpt>
      <trkpt lat="47.26527" lon="-2.33315">
        <ele>-6.4000000953674</ele>
        <time>2022-05-26T06:59:54.000Z</time>
      </trkpt>
      <trkpt lat="47.26527" lon="-2.33351">
        <ele>-6.4000000953674</ele>
        <time>2022-05-26T06:59:59.000Z</time>
      </trkpt>
      <trkpt lat="47.2653" lon="-2.33366">
        <ele>-6.4000000953674</ele>
        <time>2022-05-26T07:00:01.000Z</time>
      </trkpt>
      <trkpt lat="47.26537" lon="-2.33393">
        <ele>-6.4000000953674</ele>
        <time>2022-05-26T07:00:05.000Z</time>
      </trkpt>
      <trkpt lat="47.26543" lon="-2.3342">
        <ele>-6.4000000953674</ele>
        <time>2022-05-26T07:00:09.000Z</time>
      </trkpt>
      <trkpt lat="47.26548" lon="-2.33448">
        <ele>-6.4000000953674</ele>
        <time>2022-05-26T07:00:13.000Z</time>
      </trkpt>
      <trkpt lat="47.26555" lon="-2.33499">
        <ele>-6.4000000953674</ele>
        <time>2022-05-26T07:00:20.000Z</time>
      </trkpt>
      <trkpt lat="47.2656" lon="-2.33533">
        <ele>-6.4000000953674</ele>
        <time>2022-05-26T07:00:25.000Z</time>
      </trkpt>
      <trkpt lat="47.26561" lon="-2.3354">
        <ele>-6.4000000953674</ele>
        <time>2022-05-26T07:00:26.000Z</time>
      </trkpt>
      <trkpt lat="47.26567" lon="-2.33596">
        <ele>-6.4000000953674</ele>
        <time>2022-05-26T07:00:34.000Z</time>
      </trkpt>
      <trkpt lat="47.26575" lon="-2.33647">
        <ele>-6.4000000953674</ele>
        <time>2022-05-26T07:00:42.000Z</time>
      </trkpt>
      <trkpt lat="47.26582" lon="-2.33671">
        <ele>-5.8000001907349</ele>
        <time>2022-05-26T07:00:47.000Z</time>
      </trkpt>
      <trkpt lat="47.26584" lon="-2.33675">
        <ele>-5.4000000953674</ele>
        <time>2022-05-26T07:00:48.000Z</time>
      </trkpt>
      <trkpt lat="47.26587" lon="-2.3368">
        <ele>-5</ele>
        <time>2022-05-26T07:00:49.000Z</time>
      </trkpt>
      <trkpt lat="47.26589" lon="-2.33685">
        <ele>-4.5999999046326</ele>
        <time>2022-05-26T07:00:50.000Z</time>
      </trkpt>
      <trkpt lat="47.26592" lon="-2.33689">
        <ele>-4.1999998092651</ele>
        <time>2022-05-26T07:00:51.000Z</time>
      </trkpt>
      <trkpt lat="47.26595" lon="-2.33693">
        <ele>-4.1999998092651</ele>
        <time>2022-05-26T07:00:52.000Z</time>
      </trkpt>
      <trkpt lat="47.26614" lon="-2.33718">
        <ele>-4.1999998092651</ele>
        <time>2022-05-26T07:00:58.000Z</time>
      </trkpt>
      <trkpt lat="47.26629" lon="-2.33742">
        <ele>-4.1999998092651</ele>
        <time>2022-05-26T07:01:03.000Z</time>
      </trkpt>
      <trkpt lat="47.26651" lon="-2.33775">
        <ele>-4.1999998092651</ele>
        <time>2022-05-26T07:01:10.000Z</time>
      </trkpt>
      <trkpt lat="47.26657" lon="-2.33784">
        <ele>-4.1999998092651</ele>
        <time>2022-05-26T07:01:12.000Z</time>
      </trkpt>
      <trkpt lat="47.26668" lon="-2.33797">
        <ele>-4.1999998092651</ele>
        <time>2022-05-26T07:01:15.000Z</time>
      </trkpt>
      <trkpt lat="47.26671" lon="-2.33802">
        <ele>-4.1999998092651</ele>
        <time>2022-05-26T07:01:16.000Z</time>
      </trkpt>
      <trkpt lat="47.26691" lon="-2.33839">
        <ele>-4.1999998092651</ele>
        <time>2022-05-26T07:01:23.000Z</time>
      </trkpt>
      <trkpt lat="47.26713" lon="-2.33871">
        <ele>-4.1999998092651</ele>
        <time>2022-05-26T07:01:30.000Z</time>
      </trkpt>
      <trkpt lat="47.26715" lon="-2.33876">
        <ele>-3.7999999523163</ele>
        <time>2022-05-26T07:01:31.000Z</time>
      </trkpt>
      <trkpt lat="47.26718" lon="-2.33881">
        <ele>-3</ele>
        <time>2022-05-26T07:01:32.000Z</time>
      </trkpt>
      <trkpt lat="47.26721" lon="-2.33886">
        <ele>-2.5999999046326</ele>
        <time>2022-05-26T07:01:33.000Z</time>
      </trkpt>
      <trkpt lat="47.26724" lon="-2.33892">
        <ele>-2.2000000476837</ele>
        <time>2022-05-26T07:01:34.000Z</time>
      </trkpt>
      <trkpt lat="47.26734" lon="-2.33907">
        <ele>-2.2000000476837</ele>
        <time>2022-05-26T07:01:37.000Z</time>
      </trkpt>
      <trkpt lat="47.2674" lon="-2.33917">
        <ele>-2.2000000476837</ele>
        <time>2022-05-26T07:01:39.000Z</time>
      </trkpt>
      <trkpt lat="47.26752" lon="-2.33936">
        <ele>-2.2000000476837</ele>
        <time>2022-05-26T07:01:43.000Z</time>
      </trkpt>
      <trkpt lat="47.26755" lon="-2.33941">
        <ele>-2.2000000476837</ele>
        <time>2022-05-26T07:01:44.000Z</time>
      </trkpt>
      <trkpt lat="47.26767" lon="-2.3396">
        <ele>-2.2000000476837</ele>
        <time>2022-05-26T07:01:48.000Z</time>
      </trkpt>
      <trkpt lat="47.26794" lon="-2.33999">
        <ele>-2.2000000476837</ele>
        <time>2022-05-26T07:01:56.000Z</time>
      </trkpt>
      <trkpt lat="47.26815" lon="-2.34033">
        <ele>-2.2000000476837</ele>
        <time>2022-05-26T07:02:03.000Z</time>
      </trkpt>
      <trkpt lat="47.26841" lon="-2.34072">
        <ele>-2.2000000476837</ele>
        <time>2022-05-26T07:02:11.000Z</time>
      </trkpt>
      <trkpt lat="47.26862" lon="-2.34108">
        <ele>-2.2000000476837</ele>
        <time>2022-05-26T07:02:18.000Z</time>
      </trkpt>
      <trkpt lat="47.26865" lon="-2.34113">
        <ele>-2.2000000476837</ele>
        <time>2022-05-26T07:02:19.000Z</time>
      </trkpt>
      <trkpt lat="47.26874" lon="-2.3413">
        <ele>-2.2000000476837</ele>
        <time>2022-05-26T07:02:22.000Z</time>
      </trkpt>
      <trkpt lat="47.26877" lon="-2.34135">
        <ele>-2.2000000476837</ele>
        <time>2022-05-26T07:02:23.000Z</time>
      </trkpt>
      <trkpt lat="47.26885" lon="-2.34144">
        <ele>-2.2000000476837</ele>
        <time>2022-05-26T07:02:25.000Z</time>
      </trkpt>
      <trkpt lat="47.26902" lon="-2.34171">
        <ele>-2.2000000476837</ele>
        <time>2022-05-26T07:02:30.000Z</time>
      </trkpt>
      <trkpt lat="47.26906" lon="-2.34176">
        <ele>-2.2000000476837</ele>
        <time>2022-05-26T07:02:31.000Z</time>
      </trkpt>
      <trkpt lat="47.26922" lon="-2.34203">
        <ele>-2.2000000476837</ele>
        <time>2022-05-26T07:02:36.000Z</time>
      </trkpt>
      <trkpt lat="47.26949" lon="-2.34244">
        <ele>-2.2000000476837</ele>
        <time>2022-05-26T07:02:44.000Z</time>
      </trkpt>
      <trkpt lat="47.26974" lon="-2.34285">
        <ele>-2.2000000476837</ele>
        <time>2022-05-26T07:02:52.000Z</time>
      </trkpt>
      <trkpt lat="47.26991" lon="-2.34314">
        <ele>-2.2000000476837</ele>
        <time>2022-05-26T07:02:58.000Z</time>
      </trkpt>
      <trkpt lat="47.27" lon="-2.34321">
        <ele>-2.2000000476837</ele>
        <time>2022-05-26T07:03:02.000Z</time>
      </trkpt>
      <trkpt lat="47.27013" lon="-2.34323">
        <ele>-2.2000000476837</ele>
        <time>2022-05-26T07:03:06.000Z</time>
      </trkpt>
      <trkpt lat="47.27036" lon="-2.34327">
        <ele>-2.2000000476837</ele>
        <time>2022-05-26T07:03:12.000Z</time>
      </trkpt>
      <trkpt lat="47.27042" lon="-2.34344">
        <ele>-2.2000000476837</ele>
        <time>2022-05-26T07:03:15.000Z</time>
      </trkpt>
      <trkpt lat="47.27044" lon="-2.3435">
        <ele>-2.2000000476837</ele>
        <time>2022-05-26T07:03:16.000Z</time>
      </trkpt>
      <trkpt lat="47.27053" lon="-2.3439">
        <ele>-2.2000000476837</ele>
        <time>2022-05-26T07:03:22.000Z</time>
      </trkpt>
      <trkpt lat="47.27064" lon="-2.34435">
        <ele>-2.2000000476837</ele>
        <time>2022-05-26T07:03:29.000Z</time>
      </trkpt>
      <trkpt lat="47.27074" lon="-2.34481">
        <ele>-2.2000000476837</ele>
        <time>2022-05-26T07:03:36.000Z</time>
      </trkpt>
      <trkpt lat="47.27085" lon="-2.34533">
        <ele>-2.2000000476837</ele>
        <time>2022-05-26T07:03:44.000Z</time>
      </trkpt>
      <trkpt lat="47.27088" lon="-2.34546">
        <ele>-1.7999999523163</ele>
        <time>2022-05-26T07:03:46.000Z</time>
      </trkpt>
      <trkpt lat="47.2709" lon="-2.34552">
        <ele>-1.3999999761581</ele>
        <time>2022-05-26T07:03:47.000Z</time>
      </trkpt>
      <trkpt lat="47.27091" lon="-2.34558">
        <ele>-1</ele>
        <time>2022-05-26T07:03:48.000Z</time>
      </trkpt>
      <trkpt lat="47.27093" lon="-2.34565">
        <ele>-0.60000002384186</ele>
        <time>2022-05-26T07:03:49.000Z</time>
      </trkpt>
      <trkpt lat="47.27095" lon="-2.34572">
        <ele>-0.20000000298023</ele>
        <time>2022-05-26T07:03:50.000Z</time>
      </trkpt>
      <trkpt lat="47.27097" lon="-2.34578">
        <ele>-0.20000000298023</ele>
        <time>2022-05-26T07:03:51.000Z</time>
      </trkpt>
      <trkpt lat="47.27109" lon="-2.3463">
        <ele>-0.20000000298023</ele>
        <time>2022-05-26T07:03:58.000Z</time>
      </trkpt>
      <trkpt lat="47.2712" lon="-2.34677">
        <ele>-0.20000000298023</ele>
        <time>2022-05-26T07:04:04.000Z</time>
      </trkpt>
      <trkpt lat="47.27135" lon="-2.34745">
        <ele>-0.20000000298023</ele>
        <time>2022-05-26T07:04:13.000Z</time>
      </trkpt>
      <trkpt lat="47.27147" lon="-2.34803">
        <ele>-0.20000000298023</ele>
        <time>2022-05-26T07:04:21.000Z</time>
      </trkpt>
      <trkpt lat="47.27158" lon="-2.34854">
        <ele>-0.20000000298023</ele>
        <time>2022-05-26T07:04:28.000Z</time>
      </trkpt>
      <trkpt lat="47.2717" lon="-2.34904">
        <ele>-0.20000000298023</ele>
        <time>2022-05-26T07:04:35.000Z</time>
      </trkpt>
      <trkpt lat="47.27191" lon="-2.34964">
        <ele>-0.20000000298023</ele>
        <time>2022-05-26T07:04:44.000Z</time>
      </trkpt>
      <trkpt lat="47.27212" lon="-2.35024">
        <ele>-0.20000000298023</ele>
        <time>2022-05-26T07:04:53.000Z</time>
      </trkpt>
      <trkpt lat="47.27227" lon="-2.35065">
        <ele>-0.20000000298023</ele>
        <time>2022-05-26T07:04:59.000Z</time>
      </trkpt>
      <trkpt lat="47.27235" lon="-2.35085">
        <ele>-0.20000000298023</ele>
        <time>2022-05-26T07:05:02.000Z</time>
      </trkpt>
      <trkpt lat="47.27244" lon="-2.35103">
        <ele>-0.20000000298023</ele>
        <time>2022-05-26T07:05:05.000Z</time>
      </trkpt>
      <trkpt lat="47.27258" lon="-2.35124">
        <ele>-0.20000000298023</ele>
        <time>2022-05-26T07:05:10.000Z</time>
      </trkpt>
      <trkpt lat="47.27271" lon="-2.35116">
        <ele>-0.20000000298023</ele>
        <time>2022-05-26T07:05:14.000Z</time>
      </trkpt>
      <trkpt lat="47.2728" lon="-2.35111">
        <ele>0.20000000298023</ele>
        <time>2022-05-26T07:05:17.000Z</time>
      </trkpt>
      <trkpt lat="47.27283" lon="-2.3511">
        <ele>0.60000002384186</ele>
        <time>2022-05-26T07:05:18.000Z</time>
      </trkpt>
      <trkpt lat="47.27286" lon="-2.35109">
        <ele>1</ele>
        <time>2022-05-26T07:05:19.000Z</time>
      </trkpt>
      <trkpt lat="47.27289" lon="-2.35108">
        <ele>1.3999999761581</ele>
        <time>2022-05-26T07:05:20.000Z</time>
      </trkpt>
      <trkpt lat="47.27292" lon="-2.35106">
        <ele>1.7999999523163</ele>
        <time>2022-05-26T07:05:21.000Z</time>
      </trkpt>
      <trkpt lat="47.2731" lon="-2.35094">
        <ele>1.7999999523163</ele>
        <time>2022-05-26T07:05:27.000Z</time>
      </trkpt>
      <trkpt lat="47.2732" lon="-2.35089">
        <ele>1.7999999523163</ele>
        <time>2022-05-26T07:05:30.000Z</time>
      </trkpt>
      <trkpt lat="47.27323" lon="-2.35087">
        <ele>2.4000000953674</ele>
        <time>2022-05-26T07:05:31.000Z</time>
      </trkpt>
      <trkpt lat="47.27327" lon="-2.35085">
        <ele>2.7999999523163</ele>
        <time>2022-05-26T07:05:32.000Z</time>
      </trkpt>
      <trkpt lat="47.2733" lon="-2.35084">
        <ele>3.2000000476837</ele>
        <time>2022-05-26T07:05:33.000Z</time>
      </trkpt>
      <trkpt lat="47.27333" lon="-2.35082">
        <ele>3.5999999046326</ele>
        <time>2022-05-26T07:05:34.000Z</time>
      </trkpt>
      <trkpt lat="47.27336" lon="-2.35081">
        <ele>4.1999998092651</ele>
        <time>2022-05-26T07:05:35.000Z</time>
      </trkpt>
      <trkpt lat="47.2735" lon="-2.35074">
        <ele>5</ele>
        <time>2022-05-26T07:05:39.000Z</time>
      </trkpt>
      <trkpt lat="47.27354" lon="-2.35072">
        <ele>5.4000000953674</ele>
        <time>2022-05-26T07:05:40.000Z</time>
      </trkpt>
      <trkpt lat="47.27357" lon="-2.3507">
        <ele>5.8000001907349</ele>
        <time>2022-05-26T07:05:41.000Z</time>
      </trkpt>
      <trkpt lat="47.27359" lon="-2.35068">
        <ele>6.1999998092651</ele>
        <time>2022-05-26T07:05:42.000Z</time>
      </trkpt>
      <trkpt lat="47.27372" lon="-2.35061">
        <ele>6.1999998092651</ele>
        <time>2022-05-26T07:05:46.000Z</time>
      </trkpt>
      <trkpt lat="47.27388" lon="-2.35053">
        <ele>6.5999999046326</ele>
        <time>2022-05-26T07:05:51.000Z</time>
      </trkpt>
      <trkpt lat="47.27391" lon="-2.35054">
        <ele>7</ele>
        <time>2022-05-26T07:05:52.000Z</time>
      </trkpt>
      <trkpt lat="47.27395" lon="-2.35055">
        <ele>7.5999999046326</ele>
        <time>2022-05-26T07:05:53.000Z</time>
      </trkpt>
      <trkpt lat="47.27397" lon="-2.35057">
        <ele>8</ele>
        <time>2022-05-26T07:05:54.000Z</time>
      </trkpt>
      <trkpt lat="47.27399" lon="-2.3506">
        <ele>8.3999996185303</ele>
        <time>2022-05-26T07:05:55.000Z</time>
      </trkpt>
      <trkpt lat="47.27407" lon="-2.35086">
        <ele>8.3999996185303</ele>
        <time>2022-05-26T07:06:00.000Z</time>
      </trkpt>
      <trkpt lat="47.27417" lon="-2.35127">
        <ele>8.3999996185303</ele>
        <time>2022-05-26T07:06:07.000Z</time>
      </trkpt>
      <trkpt lat="47.27428" lon="-2.35165">
        <ele>8.3999996185303</ele>
        <time>2022-05-26T07:06:14.000Z</time>
      </trkpt>
      <trkpt lat="47.27435" lon="-2.35174">
        <ele>8.3999996185303</ele>
        <time>2022-05-26T07:06:17.000Z</time>
      </trkpt>
      <trkpt lat="47.27441" lon="-2.35173">
        <ele>8.3999996185303</ele>
        <time>2022-05-26T07:06:19.000Z</time>
      </trkpt>
      <trkpt lat="47.27449" lon="-2.35168">
        <ele>8.3999996185303</ele>
        <time>2022-05-26T07:06:21.000Z</time>
      </trkpt>
      <trkpt lat="47.27453" lon="-2.35166">
        <ele>8.3999996185303</ele>
        <time>2022-05-26T07:06:22.000Z</time>
      </trkpt>
      <trkpt lat="47.27469" lon="-2.35155">
        <ele>8.3999996185303</ele>
        <time>2022-05-26T07:06:27.000Z</time>
      </trkpt>
      <trkpt lat="47.27473" lon="-2.35153">
        <ele>8.8000001907349</ele>
        <time>2022-05-26T07:06:28.000Z</time>
      </trkpt>
      <trkpt lat="47.27476" lon="-2.35151">
        <ele>9.6000003814697</ele>
        <time>2022-05-26T07:06:29.000Z</time>
      </trkpt>
      <trkpt lat="47.27479" lon="-2.35149">
        <ele>10</ele>
        <time>2022-05-26T07:06:30.000Z</time>
      </trkpt>
      <trkpt lat="47.27483" lon="-2.35147">
        <ele>10.39999961853</ele>
        <time>2022-05-26T07:06:31.000Z</time>
      </trkpt>
      <trkpt lat="47.27496" lon="-2.35139">
        <ele>10.39999961853</ele>
        <time>2022-05-26T07:06:35.000Z</time>
      </trkpt>
      <trkpt lat="47.27499" lon="-2.35135">
        <ele>10.39999961853</ele>
        <time>2022-05-26T07:06:36.000Z</time>
      </trkpt>
      <trkpt lat="47.27504" lon="-2.35129">
        <ele>10.39999961853</ele>
        <time>2022-05-26T07:06:38.000Z</time>
      </trkpt>
      <trkpt lat="47.27514" lon="-2.35131">
        <ele>10.39999961853</ele>
        <time>2022-05-26T07:06:41.000Z</time>
      </trkpt>
      <trkpt lat="47.27521" lon="-2.35133">
        <ele>10.39999961853</ele>
        <time>2022-05-26T07:06:43.000Z</time>
      </trkpt>
      <trkpt lat="47.27541" lon="-2.35138">
        <ele>10.39999961853</ele>
        <time>2022-05-26T07:06:48.000Z</time>
      </trkpt>
      <trkpt lat="47.27571" lon="-2.35133">
        <ele>10.39999961853</ele>
        <time>2022-05-26T07:06:55.000Z</time>
      </trkpt>
      <trkpt lat="47.27598" lon="-2.35131">
        <ele>10.39999961853</ele>
        <time>2022-05-26T07:07:01.000Z</time>
      </trkpt>
      <trkpt lat="47.27603" lon="-2.35135">
        <ele>10.39999961853</ele>
        <time>2022-05-26T07:07:02.000Z</time>
      </trkpt>
      <trkpt lat="47.27609" lon="-2.35155">
        <ele>10.39999961853</ele>
        <time>2022-05-26T07:07:05.000Z</time>
      </trkpt>
      <trkpt lat="47.27616" lon="-2.35173">
        <ele>10.39999961853</ele>
        <time>2022-05-26T07:07:08.000Z</time>
      </trkpt>
      <trkpt lat="47.27631" lon="-2.35177">
        <ele>10.39999961853</ele>
        <time>2022-05-26T07:07:11.000Z</time>
      </trkpt>
      <trkpt lat="47.27641" lon="-2.35174">
        <ele>10.39999961853</ele>
        <time>2022-05-26T07:07:13.000Z</time>
      </trkpt>
      <trkpt lat="47.27646" lon="-2.35173">
        <ele>10.39999961853</ele>
        <time>2022-05-26T07:07:14.000Z</time>
      </trkpt>
      <trkpt lat="47.27662" lon="-2.35171">
        <ele>10.39999961853</ele>
        <time>2022-05-26T07:07:17.000Z</time>
      </trkpt>
      <trkpt lat="47.27666" lon="-2.35171">
        <ele>10.39999961853</ele>
        <time>2022-05-26T07:07:18.000Z</time>
      </trkpt>
      <trkpt lat="47.27672" lon="-2.35179">
        <ele>10.39999961853</ele>
        <time>2022-05-26T07:07:20.000Z</time>
      </trkpt>
      <trkpt lat="47.27674" lon="-2.352">
        <ele>10.39999961853</ele>
        <time>2022-05-26T07:07:23.000Z</time>
      </trkpt>
      <trkpt lat="47.27675" lon="-2.35214">
        <ele>10</ele>
        <time>2022-05-26T07:07:25.000Z</time>
      </trkpt>
      <trkpt lat="47.27677" lon="-2.35218">
        <ele>9.6000003814697</ele>
        <time>2022-05-26T07:07:26.000Z</time>
      </trkpt>
      <trkpt lat="47.27679" lon="-2.35221">
        <ele>9.1999998092651</ele>
        <time>2022-05-26T07:07:27.000Z</time>
      </trkpt>
      <trkpt lat="47.27682" lon="-2.35222">
        <ele>8.8000001907349</ele>
        <time>2022-05-26T07:07:28.000Z</time>
      </trkpt>
      <trkpt lat="47.27686" lon="-2.35221">
        <ele>8.3999996185303</ele>
        <time>2022-05-26T07:07:29.000Z</time>
      </trkpt>
      <trkpt lat="47.2769" lon="-2.3522">
        <ele>8.3999996185303</ele>
        <time>2022-05-26T07:07:30.000Z</time>
      </trkpt>
      <trkpt lat="47.27695" lon="-2.35219">
        <ele>8.3999996185303</ele>
        <time>2022-05-26T07:07:31.000Z</time>
      </trkpt>
      <trkpt lat="47.27719" lon="-2.35212">
        <ele>8.3999996185303</ele>
        <time>2022-05-26T07:07:36.000Z</time>
      </trkpt>
      <trkpt lat="47.27741" lon="-2.35206">
        <ele>7.8000001907349</ele>
        <time>2022-05-26T07:07:40.000Z</time>
      </trkpt>
      <trkpt lat="47.27746" lon="-2.35204">
        <ele>7.4000000953674</ele>
        <time>2022-05-26T07:07:41.000Z</time>
      </trkpt>
      <trkpt lat="47.27751" lon="-2.35202">
        <ele>7</ele>
        <time>2022-05-26T07:07:42.000Z</time>
      </trkpt>
      <trkpt lat="47.27757" lon="-2.35201">
        <ele>6.1999998092651</ele>
        <time>2022-05-26T07:07:43.000Z</time>
      </trkpt>
      <trkpt lat="47.27772" lon="-2.35202">
        <ele>6.1999998092651</ele>
        <time>2022-05-26T07:07:47.000Z</time>
      </trkpt>
      <trkpt lat="47.27777" lon="-2.35222">
        <ele>6.1999998092651</ele>
        <time>2022-05-26T07:07:51.000Z</time>
      </trkpt>
      <trkpt lat="47.27778" lon="-2.35229">
        <ele>6.1999998092651</ele>
        <time>2022-05-26T07:07:52.000Z</time>
      </trkpt>
      <trkpt lat="47.27785" lon="-2.35264">
        <ele>6.1999998092651</ele>
        <time>2022-05-26T07:07:57.000Z</time>
      </trkpt>
      <trkpt lat="47.27796" lon="-2.35315">
        <ele>6.1999998092651</ele>
        <time>2022-05-26T07:08:04.000Z</time>
      </trkpt>
      <trkpt lat="47.27805" lon="-2.35349">
        <ele>6.1999998092651</ele>
        <time>2022-05-26T07:08:09.000Z</time>
      </trkpt>
      <trkpt lat="47.27813" lon="-2.35359">
        <ele>6.1999998092651</ele>
        <time>2022-05-26T07:08:11.000Z</time>
      </trkpt>
      <trkpt lat="47.27831" lon="-2.35363">
        <ele>6.1999998092651</ele>
        <time>2022-05-26T07:08:15.000Z</time>
      </trkpt>
      <trkpt lat="47.2784" lon="-2.3536">
        <ele>6.1999998092651</ele>
        <time>2022-05-26T07:08:17.000Z</time>
      </trkpt>
      <trkpt lat="47.27854" lon="-2.3536">
        <ele>6.1999998092651</ele>
        <time>2022-05-26T07:08:20.000Z</time>
      </trkpt>
      <trkpt lat="47.27878" lon="-2.35367">
        <ele>6.1999998092651</ele>
        <time>2022-05-26T07:08:26.000Z</time>
      </trkpt>
      <trkpt lat="47.27892" lon="-2.35383">
        <ele>6.1999998092651</ele>
        <time>2022-05-26T07:08:30.000Z</time>
      </trkpt>
      <trkpt lat="47.27895" lon="-2.35388">
        <ele>6.1999998092651</ele>
        <time>2022-05-26T07:08:31.000Z</time>
      </trkpt>
      <trkpt lat="47.27923" lon="-2.35425">
        <ele>6.1999998092651</ele>
        <time>2022-05-26T07:08:39.000Z</time>
      </trkpt>
      <trkpt lat="47.27953" lon="-2.35456">
        <ele>6.1999998092651</ele>
        <time>2022-05-26T07:08:47.000Z</time>
      </trkpt>
      <trkpt lat="47.27969" lon="-2.35466">
        <ele>6.1999998092651</ele>
        <time>2022-05-26T07:08:51.000Z</time>
      </trkpt>
      <trkpt lat="47.27977" lon="-2.35474">
        <ele>6.1999998092651</ele>
        <time>2022-05-26T07:08:53.000Z</time>
      </trkpt>
      <trkpt lat="47.27983" lon="-2.35486">
        <ele>6.1999998092651</ele>
        <time>2022-05-26T07:08:55.000Z</time>
      </trkpt>
      <trkpt lat="47.27991" lon="-2.35504">
        <ele>6.1999998092651</ele>
        <time>2022-05-26T07:08:58.000Z</time>
      </trkpt>
      <trkpt lat="47.27994" lon="-2.35509">
        <ele>6.1999998092651</ele>
        <time>2022-05-26T07:08:59.000Z</time>
      </trkpt>
      <trkpt lat="47.28002" lon="-2.35528">
        <ele>6.1999998092651</ele>
        <time>2022-05-26T07:09:03.000Z</time>
      </trkpt>
      <trkpt lat="47.28009" lon="-2.35551">
        <ele>6.1999998092651</ele>
        <time>2022-05-26T07:09:09.000Z</time>
      </trkpt>
      <trkpt lat="47.28013" lon="-2.35562">
        <ele>6.5999999046326</ele>
        <time>2022-05-26T07:09:12.000Z</time>
      </trkpt>
      <trkpt lat="47.28013" lon="-2.35566">
        <ele>7</ele>
        <time>2022-05-26T07:09:13.000Z</time>
      </trkpt>
      <trkpt lat="47.28015" lon="-2.3557">
        <ele>7.4000000953674</ele>
        <time>2022-05-26T07:09:14.000Z</time>
      </trkpt>
      <trkpt lat="47.28017" lon="-2.35573">
        <ele>7.8000001907349</ele>
        <time>2022-05-26T07:09:15.000Z</time>
      </trkpt>
      <trkpt lat="47.28019" lon="-2.35575">
        <ele>8.1999998092651</ele>
        <time>2022-05-26T07:09:16.000Z</time>
      </trkpt>
      <trkpt lat="47.28025" lon="-2.35575">
        <ele>8.1999998092651</ele>
        <time>2022-05-26T07:09:18.000Z</time>
      </trkpt>
      <trkpt lat="47.28043" lon="-2.35579">
        <ele>8.1999998092651</ele>
        <time>2022-05-26T07:09:23.000Z</time>
      </trkpt>
      <trkpt lat="47.28062" lon="-2.35583">
        <ele>8.1999998092651</ele>
        <time>2022-05-26T07:09:29.000Z</time>
      </trkpt>
      <trkpt lat="47.2807" lon="-2.35586">
        <ele>8.1999998092651</ele>
        <time>2022-05-26T07:09:34.000Z</time>
      </trkpt>
      <trkpt lat="47.2807" lon="-2.35586">
        <ele>8.1999998092651</ele>
        <time>2022-05-26T07:09:35.000Z</time>
      </trkpt>
      <trkpt lat="47.28075" lon="-2.35595">
        <ele>10.199999809265</ele>
        <time>2022-05-26T07:12:35.000Z</time>
      </trkpt>
      <trkpt lat="47.28076" lon="-2.35596">
        <ele>10.199999809265</ele>
        <time>2022-05-26T07:12:36.000Z</time>
      </trkpt>
      <trkpt lat="47.28077" lon="-2.35598">
        <ele>10.199999809265</ele>
        <time>2022-05-26T07:12:37.000Z</time>
      </trkpt>
      <trkpt lat="47.28079" lon="-2.3561">
        <ele>10.199999809265</ele>
        <time>2022-05-26T07:12:41.000Z</time>
      </trkpt>
      <trkpt lat="47.28079" lon="-2.35617">
        <ele>10.199999809265</ele>
        <time>2022-05-26T07:12:43.000Z</time>
      </trkpt>
      <trkpt lat="47.28078" lon="-2.35631">
        <ele>10.199999809265</ele>
        <time>2022-05-26T07:12:48.000Z</time>
      </trkpt>
      <trkpt lat="47.28079" lon="-2.35635">
        <ele>10.60000038147</ele>
        <time>2022-05-26T07:12:49.000Z</time>
      </trkpt>
      <trkpt lat="47.28079" lon="-2.35638">
        <ele>11</ele>
        <time>2022-05-26T07:12:50.000Z</time>
      </trkpt>
      <trkpt lat="47.28079" lon="-2.3564">
        <ele>11.39999961853</ele>
        <time>2022-05-26T07:12:51.000Z</time>
      </trkpt>
      <trkpt lat="47.28079" lon="-2.35643">
        <ele>11.800000190735</ele>
        <time>2022-05-26T07:12:52.000Z</time>
      </trkpt>
      <trkpt lat="47.2808" lon="-2.35646">
        <ele>12.199999809265</ele>
        <time>2022-05-26T07:12:53.000Z</time>
      </trkpt>
      <trkpt lat="47.28081" lon="-2.35649">
        <ele>12.199999809265</ele>
        <time>2022-05-26T07:12:54.000Z</time>
      </trkpt>
      <trkpt lat="47.28082" lon="-2.35655">
        <ele>12.60000038147</ele>
        <time>2022-05-26T07:12:56.000Z</time>
      </trkpt>
      <trkpt lat="47.28083" lon="-2.35659">
        <ele>13.199999809265</ele>
        <time>2022-05-26T07:12:57.000Z</time>
      </trkpt>
      <trkpt lat="47.28083" lon="-2.35662">
        <ele>13.60000038147</ele>
        <time>2022-05-26T07:12:58.000Z</time>
      </trkpt>
      <trkpt lat="47.28084" lon="-2.35666">
        <ele>14</ele>
        <time>2022-05-26T07:12:59.000Z</time>
      </trkpt>
      <trkpt lat="47.28085" lon="-2.3567">
        <ele>14.39999961853</ele>
        <time>2022-05-26T07:13:00.000Z</time>
      </trkpt>
      <trkpt lat="47.28091" lon="-2.35689">
        <ele>14.39999961853</ele>
        <time>2022-05-26T07:13:06.000Z</time>
      </trkpt>
      <trkpt lat="47.28091" lon="-2.35695">
        <ele>14.800000190735</ele>
        <time>2022-05-26T07:13:08.000Z</time>
      </trkpt>
      <trkpt lat="47.28092" lon="-2.35698">
        <ele>15.39999961853</ele>
        <time>2022-05-26T07:13:09.000Z</time>
      </trkpt>
      <trkpt lat="47.28092" lon="-2.35701">
        <ele>15.800000190735</ele>
        <time>2022-05-26T07:13:10.000Z</time>
      </trkpt>
      <trkpt lat="47.28093" lon="-2.35704">
        <ele>16.200000762939</ele>
        <time>2022-05-26T07:13:11.000Z</time>
      </trkpt>
      <trkpt lat="47.28093" lon="-2.35708">
        <ele>16.60000038147</ele>
        <time>2022-05-26T07:13:12.000Z</time>
      </trkpt>
      <trkpt lat="47.28093" lon="-2.35711">
        <ele>16.60000038147</ele>
        <time>2022-05-26T07:13:13.000Z</time>
      </trkpt>
      <trkpt lat="47.28088" lon="-2.35734">
        <ele>16.60000038147</ele>
        <time>2022-05-26T07:13:18.000Z</time>
      </trkpt>
      <trkpt lat="47.28084" lon="-2.35752">
        <ele>16.60000038147</ele>
        <time>2022-05-26T07:13:21.000Z</time>
      </trkpt>
      <trkpt lat="47.28081" lon="-2.35767">
        <ele>16.60000038147</ele>
        <time>2022-05-26T07:13:23.000Z</time>
      </trkpt>
      <trkpt lat="47.28076" lon="-2.35785">
        <ele>16.200000762939</ele>
        <time>2022-05-26T07:13:26.000Z</time>
      </trkpt>
      <trkpt lat="47.28075" lon="-2.3579">
        <ele>15.800000190735</ele>
        <time>2022-05-26T07:13:27.000Z</time>
      </trkpt>
      <trkpt lat="47.28075" lon="-2.35796">
        <ele>14.800000190735</ele>
        <time>2022-05-26T07:13:28.000Z</time>
      </trkpt>
      <trkpt lat="47.28077" lon="-2.358">
        <ele>14.39999961853</ele>
        <time>2022-05-26T07:13:29.000Z</time>
      </trkpt>
      <trkpt lat="47.28082" lon="-2.35804">
        <ele>14</ele>
        <time>2022-05-26T07:13:31.000Z</time>
      </trkpt>
      <trkpt lat="47.28086" lon="-2.35802">
        <ele>13.60000038147</ele>
        <time>2022-05-26T07:13:32.000Z</time>
      </trkpt>
      <trkpt lat="47.28089" lon="-2.35799">
        <ele>13.199999809265</ele>
        <time>2022-05-26T07:13:33.000Z</time>
      </trkpt>
      <trkpt lat="47.28092" lon="-2.35797">
        <ele>12.60000038147</ele>
        <time>2022-05-26T07:13:34.000Z</time>
      </trkpt>
      <trkpt lat="47.28094" lon="-2.35794">
        <ele>12.199999809265</ele>
        <time>2022-05-26T07:13:35.000Z</time>
      </trkpt>
      <trkpt lat="47.28103" lon="-2.35773">
        <ele>12.199999809265</ele>
        <time>2022-05-26T07:13:40.000Z</time>
      </trkpt>
      <trkpt lat="47.28114" lon="-2.35749">
        <ele>12.199999809265</ele>
        <time>2022-05-26T07:13:46.000Z</time>
      </trkpt>
      <trkpt lat="47.28129" lon="-2.35743">
        <ele>12.199999809265</ele>
        <time>2022-05-26T07:13:51.000Z</time>
      </trkpt>
      <trkpt lat="47.28137" lon="-2.35743">
        <ele>12.199999809265</ele>
        <time>2022-05-26T07:13:54.000Z</time>
      </trkpt>
      <trkpt lat="47.28141" lon="-2.35747">
        <ele>12.199999809265</ele>
        <time>2022-05-26T07:13:56.000Z</time>
      </trkpt>
      <trkpt lat="47.28152" lon="-2.3576">
        <ele>12.199999809265</ele>
        <time>2022-05-26T07:14:01.000Z</time>
      </trkpt>
      <trkpt lat="47.28157" lon="-2.35771">
        <ele>12.60000038147</ele>
        <time>2022-05-26T07:14:06.000Z</time>
      </trkpt>
      <trkpt lat="47.28157" lon="-2.35773">
        <ele>13</ele>
        <time>2022-05-26T07:14:07.000Z</time>
      </trkpt>
      <trkpt lat="47.28157" lon="-2.35775">
        <ele>13.39999961853</ele>
        <time>2022-05-26T07:14:08.000Z</time>
      </trkpt>
      <trkpt lat="47.28158" lon="-2.35777">
        <ele>13.800000190735</ele>
        <time>2022-05-26T07:14:09.000Z</time>
      </trkpt>
      <trkpt lat="47.2816" lon="-2.35779">
        <ele>14.199999809265</ele>
        <time>2022-05-26T07:14:10.000Z</time>
      </trkpt>
      <trkpt lat="47.28165" lon="-2.35786">
        <ele>14.199999809265</ele>
        <time>2022-05-26T07:14:13.000Z</time>
      </trkpt>
      <trkpt lat="47.28166" lon="-2.35789">
        <ele>14.199999809265</ele>
        <time>2022-05-26T07:14:14.000Z</time>
      </trkpt>
      <trkpt lat="47.28172" lon="-2.35808">
        <ele>14.199999809265</ele>
        <time>2022-05-26T07:14:19.000Z</time>
      </trkpt>
      <trkpt lat="47.28183" lon="-2.35833">
        <ele>14.199999809265</ele>
        <time>2022-05-26T07:14:25.000Z</time>
      </trkpt>
      <trkpt lat="47.28196" lon="-2.35862">
        <ele>14.199999809265</ele>
        <time>2022-05-26T07:14:31.000Z</time>
      </trkpt>
      <trkpt lat="47.28205" lon="-2.35882">
        <ele>14.199999809265</ele>
        <time>2022-05-26T07:14:36.000Z</time>
      </trkpt>
      <trkpt lat="47.28208" lon="-2.35885">
        <ele>14.199999809265</ele>
        <time>2022-05-26T07:14:37.000Z</time>
      </trkpt>
      <trkpt lat="47.28229" lon="-2.35895">
        <ele>14.199999809265</ele>
        <time>2022-05-26T07:14:43.000Z</time>
      </trkpt>
      <trkpt lat="47.28245" lon="-2.35897">
        <ele>14.199999809265</ele>
        <time>2022-05-26T07:14:48.000Z</time>
      </trkpt>
      <trkpt lat="47.28254" lon="-2.35913">
        <ele>14.199999809265</ele>
        <time>2022-05-26T07:14:53.000Z</time>
      </trkpt>
      <trkpt lat="47.28269" lon="-2.35941">
        <ele>14.199999809265</ele>
        <time>2022-05-26T07:14:58.000Z</time>
      </trkpt>
      <trkpt lat="47.28286" lon="-2.35969">
        <ele>14.199999809265</ele>
        <time>2022-05-26T07:15:03.000Z</time>
      </trkpt>
      <trkpt lat="47.28289" lon="-2.35971">
        <ele>14.199999809265</ele>
        <time>2022-05-26T07:15:04.000Z</time>
      </trkpt>
      <trkpt lat="47.28295" lon="-2.3597">
        <ele>14.199999809265</ele>
        <time>2022-05-26T07:15:06.000Z</time>
      </trkpt>
      <trkpt lat="47.283" lon="-2.35964">
        <ele>14.199999809265</ele>
        <time>2022-05-26T07:15:08.000Z</time>
      </trkpt>
      <trkpt lat="47.28307" lon="-2.35954">
        <ele>14.199999809265</ele>
        <time>2022-05-26T07:15:11.000Z</time>
      </trkpt>
      <trkpt lat="47.28317" lon="-2.35933">
        <ele>14.199999809265</ele>
        <time>2022-05-26T07:15:17.000Z</time>
      </trkpt>
      <trkpt lat="47.28333" lon="-2.35918">
        <ele>14.199999809265</ele>
        <time>2022-05-26T07:15:23.000Z</time>
      </trkpt>
      <trkpt lat="47.2834" lon="-2.35914">
        <ele>14.60000038147</ele>
        <time>2022-05-26T07:15:25.000Z</time>
      </trkpt>
      <trkpt lat="47.28343" lon="-2.35913">
        <ele>15</ele>
        <time>2022-05-26T07:15:26.000Z</time>
      </trkpt>
      <trkpt lat="47.28346" lon="-2.35912">
        <ele>15.39999961853</ele>
        <time>2022-05-26T07:15:27.000Z</time>
      </trkpt>
      <trkpt lat="47.28348" lon="-2.3591">
        <ele>15.800000190735</ele>
        <time>2022-05-26T07:15:28.000Z</time>
      </trkpt>
      <trkpt lat="47.28351" lon="-2.3591">
        <ele>16.200000762939</ele>
        <time>2022-05-26T07:15:29.000Z</time>
      </trkpt>
      <trkpt lat="47.28355" lon="-2.35909">
        <ele>16.200000762939</ele>
        <time>2022-05-26T07:15:31.000Z</time>
      </trkpt>
      <trkpt lat="47.2836" lon="-2.35916">
        <ele>16.200000762939</ele>
        <time>2022-05-26T07:15:34.000Z</time>
      </trkpt>
      <trkpt lat="47.28363" lon="-2.35927">
        <ele>16.200000762939</ele>
        <time>2022-05-26T07:15:37.000Z</time>
      </trkpt>
      <trkpt lat="47.28367" lon="-2.35933">
        <ele>16.200000762939</ele>
        <time>2022-05-26T07:15:39.000Z</time>
      </trkpt>
      <trkpt lat="47.28372" lon="-2.35946">
        <ele>16.200000762939</ele>
        <time>2022-05-26T07:15:43.000Z</time>
      </trkpt>
      <trkpt lat="47.28371" lon="-2.35949">
        <ele>16.200000762939</ele>
        <time>2022-05-26T07:15:44.000Z</time>
      </trkpt>
      <trkpt lat="47.28371" lon="-2.3596">
        <ele>16.60000038147</ele>
        <time>2022-05-26T07:15:47.000Z</time>
      </trkpt>
      <trkpt lat="47.28371" lon="-2.35964">
        <ele>17</ele>
        <time>2022-05-26T07:15:48.000Z</time>
      </trkpt>
      <trkpt lat="47.28371" lon="-2.35967">
        <ele>17.39999961853</ele>
        <time>2022-05-26T07:15:49.000Z</time>
      </trkpt>
      <trkpt lat="47.28371" lon="-2.3597">
        <ele>17.799999237061</ele>
        <time>2022-05-26T07:15:50.000Z</time>
      </trkpt>
      <trkpt lat="47.28371" lon="-2.35973">
        <ele>18.200000762939</ele>
        <time>2022-05-26T07:15:51.000Z</time>
      </trkpt>
      <trkpt lat="47.28369" lon="-2.35981">
        <ele>18.60000038147</ele>
        <time>2022-05-26T07:15:54.000Z</time>
      </trkpt>
      <trkpt lat="47.28368" lon="-2.35984">
        <ele>19</ele>
        <time>2022-05-26T07:15:55.000Z</time>
      </trkpt>
      <trkpt lat="47.28367" lon="-2.35986">
        <ele>19.39999961853</ele>
        <time>2022-05-26T07:15:56.000Z</time>
      </trkpt>
      <trkpt lat="47.28367" lon="-2.35988">
        <ele>20.39999961853</ele>
        <time>2022-05-26T07:15:57.000Z</time>
      </trkpt>
      <trkpt lat="47.28366" lon="-2.35991">
        <ele>20.799999237061</ele>
        <time>2022-05-26T07:15:58.000Z</time>
      </trkpt>
      <trkpt lat="47.28366" lon="-2.35994">
        <ele>21.200000762939</ele>
        <time>2022-05-26T07:15:59.000Z</time>
      </trkpt>
      <trkpt lat="47.28366" lon="-2.35995">
        <ele>21.60000038147</ele>
        <time>2022-05-26T07:16:00.000Z</time>
      </trkpt>
      <trkpt lat="47.28366" lon="-2.35998">
        <ele>22</ele>
        <time>2022-05-26T07:16:01.000Z</time>
      </trkpt>
      <trkpt lat="47.28367" lon="-2.36">
        <ele>22.39999961853</ele>
        <time>2022-05-26T07:16:02.000Z</time>
      </trkpt>
      <trkpt lat="47.28368" lon="-2.36002">
        <ele>22.39999961853</ele>
        <time>2022-05-26T07:16:03.000Z</time>
      </trkpt>
      <trkpt lat="47.2837" lon="-2.36007">
        <ele>22.39999961853</ele>
        <time>2022-05-26T07:16:06.000Z</time>
      </trkpt>
      <trkpt lat="47.28369" lon="-2.36019">
        <ele>24.39999961853</ele>
        <time>2022-05-26T07:16:39.000Z</time>
      </trkpt>
      <trkpt lat="47.28366" lon="-2.3602">
        <ele>24.39999961853</ele>
        <time>2022-05-26T07:16:40.000Z</time>
      </trkpt>
      <trkpt lat="47.28354" lon="-2.36022">
        <ele>24.39999961853</ele>
        <time>2022-05-26T07:16:43.000Z</time>
      </trkpt>
      <trkpt lat="47.28348" lon="-2.36025">
        <ele>24.39999961853</ele>
        <time>2022-05-26T07:16:44.000Z</time>
      </trkpt>
      <trkpt lat="47.28339" lon="-2.36033">
        <ele>23.60000038147</ele>
        <time>2022-05-26T07:16:46.000Z</time>
      </trkpt>
      <trkpt lat="47.28335" lon="-2.36037">
        <ele>23.200000762939</ele>
        <time>2022-05-26T07:16:47.000Z</time>
      </trkpt>
      <trkpt lat="47.28332" lon="-2.36041">
        <ele>22.799999237061</ele>
        <time>2022-05-26T07:16:48.000Z</time>
      </trkpt>
      <trkpt lat="47.28328" lon="-2.36045">
        <ele>22.39999961853</ele>
        <time>2022-05-26T07:16:49.000Z</time>
      </trkpt>
      <trkpt lat="47.28314" lon="-2.36051">
        <ele>22.39999961853</ele>
        <time>2022-05-26T07:16:53.000Z</time>
      </trkpt>
      <trkpt lat="47.28296" lon="-2.36045">
        <ele>22</ele>
        <time>2022-05-26T07:16:58.000Z</time>
      </trkpt>
      <trkpt lat="47.28293" lon="-2.36043">
        <ele>21.39999961853</ele>
        <time>2022-05-26T07:16:59.000Z</time>
      </trkpt>
      <trkpt lat="47.28289" lon="-2.36042">
        <ele>21</ele>
        <time>2022-05-26T07:17:00.000Z</time>
      </trkpt>
      <trkpt lat="47.28286" lon="-2.36039">
        <ele>20.60000038147</ele>
        <time>2022-05-26T07:17:01.000Z</time>
      </trkpt>
      <trkpt lat="47.28283" lon="-2.36035">
        <ele>20</ele>
        <time>2022-05-26T07:17:02.000Z</time>
      </trkpt>
      <trkpt lat="47.28281" lon="-2.3603">
        <ele>19.39999961853</ele>
        <time>2022-05-26T07:17:03.000Z</time>
      </trkpt>
      <trkpt lat="47.28279" lon="-2.36025">
        <ele>18.799999237061</ele>
        <time>2022-05-26T07:17:04.000Z</time>
      </trkpt>
      <trkpt lat="47.28277" lon="-2.3602">
        <ele>18</ele>
        <time>2022-05-26T07:17:05.000Z</time>
      </trkpt>
      <trkpt lat="47.28275" lon="-2.36016">
        <ele>17.200000762939</ele>
        <time>2022-05-26T07:17:06.000Z</time>
      </trkpt>
      <trkpt lat="47.28271" lon="-2.36013">
        <ele>16.39999961853</ele>
        <time>2022-05-26T07:17:07.000Z</time>
      </trkpt>
      <trkpt lat="47.28268" lon="-2.36011">
        <ele>15.60000038147</ele>
        <time>2022-05-26T07:17:08.000Z</time>
      </trkpt>
      <trkpt lat="47.28264" lon="-2.36013">
        <ele>14.800000190735</ele>
        <time>2022-05-26T07:17:09.000Z</time>
      </trkpt>
      <trkpt lat="47.28261" lon="-2.36016">
        <ele>14</ele>
        <time>2022-05-26T07:17:10.000Z</time>
      </trkpt>
      <trkpt lat="47.28259" lon="-2.36019">
        <ele>12.39999961853</ele>
        <time>2022-05-26T07:17:11.000Z</time>
      </trkpt>
      <trkpt lat="47.28257" lon="-2.36027">
        <ele>12.39999961853</ele>
        <time>2022-05-26T07:17:13.000Z</time>
      </trkpt>
      <trkpt lat="47.28253" lon="-2.36043">
        <ele>12.39999961853</ele>
        <time>2022-05-26T07:17:16.000Z</time>
      </trkpt>
      <trkpt lat="47.28247" lon="-2.36072">
        <ele>12.39999961853</ele>
        <time>2022-05-26T07:17:22.000Z</time>
      </trkpt>
      <trkpt lat="47.28244" lon="-2.36096">
        <ele>12.39999961853</ele>
        <time>2022-05-26T07:17:27.000Z</time>
      </trkpt>
      <trkpt lat="47.28254" lon="-2.36119">
        <ele>12.39999961853</ele>
        <time>2022-05-26T07:17:31.000Z</time>
      </trkpt>
      <trkpt lat="47.28264" lon="-2.36136">
        <ele>12.39999961853</ele>
        <time>2022-05-26T07:17:34.000Z</time>
      </trkpt>
      <trkpt lat="47.28269" lon="-2.36148">
        <ele>12.39999961853</ele>
        <time>2022-05-26T07:17:36.000Z</time>
      </trkpt>
      <trkpt lat="47.28276" lon="-2.36172">
        <ele>12.39999961853</ele>
        <time>2022-05-26T07:17:40.000Z</time>
      </trkpt>
      <trkpt lat="47.28278" lon="-2.36185">
        <ele>12.39999961853</ele>
        <time>2022-05-26T07:17:42.000Z</time>
      </trkpt>
      <trkpt lat="47.28286" lon="-2.36218">
        <ele>12</ele>
        <time>2022-05-26T07:17:47.000Z</time>
      </trkpt>
      <trkpt lat="47.2829" lon="-2.36224">
        <ele>11.60000038147</ele>
        <time>2022-05-26T07:17:48.000Z</time>
      </trkpt>
      <trkpt lat="47.28293" lon="-2.36228">
        <ele>11.199999809265</ele>
        <time>2022-05-26T07:17:49.000Z</time>
      </trkpt>
      <trkpt lat="47.28297" lon="-2.36231">
        <ele>10.60000038147</ele>
        <time>2022-05-26T07:17:50.000Z</time>
      </trkpt>
      <trkpt lat="47.283" lon="-2.36234">
        <ele>10.199999809265</ele>
        <time>2022-05-26T07:17:51.000Z</time>
      </trkpt>
      <trkpt lat="47.28302" lon="-2.36238">
        <ele>10.199999809265</ele>
        <time>2022-05-26T07:17:52.000Z</time>
      </trkpt>
      <trkpt lat="47.28308" lon="-2.3624">
        <ele>10.199999809265</ele>
        <time>2022-05-26T07:17:54.000Z</time>
      </trkpt>
      <trkpt lat="47.2833" lon="-2.3625">
        <ele>10.199999809265</ele>
        <time>2022-05-26T07:17:59.000Z</time>
      </trkpt>
      <trkpt lat="47.28339" lon="-2.36254">
        <ele>10.199999809265</ele>
        <time>2022-05-26T07:18:01.000Z</time>
      </trkpt>
      <trkpt lat="47.28353" lon="-2.3626">
        <ele>10.199999809265</ele>
        <time>2022-05-26T07:18:05.000Z</time>
      </trkpt>
      <trkpt lat="47.28359" lon="-2.36266">
        <ele>10.199999809265</ele>
        <time>2022-05-26T07:18:08.000Z</time>
      </trkpt>
      <trkpt lat="47.2836" lon="-2.36272">
        <ele>10.199999809265</ele>
        <time>2022-05-26T07:18:09.000Z</time>
      </trkpt>
      <trkpt lat="47.28359" lon="-2.3628">
        <ele>10.60000038147</ele>
        <time>2022-05-26T07:18:11.000Z</time>
      </trkpt>
      <trkpt lat="47.28358" lon="-2.36284">
        <ele>11.199999809265</ele>
        <time>2022-05-26T07:18:12.000Z</time>
      </trkpt>
      <trkpt lat="47.28358" lon="-2.36288">
        <ele>11.60000038147</ele>
        <time>2022-05-26T07:18:13.000Z</time>
      </trkpt>
      <trkpt lat="47.28359" lon="-2.36291">
        <ele>12</ele>
        <time>2022-05-26T07:18:14.000Z</time>
      </trkpt>
      <trkpt lat="47.28359" lon="-2.36294">
        <ele>12.39999961853</ele>
        <time>2022-05-26T07:18:15.000Z</time>
      </trkpt>
      <trkpt lat="47.28364" lon="-2.36305">
        <ele>12.39999961853</ele>
        <time>2022-05-26T07:18:19.000Z</time>
      </trkpt>
      <trkpt lat="47.28376" lon="-2.36312">
        <ele>12.39999961853</ele>
        <time>2022-05-26T07:18:24.000Z</time>
      </trkpt>
      <trkpt lat="47.2838" lon="-2.36314">
        <ele>12.800000190735</ele>
        <time>2022-05-26T07:18:25.000Z</time>
      </trkpt>
      <trkpt lat="47.28382" lon="-2.36317">
        <ele>13.199999809265</ele>
        <time>2022-05-26T07:18:26.000Z</time>
      </trkpt>
      <trkpt lat="47.28385" lon="-2.36319">
        <ele>13.60000038147</ele>
        <time>2022-05-26T07:18:27.000Z</time>
      </trkpt>
      <trkpt lat="47.28387" lon="-2.36321">
        <ele>14</ele>
        <time>2022-05-26T07:18:28.000Z</time>
      </trkpt>
      <trkpt lat="47.2839" lon="-2.36323">
        <ele>14.39999961853</ele>
        <time>2022-05-26T07:18:29.000Z</time>
      </trkpt>
      <trkpt lat="47.28393" lon="-2.36324">
        <ele>14.39999961853</ele>
        <time>2022-05-26T07:18:30.000Z</time>
      </trkpt>
      <trkpt lat="47.28407" lon="-2.36339">
        <ele>14.39999961853</ele>
        <time>2022-05-26T07:18:36.000Z</time>
      </trkpt>
      <trkpt lat="47.28423" lon="-2.36353">
        <ele>14.39999961853</ele>
        <time>2022-05-26T07:18:41.000Z</time>
      </trkpt>
      <trkpt lat="47.28443" lon="-2.3637">
        <ele>14.39999961853</ele>
        <time>2022-05-26T07:18:46.000Z</time>
      </trkpt>
      <trkpt lat="47.28451" lon="-2.36377">
        <ele>14.800000190735</ele>
        <time>2022-05-26T07:18:48.000Z</time>
      </trkpt>
      <trkpt lat="47.28455" lon="-2.36382">
        <ele>15.199999809265</ele>
        <time>2022-05-26T07:18:49.000Z</time>
      </trkpt>
      <trkpt lat="47.28458" lon="-2.36386">
        <ele>16</ele>
        <time>2022-05-26T07:18:50.000Z</time>
      </trkpt>
      <trkpt lat="47.2846" lon="-2.36389">
        <ele>16.39999961853</ele>
        <time>2022-05-26T07:18:51.000Z</time>
      </trkpt>
      <trkpt lat="47.28462" lon="-2.36395">
        <ele>16.39999961853</ele>
        <time>2022-05-26T07:18:52.000Z</time>
      </trkpt>
      <trkpt lat="47.28464" lon="-2.36398">
        <ele>16.39999961853</ele>
        <time>2022-05-26T07:18:53.000Z</time>
      </trkpt>
      <trkpt lat="47.28467" lon="-2.36407">
        <ele>16.799999237061</ele>
        <time>2022-05-26T07:18:55.000Z</time>
      </trkpt>
      <trkpt lat="47.2847" lon="-2.36411">
        <ele>17.200000762939</ele>
        <time>2022-05-26T07:18:56.000Z</time>
      </trkpt>
      <trkpt lat="47.28472" lon="-2.36415">
        <ele>17.60000038147</ele>
        <time>2022-05-26T07:18:57.000Z</time>
      </trkpt>
      <trkpt lat="47.28476" lon="-2.36419">
        <ele>18</ele>
        <time>2022-05-26T07:18:58.000Z</time>
      </trkpt>
      <trkpt lat="47.2848" lon="-2.36424">
        <ele>18.39999961853</ele>
        <time>2022-05-26T07:18:59.000Z</time>
      </trkpt>
      <trkpt lat="47.28483" lon="-2.36429">
        <ele>18.39999961853</ele>
        <time>2022-05-26T07:19:00.000Z</time>
      </trkpt>
      <trkpt lat="47.28492" lon="-2.36436">
        <ele>18.39999961853</ele>
        <time>2022-05-26T07:19:02.000Z</time>
      </trkpt>
      <trkpt lat="47.28501" lon="-2.36442">
        <ele>18</ele>
        <time>2022-05-26T07:19:04.000Z</time>
      </trkpt>
      <trkpt lat="47.28505" lon="-2.36445">
        <ele>17.60000038147</ele>
        <time>2022-05-26T07:19:05.000Z</time>
      </trkpt>
      <trkpt lat="47.28507" lon="-2.3645">
        <ele>17.200000762939</ele>
        <time>2022-05-26T07:19:06.000Z</time>
      </trkpt>
      <trkpt lat="47.2851" lon="-2.36455">
        <ele>16.799999237061</ele>
        <time>2022-05-26T07:19:07.000Z</time>
      </trkpt>
      <trkpt lat="47.28511" lon="-2.36459">
        <ele>16.39999961853</ele>
        <time>2022-05-26T07:19:08.000Z</time>
      </trkpt>
      <trkpt lat="47.28517" lon="-2.36479">
        <ele>16.39999961853</ele>
        <time>2022-05-26T07:19:12.000Z</time>
      </trkpt>
      <trkpt lat="47.28518" lon="-2.36503">
        <ele>16.39999961853</ele>
        <time>2022-05-26T07:19:16.000Z</time>
      </trkpt>
      <trkpt lat="47.2851" lon="-2.36516">
        <ele>16.39999961853</ele>
        <time>2022-05-26T07:19:19.000Z</time>
      </trkpt>
      <trkpt lat="47.28493" lon="-2.36536">
        <ele>16</ele>
        <time>2022-05-26T07:19:23.000Z</time>
      </trkpt>
      <trkpt lat="47.28489" lon="-2.36543">
        <ele>15.60000038147</ele>
        <time>2022-05-26T07:19:24.000Z</time>
      </trkpt>
      <trkpt lat="47.28485" lon="-2.36548">
        <ele>15.199999809265</ele>
        <time>2022-05-26T07:19:25.000Z</time>
      </trkpt>
      <trkpt lat="47.2848" lon="-2.36554">
        <ele>14.800000190735</ele>
        <time>2022-05-26T07:19:26.000Z</time>
      </trkpt>
      <trkpt lat="47.28476" lon="-2.36559">
        <ele>14.39999961853</ele>
        <time>2022-05-26T07:19:27.000Z</time>
      </trkpt>
      <trkpt lat="47.2847" lon="-2.36578">
        <ele>14.39999961853</ele>
        <time>2022-05-26T07:19:30.000Z</time>
      </trkpt>
      <trkpt lat="47.28475" lon="-2.36594">
        <ele>14.39999961853</ele>
        <time>2022-05-26T07:19:32.000Z</time>
      </trkpt>
      <trkpt lat="47.28478" lon="-2.36601">
        <ele>14.39999961853</ele>
        <time>2022-05-26T07:19:33.000Z</time>
      </trkpt>
      <trkpt lat="47.28492" lon="-2.36648">
        <ele>14.39999961853</ele>
        <time>2022-05-26T07:19:40.000Z</time>
      </trkpt>
      <trkpt lat="47.28498" lon="-2.36665">
        <ele>14.39999961853</ele>
        <time>2022-05-26T07:19:44.000Z</time>
      </trkpt>
      <trkpt lat="47.285" lon="-2.36667">
        <ele>14.39999961853</ele>
        <time>2022-05-26T07:19:45.000Z</time>
      </trkpt>
      <trkpt lat="47.28508" lon="-2.36675">
        <ele>14.39999961853</ele>
        <time>2022-05-26T07:19:49.000Z</time>
      </trkpt>
      <trkpt lat="47.28517" lon="-2.36685">
        <ele>14</ele>
        <time>2022-05-26T07:19:53.000Z</time>
      </trkpt>
      <trkpt lat="47.28519" lon="-2.3669">
        <ele>13.60000038147</ele>
        <time>2022-05-26T07:19:54.000Z</time>
      </trkpt>
      <trkpt lat="47.28521" lon="-2.36695">
        <ele>13.199999809265</ele>
        <time>2022-05-26T07:19:55.000Z</time>
      </trkpt>
      <trkpt lat="47.28523" lon="-2.36699">
        <ele>12.800000190735</ele>
        <time>2022-05-26T07:19:56.000Z</time>
      </trkpt>
      <trkpt lat="47.28526" lon="-2.36704">
        <ele>12.39999961853</ele>
        <time>2022-05-26T07:19:57.000Z</time>
      </trkpt>
      <trkpt lat="47.28536" lon="-2.36721">
        <ele>12.39999961853</ele>
        <time>2022-05-26T07:20:00.000Z</time>
      </trkpt>
      <trkpt lat="47.28547" lon="-2.36742">
        <ele>12</ele>
        <time>2022-05-26T07:20:03.000Z</time>
      </trkpt>
      <trkpt lat="47.2855" lon="-2.3675">
        <ele>11.199999809265</ele>
        <time>2022-05-26T07:20:04.000Z</time>
      </trkpt>
      <trkpt lat="47.28554" lon="-2.36758">
        <ele>10.800000190735</ele>
        <time>2022-05-26T07:20:05.000Z</time>
      </trkpt>
      <trkpt lat="47.28558" lon="-2.36766">
        <ele>10.39999961853</ele>
        <time>2022-05-26T07:20:06.000Z</time>
      </trkpt>
      <trkpt lat="47.28567" lon="-2.36783">
        <ele>9.8000001907349</ele>
        <time>2022-05-26T07:20:08.000Z</time>
      </trkpt>
      <trkpt lat="47.28571" lon="-2.36791">
        <ele>9.3999996185303</ele>
        <time>2022-05-26T07:20:09.000Z</time>
      </trkpt>
      <trkpt lat="47.28575" lon="-2.36799">
        <ele>9</ele>
        <time>2022-05-26T07:20:10.000Z</time>
      </trkpt>
      <trkpt lat="47.2858" lon="-2.36805">
        <ele>8.6000003814697</ele>
        <time>2022-05-26T07:20:11.000Z</time>
      </trkpt>
      <trkpt lat="47.28584" lon="-2.36812">
        <ele>8.1999998092651</ele>
        <time>2022-05-26T07:20:12.000Z</time>
      </trkpt>
      <trkpt lat="47.28589" lon="-2.36819">
        <ele>8.1999998092651</ele>
        <time>2022-05-26T07:20:13.000Z</time>
      </trkpt>
      <trkpt lat="47.28595" lon="-2.36833">
        <ele>8.1999998092651</ele>
        <time>2022-05-26T07:20:15.000Z</time>
      </trkpt>
      <trkpt lat="47.28603" lon="-2.36844">
        <ele>8.1999998092651</ele>
        <time>2022-05-26T07:20:17.000Z</time>
      </trkpt>
      <trkpt lat="47.28612" lon="-2.36842">
        <ele>7.5999999046326</ele>
        <time>2022-05-26T07:20:19.000Z</time>
      </trkpt>
      <trkpt lat="47.28616" lon="-2.36839">
        <ele>7.1999998092651</ele>
        <time>2022-05-26T07:20:20.000Z</time>
      </trkpt>
      <trkpt lat="47.2862" lon="-2.36835">
        <ele>6.8000001907349</ele>
        <time>2022-05-26T07:20:21.000Z</time>
      </trkpt>
      <trkpt lat="47.28623" lon="-2.36832">
        <ele>6.4000000953674</ele>
        <time>2022-05-26T07:20:22.000Z</time>
      </trkpt>
      <trkpt lat="47.28626" lon="-2.36829">
        <ele>6</ele>
        <time>2022-05-26T07:20:23.000Z</time>
      </trkpt>
      <trkpt lat="47.28645" lon="-2.36809">
        <ele>6</ele>
        <time>2022-05-26T07:20:30.000Z</time>
      </trkpt>
      <trkpt lat="47.28652" lon="-2.36803">
        <ele>6.4000000953674</ele>
        <time>2022-05-26T07:20:32.000Z</time>
      </trkpt>
      <trkpt lat="47.28654" lon="-2.368">
        <ele>6.8000001907349</ele>
        <time>2022-05-26T07:20:33.000Z</time>
      </trkpt>
      <trkpt lat="47.28657" lon="-2.36798">
        <ele>7.1999998092651</ele>
        <time>2022-05-26T07:20:34.000Z</time>
      </trkpt>
      <trkpt lat="47.28658" lon="-2.36798">
        <ele>7.8000001907349</ele>
        <time>2022-05-26T07:20:35.000Z</time>
      </trkpt>
      <trkpt lat="47.28659" lon="-2.36798">
        <ele>8.1999998092651</ele>
        <time>2022-05-26T07:20:36.000Z</time>
      </trkpt>
      <trkpt lat="47.2866" lon="-2.36797">
        <ele>8.1999998092651</ele>
        <time>2022-05-26T07:20:38.000Z</time>
      </trkpt>
      <trkpt lat="47.28667" lon="-2.36797">
        <ele>8.1999998092651</ele>
        <time>2022-05-26T07:21:17.000Z</time>
      </trkpt>
      <trkpt lat="47.28668" lon="-2.36799">
        <ele>8.1999998092651</ele>
        <time>2022-05-26T07:21:18.000Z</time>
      </trkpt>
      <trkpt lat="47.28676" lon="-2.36814">
        <ele>8.1999998092651</ele>
        <time>2022-05-26T07:21:23.000Z</time>
      </trkpt>
      <trkpt lat="47.28688" lon="-2.3684">
        <ele>8.1999998092651</ele>
        <time>2022-05-26T07:21:28.000Z</time>
      </trkpt>
      <trkpt lat="47.28706" lon="-2.36881">
        <ele>8.1999998092651</ele>
        <time>2022-05-26T07:21:35.000Z</time>
      </trkpt>
      <trkpt lat="47.28712" lon="-2.36893">
        <ele>7.8000001907349</ele>
        <time>2022-05-26T07:21:37.000Z</time>
      </trkpt>
      <trkpt lat="47.28715" lon="-2.36898">
        <ele>7.4000000953674</ele>
        <time>2022-05-26T07:21:38.000Z</time>
      </trkpt>
      <trkpt lat="47.28719" lon="-2.36902">
        <ele>7</ele>
        <time>2022-05-26T07:21:39.000Z</time>
      </trkpt>
      <trkpt lat="47.28725" lon="-2.36905">
        <ele>6.5999999046326</ele>
        <time>2022-05-26T07:21:40.000Z</time>
      </trkpt>
      <trkpt lat="47.2873" lon="-2.36909">
        <ele>6</ele>
        <time>2022-05-26T07:21:41.000Z</time>
      </trkpt>
      <trkpt lat="47.28734" lon="-2.36913">
        <ele>5.4000000953674</ele>
        <time>2022-05-26T07:21:42.000Z</time>
      </trkpt>
      <trkpt lat="47.28739" lon="-2.36918">
        <ele>4.1999998092651</ele>
        <time>2022-05-26T07:21:43.000Z</time>
      </trkpt>
      <trkpt lat="47.28741" lon="-2.36921">
        <ele>3.5999999046326</ele>
        <time>2022-05-26T07:21:44.000Z</time>
      </trkpt>
      <trkpt lat="47.2875" lon="-2.36936">
        <ele>4</ele>
        <time>2022-05-26T07:21:48.000Z</time>
      </trkpt>
      <trkpt lat="47.28751" lon="-2.3694">
        <ele>4.4000000953674</ele>
        <time>2022-05-26T07:21:49.000Z</time>
      </trkpt>
      <trkpt lat="47.28751" lon="-2.36945">
        <ele>4.8000001907349</ele>
        <time>2022-05-26T07:21:50.000Z</time>
      </trkpt>
      <trkpt lat="47.28751" lon="-2.36948">
        <ele>5.1999998092651</ele>
        <time>2022-05-26T07:21:51.000Z</time>
      </trkpt>
      <trkpt lat="47.28751" lon="-2.36951">
        <ele>5.5999999046326</ele>
        <time>2022-05-26T07:21:52.000Z</time>
      </trkpt>
      <trkpt lat="47.28751" lon="-2.36953">
        <ele>6.1999998092651</ele>
        <time>2022-05-26T07:21:53.000Z</time>
      </trkpt>
      <trkpt lat="47.28751" lon="-2.36956">
        <ele>6.5999999046326</ele>
        <time>2022-05-26T07:21:54.000Z</time>
      </trkpt>
      <trkpt lat="47.28751" lon="-2.36959">
        <ele>7.1999998092651</ele>
        <time>2022-05-26T07:21:55.000Z</time>
      </trkpt>
      <trkpt lat="47.28752" lon="-2.36962">
        <ele>7.5999999046326</ele>
        <time>2022-05-26T07:21:56.000Z</time>
      </trkpt>
      <trkpt lat="47.28757" lon="-2.36974">
        <ele>7.5999999046326</ele>
        <time>2022-05-26T07:21:59.000Z</time>
      </trkpt>
      <trkpt lat="47.28763" lon="-2.36985">
        <ele>8</ele>
        <time>2022-05-26T07:22:02.000Z</time>
      </trkpt>
      <trkpt lat="47.28765" lon="-2.36989">
        <ele>8.3999996185303</ele>
        <time>2022-05-26T07:22:03.000Z</time>
      </trkpt>
      <trkpt lat="47.28768" lon="-2.36992">
        <ele>8.8000001907349</ele>
        <time>2022-05-26T07:22:04.000Z</time>
      </trkpt>
      <trkpt lat="47.2877" lon="-2.36995">
        <ele>9.1999998092651</ele>
        <time>2022-05-26T07:22:05.000Z</time>
      </trkpt>
      <trkpt lat="47.28772" lon="-2.37">
        <ele>9.6000003814697</ele>
        <time>2022-05-26T07:22:06.000Z</time>
      </trkpt>
      <trkpt lat="47.28774" lon="-2.37011">
        <ele>9.6000003814697</ele>
        <time>2022-05-26T07:22:08.000Z</time>
      </trkpt>
      <trkpt lat="47.2878" lon="-2.37036">
        <ele>9.1999998092651</ele>
        <time>2022-05-26T07:22:12.000Z</time>
      </trkpt>
      <trkpt lat="47.28782" lon="-2.37042">
        <ele>8.6000003814697</ele>
        <time>2022-05-26T07:22:13.000Z</time>
      </trkpt>
      <trkpt lat="47.28784" lon="-2.37048">
        <ele>8.1999998092651</ele>
        <time>2022-05-26T07:22:14.000Z</time>
      </trkpt>
      <trkpt lat="47.28785" lon="-2.37057">
        <ele>7.8000001907349</ele>
        <time>2022-05-26T07:22:15.000Z</time>
      </trkpt>
      <trkpt lat="47.28787" lon="-2.37066">
        <ele>7.1999998092651</ele>
        <time>2022-05-26T07:22:16.000Z</time>
      </trkpt>
      <trkpt lat="47.28788" lon="-2.37076">
        <ele>6.5999999046326</ele>
        <time>2022-05-26T07:22:17.000Z</time>
      </trkpt>
      <trkpt lat="47.28789" lon="-2.37087">
        <ele>6.1999998092651</ele>
        <time>2022-05-26T07:22:18.000Z</time>
      </trkpt>
      <trkpt lat="47.28791" lon="-2.37095">
        <ele>5.5999999046326</ele>
        <time>2022-05-26T07:22:19.000Z</time>
      </trkpt>
      <trkpt lat="47.28793" lon="-2.371">
        <ele>5.1999998092651</ele>
        <time>2022-05-26T07:22:20.000Z</time>
      </trkpt>
      <trkpt lat="47.28796" lon="-2.37105">
        <ele>4.8000001907349</ele>
        <time>2022-05-26T07:22:21.000Z</time>
      </trkpt>
      <trkpt lat="47.28799" lon="-2.37108">
        <ele>4.4000000953674</ele>
        <time>2022-05-26T07:22:22.000Z</time>
      </trkpt>
      <trkpt lat="47.28802" lon="-2.3711">
        <ele>4</ele>
        <time>2022-05-26T07:22:23.000Z</time>
      </trkpt>
      <trkpt lat="47.28806" lon="-2.3711">
        <ele>3.5999999046326</ele>
        <time>2022-05-26T07:22:24.000Z</time>
      </trkpt>
      <trkpt lat="47.2881" lon="-2.3711">
        <ele>3.2000000476837</ele>
        <time>2022-05-26T07:22:25.000Z</time>
      </trkpt>
      <trkpt lat="47.28813" lon="-2.37109">
        <ele>2.5999999046326</ele>
        <time>2022-05-26T07:22:26.000Z</time>
      </trkpt>
      <trkpt lat="47.28816" lon="-2.37107">
        <ele>2.2000000476837</ele>
        <time>2022-05-26T07:22:27.000Z</time>
      </trkpt>
      <trkpt lat="47.28818" lon="-2.37105">
        <ele>1.6000000238419</ele>
        <time>2022-05-26T07:22:28.000Z</time>
      </trkpt>
      <trkpt lat="47.2882" lon="-2.37106">
        <ele>1.2000000476837</ele>
        <time>2022-05-26T07:22:29.000Z</time>
      </trkpt>
      <trkpt lat="47.28822" lon="-2.37108">
        <ele>0.60000002384186</ele>
        <time>2022-05-26T07:22:30.000Z</time>
      </trkpt>
      <trkpt lat="47.28823" lon="-2.37112">
        <ele>11.9</ele>
        <time>2022-05-26T07:22:31.000Z</time>
      </trkpt>
      <trkpt lat="47.28822" lon="-2.37117">
        <ele>-1.3999999761581</ele>
        <time>2022-05-26T07:22:32.000Z</time>
      </trkpt>
      <trkpt lat="47.28822" lon="-2.37122">
        <ele>-2</ele>
        <time>2022-05-26T07:22:33.000Z</time>
      </trkpt>
      <trkpt lat="47.28823" lon="-2.37134">
        <ele>-2</ele>
        <time>2022-05-26T07:22:35.000Z</time>
      </trkpt>
      <trkpt lat="47.28825" lon="-2.37152">
        <ele>-2</ele>
        <time>2022-05-26T07:22:38.000Z</time>
      </trkpt>
      <trkpt lat="47.28827" lon="-2.37164">
        <ele>-2</ele>
        <time>2022-05-26T07:22:40.000Z</time>
      </trkpt>
      <trkpt lat="47.28837" lon="-2.37217">
        <ele>-2</ele>
        <time>2022-05-26T07:22:48.000Z</time>
      </trkpt>
      <trkpt lat="47.28847" lon="-2.37243">
        <ele>-2</ele>
        <time>2022-05-26T07:22:53.000Z</time>
      </trkpt>
      <trkpt lat="47.2885" lon="-2.37249">
        <ele>-2.4000000953674</ele>
        <time>2022-05-26T07:22:54.000Z</time>
      </trkpt>
      <trkpt lat="47.28852" lon="-2.37255">
        <ele>-2.7999999523163</ele>
        <time>2022-05-26T07:22:55.000Z</time>
      </trkpt>
      <trkpt lat="47.28853" lon="-2.37261">
        <ele>-3.2000000476837</ele>
        <time>2022-05-26T07:22:56.000Z</time>
      </trkpt>
      <trkpt lat="47.28854" lon="-2.37268">
        <ele>-4</ele>
        <time>2022-05-26T07:22:57.000Z</time>
      </trkpt>
      <trkpt lat="47.28859" lon="-2.37318">
        <ele>-4</ele>
        <time>2022-05-26T07:23:04.000Z</time>
      </trkpt>
      <trkpt lat="47.28865" lon="-2.37375">
        <ele>-4</ele>
        <time>2022-05-26T07:23:11.000Z</time>
      </trkpt>
      <trkpt lat="47.28873" lon="-2.37433">
        <ele>-4</ele>
        <time>2022-05-26T07:23:18.000Z</time>
      </trkpt>
      <trkpt lat="47.2888" lon="-2.37488">
        <ele>-4</ele>
        <time>2022-05-26T07:23:25.000Z</time>
      </trkpt>
      <trkpt lat="47.28886" lon="-2.37528">
        <ele>-4</ele>
        <time>2022-05-26T07:23:31.000Z</time>
      </trkpt>
      <trkpt lat="47.28891" lon="-2.3755">
        <ele>-4</ele>
        <time>2022-05-26T07:23:35.000Z</time>
      </trkpt>
      <trkpt lat="47.28896" lon="-2.37563">
        <ele>-4</ele>
        <time>2022-05-26T07:23:37.000Z</time>
      </trkpt>
      <trkpt lat="47.289" lon="-2.37578">
        <ele>-4</ele>
        <time>2022-05-26T07:23:39.000Z</time>
      </trkpt>
      <trkpt lat="47.28903" lon="-2.37594">
        <ele>-4</ele>
        <time>2022-05-26T07:23:41.000Z</time>
      </trkpt>
      <trkpt lat="47.28905" lon="-2.37615">
        <ele>-4</ele>
        <time>2022-05-26T07:23:44.000Z</time>
      </trkpt>
      <trkpt lat="47.28909" lon="-2.37642">
        <ele>-4</ele>
        <time>2022-05-26T07:23:49.000Z</time>
      </trkpt>
      <trkpt lat="47.28913" lon="-2.37647">
        <ele>-4.4000000953674</ele>
        <time>2022-05-26T07:23:51.000Z</time>
      </trkpt>
      <trkpt lat="47.28916" lon="-2.37646">
        <ele>-5</ele>
        <time>2022-05-26T07:23:52.000Z</time>
      </trkpt>
      <trkpt lat="47.28918" lon="-2.37646">
        <ele>-5.4000000953674</ele>
        <time>2022-05-26T07:23:53.000Z</time>
      </trkpt>
      <trkpt lat="47.28918" lon="-2.37646">
        <ele>-5.8000001907349</ele>
        <time>2022-05-26T07:23:54.000Z</time>
      </trkpt>
      <trkpt lat="47.28919" lon="-2.37646">
        <ele>-6.1999998092651</ele>
        <time>2022-05-26T07:23:55.000Z</time>
      </trkpt>
      <trkpt lat="47.28919" lon="-2.37646">
        <ele>-6.1999998092651</ele>
        <time>2022-05-26T07:23:56.000Z</time>
      </trkpt>
      <trkpt lat="47.28925" lon="-2.37644">
        <ele>-6.1999998092651</ele>
        <time>2022-05-26T07:24:07.000Z</time>
      </trkpt>
      <trkpt lat="47.28926" lon="-2.37645">
        <ele>-6.1999998092651</ele>
        <time>2022-05-26T07:24:10.000Z</time>
      </trkpt>
      <trkpt lat="47.2893" lon="-2.37646">
        <ele>-6.1999998092651</ele>
        <time>2022-05-26T07:25:59.000Z</time>
      </trkpt>
      <trkpt lat="47.28935" lon="-2.37649">
        <ele>-6.1999998092651</ele>
        <time>2022-05-26T07:26:02.000Z</time>
      </trkpt>
      <trkpt lat="47.28939" lon="-2.37664">
        <ele>-6.1999998092651</ele>
        <time>2022-05-26T07:26:06.000Z</time>
      </trkpt>
      <trkpt lat="47.28936" lon="-2.37689">
        <ele>-6.1999998092651</ele>
        <time>2022-05-26T07:26:10.000Z</time>
      </trkpt>
      <trkpt lat="47.28936" lon="-2.37696">
        <ele>-6.1999998092651</ele>
        <time>2022-05-26T07:26:11.000Z</time>
      </trkpt>
      <trkpt lat="47.28936" lon="-2.37711">
        <ele>-6.1999998092651</ele>
        <time>2022-05-26T07:26:13.000Z</time>
      </trkpt>
      <trkpt lat="47.28934" lon="-2.37741">
        <ele>-6.1999998092651</ele>
        <time>2022-05-26T07:26:17.000Z</time>
      </trkpt>
      <trkpt lat="47.2893" lon="-2.37795">
        <ele>-6.1999998092651</ele>
        <time>2022-05-26T07:26:24.000Z</time>
      </trkpt>
      <trkpt lat="47.28925" lon="-2.37857">
        <ele>-6.1999998092651</ele>
        <time>2022-05-26T07:26:32.000Z</time>
      </trkpt>
      <trkpt lat="47.28923" lon="-2.37882">
        <ele>-6.1999998092651</ele>
        <time>2022-05-26T07:26:35.000Z</time>
      </trkpt>
      <trkpt lat="47.28921" lon="-2.37899">
        <ele>-6.1999998092651</ele>
        <time>2022-05-26T07:26:37.000Z</time>
      </trkpt>
      <trkpt lat="47.28916" lon="-2.37966">
        <ele>-6.1999998092651</ele>
        <time>2022-05-26T07:26:45.000Z</time>
      </trkpt>
      <trkpt lat="47.28913" lon="-2.38015">
        <ele>-6.1999998092651</ele>
        <time>2022-05-26T07:26:51.000Z</time>
      </trkpt>
      <trkpt lat="47.28911" lon="-2.3805">
        <ele>-6.1999998092651</ele>
        <time>2022-05-26T07:26:56.000Z</time>
      </trkpt>
      <trkpt lat="47.28913" lon="-2.38057">
        <ele>-6.1999998092651</ele>
        <time>2022-05-26T07:26:57.000Z</time>
      </trkpt>
      <trkpt lat="47.28925" lon="-2.38093">
        <ele>-6.1999998092651</ele>
        <time>2022-05-26T07:27:02.000Z</time>
      </trkpt>
      <trkpt lat="47.28934" lon="-2.3814">
        <ele>-6.1999998092651</ele>
        <time>2022-05-26T07:27:08.000Z</time>
      </trkpt>
      <trkpt lat="47.28937" lon="-2.38165">
        <ele>-6.5999999046326</ele>
        <time>2022-05-26T07:27:11.000Z</time>
      </trkpt>
      <trkpt lat="47.28938" lon="-2.38173">
        <ele>-7</ele>
        <time>2022-05-26T07:27:12.000Z</time>
      </trkpt>
      <trkpt lat="47.28939" lon="-2.38181">
        <ele>-7.4000000953674</ele>
        <time>2022-05-26T07:27:13.000Z</time>
      </trkpt>
      <trkpt lat="47.28939" lon="-2.38189">
        <ele>-7.8000001907349</ele>
        <time>2022-05-26T07:27:14.000Z</time>
      </trkpt>
      <trkpt lat="47.2894" lon="-2.38197">
        <ele>-8.1999998092651</ele>
        <time>2022-05-26T07:27:15.000Z</time>
      </trkpt>
      <trkpt lat="47.2894" lon="-2.38206">
        <ele>-8.1999998092651</ele>
        <time>2022-05-26T07:27:16.000Z</time>
      </trkpt>
      <trkpt lat="47.28942" lon="-2.3824">
        <ele>-8.1999998092651</ele>
        <time>2022-05-26T07:27:20.000Z</time>
      </trkpt>
      <trkpt lat="47.28941" lon="-2.38256">
        <ele>-8.1999998092651</ele>
        <time>2022-05-26T07:27:22.000Z</time>
      </trkpt>
      <trkpt lat="47.28937" lon="-2.38314">
        <ele>-8.1999998092651</ele>
        <time>2022-05-26T07:27:29.000Z</time>
      </trkpt>
      <trkpt lat="47.28939" lon="-2.38361">
        <ele>-8.1999998092651</ele>
        <time>2022-05-26T07:27:35.000Z</time>
      </trkpt>
      <trkpt lat="47.28941" lon="-2.38413">
        <ele>-8.1999998092651</ele>
        <time>2022-05-26T07:27:42.000Z</time>
      </trkpt>
      <trkpt lat="47.28945" lon="-2.38429">
        <ele>-8.1999998092651</ele>
        <time>2022-05-26T07:27:46.000Z</time>
      </trkpt>
      <trkpt lat="47.28944" lon="-2.38429">
        <ele>-8.1999998092651</ele>
        <time>2022-05-26T07:27:48.000Z</time>
      </trkpt>
      <trkpt lat="47.28943" lon="-2.38427">
        <ele>-8.1999998092651</ele>
        <time>2022-05-26T07:27:53.000Z</time>
      </trkpt>
      <trkpt lat="47.28942" lon="-2.38411">
        <ele>-8.1999998092651</ele>
        <time>2022-05-26T07:27:58.000Z</time>
      </trkpt>
      <trkpt lat="47.2894" lon="-2.38382">
        <ele>-8.1999998092651</ele>
        <time>2022-05-26T07:28:05.000Z</time>
      </trkpt>
      <trkpt lat="47.28936" lon="-2.38352">
        <ele>-8.1999998092651</ele>
        <time>2022-05-26T07:28:13.000Z</time>
      </trkpt>
      <trkpt lat="47.28937" lon="-2.38347">
        <ele>-8.1999998092651</ele>
        <time>2022-05-26T07:28:16.000Z</time>
      </trkpt>
      <trkpt lat="47.2894" lon="-2.38351">
        <ele>-8.1999998092651</ele>
        <time>2022-05-26T07:28:18.000Z</time>
      </trkpt>
      <trkpt lat="47.28939" lon="-2.38366">
        <ele>-8.1999998092651</ele>
        <time>2022-05-26T07:28:22.000Z</time>
      </trkpt>
      <trkpt lat="47.2894" lon="-2.38372">
        <ele>-8.1999998092651</ele>
        <time>2022-05-26T07:28:23.000Z</time>
      </trkpt>
      <trkpt lat="47.28941" lon="-2.38399">
        <ele>-8.1999998092651</ele>
        <time>2022-05-26T07:28:27.000Z</time>
      </trkpt>
      <trkpt lat="47.28946" lon="-2.38464">
        <ele>-8.1999998092651</ele>
        <time>2022-05-26T07:28:36.000Z</time>
      </trkpt>
      <trkpt lat="47.28951" lon="-2.38515">
        <ele>-8.1999998092651</ele>
        <time>2022-05-26T07:28:43.000Z</time>
      </trkpt>
      <trkpt lat="47.28957" lon="-2.38579">
        <ele>-8.1999998092651</ele>
        <time>2022-05-26T07:28:51.000Z</time>
      </trkpt>
      <trkpt lat="47.2896" lon="-2.38646">
        <ele>-8.1999998092651</ele>
        <time>2022-05-26T07:28:59.000Z</time>
      </trkpt>
      <trkpt lat="47.28961" lon="-2.38723">
        <ele>-8.1999998092651</ele>
        <time>2022-05-26T07:29:08.000Z</time>
      </trkpt>
      <trkpt lat="47.28962" lon="-2.38783">
        <ele>-8.1999998092651</ele>
        <time>2022-05-26T07:29:15.000Z</time>
      </trkpt>
      <trkpt lat="47.28963" lon="-2.38851">
        <ele>-8.1999998092651</ele>
        <time>2022-05-26T07:29:23.000Z</time>
      </trkpt>
      <trkpt lat="47.2896" lon="-2.38911">
        <ele>-8.1999998092651</ele>
        <time>2022-05-26T07:29:30.000Z</time>
      </trkpt>
      <trkpt lat="47.28957" lon="-2.38976">
        <ele>-8.1999998092651</ele>
        <time>2022-05-26T07:29:38.000Z</time>
      </trkpt>
      <trkpt lat="47.28955" lon="-2.39001">
        <ele>-8.1999998092651</ele>
        <time>2022-05-26T07:29:41.000Z</time>
      </trkpt>
      <trkpt lat="47.28954" lon="-2.39018">
        <ele>-8.1999998092651</ele>
        <time>2022-05-26T07:29:43.000Z</time>
      </trkpt>
      <trkpt lat="47.28949" lon="-2.39076">
        <ele>-8.1999998092651</ele>
        <time>2022-05-26T07:29:50.000Z</time>
      </trkpt>
      <trkpt lat="47.28942" lon="-2.39124">
        <ele>-8.1999998092651</ele>
        <time>2022-05-26T07:29:56.000Z</time>
      </trkpt>
      <trkpt lat="47.28937" lon="-2.39172">
        <ele>-8.1999998092651</ele>
        <time>2022-05-26T07:30:02.000Z</time>
      </trkpt>
      <trkpt lat="47.28936" lon="-2.39224">
        <ele>-8.1999998092651</ele>
        <time>2022-05-26T07:30:08.000Z</time>
      </trkpt>
      <trkpt lat="47.2894" lon="-2.39267">
        <ele>-8.1999998092651</ele>
        <time>2022-05-26T07:30:13.000Z</time>
      </trkpt>
      <trkpt lat="47.28941" lon="-2.39275">
        <ele>-8.1999998092651</ele>
        <time>2022-05-26T07:30:14.000Z</time>
      </trkpt>
      <trkpt lat="47.28943" lon="-2.39283">
        <ele>-8.1999998092651</ele>
        <time>2022-05-26T07:30:15.000Z</time>
      </trkpt>
      <trkpt lat="47.28952" lon="-2.39304">
        <ele>-8.1999998092651</ele>
        <time>2022-05-26T07:30:18.000Z</time>
      </trkpt>
      <trkpt lat="47.28967" lon="-2.39313">
        <ele>-8.1999998092651</ele>
        <time>2022-05-26T07:30:21.000Z</time>
      </trkpt>
      <trkpt lat="47.28978" lon="-2.39316">
        <ele>-8.1999998092651</ele>
        <time>2022-05-26T07:30:23.000Z</time>
      </trkpt>
      <trkpt lat="47.29002" lon="-2.39325">
        <ele>-8.1999998092651</ele>
        <time>2022-05-26T07:30:27.000Z</time>
      </trkpt>
      <trkpt lat="47.29053" lon="-2.39348">
        <ele>-8.1999998092651</ele>
        <time>2022-05-26T07:30:36.000Z</time>
      </trkpt>
      <trkpt lat="47.29088" lon="-2.39368">
        <ele>-8.1999998092651</ele>
        <time>2022-05-26T07:30:44.000Z</time>
      </trkpt>
      <trkpt lat="47.29105" lon="-2.39378">
        <ele>-8.1999998092651</ele>
        <time>2022-05-26T07:30:48.000Z</time>
      </trkpt>
      <trkpt lat="47.2911" lon="-2.39376">
        <ele>-8.1999998092651</ele>
        <time>2022-05-26T07:30:49.000Z</time>
      </trkpt>
      <trkpt lat="47.29124" lon="-2.39363">
        <ele>-8.1999998092651</ele>
        <time>2022-05-26T07:30:52.000Z</time>
      </trkpt>
      <trkpt lat="47.2913" lon="-2.39362">
        <ele>-8.1999998092651</ele>
        <time>2022-05-26T07:30:53.000Z</time>
      </trkpt>
      <trkpt lat="47.29139" lon="-2.39362">
        <ele>-8.1999998092651</ele>
        <time>2022-05-26T07:30:55.000Z</time>
      </trkpt>
      <trkpt lat="47.29142" lon="-2.39368">
        <ele>-8.1999998092651</ele>
        <time>2022-05-26T07:30:56.000Z</time>
      </trkpt>
      <trkpt lat="47.29143" lon="-2.39376">
        <ele>-8.1999998092651</ele>
        <time>2022-05-26T07:30:57.000Z</time>
      </trkpt>
      <trkpt lat="47.2914" lon="-2.39398">
        <ele>-8.1999998092651</ele>
        <time>2022-05-26T07:31:00.000Z</time>
      </trkpt>
      <trkpt lat="47.2914" lon="-2.39414">
        <ele>-8.1999998092651</ele>
        <time>2022-05-26T07:31:02.000Z</time>
      </trkpt>
      <trkpt lat="47.2914" lon="-2.39443">
        <ele>-8.1999998092651</ele>
        <time>2022-05-26T07:31:06.000Z</time>
      </trkpt>
      <trkpt lat="47.2914" lon="-2.3946">
        <ele>-8.1999998092651</ele>
        <time>2022-05-26T07:31:09.000Z</time>
      </trkpt>
      <trkpt lat="47.29143" lon="-2.39463">
        <ele>-8.1999998092651</ele>
        <time>2022-05-26T07:31:10.000Z</time>
      </trkpt>
      <trkpt lat="47.29149" lon="-2.39467">
        <ele>-8.1999998092651</ele>
        <time>2022-05-26T07:31:12.000Z</time>
      </trkpt>
      <trkpt lat="47.29158" lon="-2.39465">
        <ele>-8.1999998092651</ele>
        <time>2022-05-26T07:31:14.000Z</time>
      </trkpt>
      <trkpt lat="47.29167" lon="-2.39469">
        <ele>-8.1999998092651</ele>
        <time>2022-05-26T07:31:16.000Z</time>
      </trkpt>
      <trkpt lat="47.29183" lon="-2.39473">
        <ele>-8.1999998092651</ele>
        <time>2022-05-26T07:31:19.000Z</time>
      </trkpt>
      <trkpt lat="47.292" lon="-2.39476">
        <ele>-8.1999998092651</ele>
        <time>2022-05-26T07:31:22.000Z</time>
      </trkpt>
      <trkpt lat="47.29218" lon="-2.39478">
        <ele>-8.1999998092651</ele>
        <time>2022-05-26T07:31:25.000Z</time>
      </trkpt>
      <trkpt lat="47.29245" lon="-2.39482">
        <ele>-8.1999998092651</ele>
        <time>2022-05-26T07:31:30.000Z</time>
      </trkpt>
      <trkpt lat="47.29288" lon="-2.3949">
        <ele>-8.1999998092651</ele>
        <time>2022-05-26T07:31:37.000Z</time>
      </trkpt>
      <trkpt lat="47.29318" lon="-2.39498">
        <ele>-8.1999998092651</ele>
        <time>2022-05-26T07:31:42.000Z</time>
      </trkpt>
      <trkpt lat="47.29362" lon="-2.39506">
        <ele>-8.1999998092651</ele>
        <time>2022-05-26T07:31:49.000Z</time>
      </trkpt>
      <trkpt lat="47.29399" lon="-2.39514">
        <ele>-8.1999998092651</ele>
        <time>2022-05-26T07:31:55.000Z</time>
      </trkpt>
      <trkpt lat="47.2944" lon="-2.39523">
        <ele>-8.1999998092651</ele>
        <time>2022-05-26T07:32:02.000Z</time>
      </trkpt>
      <trkpt lat="47.29478" lon="-2.39528">
        <ele>-8.1999998092651</ele>
        <time>2022-05-26T07:32:08.000Z</time>
      </trkpt>
      <trkpt lat="47.29534" lon="-2.39539">
        <ele>-8.1999998092651</ele>
        <time>2022-05-26T07:32:17.000Z</time>
      </trkpt>
      <trkpt lat="47.2954" lon="-2.3954">
        <ele>-8.1999998092651</ele>
        <time>2022-05-26T07:32:18.000Z</time>
      </trkpt>
      <trkpt lat="47.29555" lon="-2.39543">
        <ele>-7.8000001907349</ele>
        <time>2022-05-26T07:32:21.000Z</time>
      </trkpt>
      <trkpt lat="47.2956" lon="-2.39543">
        <ele>-7.1999998092651</ele>
        <time>2022-05-26T07:32:22.000Z</time>
      </trkpt>
      <trkpt lat="47.29564" lon="-2.39544">
        <ele>-6.8000001907349</ele>
        <time>2022-05-26T07:32:23.000Z</time>
      </trkpt>
      <trkpt lat="47.29568" lon="-2.39544">
        <ele>-6.1999998092651</ele>
        <time>2022-05-26T07:32:24.000Z</time>
      </trkpt>
      <trkpt lat="47.29572" lon="-2.39545">
        <ele>-5.8000001907349</ele>
        <time>2022-05-26T07:32:25.000Z</time>
      </trkpt>
      <trkpt lat="47.29579" lon="-2.39546">
        <ele>-5.4000000953674</ele>
        <time>2022-05-26T07:32:27.000Z</time>
      </trkpt>
      <trkpt lat="47.29582" lon="-2.39547">
        <ele>-5</ele>
        <time>2022-05-26T07:32:28.000Z</time>
      </trkpt>
      <trkpt lat="47.29585" lon="-2.39548">
        <ele>-4.5999999046326</ele>
        <time>2022-05-26T07:32:29.000Z</time>
      </trkpt>
      <trkpt lat="47.29588" lon="-2.39549">
        <ele>-4</ele>
        <time>2022-05-26T07:32:30.000Z</time>
      </trkpt>
      <trkpt lat="47.29591" lon="-2.39549">
        <ele>-3.5999999046326</ele>
        <time>2022-05-26T07:32:31.000Z</time>
      </trkpt>
      <trkpt lat="47.29605" lon="-2.39552">
        <ele>-3.5999999046326</ele>
        <time>2022-05-26T07:32:35.000Z</time>
      </trkpt>
      <trkpt lat="47.29623" lon="-2.39556">
        <ele>-3.5999999046326</ele>
        <time>2022-05-26T07:32:39.000Z</time>
      </trkpt>
      <trkpt lat="47.29625" lon="-2.39558">
        <ele>-3.5999999046326</ele>
        <time>2022-05-26T07:32:40.000Z</time>
      </trkpt>
      <trkpt lat="47.29625" lon="-2.39563">
        <ele>-3.5999999046326</ele>
        <time>2022-05-26T07:32:42.000Z</time>
      </trkpt>
      <trkpt lat="47.29616" lon="-2.39569">
        <ele>-3.5999999046326</ele>
        <time>2022-05-26T07:32:45.000Z</time>
      </trkpt>
      <trkpt lat="47.29614" lon="-2.39571">
        <ele>-4</ele>
        <time>2022-05-26T07:32:46.000Z</time>
      </trkpt>
      <trkpt lat="47.29612" lon="-2.39574">
        <ele>-4.5999999046326</ele>
        <time>2022-05-26T07:32:47.000Z</time>
      </trkpt>
      <trkpt lat="47.29612" lon="-2.39577">
        <ele>-5</ele>
        <time>2022-05-26T07:32:48.000Z</time>
      </trkpt>
      <trkpt lat="47.29613" lon="-2.39578">
        <ele>-5.4000000953674</ele>
        <time>2022-05-26T07:32:49.000Z</time>
      </trkpt>
      <trkpt lat="47.29615" lon="-2.39578">
        <ele>-5.8000001907349</ele>
        <time>2022-05-26T07:32:50.000Z</time>
      </trkpt>
      <trkpt lat="47.29618" lon="-2.39579">
        <ele>-6.1999998092651</ele>
        <time>2022-05-26T07:32:51.000Z</time>
      </trkpt>
      <trkpt lat="47.29621" lon="-2.39581">
        <ele>-6.5999999046326</ele>
        <time>2022-05-26T07:32:52.000Z</time>
      </trkpt>
      <trkpt lat="47.29624" lon="-2.39586">
        <ele>-7.1999998092651</ele>
        <time>2022-05-26T07:32:53.000Z</time>
      </trkpt>
      <trkpt lat="47.29625" lon="-2.39592">
        <ele>-7.5999999046326</ele>
        <time>2022-05-26T07:32:54.000Z</time>
      </trkpt>
      <trkpt lat="47.29626" lon="-2.39598">
        <ele>-8</ele>
        <time>2022-05-26T07:32:55.000Z</time>
      </trkpt>
      <trkpt lat="47.29626" lon="-2.3961">
        <ele>-8</ele>
        <time>2022-05-26T07:32:57.000Z</time>
      </trkpt>
      <trkpt lat="47.29625" lon="-2.39617">
        <ele>-8</ele>
        <time>2022-05-26T07:32:58.000Z</time>
      </trkpt>
      <trkpt lat="47.29625" lon="-2.3964">
        <ele>-8</ele>
        <time>2022-05-26T07:33:01.000Z</time>
      </trkpt>
      <trkpt lat="47.29623" lon="-2.39655">
        <ele>-8</ele>
        <time>2022-05-26T07:33:03.000Z</time>
      </trkpt>
      <trkpt lat="47.2961" lon="-2.39682">
        <ele>-8</ele>
        <time>2022-05-26T07:33:07.000Z</time>
      </trkpt>
      <trkpt lat="47.29579" lon="-2.39736">
        <ele>-8</ele>
        <time>2022-05-26T07:33:15.000Z</time>
      </trkpt>
      <trkpt lat="47.29552" lon="-2.39797">
        <ele>-8</ele>
        <time>2022-05-26T07:33:23.000Z</time>
      </trkpt>
      <trkpt lat="47.29531" lon="-2.3984">
        <ele>-8</ele>
        <time>2022-05-26T07:33:29.000Z</time>
      </trkpt>
      <trkpt lat="47.29509" lon="-2.39887">
        <ele>-8</ele>
        <time>2022-05-26T07:33:36.000Z</time>
      </trkpt>
      <trkpt lat="47.29498" lon="-2.39902">
        <ele>-8</ele>
        <time>2022-05-26T07:33:40.000Z</time>
      </trkpt>
      <trkpt lat="47.29491" lon="-2.39909">
        <ele>-8</ele>
        <time>2022-05-26T07:33:45.000Z</time>
      </trkpt>
      <trkpt lat="47.29486" lon="-2.39931">
        <ele>-8</ele>
        <time>2022-05-26T07:33:50.000Z</time>
      </trkpt>
      <trkpt lat="47.29483" lon="-2.39935">
        <ele>-8</ele>
        <time>2022-05-26T07:33:51.000Z</time>
      </trkpt>
      <trkpt lat="47.29475" lon="-2.39953">
        <ele>-8</ele>
        <time>2022-05-26T07:33:54.000Z</time>
      </trkpt>
      <trkpt lat="47.29463" lon="-2.39991">
        <ele>-8</ele>
        <time>2022-05-26T07:33:59.000Z</time>
      </trkpt>
      <trkpt lat="47.29462" lon="-2.4">
        <ele>-8</ele>
        <time>2022-05-26T07:34:00.000Z</time>
      </trkpt>
      <trkpt lat="47.29462" lon="-2.40009">
        <ele>-8.3999996185303</ele>
        <time>2022-05-26T07:34:01.000Z</time>
      </trkpt>
      <trkpt lat="47.29462" lon="-2.40018">
        <ele>-8.8000001907349</ele>
        <time>2022-05-26T07:34:02.000Z</time>
      </trkpt>
      <trkpt lat="47.29462" lon="-2.40027">
        <ele>-9.1999998092651</ele>
        <time>2022-05-26T07:34:03.000Z</time>
      </trkpt>
      <trkpt lat="47.29463" lon="-2.40036">
        <ele>-9.6000003814697</ele>
        <time>2022-05-26T07:34:04.000Z</time>
      </trkpt>
      <trkpt lat="47.29463" lon="-2.40045">
        <ele>-10</ele>
        <time>2022-05-26T07:34:05.000Z</time>
      </trkpt>
      <trkpt lat="47.29464" lon="-2.40082">
        <ele>-10</ele>
        <time>2022-05-26T07:34:09.000Z</time>
      </trkpt>
      <trkpt lat="47.29463" lon="-2.40092">
        <ele>-10</ele>
        <time>2022-05-26T07:34:10.000Z</time>
      </trkpt>
      <trkpt lat="47.29458" lon="-2.40118">
        <ele>-10</ele>
        <time>2022-05-26T07:34:13.000Z</time>
      </trkpt>
      <trkpt lat="47.29457" lon="-2.40126">
        <ele>-10</ele>
        <time>2022-05-26T07:34:14.000Z</time>
      </trkpt>
      <trkpt lat="47.29455" lon="-2.40161">
        <ele>-10</ele>
        <time>2022-05-26T07:34:18.000Z</time>
      </trkpt>
      <trkpt lat="47.29454" lon="-2.40169">
        <ele>-10</ele>
        <time>2022-05-26T07:34:19.000Z</time>
      </trkpt>
      <trkpt lat="47.29444" lon="-2.40219">
        <ele>-10</ele>
        <time>2022-05-26T07:34:25.000Z</time>
      </trkpt>
      <trkpt lat="47.29436" lon="-2.40223">
        <ele>-10</ele>
        <time>2022-05-26T07:34:27.000Z</time>
      </trkpt>
      <trkpt lat="47.29426" lon="-2.40222">
        <ele>-10</ele>
        <time>2022-05-26T07:34:29.000Z</time>
      </trkpt>
      <trkpt lat="47.29421" lon="-2.40224">
        <ele>-10</ele>
        <time>2022-05-26T07:34:30.000Z</time>
      </trkpt>
      <trkpt lat="47.29391" lon="-2.40241">
        <ele>-10</ele>
        <time>2022-05-26T07:34:36.000Z</time>
      </trkpt>
      <trkpt lat="47.2937" lon="-2.40256">
        <ele>-10</ele>
        <time>2022-05-26T07:34:40.000Z</time>
      </trkpt>
      <trkpt lat="47.29365" lon="-2.40261">
        <ele>-10</ele>
        <time>2022-05-26T07:34:41.000Z</time>
      </trkpt>
      <trkpt lat="47.29354" lon="-2.40272">
        <ele>-10</ele>
        <time>2022-05-26T07:34:43.000Z</time>
      </trkpt>
      <trkpt lat="47.29337" lon="-2.40286">
        <ele>-10</ele>
        <time>2022-05-26T07:34:46.000Z</time>
      </trkpt>
      <trkpt lat="47.29309" lon="-2.40319">
        <ele>-10</ele>
        <time>2022-05-26T07:34:52.000Z</time>
      </trkpt>
      <trkpt lat="47.29291" lon="-2.40338">
        <ele>-10</ele>
        <time>2022-05-26T07:34:56.000Z</time>
      </trkpt>
      <trkpt lat="47.29288" lon="-2.40344">
        <ele>-10</ele>
        <time>2022-05-26T07:34:57.000Z</time>
      </trkpt>
      <trkpt lat="47.2929" lon="-2.40368">
        <ele>-10</ele>
        <time>2022-05-26T07:35:00.000Z</time>
      </trkpt>
      <trkpt lat="47.29297" lon="-2.40382">
        <ele>-10</ele>
        <time>2022-05-26T07:35:02.000Z</time>
      </trkpt>
      <trkpt lat="47.29307" lon="-2.40404">
        <ele>-10</ele>
        <time>2022-05-26T07:35:05.000Z</time>
      </trkpt>
      <trkpt lat="47.29308" lon="-2.40413">
        <ele>-10</ele>
        <time>2022-05-26T07:35:06.000Z</time>
      </trkpt>
      <trkpt lat="47.29301" lon="-2.40436">
        <ele>-10</ele>
        <time>2022-05-26T07:35:09.000Z</time>
      </trkpt>
      <trkpt lat="47.29293" lon="-2.40458">
        <ele>-10</ele>
        <time>2022-05-26T07:35:12.000Z</time>
      </trkpt>
      <trkpt lat="47.29286" lon="-2.40469">
        <ele>-10</ele>
        <time>2022-05-26T07:35:14.000Z</time>
      </trkpt>
      <trkpt lat="47.29269" lon="-2.40477">
        <ele>-10</ele>
        <time>2022-05-26T07:35:17.000Z</time>
      </trkpt>
      <trkpt lat="47.29264" lon="-2.40479">
        <ele>-10</ele>
        <time>2022-05-26T07:35:18.000Z</time>
      </trkpt>
      <trkpt lat="47.29258" lon="-2.40481">
        <ele>-10</ele>
        <time>2022-05-26T07:35:19.000Z</time>
      </trkpt>
      <trkpt lat="47.29232" lon="-2.40494">
        <ele>-10</ele>
        <time>2022-05-26T07:35:24.000Z</time>
      </trkpt>
      <trkpt lat="47.29196" lon="-2.40515">
        <ele>-10</ele>
        <time>2022-05-26T07:35:31.000Z</time>
      </trkpt>
      <trkpt lat="47.2918" lon="-2.40522">
        <ele>-10</ele>
        <time>2022-05-26T07:35:34.000Z</time>
      </trkpt>
      <trkpt lat="47.29171" lon="-2.40517">
        <ele>-10</ele>
        <time>2022-05-26T07:35:36.000Z</time>
      </trkpt>
      <trkpt lat="47.29162" lon="-2.40498">
        <ele>-10</ele>
        <time>2022-05-26T07:35:39.000Z</time>
      </trkpt>
      <trkpt lat="47.29149" lon="-2.40488">
        <ele>-10</ele>
        <time>2022-05-26T07:35:42.000Z</time>
      </trkpt>
      <trkpt lat="47.29128" lon="-2.40496">
        <ele>-10</ele>
        <time>2022-05-26T07:35:46.000Z</time>
      </trkpt>
      <trkpt lat="47.29108" lon="-2.4051">
        <ele>-10</ele>
        <time>2022-05-26T07:35:50.000Z</time>
      </trkpt>
      <trkpt lat="47.29101" lon="-2.40523">
        <ele>-10</ele>
        <time>2022-05-26T07:35:52.000Z</time>
      </trkpt>
      <trkpt lat="47.29101" lon="-2.40546">
        <ele>-10</ele>
        <time>2022-05-26T07:35:55.000Z</time>
      </trkpt>
      <trkpt lat="47.29109" lon="-2.40556">
        <ele>-10</ele>
        <time>2022-05-26T07:35:57.000Z</time>
      </trkpt>
      <trkpt lat="47.29113" lon="-2.40561">
        <ele>-10</ele>
        <time>2022-05-26T07:35:58.000Z</time>
      </trkpt>
      <trkpt lat="47.29134" lon="-2.40591">
        <ele>-10</ele>
        <time>2022-05-26T07:36:03.000Z</time>
      </trkpt>
      <trkpt lat="47.29137" lon="-2.40598">
        <ele>-10</ele>
        <time>2022-05-26T07:36:04.000Z</time>
      </trkpt>
      <trkpt lat="47.29141" lon="-2.40621">
        <ele>-10</ele>
        <time>2022-05-26T07:36:07.000Z</time>
      </trkpt>
      <trkpt lat="47.29142" lon="-2.40628">
        <ele>-10</ele>
        <time>2022-05-26T07:36:08.000Z</time>
      </trkpt>
      <trkpt lat="47.29142" lon="-2.40635">
        <ele>-10</ele>
        <time>2022-05-26T07:36:09.000Z</time>
      </trkpt>
      <trkpt lat="47.29145" lon="-2.40644">
        <ele>-10</ele>
        <time>2022-05-26T07:36:11.000Z</time>
      </trkpt>
      <trkpt lat="47.29147" lon="-2.40648">
        <ele>-10</ele>
        <time>2022-05-26T07:36:13.000Z</time>
      </trkpt>
      <trkpt lat="47.29147" lon="-2.40649">
        <ele>-10</ele>
        <time>2022-05-26T07:36:14.000Z</time>
      </trkpt>
      <trkpt lat="47.29147" lon="-2.40651">
        <ele>-10</ele>
        <time>2022-05-26T07:36:15.000Z</time>
      </trkpt>
      <trkpt lat="47.29143" lon="-2.40654">
        <ele>-10</ele>
        <time>2022-05-26T07:36:20.000Z</time>
      </trkpt>
      <trkpt lat="47.29142" lon="-2.40654">
        <ele>-10</ele>
        <time>2022-05-26T07:36:22.000Z</time>
      </trkpt>
      <trkpt lat="47.29142" lon="-2.40654">
        <ele>-10</ele>
        <time>2022-05-26T07:36:32.000Z</time>
      </trkpt>
      <trkpt lat="47.29141" lon="-2.40655">
        <ele>-10</ele>
        <time>2022-05-26T07:36:33.000Z</time>
      </trkpt>
      <trkpt lat="47.29131" lon="-2.40667">
        <ele>-10</ele>
        <time>2022-05-26T07:36:38.000Z</time>
      </trkpt>
      <trkpt lat="47.29125" lon="-2.40674">
        <ele>-10</ele>
        <time>2022-05-26T07:36:40.000Z</time>
      </trkpt>
      <trkpt lat="47.29113" lon="-2.40683">
        <ele>-10</ele>
        <time>2022-05-26T07:36:43.000Z</time>
      </trkpt>
      <trkpt lat="47.29093" lon="-2.40685">
        <ele>-10</ele>
        <time>2022-05-26T07:36:47.000Z</time>
      </trkpt>
      <trkpt lat="47.29074" lon="-2.40689">
        <ele>-10</ele>
        <time>2022-05-26T07:36:51.000Z</time>
      </trkpt>
      <trkpt lat="47.29069" lon="-2.40691">
        <ele>-10</ele>
        <time>2022-05-26T07:36:52.000Z</time>
      </trkpt>
      <trkpt lat="47.29051" lon="-2.407">
        <ele>-10</ele>
        <time>2022-05-26T07:36:56.000Z</time>
      </trkpt>
      <trkpt lat="47.29043" lon="-2.40708">
        <ele>-10</ele>
        <time>2022-05-26T07:36:58.000Z</time>
      </trkpt>
      <trkpt lat="47.29039" lon="-2.40713">
        <ele>-10</ele>
        <time>2022-05-26T07:36:59.000Z</time>
      </trkpt>
      <trkpt lat="47.29021" lon="-2.40737">
        <ele>-10</ele>
        <time>2022-05-26T07:37:04.000Z</time>
      </trkpt>
      <trkpt lat="47.29019" lon="-2.40755">
        <ele>-10</ele>
        <time>2022-05-26T07:37:07.000Z</time>
      </trkpt>
      <trkpt lat="47.29024" lon="-2.40767">
        <ele>-10</ele>
        <time>2022-05-26T07:37:09.000Z</time>
      </trkpt>
      <trkpt lat="47.2903" lon="-2.4078">
        <ele>-10</ele>
        <time>2022-05-26T07:37:11.000Z</time>
      </trkpt>
      <trkpt lat="47.29037" lon="-2.40798">
        <ele>-10</ele>
        <time>2022-05-26T07:37:14.000Z</time>
      </trkpt>
      <trkpt lat="47.2904" lon="-2.40812">
        <ele>-10</ele>
        <time>2022-05-26T07:37:16.000Z</time>
      </trkpt>
      <trkpt lat="47.29037" lon="-2.40832">
        <ele>-10</ele>
        <time>2022-05-26T07:37:19.000Z</time>
      </trkpt>
      <trkpt lat="47.2903" lon="-2.40842">
        <ele>-10</ele>
        <time>2022-05-26T07:37:21.000Z</time>
      </trkpt>
      <trkpt lat="47.2902" lon="-2.40858">
        <ele>-10</ele>
        <time>2022-05-26T07:37:24.000Z</time>
      </trkpt>
      <trkpt lat="47.29014" lon="-2.40868">
        <ele>-10</ele>
        <time>2022-05-26T07:37:26.000Z</time>
      </trkpt>
      <trkpt lat="47.29005" lon="-2.40884">
        <ele>-10</ele>
        <time>2022-05-26T07:37:29.000Z</time>
      </trkpt>
      <trkpt lat="47.28999" lon="-2.40895">
        <ele>-10</ele>
        <time>2022-05-26T07:37:31.000Z</time>
      </trkpt>
      <trkpt lat="47.28986" lon="-2.40906">
        <ele>-10</ele>
        <time>2022-05-26T07:37:34.000Z</time>
      </trkpt>
      <trkpt lat="47.28976" lon="-2.4091">
        <ele>-10</ele>
        <time>2022-05-26T07:37:36.000Z</time>
      </trkpt>
      <trkpt lat="47.28966" lon="-2.40911">
        <ele>-10</ele>
        <time>2022-05-26T07:37:38.000Z</time>
      </trkpt>
      <trkpt lat="47.28961" lon="-2.40911">
        <ele>-10</ele>
        <time>2022-05-26T07:37:39.000Z</time>
      </trkpt>
      <trkpt lat="47.28951" lon="-2.40911">
        <ele>-10</ele>
        <time>2022-05-26T07:37:41.000Z</time>
      </trkpt>
      <trkpt lat="47.28945" lon="-2.4092">
        <ele>-10</ele>
        <time>2022-05-26T07:37:43.000Z</time>
      </trkpt>
      <trkpt lat="47.2894" lon="-2.40941">
        <ele>-10</ele>
        <time>2022-05-26T07:37:46.000Z</time>
      </trkpt>
      <trkpt lat="47.28939" lon="-2.40948">
        <ele>-10</ele>
        <time>2022-05-26T07:37:47.000Z</time>
      </trkpt>
      <trkpt lat="47.28935" lon="-2.40967">
        <ele>-10</ele>
        <time>2022-05-26T07:37:50.000Z</time>
      </trkpt>
      <trkpt lat="47.28939" lon="-2.40979">
        <ele>-10</ele>
        <time>2022-05-26T07:37:52.000Z</time>
      </trkpt>
      <trkpt lat="47.28949" lon="-2.41001">
        <ele>-10</ele>
        <time>2022-05-26T07:37:56.000Z</time>
      </trkpt>
      <trkpt lat="47.2895" lon="-2.41019">
        <ele>-10</ele>
        <time>2022-05-26T07:37:59.000Z</time>
      </trkpt>
      <trkpt lat="47.28951" lon="-2.41038">
        <ele>-10</ele>
        <time>2022-05-26T07:38:02.000Z</time>
      </trkpt>
      <trkpt lat="47.28954" lon="-2.41065">
        <ele>-10</ele>
        <time>2022-05-26T07:38:06.000Z</time>
      </trkpt>
      <trkpt lat="47.28955" lon="-2.41078">
        <ele>-10</ele>
        <time>2022-05-26T07:38:08.000Z</time>
      </trkpt>
      <trkpt lat="47.28957" lon="-2.41092">
        <ele>-10</ele>
        <time>2022-05-26T07:38:10.000Z</time>
      </trkpt>
      <trkpt lat="47.28959" lon="-2.41106">
        <ele>-10</ele>
        <time>2022-05-26T07:38:12.000Z</time>
      </trkpt>
      <trkpt lat="47.2896" lon="-2.41113">
        <ele>-10</ele>
        <time>2022-05-26T07:38:13.000Z</time>
      </trkpt>
      <trkpt lat="47.28966" lon="-2.41167">
        <ele>-10</ele>
        <time>2022-05-26T07:38:21.000Z</time>
      </trkpt>
      <trkpt lat="47.28966" lon="-2.41174">
        <ele>-10</ele>
        <time>2022-05-26T07:38:22.000Z</time>
      </trkpt>
      <trkpt lat="47.28964" lon="-2.41187">
        <ele>-10</ele>
        <time>2022-05-26T07:38:24.000Z</time>
      </trkpt>
      <trkpt lat="47.28959" lon="-2.41198">
        <ele>-10</ele>
        <time>2022-05-26T07:38:26.000Z</time>
      </trkpt>
      <trkpt lat="47.28952" lon="-2.41205">
        <ele>-10</ele>
        <time>2022-05-26T07:38:28.000Z</time>
      </trkpt>
      <trkpt lat="47.28944" lon="-2.41212">
        <ele>-10</ele>
        <time>2022-05-26T07:38:30.000Z</time>
      </trkpt>
      <trkpt lat="47.28931" lon="-2.41221">
        <ele>-10</ele>
        <time>2022-05-26T07:38:33.000Z</time>
      </trkpt>
      <trkpt lat="47.28923" lon="-2.41219">
        <ele>-10</ele>
        <time>2022-05-26T07:38:35.000Z</time>
      </trkpt>
      <trkpt lat="47.28914" lon="-2.41202">
        <ele>-10</ele>
        <time>2022-05-26T07:38:38.000Z</time>
      </trkpt>
      <trkpt lat="47.28902" lon="-2.41187">
        <ele>-10</ele>
        <time>2022-05-26T07:38:42.000Z</time>
      </trkpt>
      <trkpt lat="47.28891" lon="-2.41193">
        <ele>-10</ele>
        <time>2022-05-26T07:38:45.000Z</time>
      </trkpt>
      <trkpt lat="47.28869" lon="-2.4121">
        <ele>-10</ele>
        <time>2022-05-26T07:38:51.000Z</time>
      </trkpt>
      <trkpt lat="47.28864" lon="-2.41227">
        <ele>-10</ele>
        <time>2022-05-26T07:38:54.000Z</time>
      </trkpt>
      <trkpt lat="47.28865" lon="-2.4124">
        <ele>-10</ele>
        <time>2022-05-26T07:38:56.000Z</time>
      </trkpt>
      <trkpt lat="47.28867" lon="-2.41259">
        <ele>-10</ele>
        <time>2022-05-26T07:38:59.000Z</time>
      </trkpt>
      <trkpt lat="47.28867" lon="-2.41281">
        <ele>-10</ele>
        <time>2022-05-26T07:39:03.000Z</time>
      </trkpt>
      <trkpt lat="47.28868" lon="-2.41285">
        <ele>-10</ele>
        <time>2022-05-26T07:39:06.000Z</time>
      </trkpt>
      <trkpt lat="47.28863" lon="-2.41277">
        <ele>-10</ele>
        <time>2022-05-26T07:39:21.000Z</time>
      </trkpt>
      <trkpt lat="47.28858" lon="-2.41277">
        <ele>-10</ele>
        <time>2022-05-26T07:39:24.000Z</time>
      </trkpt>
      <trkpt lat="47.28837" lon="-2.41272">
        <ele>-10</ele>
        <time>2022-05-26T07:39:32.000Z</time>
      </trkpt>
      <trkpt lat="47.28825" lon="-2.41262">
        <ele>-10</ele>
        <time>2022-05-26T07:39:38.000Z</time>
      </trkpt>
      <trkpt lat="47.28812" lon="-2.41255">
        <ele>-10</ele>
        <time>2022-05-26T07:39:44.000Z</time>
      </trkpt>
      <trkpt lat="47.28809" lon="-2.41256">
        <ele>-10</ele>
        <time>2022-05-26T07:39:46.000Z</time>
      </trkpt>
      <trkpt lat="47.28804" lon="-2.41264">
        <ele>-10</ele>
        <time>2022-05-26T07:39:49.000Z</time>
      </trkpt>
      <trkpt lat="47.28796" lon="-2.41285">
        <ele>-10</ele>
        <time>2022-05-26T07:39:55.000Z</time>
      </trkpt>
      <trkpt lat="47.28792" lon="-2.41296">
        <ele>-10</ele>
        <time>2022-05-26T07:39:59.000Z</time>
      </trkpt>
      <trkpt lat="47.28784" lon="-2.413">
        <ele>-10</ele>
        <time>2022-05-26T07:40:03.000Z</time>
      </trkpt>
      <trkpt lat="47.28779" lon="-2.41312">
        <ele>-10</ele>
        <time>2022-05-26T07:40:06.000Z</time>
      </trkpt>
      <trkpt lat="47.28777" lon="-2.41315">
        <ele>-10</ele>
        <time>2022-05-26T07:40:07.000Z</time>
      </trkpt>
      <trkpt lat="47.28767" lon="-2.41333">
        <ele>-10</ele>
        <time>2022-05-26T07:40:11.000Z</time>
      </trkpt>
      <trkpt lat="47.28764" lon="-2.41337">
        <ele>-10</ele>
        <time>2022-05-26T07:40:12.000Z</time>
      </trkpt>
      <trkpt lat="47.28754" lon="-2.41347">
        <ele>-10</ele>
        <time>2022-05-26T07:40:16.000Z</time>
      </trkpt>
      <trkpt lat="47.28751" lon="-2.41337">
        <ele>-10</ele>
        <time>2022-05-26T07:40:19.000Z</time>
      </trkpt>
      <trkpt lat="47.28752" lon="-2.41316">
        <ele>-10</ele>
        <time>2022-05-26T07:40:24.000Z</time>
      </trkpt>
      <trkpt lat="47.28754" lon="-2.41295">
        <ele>-10</ele>
        <time>2022-05-26T07:40:29.000Z</time>
      </trkpt>
      <trkpt lat="47.28758" lon="-2.41281">
        <ele>-10</ele>
        <time>2022-05-26T07:40:34.000Z</time>
      </trkpt>
      <trkpt lat="47.28751" lon="-2.4127">
        <ele>-10</ele>
        <time>2022-05-26T07:40:38.000Z</time>
      </trkpt>
      <trkpt lat="47.28735" lon="-2.4125">
        <ele>-10</ele>
        <time>2022-05-26T07:40:44.000Z</time>
      </trkpt>
      <trkpt lat="47.28731" lon="-2.41247">
        <ele>-10</ele>
        <time>2022-05-26T07:40:45.000Z</time>
      </trkpt>
      <trkpt lat="47.28706" lon="-2.41235">
        <ele>-10</ele>
        <time>2022-05-26T07:40:50.000Z</time>
      </trkpt>
      <trkpt lat="47.28695" lon="-2.41231">
        <ele>-10</ele>
        <time>2022-05-26T07:40:52.000Z</time>
      </trkpt>
      <trkpt lat="47.28675" lon="-2.41227">
        <ele>-10</ele>
        <time>2022-05-26T07:40:55.000Z</time>
      </trkpt>
      <trkpt lat="47.28637" lon="-2.4122">
        <ele>-10.39999961853</ele>
        <time>2022-05-26T07:41:00.000Z</time>
      </trkpt>
      <trkpt lat="47.28629" lon="-2.41218">
        <ele>-10.800000190735</ele>
        <time>2022-05-26T07:41:01.000Z</time>
      </trkpt>
      <trkpt lat="47.28621" lon="-2.41216">
        <ele>-11.199999809265</ele>
        <time>2022-05-26T07:41:02.000Z</time>
      </trkpt>
      <trkpt lat="47.28613" lon="-2.41215">
        <ele>-11.60000038147</ele>
        <time>2022-05-26T07:41:03.000Z</time>
      </trkpt>
      <trkpt lat="47.28604" lon="-2.41213">
        <ele>-12</ele>
        <time>2022-05-26T07:41:04.000Z</time>
      </trkpt>
      <trkpt lat="47.28596" lon="-2.41212">
        <ele>-12.60000038147</ele>
        <time>2022-05-26T07:41:05.000Z</time>
      </trkpt>
      <trkpt lat="47.28587" lon="-2.4121">
        <ele>-13</ele>
        <time>2022-05-26T07:41:06.000Z</time>
      </trkpt>
      <trkpt lat="47.28579" lon="-2.41208">
        <ele>-13.39999961853</ele>
        <time>2022-05-26T07:41:07.000Z</time>
      </trkpt>
      <trkpt lat="47.28572" lon="-2.41207">
        <ele>-13.800000190735</ele>
        <time>2022-05-26T07:41:08.000Z</time>
      </trkpt>
      <trkpt lat="47.28564" lon="-2.41206">
        <ele>-14.199999809265</ele>
        <time>2022-05-26T07:41:09.000Z</time>
      </trkpt>
      <trkpt lat="47.28537" lon="-2.41202">
        <ele>-13.800000190735</ele>
        <time>2022-05-26T07:41:13.000Z</time>
      </trkpt>
      <trkpt lat="47.28531" lon="-2.41201">
        <ele>-13.39999961853</ele>
        <time>2022-05-26T07:41:14.000Z</time>
      </trkpt>
      <trkpt lat="47.28525" lon="-2.412">
        <ele>-13</ele>
        <time>2022-05-26T07:41:15.000Z</time>
      </trkpt>
      <trkpt lat="47.28519" lon="-2.412">
        <ele>-12.60000038147</ele>
        <time>2022-05-26T07:41:16.000Z</time>
      </trkpt>
      <trkpt lat="47.28513" lon="-2.412">
        <ele>-12.199999809265</ele>
        <time>2022-05-26T07:41:17.000Z</time>
      </trkpt>
      <trkpt lat="47.28501" lon="-2.41205">
        <ele>-11.800000190735</ele>
        <time>2022-05-26T07:41:20.000Z</time>
      </trkpt>
      <trkpt lat="47.28497" lon="-2.41209">
        <ele>-11.39999961853</ele>
        <time>2022-05-26T07:41:21.000Z</time>
      </trkpt>
      <trkpt lat="47.28494" lon="-2.41212">
        <ele>-11</ele>
        <time>2022-05-26T07:41:22.000Z</time>
      </trkpt>
      <trkpt lat="47.28491" lon="-2.41217">
        <ele>-10.39999961853</ele>
        <time>2022-05-26T07:41:23.000Z</time>
      </trkpt>
      <trkpt lat="47.28489" lon="-2.41222">
        <ele>-10</ele>
        <time>2022-05-26T07:41:24.000Z</time>
      </trkpt>
      <trkpt lat="47.28487" lon="-2.41229">
        <ele>-10</ele>
        <time>2022-05-26T07:41:25.000Z</time>
      </trkpt>
      <trkpt lat="47.28481" lon="-2.41254">
        <ele>-10</ele>
        <time>2022-05-26T07:41:29.000Z</time>
      </trkpt>
      <trkpt lat="47.28465" lon="-2.41257">
        <ele>-10</ele>
        <time>2022-05-26T07:41:33.000Z</time>
      </trkpt>
      <trkpt lat="47.28461" lon="-2.41258">
        <ele>-10</ele>
        <time>2022-05-26T07:41:34.000Z</time>
      </trkpt>
      <trkpt lat="47.28452" lon="-2.4127">
        <ele>-10</ele>
        <time>2022-05-26T07:41:37.000Z</time>
      </trkpt>
      <trkpt lat="47.28454" lon="-2.4129">
        <ele>-10</ele>
        <time>2022-05-26T07:41:40.000Z</time>
      </trkpt>
      <trkpt lat="47.28453" lon="-2.41312">
        <ele>-10</ele>
        <time>2022-05-26T07:41:43.000Z</time>
      </trkpt>
      <trkpt lat="47.28451" lon="-2.41319">
        <ele>-10</ele>
        <time>2022-05-26T07:41:44.000Z</time>
      </trkpt>
      <trkpt lat="47.28449" lon="-2.41327">
        <ele>-10</ele>
        <time>2022-05-26T07:41:45.000Z</time>
      </trkpt>
      <trkpt lat="47.28438" lon="-2.41375">
        <ele>-10</ele>
        <time>2022-05-26T07:41:51.000Z</time>
      </trkpt>
      <trkpt lat="47.28423" lon="-2.41433">
        <ele>-10</ele>
        <time>2022-05-26T07:41:58.000Z</time>
      </trkpt>
      <trkpt lat="47.28416" lon="-2.41487">
        <ele>-10</ele>
        <time>2022-05-26T07:42:04.000Z</time>
      </trkpt>
      <trkpt lat="47.28409" lon="-2.41558">
        <ele>-10</ele>
        <time>2022-05-26T07:42:12.000Z</time>
      </trkpt>
      <trkpt lat="47.284" lon="-2.41636">
        <ele>-10</ele>
        <time>2022-05-26T07:42:21.000Z</time>
      </trkpt>
      <trkpt lat="47.28398" lon="-2.41662">
        <ele>-10</ele>
        <time>2022-05-26T07:42:24.000Z</time>
      </trkpt>
      <trkpt lat="47.28394" lon="-2.41688">
        <ele>-10</ele>
        <time>2022-05-26T07:42:27.000Z</time>
      </trkpt>
      <trkpt lat="47.28378" lon="-2.41747">
        <ele>-10</ele>
        <time>2022-05-26T07:42:34.000Z</time>
      </trkpt>
      <trkpt lat="47.28364" lon="-2.41806">
        <ele>-10</ele>
        <time>2022-05-26T07:42:41.000Z</time>
      </trkpt>
      <trkpt lat="47.28352" lon="-2.41856">
        <ele>-10</ele>
        <time>2022-05-26T07:42:47.000Z</time>
      </trkpt>
      <trkpt lat="47.28336" lon="-2.41923">
        <ele>-10</ele>
        <time>2022-05-26T07:42:55.000Z</time>
      </trkpt>
      <trkpt lat="47.28323" lon="-2.41974">
        <ele>-10</ele>
        <time>2022-05-26T07:43:01.000Z</time>
      </trkpt>
      <trkpt lat="47.28309" lon="-2.42041">
        <ele>-10</ele>
        <time>2022-05-26T07:43:09.000Z</time>
      </trkpt>
      <trkpt lat="47.28307" lon="-2.42049">
        <ele>-10</ele>
        <time>2022-05-26T07:43:10.000Z</time>
      </trkpt>
      <trkpt lat="47.28304" lon="-2.42075">
        <ele>-10</ele>
        <time>2022-05-26T07:43:13.000Z</time>
      </trkpt>
      <trkpt lat="47.28303" lon="-2.42083">
        <ele>-10</ele>
        <time>2022-05-26T07:43:14.000Z</time>
      </trkpt>
      <trkpt lat="47.28293" lon="-2.42149">
        <ele>-10</ele>
        <time>2022-05-26T07:43:22.000Z</time>
      </trkpt>
      <trkpt lat="47.28282" lon="-2.42223">
        <ele>-10</ele>
        <time>2022-05-26T07:43:31.000Z</time>
      </trkpt>
      <trkpt lat="47.28273" lon="-2.42271">
        <ele>-10</ele>
        <time>2022-05-26T07:43:37.000Z</time>
      </trkpt>
      <trkpt lat="47.2827" lon="-2.42294">
        <ele>-10</ele>
        <time>2022-05-26T07:43:40.000Z</time>
      </trkpt>
      <trkpt lat="47.2827" lon="-2.42309">
        <ele>-10</ele>
        <time>2022-05-26T07:43:42.000Z</time>
      </trkpt>
      <trkpt lat="47.28267" lon="-2.42324">
        <ele>-10</ele>
        <time>2022-05-26T07:43:44.000Z</time>
      </trkpt>
      <trkpt lat="47.28263" lon="-2.42346">
        <ele>-10</ele>
        <time>2022-05-26T07:43:47.000Z</time>
      </trkpt>
      <trkpt lat="47.2825" lon="-2.42402">
        <ele>-10</ele>
        <time>2022-05-26T07:43:55.000Z</time>
      </trkpt>
      <trkpt lat="47.28238" lon="-2.42444">
        <ele>-10</ele>
        <time>2022-05-26T07:44:01.000Z</time>
      </trkpt>
      <trkpt lat="47.28229" lon="-2.42466">
        <ele>-10</ele>
        <time>2022-05-26T07:44:04.000Z</time>
      </trkpt>
      <trkpt lat="47.28216" lon="-2.42492">
        <ele>-10</ele>
        <time>2022-05-26T07:44:08.000Z</time>
      </trkpt>
      <trkpt lat="47.28209" lon="-2.42503">
        <ele>-10</ele>
        <time>2022-05-26T07:44:10.000Z</time>
      </trkpt>
      <trkpt lat="47.28196" lon="-2.42515">
        <ele>-10</ele>
        <time>2022-05-26T07:44:13.000Z</time>
      </trkpt>
      <trkpt lat="47.28192" lon="-2.42518">
        <ele>-10</ele>
        <time>2022-05-26T07:44:14.000Z</time>
      </trkpt>
      <trkpt lat="47.28174" lon="-2.42525">
        <ele>-10</ele>
        <time>2022-05-26T07:44:18.000Z</time>
      </trkpt>
      <trkpt lat="47.28156" lon="-2.42531">
        <ele>-10</ele>
        <time>2022-05-26T07:44:22.000Z</time>
      </trkpt>
      <trkpt lat="47.28142" lon="-2.42534">
        <ele>-10</ele>
        <time>2022-05-26T07:44:25.000Z</time>
      </trkpt>
      <trkpt lat="47.28109" lon="-2.42544">
        <ele>-10</ele>
        <time>2022-05-26T07:44:33.000Z</time>
      </trkpt>
      <trkpt lat="47.281" lon="-2.42548">
        <ele>-10</ele>
        <time>2022-05-26T07:44:36.000Z</time>
      </trkpt>
      <trkpt lat="47.28098" lon="-2.42551">
        <ele>-10</ele>
        <time>2022-05-26T07:44:37.000Z</time>
      </trkpt>
      <trkpt lat="47.281" lon="-2.42564">
        <ele>-10</ele>
        <time>2022-05-26T07:44:40.000Z</time>
      </trkpt>
      <trkpt lat="47.28115" lon="-2.42589">
        <ele>-10</ele>
        <time>2022-05-26T07:44:45.000Z</time>
      </trkpt>
      <trkpt lat="47.28118" lon="-2.42595">
        <ele>-10</ele>
        <time>2022-05-26T07:44:46.000Z</time>
      </trkpt>
      <trkpt lat="47.28147" lon="-2.42646">
        <ele>-10</ele>
        <time>2022-05-26T07:44:55.000Z</time>
      </trkpt>
      <trkpt lat="47.2818" lon="-2.42704">
        <ele>-10</ele>
        <time>2022-05-26T07:45:04.000Z</time>
      </trkpt>
      <trkpt lat="47.28183" lon="-2.4271">
        <ele>-10</ele>
        <time>2022-05-26T07:45:05.000Z</time>
      </trkpt>
      <trkpt lat="47.28191" lon="-2.4271">
        <ele>-10</ele>
        <time>2022-05-26T07:45:07.000Z</time>
      </trkpt>
      <trkpt lat="47.28197" lon="-2.42693">
        <ele>-10</ele>
        <time>2022-05-26T07:45:10.000Z</time>
      </trkpt>
      <trkpt lat="47.28205" lon="-2.42664">
        <ele>-10</ele>
        <time>2022-05-26T07:45:14.000Z</time>
      </trkpt>
      <trkpt lat="47.28208" lon="-2.42658">
        <ele>-10</ele>
        <time>2022-05-26T07:45:15.000Z</time>
      </trkpt>
      <trkpt lat="47.28231" lon="-2.42632">
        <ele>-10</ele>
        <time>2022-05-26T07:45:20.000Z</time>
      </trkpt>
      <trkpt lat="47.28259" lon="-2.42605">
        <ele>-10</ele>
        <time>2022-05-26T07:45:26.000Z</time>
      </trkpt>
      <trkpt lat="47.28288" lon="-2.42575">
        <ele>-10</ele>
        <time>2022-05-26T07:45:33.000Z</time>
      </trkpt>
      <trkpt lat="47.28293" lon="-2.42573">
        <ele>-10</ele>
        <time>2022-05-26T07:45:34.000Z</time>
      </trkpt>
      <trkpt lat="47.28317" lon="-2.42562">
        <ele>-10</ele>
        <time>2022-05-26T07:45:39.000Z</time>
      </trkpt>
      <trkpt lat="47.28329" lon="-2.42537">
        <ele>-10</ele>
        <time>2022-05-26T07:45:43.000Z</time>
      </trkpt>
      <trkpt lat="47.2833" lon="-2.4253">
        <ele>-10</ele>
        <time>2022-05-26T07:45:44.000Z</time>
      </trkpt>
      <trkpt lat="47.28333" lon="-2.42516">
        <ele>-10</ele>
        <time>2022-05-26T07:45:46.000Z</time>
      </trkpt>
      <trkpt lat="47.28338" lon="-2.42503">
        <ele>-10</ele>
        <time>2022-05-26T07:45:48.000Z</time>
      </trkpt>
      <trkpt lat="47.28341" lon="-2.42496">
        <ele>-10</ele>
        <time>2022-05-26T07:45:49.000Z</time>
      </trkpt>
      <trkpt lat="47.28364" lon="-2.42439">
        <ele>-10</ele>
        <time>2022-05-26T07:45:57.000Z</time>
      </trkpt>
      <trkpt lat="47.28385" lon="-2.4239">
        <ele>-10</ele>
        <time>2022-05-26T07:46:04.000Z</time>
      </trkpt>
      <trkpt lat="47.2839" lon="-2.42375">
        <ele>-10</ele>
        <time>2022-05-26T07:46:06.000Z</time>
      </trkpt>
      <trkpt lat="47.28392" lon="-2.42359">
        <ele>-10</ele>
        <time>2022-05-26T07:46:08.000Z</time>
      </trkpt>
      <trkpt lat="47.28389" lon="-2.42334">
        <ele>-10</ele>
        <time>2022-05-26T07:46:11.000Z</time>
      </trkpt>
      <trkpt lat="47.28387" lon="-2.42326">
        <ele>-10</ele>
        <time>2022-05-26T07:46:12.000Z</time>
      </trkpt>
      <trkpt lat="47.28384" lon="-2.42301">
        <ele>-10</ele>
        <time>2022-05-26T07:46:15.000Z</time>
      </trkpt>
      <trkpt lat="47.28384" lon="-2.42284">
        <ele>-10</ele>
        <time>2022-05-26T07:46:17.000Z</time>
      </trkpt>
      <trkpt lat="47.28387" lon="-2.42268">
        <ele>-10</ele>
        <time>2022-05-26T07:46:19.000Z</time>
      </trkpt>
      <trkpt lat="47.2839" lon="-2.42244">
        <ele>-10</ele>
        <time>2022-05-26T07:46:22.000Z</time>
      </trkpt>
      <trkpt lat="47.28401" lon="-2.42197">
        <ele>-10</ele>
        <time>2022-05-26T07:46:28.000Z</time>
      </trkpt>
      <trkpt lat="47.28418" lon="-2.42117">
        <ele>-10</ele>
        <time>2022-05-26T07:46:38.000Z</time>
      </trkpt>
      <trkpt lat="47.28432" lon="-2.42055">
        <ele>-10</ele>
        <time>2022-05-26T07:46:46.000Z</time>
      </trkpt>
      <trkpt lat="47.28445" lon="-2.41987">
        <ele>-10</ele>
        <time>2022-05-26T07:46:55.000Z</time>
      </trkpt>
      <trkpt lat="47.28453" lon="-2.41949">
        <ele>-10</ele>
        <time>2022-05-26T07:47:01.000Z</time>
      </trkpt>
      <trkpt lat="47.28455" lon="-2.41946">
        <ele>-10</ele>
        <time>2022-05-26T07:47:02.000Z</time>
      </trkpt>
      <trkpt lat="47.28462" lon="-2.41945">
        <ele>-10</ele>
        <time>2022-05-26T07:47:04.000Z</time>
      </trkpt>
      <trkpt lat="47.28472" lon="-2.41944">
        <ele>-10</ele>
        <time>2022-05-26T07:47:06.000Z</time>
      </trkpt>
      <trkpt lat="47.28478" lon="-2.41943">
        <ele>-10</ele>
        <time>2022-05-26T07:47:07.000Z</time>
      </trkpt>
      <trkpt lat="47.28483" lon="-2.4194">
        <ele>-10.60000038147</ele>
        <time>2022-05-26T07:47:08.000Z</time>
      </trkpt>
      <trkpt lat="47.28487" lon="-2.41938">
        <ele>-11</ele>
        <time>2022-05-26T07:47:09.000Z</time>
      </trkpt>
      <trkpt lat="47.28492" lon="-2.41937">
        <ele>-11.39999961853</ele>
        <time>2022-05-26T07:47:10.000Z</time>
      </trkpt>
      <trkpt lat="47.28496" lon="-2.41939">
        <ele>-11.800000190735</ele>
        <time>2022-05-26T07:47:11.000Z</time>
      </trkpt>
      <trkpt lat="47.28499" lon="-2.41939">
        <ele>-12.39999961853</ele>
        <time>2022-05-26T07:47:12.000Z</time>
      </trkpt>
      <trkpt lat="47.28502" lon="-2.41939">
        <ele>-12.39999961853</ele>
        <time>2022-05-26T07:47:13.000Z</time>
      </trkpt>
      <trkpt lat="47.28505" lon="-2.41933">
        <ele>-11.800000190735</ele>
        <time>2022-05-26T07:47:16.000Z</time>
      </trkpt>
      <trkpt lat="47.28503" lon="-2.41931">
        <ele>-11.39999961853</ele>
        <time>2022-05-26T07:47:17.000Z</time>
      </trkpt>
      <trkpt lat="47.285" lon="-2.41929">
        <ele>-11</ele>
        <time>2022-05-26T07:47:18.000Z</time>
      </trkpt>
      <trkpt lat="47.28499" lon="-2.41925">
        <ele>-10.60000038147</ele>
        <time>2022-05-26T07:47:19.000Z</time>
      </trkpt>
      <trkpt lat="47.28499" lon="-2.41918">
        <ele>-10.199999809265</ele>
        <time>2022-05-26T07:47:20.000Z</time>
      </trkpt>
      <trkpt lat="47.28503" lon="-2.41883">
        <ele>-10.199999809265</ele>
        <time>2022-05-26T07:47:25.000Z</time>
      </trkpt>
      <trkpt lat="47.28506" lon="-2.41866">
        <ele>-10.199999809265</ele>
        <time>2022-05-26T07:47:28.000Z</time>
      </trkpt>
      <trkpt lat="47.28508" lon="-2.41853">
        <ele>-10.199999809265</ele>
        <time>2022-05-26T07:47:30.000Z</time>
      </trkpt>
      <trkpt lat="47.28516" lon="-2.41801">
        <ele>-10.199999809265</ele>
        <time>2022-05-26T07:47:37.000Z</time>
      </trkpt>
      <trkpt lat="47.28524" lon="-2.41754">
        <ele>-10.199999809265</ele>
        <time>2022-05-26T07:47:43.000Z</time>
      </trkpt>
      <trkpt lat="47.28526" lon="-2.41747">
        <ele>-10.199999809265</ele>
        <time>2022-05-26T07:47:44.000Z</time>
      </trkpt>
      <trkpt lat="47.28542" lon="-2.41729">
        <ele>-10.199999809265</ele>
        <time>2022-05-26T07:47:48.000Z</time>
      </trkpt>
      <trkpt lat="47.28552" lon="-2.41727">
        <ele>-10.199999809265</ele>
        <time>2022-05-26T07:47:50.000Z</time>
      </trkpt>
      <trkpt lat="47.28562" lon="-2.41727">
        <ele>-10.199999809265</ele>
        <time>2022-05-26T07:47:52.000Z</time>
      </trkpt>
      <trkpt lat="47.28567" lon="-2.41729">
        <ele>-10.199999809265</ele>
        <time>2022-05-26T07:47:53.000Z</time>
      </trkpt>
      <trkpt lat="47.28596" lon="-2.41746">
        <ele>-10.199999809265</ele>
        <time>2022-05-26T07:48:00.000Z</time>
      </trkpt>
      <trkpt lat="47.28599" lon="-2.41749">
        <ele>-10.199999809265</ele>
        <time>2022-05-26T07:48:02.000Z</time>
      </trkpt>
      <trkpt lat="47.286" lon="-2.4175">
        <ele>-10.199999809265</ele>
        <time>2022-05-26T07:48:03.000Z</time>
      </trkpt>
      <trkpt lat="47.286" lon="-2.41748">
        <ele>-10.199999809265</ele>
        <time>2022-05-26T07:48:05.000Z</time>
      </trkpt>
      <trkpt lat="47.28601" lon="-2.41751">
        <ele>-10.199999809265</ele>
        <time>2022-05-26T07:50:39.000Z</time>
      </trkpt>
      <trkpt lat="47.28603" lon="-2.41752">
        <ele>-10.199999809265</ele>
        <time>2022-05-26T07:50:40.000Z</time>
      </trkpt>
      <trkpt lat="47.2862" lon="-2.41769">
        <ele>-10.199999809265</ele>
        <time>2022-05-26T07:50:47.000Z</time>
      </trkpt>
      <trkpt lat="47.28641" lon="-2.41792">
        <ele>-10.199999809265</ele>
        <time>2022-05-26T07:50:53.000Z</time>
      </trkpt>
      <trkpt lat="47.28657" lon="-2.41808">
        <ele>-10.199999809265</ele>
        <time>2022-05-26T07:50:57.000Z</time>
      </trkpt>
      <trkpt lat="47.28684" lon="-2.41829">
        <ele>-10.199999809265</ele>
        <time>2022-05-26T07:51:03.000Z</time>
      </trkpt>
      <trkpt lat="47.28693" lon="-2.41836">
        <ele>-10.199999809265</ele>
        <time>2022-05-26T07:51:05.000Z</time>
      </trkpt>
      <trkpt lat="47.28706" lon="-2.41847">
        <ele>-10.199999809265</ele>
        <time>2022-05-26T07:51:08.000Z</time>
      </trkpt>
      <trkpt lat="47.28737" lon="-2.4187">
        <ele>-10.199999809265</ele>
        <time>2022-05-26T07:51:15.000Z</time>
      </trkpt>
      <trkpt lat="47.28771" lon="-2.4189">
        <ele>-10.199999809265</ele>
        <time>2022-05-26T07:51:22.000Z</time>
      </trkpt>
      <trkpt lat="47.28776" lon="-2.41894">
        <ele>-10.199999809265</ele>
        <time>2022-05-26T07:51:23.000Z</time>
      </trkpt>
      <trkpt lat="47.28787" lon="-2.4191">
        <ele>-10.199999809265</ele>
        <time>2022-05-26T07:51:26.000Z</time>
      </trkpt>
      <trkpt lat="47.28793" lon="-2.4194">
        <ele>-10.199999809265</ele>
        <time>2022-05-26T07:51:30.000Z</time>
      </trkpt>
      <trkpt lat="47.28793" lon="-2.41954">
        <ele>-10.199999809265</ele>
        <time>2022-05-26T07:51:32.000Z</time>
      </trkpt>
      <trkpt lat="47.28793" lon="-2.41977">
        <ele>-10.199999809265</ele>
        <time>2022-05-26T07:51:35.000Z</time>
      </trkpt>
      <trkpt lat="47.28797" lon="-2.41999">
        <ele>-10.199999809265</ele>
        <time>2022-05-26T07:51:38.000Z</time>
      </trkpt>
      <trkpt lat="47.28802" lon="-2.42021">
        <ele>-10.199999809265</ele>
        <time>2022-05-26T07:51:41.000Z</time>
      </trkpt>
      <trkpt lat="47.28808" lon="-2.42058">
        <ele>-10.199999809265</ele>
        <time>2022-05-26T07:51:46.000Z</time>
      </trkpt>
      <trkpt lat="47.28809" lon="-2.42074">
        <ele>-10.199999809265</ele>
        <time>2022-05-26T07:51:48.000Z</time>
      </trkpt>
      <trkpt lat="47.28804" lon="-2.42102">
        <ele>-10.199999809265</ele>
        <time>2022-05-26T07:51:52.000Z</time>
      </trkpt>
      <trkpt lat="47.28803" lon="-2.42108">
        <ele>-10.199999809265</ele>
        <time>2022-05-26T07:51:53.000Z</time>
      </trkpt>
      <trkpt lat="47.28793" lon="-2.4213">
        <ele>-10.199999809265</ele>
        <time>2022-05-26T07:51:57.000Z</time>
      </trkpt>
      <trkpt lat="47.28776" lon="-2.42142">
        <ele>-10.199999809265</ele>
        <time>2022-05-26T07:52:01.000Z</time>
      </trkpt>
      <trkpt lat="47.28772" lon="-2.42145">
        <ele>-10.199999809265</ele>
        <time>2022-05-26T07:52:02.000Z</time>
      </trkpt>
      <trkpt lat="47.28757" lon="-2.42154">
        <ele>-10.199999809265</ele>
        <time>2022-05-26T07:52:05.000Z</time>
      </trkpt>
      <trkpt lat="47.28744" lon="-2.42164">
        <ele>-10.199999809265</ele>
        <time>2022-05-26T07:52:08.000Z</time>
      </trkpt>
      <trkpt lat="47.28734" lon="-2.42172">
        <ele>-10.199999809265</ele>
        <time>2022-05-26T07:52:10.000Z</time>
      </trkpt>
      <trkpt lat="47.28716" lon="-2.4219">
        <ele>-10.199999809265</ele>
        <time>2022-05-26T07:52:14.000Z</time>
      </trkpt>
      <trkpt lat="47.28708" lon="-2.42199">
        <ele>-10.199999809265</ele>
        <time>2022-05-26T07:52:16.000Z</time>
      </trkpt>
      <trkpt lat="47.28702" lon="-2.42209">
        <ele>-10.199999809265</ele>
        <time>2022-05-26T07:52:18.000Z</time>
      </trkpt>
      <trkpt lat="47.287" lon="-2.42216">
        <ele>-10.199999809265</ele>
        <time>2022-05-26T07:52:19.000Z</time>
      </trkpt>
      <trkpt lat="47.2869" lon="-2.42241">
        <ele>-10.199999809265</ele>
        <time>2022-05-26T07:52:23.000Z</time>
      </trkpt>
      <trkpt lat="47.28686" lon="-2.42255">
        <ele>-10.199999809265</ele>
        <time>2022-05-26T07:52:25.000Z</time>
      </trkpt>
      <trkpt lat="47.28682" lon="-2.42277">
        <ele>-10.199999809265</ele>
        <time>2022-05-26T07:52:28.000Z</time>
      </trkpt>
      <trkpt lat="47.28671" lon="-2.42339">
        <ele>-10.199999809265</ele>
        <time>2022-05-26T07:52:36.000Z</time>
      </trkpt>
      <trkpt lat="47.28668" lon="-2.42377">
        <ele>-10.199999809265</ele>
        <time>2022-05-26T07:52:41.000Z</time>
      </trkpt>
      <trkpt lat="47.28666" lon="-2.42383">
        <ele>-10.199999809265</ele>
        <time>2022-05-26T07:52:42.000Z</time>
      </trkpt>
      <trkpt lat="47.28653" lon="-2.42403">
        <ele>-10.199999809265</ele>
        <time>2022-05-26T07:52:46.000Z</time>
      </trkpt>
      <trkpt lat="47.28626" lon="-2.42435">
        <ele>-10.199999809265</ele>
        <time>2022-05-26T07:52:53.000Z</time>
      </trkpt>
      <trkpt lat="47.28599" lon="-2.4246">
        <ele>-10.199999809265</ele>
        <time>2022-05-26T07:52:59.000Z</time>
      </trkpt>
      <trkpt lat="47.28578" lon="-2.42489">
        <ele>-10.199999809265</ele>
        <time>2022-05-26T07:53:04.000Z</time>
      </trkpt>
      <trkpt lat="47.28575" lon="-2.42496">
        <ele>-10.199999809265</ele>
        <time>2022-05-26T07:53:05.000Z</time>
      </trkpt>
      <trkpt lat="47.2857" lon="-2.4251">
        <ele>-10.199999809265</ele>
        <time>2022-05-26T07:53:07.000Z</time>
      </trkpt>
      <trkpt lat="47.28565" lon="-2.42534">
        <ele>-10.199999809265</ele>
        <time>2022-05-26T07:53:10.000Z</time>
      </trkpt>
      <trkpt lat="47.28564" lon="-2.42542">
        <ele>-10.199999809265</ele>
        <time>2022-05-26T07:53:11.000Z</time>
      </trkpt>
      <trkpt lat="47.28568" lon="-2.42565">
        <ele>-10.199999809265</ele>
        <time>2022-05-26T07:53:14.000Z</time>
      </trkpt>
      <trkpt lat="47.28583" lon="-2.42597">
        <ele>-10.199999809265</ele>
        <time>2022-05-26T07:53:19.000Z</time>
      </trkpt>
      <trkpt lat="47.28592" lon="-2.42607">
        <ele>-10.199999809265</ele>
        <time>2022-05-26T07:53:21.000Z</time>
      </trkpt>
      <trkpt lat="47.28609" lon="-2.42624">
        <ele>-10.199999809265</ele>
        <time>2022-05-26T07:53:25.000Z</time>
      </trkpt>
      <trkpt lat="47.28623" lon="-2.42635">
        <ele>-10.199999809265</ele>
        <time>2022-05-26T07:53:28.000Z</time>
      </trkpt>
      <trkpt lat="47.28636" lon="-2.42645">
        <ele>-10.199999809265</ele>
        <time>2022-05-26T07:53:31.000Z</time>
      </trkpt>
      <trkpt lat="47.28645" lon="-2.42649">
        <ele>-10.199999809265</ele>
        <time>2022-05-26T07:53:33.000Z</time>
      </trkpt>
      <trkpt lat="47.28659" lon="-2.42652">
        <ele>-10.199999809265</ele>
        <time>2022-05-26T07:53:36.000Z</time>
      </trkpt>
      <trkpt lat="47.28686" lon="-2.42658">
        <ele>-9.8000001907349</ele>
        <time>2022-05-26T07:53:42.000Z</time>
      </trkpt>
      <trkpt lat="47.2869" lon="-2.42659">
        <ele>-9.3999996185303</ele>
        <time>2022-05-26T07:53:43.000Z</time>
      </trkpt>
      <trkpt lat="47.28695" lon="-2.4266">
        <ele>-9</ele>
        <time>2022-05-26T07:53:44.000Z</time>
      </trkpt>
      <trkpt lat="47.28699" lon="-2.42661">
        <ele>-8.6000003814697</ele>
        <time>2022-05-26T07:53:45.000Z</time>
      </trkpt>
      <trkpt lat="47.28704" lon="-2.42663">
        <ele>-8.1999998092651</ele>
        <time>2022-05-26T07:53:46.000Z</time>
      </trkpt>
      <trkpt lat="47.28712" lon="-2.42667">
        <ele>-8.1999998092651</ele>
        <time>2022-05-26T07:53:48.000Z</time>
      </trkpt>
      <trkpt lat="47.28716" lon="-2.4267">
        <ele>-8.1999998092651</ele>
        <time>2022-05-26T07:53:49.000Z</time>
      </trkpt>
      <trkpt lat="47.28721" lon="-2.42686">
        <ele>-8.1999998092651</ele>
        <time>2022-05-26T07:53:52.000Z</time>
      </trkpt>
      <trkpt lat="47.28721" lon="-2.42706">
        <ele>-8.1999998092651</ele>
        <time>2022-05-26T07:53:55.000Z</time>
      </trkpt>
      <trkpt lat="47.2872" lon="-2.42719">
        <ele>-8.1999998092651</ele>
        <time>2022-05-26T07:53:57.000Z</time>
      </trkpt>
      <trkpt lat="47.28719" lon="-2.42732">
        <ele>-8.1999998092651</ele>
        <time>2022-05-26T07:53:59.000Z</time>
      </trkpt>
      <trkpt lat="47.28715" lon="-2.42758">
        <ele>-8.1999998092651</ele>
        <time>2022-05-26T07:54:03.000Z</time>
      </trkpt>
      <trkpt lat="47.28706" lon="-2.42782">
        <ele>-8.1999998092651</ele>
        <time>2022-05-26T07:54:07.000Z</time>
      </trkpt>
      <trkpt lat="47.287" lon="-2.42793">
        <ele>-8.1999998092651</ele>
        <time>2022-05-26T07:54:09.000Z</time>
      </trkpt>
      <trkpt lat="47.28678" lon="-2.42836">
        <ele>-8.1999998092651</ele>
        <time>2022-05-26T07:54:17.000Z</time>
      </trkpt>
      <trkpt lat="47.28675" lon="-2.42848">
        <ele>-8.1999998092651</ele>
        <time>2022-05-26T07:54:19.000Z</time>
      </trkpt>
      <trkpt lat="47.28671" lon="-2.42873">
        <ele>-8.1999998092651</ele>
        <time>2022-05-26T07:54:23.000Z</time>
      </trkpt>
      <trkpt lat="47.28666" lon="-2.4292">
        <ele>-8.1999998092651</ele>
        <time>2022-05-26T07:54:30.000Z</time>
      </trkpt>
      <trkpt lat="47.2866" lon="-2.42961">
        <ele>-8.1999998092651</ele>
        <time>2022-05-26T07:54:36.000Z</time>
      </trkpt>
      <trkpt lat="47.28658" lon="-2.42981">
        <ele>-8.1999998092651</ele>
        <time>2022-05-26T07:54:39.000Z</time>
      </trkpt>
      <trkpt lat="47.28655" lon="-2.43002">
        <ele>-8.1999998092651</ele>
        <time>2022-05-26T07:54:42.000Z</time>
      </trkpt>
      <trkpt lat="47.28646" lon="-2.43048">
        <ele>-8.1999998092651</ele>
        <time>2022-05-26T07:54:49.000Z</time>
      </trkpt>
      <trkpt lat="47.28638" lon="-2.4308">
        <ele>-8.1999998092651</ele>
        <time>2022-05-26T07:54:54.000Z</time>
      </trkpt>
      <trkpt lat="47.28633" lon="-2.43094">
        <ele>-8.1999998092651</ele>
        <time>2022-05-26T07:54:56.000Z</time>
      </trkpt>
      <trkpt lat="47.28627" lon="-2.43123">
        <ele>-8.1999998092651</ele>
        <time>2022-05-26T07:55:00.000Z</time>
      </trkpt>
      <trkpt lat="47.28625" lon="-2.43137">
        <ele>-8.1999998092651</ele>
        <time>2022-05-26T07:55:02.000Z</time>
      </trkpt>
      <trkpt lat="47.28625" lon="-2.43144">
        <ele>-8.1999998092651</ele>
        <time>2022-05-26T07:55:03.000Z</time>
      </trkpt>
      <trkpt lat="47.28625" lon="-2.43151">
        <ele>-8.6000003814697</ele>
        <time>2022-05-26T07:55:04.000Z</time>
      </trkpt>
      <trkpt lat="47.28625" lon="-2.43158">
        <ele>-9.3999996185303</ele>
        <time>2022-05-26T07:55:05.000Z</time>
      </trkpt>
      <trkpt lat="47.28627" lon="-2.43164">
        <ele>-9.8000001907349</ele>
        <time>2022-05-26T07:55:06.000Z</time>
      </trkpt>
      <trkpt lat="47.28628" lon="-2.43171">
        <ele>-10.199999809265</ele>
        <time>2022-05-26T07:55:07.000Z</time>
      </trkpt>
      <trkpt lat="47.28639" lon="-2.4321">
        <ele>-10.199999809265</ele>
        <time>2022-05-26T07:55:13.000Z</time>
      </trkpt>
      <trkpt lat="47.28643" lon="-2.43216">
        <ele>-10.199999809265</ele>
        <time>2022-05-26T07:55:14.000Z</time>
      </trkpt>
      <trkpt lat="47.28654" lon="-2.43236">
        <ele>-10.199999809265</ele>
        <time>2022-05-26T07:55:18.000Z</time>
      </trkpt>
      <trkpt lat="47.28653" lon="-2.43242">
        <ele>-10.199999809265</ele>
        <time>2022-05-26T07:55:19.000Z</time>
      </trkpt>
      <trkpt lat="47.28643" lon="-2.43251">
        <ele>-10.199999809265</ele>
        <time>2022-05-26T07:55:22.000Z</time>
      </trkpt>
      <trkpt lat="47.28639" lon="-2.43254">
        <ele>-10.199999809265</ele>
        <time>2022-05-26T07:55:23.000Z</time>
      </trkpt>
      <trkpt lat="47.28634" lon="-2.43255">
        <ele>-10.199999809265</ele>
        <time>2022-05-26T07:55:24.000Z</time>
      </trkpt>
      <trkpt lat="47.2862" lon="-2.43259">
        <ele>-10.199999809265</ele>
        <time>2022-05-26T07:55:27.000Z</time>
      </trkpt>
      <trkpt lat="47.28603" lon="-2.4326">
        <ele>-10.199999809265</ele>
        <time>2022-05-26T07:55:31.000Z</time>
      </trkpt>
      <trkpt lat="47.286" lon="-2.43255">
        <ele>-10.199999809265</ele>
        <time>2022-05-26T07:55:32.000Z</time>
      </trkpt>
      <trkpt lat="47.28595" lon="-2.43238">
        <ele>-10.199999809265</ele>
        <time>2022-05-26T07:55:35.000Z</time>
      </trkpt>
      <trkpt lat="47.28594" lon="-2.43214">
        <ele>-10.199999809265</ele>
        <time>2022-05-26T07:55:39.000Z</time>
      </trkpt>
      <trkpt lat="47.28593" lon="-2.43208">
        <ele>-10.199999809265</ele>
        <time>2022-05-26T07:55:40.000Z</time>
      </trkpt>
      <trkpt lat="47.2859" lon="-2.43162">
        <ele>-10.199999809265</ele>
        <time>2022-05-26T07:55:47.000Z</time>
      </trkpt>
      <trkpt lat="47.28583" lon="-2.43123">
        <ele>-10.199999809265</ele>
        <time>2022-05-26T07:55:53.000Z</time>
      </trkpt>
      <trkpt lat="47.28573" lon="-2.43095">
        <ele>-10.199999809265</ele>
        <time>2022-05-26T07:55:57.000Z</time>
      </trkpt>
      <trkpt lat="47.28569" lon="-2.43089">
        <ele>-10.199999809265</ele>
        <time>2022-05-26T07:55:58.000Z</time>
      </trkpt>
      <trkpt lat="47.28549" lon="-2.43056">
        <ele>-10.199999809265</ele>
        <time>2022-05-26T07:56:04.000Z</time>
      </trkpt>
      <trkpt lat="47.28533" lon="-2.43039">
        <ele>-10.199999809265</ele>
        <time>2022-05-26T07:56:08.000Z</time>
      </trkpt>
      <trkpt lat="47.28524" lon="-2.43033">
        <ele>-10.199999809265</ele>
        <time>2022-05-26T07:56:10.000Z</time>
      </trkpt>
      <trkpt lat="47.28494" lon="-2.43025">
        <ele>-10.199999809265</ele>
        <time>2022-05-26T07:56:16.000Z</time>
      </trkpt>
      <trkpt lat="47.28476" lon="-2.43034">
        <ele>-10.199999809265</ele>
        <time>2022-05-26T07:56:20.000Z</time>
      </trkpt>
      <trkpt lat="47.28463" lon="-2.43054">
        <ele>-10.199999809265</ele>
        <time>2022-05-26T07:56:24.000Z</time>
      </trkpt>
      <trkpt lat="47.2846" lon="-2.4306">
        <ele>-10.199999809265</ele>
        <time>2022-05-26T07:56:25.000Z</time>
      </trkpt>
      <trkpt lat="47.28457" lon="-2.43065">
        <ele>-10.199999809265</ele>
        <time>2022-05-26T07:56:26.000Z</time>
      </trkpt>
      <trkpt lat="47.28442" lon="-2.43086">
        <ele>-10.199999809265</ele>
        <time>2022-05-26T07:56:30.000Z</time>
      </trkpt>
      <trkpt lat="47.28421" lon="-2.43114">
        <ele>-10.199999809265</ele>
        <time>2022-05-26T07:56:36.000Z</time>
      </trkpt>
      <trkpt lat="47.28418" lon="-2.43118">
        <ele>-10.199999809265</ele>
        <time>2022-05-26T07:56:37.000Z</time>
      </trkpt>
      <trkpt lat="47.2841" lon="-2.43134">
        <ele>-10.199999809265</ele>
        <time>2022-05-26T07:56:40.000Z</time>
      </trkpt>
      <trkpt lat="47.28406" lon="-2.43139">
        <ele>-10.199999809265</ele>
        <time>2022-05-26T07:56:41.000Z</time>
      </trkpt>
      <trkpt lat="47.284" lon="-2.43149">
        <ele>-10.199999809265</ele>
        <time>2022-05-26T07:56:43.000Z</time>
      </trkpt>
      <trkpt lat="47.28382" lon="-2.43169">
        <ele>-10.199999809265</ele>
        <time>2022-05-26T07:56:48.000Z</time>
      </trkpt>
      <trkpt lat="47.28379" lon="-2.43172">
        <ele>-10.199999809265</ele>
        <time>2022-05-26T07:56:49.000Z</time>
      </trkpt>
      <trkpt lat="47.28353" lon="-2.43199">
        <ele>-10.199999809265</ele>
        <time>2022-05-26T07:56:56.000Z</time>
      </trkpt>
      <trkpt lat="47.28336" lon="-2.4322">
        <ele>-10.199999809265</ele>
        <time>2022-05-26T07:57:01.000Z</time>
      </trkpt>
      <trkpt lat="47.28333" lon="-2.43225">
        <ele>-10.199999809265</ele>
        <time>2022-05-26T07:57:02.000Z</time>
      </trkpt>
      <trkpt lat="47.28316" lon="-2.43251">
        <ele>-10.199999809265</ele>
        <time>2022-05-26T07:57:08.000Z</time>
      </trkpt>
      <trkpt lat="47.28297" lon="-2.43271">
        <ele>-10.199999809265</ele>
        <time>2022-05-26T07:57:14.000Z</time>
      </trkpt>
      <trkpt lat="47.28286" lon="-2.43285">
        <ele>-10.199999809265</ele>
        <time>2022-05-26T07:57:19.000Z</time>
      </trkpt>
      <trkpt lat="47.28284" lon="-2.43292">
        <ele>-10.199999809265</ele>
        <time>2022-05-26T07:57:23.000Z</time>
      </trkpt>
      <trkpt lat="47.28283" lon="-2.43295">
        <ele>-10.199999809265</ele>
        <time>2022-05-26T07:58:08.000Z</time>
      </trkpt>
      <trkpt lat="47.2828" lon="-2.43301">
        <ele>-10.199999809265</ele>
        <time>2022-05-26T07:58:11.000Z</time>
      </trkpt>
      <trkpt lat="47.28276" lon="-2.4332">
        <ele>-10.199999809265</ele>
        <time>2022-05-26T07:58:16.000Z</time>
      </trkpt>
      <trkpt lat="47.28276" lon="-2.43325">
        <ele>-10.199999809265</ele>
        <time>2022-05-26T07:58:17.000Z</time>
      </trkpt>
      <trkpt lat="47.28273" lon="-2.4335">
        <ele>-10.199999809265</ele>
        <time>2022-05-26T07:58:24.000Z</time>
      </trkpt>
      <trkpt lat="47.28272" lon="-2.43352">
        <ele>-10.199999809265</ele>
        <time>2022-05-26T07:58:27.000Z</time>
      </trkpt>
      <trkpt lat="47.28272" lon="-2.43356">
        <ele>-10.199999809265</ele>
        <time>2022-05-26T07:58:51.000Z</time>
      </trkpt>
      <trkpt lat="47.28272" lon="-2.43358">
        <ele>-10.199999809265</ele>
        <time>2022-05-26T07:58:52.000Z</time>
      </trkpt>
      <trkpt lat="47.28265" lon="-2.43378">
        <ele>-10.199999809265</ele>
        <time>2022-05-26T07:58:57.000Z</time>
      </trkpt>
      <trkpt lat="47.28253" lon="-2.4338">
        <ele>-10.199999809265</ele>
        <time>2022-05-26T07:59:00.000Z</time>
      </trkpt>
      <trkpt lat="47.28249" lon="-2.43379">
        <ele>-10.199999809265</ele>
        <time>2022-05-26T07:59:01.000Z</time>
      </trkpt>
      <trkpt lat="47.28233" lon="-2.43368">
        <ele>-10.199999809265</ele>
        <time>2022-05-26T07:59:05.000Z</time>
      </trkpt>
      <trkpt lat="47.28221" lon="-2.43349">
        <ele>-10.199999809265</ele>
        <time>2022-05-26T07:59:09.000Z</time>
      </trkpt>
      <trkpt lat="47.28218" lon="-2.43344">
        <ele>-10.199999809265</ele>
        <time>2022-05-26T07:59:10.000Z</time>
      </trkpt>
      <trkpt lat="47.28211" lon="-2.43329">
        <ele>-10.199999809265</ele>
        <time>2022-05-26T07:59:13.000Z</time>
      </trkpt>
      <trkpt lat="47.28202" lon="-2.43325">
        <ele>-10.199999809265</ele>
        <time>2022-05-26T07:59:15.000Z</time>
      </trkpt>
      <trkpt lat="47.28188" lon="-2.43332">
        <ele>-10.199999809265</ele>
        <time>2022-05-26T07:59:19.000Z</time>
      </trkpt>
      <trkpt lat="47.28185" lon="-2.43336">
        <ele>-10.199999809265</ele>
        <time>2022-05-26T07:59:20.000Z</time>
      </trkpt>
      <trkpt lat="47.28181" lon="-2.43334">
        <ele>-10.199999809265</ele>
        <time>2022-05-26T07:59:21.000Z</time>
      </trkpt>
      <trkpt lat="47.28174" lon="-2.43335">
        <ele>-10.199999809265</ele>
        <time>2022-05-26T07:59:23.000Z</time>
      </trkpt>
      <trkpt lat="47.28164" lon="-2.43351">
        <ele>-10.199999809265</ele>
        <time>2022-05-26T07:59:26.000Z</time>
      </trkpt>
      <trkpt lat="47.2814" lon="-2.43388">
        <ele>-10.199999809265</ele>
        <time>2022-05-26T07:59:32.000Z</time>
      </trkpt>
      <trkpt lat="47.28108" lon="-2.43437">
        <ele>-10.199999809265</ele>
        <time>2022-05-26T07:59:40.000Z</time>
      </trkpt>
      <trkpt lat="47.28078" lon="-2.4348">
        <ele>-10.199999809265</ele>
        <time>2022-05-26T07:59:47.000Z</time>
      </trkpt>
      <trkpt lat="47.28038" lon="-2.43539">
        <ele>-10.199999809265</ele>
        <time>2022-05-26T07:59:56.000Z</time>
      </trkpt>
      <trkpt lat="47.27996" lon="-2.43599">
        <ele>-10.199999809265</ele>
        <time>2022-05-26T08:00:05.000Z</time>
      </trkpt>
      <trkpt lat="47.27965" lon="-2.43644">
        <ele>-10.199999809265</ele>
        <time>2022-05-26T08:00:12.000Z</time>
      </trkpt>
      <trkpt lat="47.2796" lon="-2.43652">
        <ele>-10.199999809265</ele>
        <time>2022-05-26T08:00:13.000Z</time>
      </trkpt>
      <trkpt lat="47.27932" lon="-2.4369">
        <ele>-10.199999809265</ele>
        <time>2022-05-26T08:00:19.000Z</time>
      </trkpt>
      <trkpt lat="47.279" lon="-2.43731">
        <ele>-10.199999809265</ele>
        <time>2022-05-26T08:00:26.000Z</time>
      </trkpt>
      <trkpt lat="47.27885" lon="-2.43746">
        <ele>-10.199999809265</ele>
        <time>2022-05-26T08:00:29.000Z</time>
      </trkpt>
      <trkpt lat="47.2787" lon="-2.4376">
        <ele>-10.199999809265</ele>
        <time>2022-05-26T08:00:32.000Z</time>
      </trkpt>
      <trkpt lat="47.27834" lon="-2.43789">
        <ele>-10.199999809265</ele>
        <time>2022-05-26T08:00:39.000Z</time>
      </trkpt>
      <trkpt lat="47.27807" lon="-2.43799">
        <ele>-10.199999809265</ele>
        <time>2022-05-26T08:00:45.000Z</time>
      </trkpt>
      <trkpt lat="47.27795" lon="-2.43794">
        <ele>-10.199999809265</ele>
        <time>2022-05-26T08:00:49.000Z</time>
      </trkpt>
      <trkpt lat="47.2779" lon="-2.43796">
        <ele>-10.199999809265</ele>
        <time>2022-05-26T08:00:52.000Z</time>
      </trkpt>
      <trkpt lat="47.27789" lon="-2.438">
        <ele>-10.199999809265</ele>
        <time>2022-05-26T08:00:53.000Z</time>
      </trkpt>
      <trkpt lat="47.27792" lon="-2.43815">
        <ele>-10.199999809265</ele>
        <time>2022-05-26T08:00:56.000Z</time>
      </trkpt>
      <trkpt lat="47.27797" lon="-2.4384">
        <ele>-10.199999809265</ele>
        <time>2022-05-26T08:01:00.000Z</time>
      </trkpt>
      <trkpt lat="47.27786" lon="-2.43858">
        <ele>-10.199999809265</ele>
        <time>2022-05-26T08:01:03.000Z</time>
      </trkpt>
      <trkpt lat="47.27777" lon="-2.43866">
        <ele>-10.199999809265</ele>
        <time>2022-05-26T08:01:05.000Z</time>
      </trkpt>
      <trkpt lat="47.27773" lon="-2.43872">
        <ele>-10.199999809265</ele>
        <time>2022-05-26T08:01:06.000Z</time>
      </trkpt>
      <trkpt lat="47.2777" lon="-2.43879">
        <ele>-10.199999809265</ele>
        <time>2022-05-26T08:01:07.000Z</time>
      </trkpt>
      <trkpt lat="47.27757" lon="-2.43918">
        <ele>-10.199999809265</ele>
        <time>2022-05-26T08:01:12.000Z</time>
      </trkpt>
      <trkpt lat="47.27736" lon="-2.43993">
        <ele>-10.199999809265</ele>
        <time>2022-05-26T08:01:21.000Z</time>
      </trkpt>
      <trkpt lat="47.2772" lon="-2.4406">
        <ele>-10.199999809265</ele>
        <time>2022-05-26T08:01:29.000Z</time>
      </trkpt>
      <trkpt lat="47.27718" lon="-2.44087">
        <ele>-10.199999809265</ele>
        <time>2022-05-26T08:01:32.000Z</time>
      </trkpt>
      <trkpt lat="47.27716" lon="-2.44096">
        <ele>-10.199999809265</ele>
        <time>2022-05-26T08:01:33.000Z</time>
      </trkpt>
      <trkpt lat="47.27717" lon="-2.44106">
        <ele>-10.199999809265</ele>
        <time>2022-05-26T08:01:34.000Z</time>
      </trkpt>
      <trkpt lat="47.27719" lon="-2.44125">
        <ele>-10.199999809265</ele>
        <time>2022-05-26T08:01:36.000Z</time>
      </trkpt>
      <trkpt lat="47.27726" lon="-2.44201">
        <ele>-10.199999809265</ele>
        <time>2022-05-26T08:01:44.000Z</time>
      </trkpt>
      <trkpt lat="47.27727" lon="-2.44265">
        <ele>-10.199999809265</ele>
        <time>2022-05-26T08:01:51.000Z</time>
      </trkpt>
      <trkpt lat="47.27729" lon="-2.44331">
        <ele>-10.199999809265</ele>
        <time>2022-05-26T08:01:58.000Z</time>
      </trkpt>
      <trkpt lat="47.27732" lon="-2.44406">
        <ele>-10.199999809265</ele>
        <time>2022-05-26T08:02:06.000Z</time>
      </trkpt>
      <trkpt lat="47.27739" lon="-2.44459">
        <ele>-10.199999809265</ele>
        <time>2022-05-26T08:02:12.000Z</time>
      </trkpt>
      <trkpt lat="47.27744" lon="-2.44503">
        <ele>-10.199999809265</ele>
        <time>2022-05-26T08:02:18.000Z</time>
      </trkpt>
      <trkpt lat="47.27744" lon="-2.44511">
        <ele>-10.199999809265</ele>
        <time>2022-05-26T08:02:19.000Z</time>
      </trkpt>
      <trkpt lat="47.27743" lon="-2.44525">
        <ele>-10.199999809265</ele>
        <time>2022-05-26T08:02:21.000Z</time>
      </trkpt>
      <trkpt lat="47.27735" lon="-2.44535">
        <ele>-10.199999809265</ele>
        <time>2022-05-26T08:02:23.000Z</time>
      </trkpt>
      <trkpt lat="47.27716" lon="-2.44549">
        <ele>-10.199999809265</ele>
        <time>2022-05-26T08:02:27.000Z</time>
      </trkpt>
      <trkpt lat="47.27708" lon="-2.4456">
        <ele>-10.199999809265</ele>
        <time>2022-05-26T08:02:29.000Z</time>
      </trkpt>
      <trkpt lat="47.27695" lon="-2.44583">
        <ele>-10.199999809265</ele>
        <time>2022-05-26T08:02:33.000Z</time>
      </trkpt>
      <trkpt lat="47.27692" lon="-2.44587">
        <ele>-10.199999809265</ele>
        <time>2022-05-26T08:02:34.000Z</time>
      </trkpt>
      <trkpt lat="47.27672" lon="-2.4461">
        <ele>-10.199999809265</ele>
        <time>2022-05-26T08:02:39.000Z</time>
      </trkpt>
      <trkpt lat="47.27661" lon="-2.44624">
        <ele>-10.199999809265</ele>
        <time>2022-05-26T08:02:42.000Z</time>
      </trkpt>
      <trkpt lat="47.2765" lon="-2.44639">
        <ele>-10.199999809265</ele>
        <time>2022-05-26T08:02:45.000Z</time>
      </trkpt>
      <trkpt lat="47.2763" lon="-2.44659">
        <ele>-10.199999809265</ele>
        <time>2022-05-26T08:02:50.000Z</time>
      </trkpt>
      <trkpt lat="47.27625" lon="-2.44661">
        <ele>-10.199999809265</ele>
        <time>2022-05-26T08:02:51.000Z</time>
      </trkpt>
      <trkpt lat="47.27611" lon="-2.44666">
        <ele>-10.199999809265</ele>
        <time>2022-05-26T08:02:54.000Z</time>
      </trkpt>
      <trkpt lat="47.27597" lon="-2.44672">
        <ele>-10.199999809265</ele>
        <time>2022-05-26T08:02:57.000Z</time>
      </trkpt>
      <trkpt lat="47.27567" lon="-2.44679">
        <ele>-10.199999809265</ele>
        <time>2022-05-26T08:03:03.000Z</time>
      </trkpt>
      <trkpt lat="47.27563" lon="-2.44679">
        <ele>-10.199999809265</ele>
        <time>2022-05-26T08:03:04.000Z</time>
      </trkpt>
      <trkpt lat="47.27553" lon="-2.4468">
        <ele>-10.199999809265</ele>
        <time>2022-05-26T08:03:06.000Z</time>
      </trkpt>
      <trkpt lat="47.2754" lon="-2.44686">
        <ele>-10.199999809265</ele>
        <time>2022-05-26T08:03:09.000Z</time>
      </trkpt>
      <trkpt lat="47.27512" lon="-2.44703">
        <ele>-10.199999809265</ele>
        <time>2022-05-26T08:03:16.000Z</time>
      </trkpt>
      <trkpt lat="47.27512" lon="-2.44708">
        <ele>-10.199999809265</ele>
        <time>2022-05-26T08:03:17.000Z</time>
      </trkpt>
      <trkpt lat="47.27515" lon="-2.44717">
        <ele>-10.199999809265</ele>
        <time>2022-05-26T08:03:19.000Z</time>
      </trkpt>
      <trkpt lat="47.27524" lon="-2.4475">
        <ele>-10.199999809265</ele>
        <time>2022-05-26T08:03:24.000Z</time>
      </trkpt>
      <trkpt lat="47.27535" lon="-2.44809">
        <ele>-10.199999809265</ele>
        <time>2022-05-26T08:03:33.000Z</time>
      </trkpt>
      <trkpt lat="47.27535" lon="-2.44815">
        <ele>-10.199999809265</ele>
        <time>2022-05-26T08:03:34.000Z</time>
      </trkpt>
      <trkpt lat="47.2753" lon="-2.44825">
        <ele>-10.199999809265</ele>
        <time>2022-05-26T08:03:36.000Z</time>
      </trkpt>
      <trkpt lat="47.27523" lon="-2.44833">
        <ele>-10.199999809265</ele>
        <time>2022-05-26T08:03:38.000Z</time>
      </trkpt>
      <trkpt lat="47.27512" lon="-2.44844">
        <ele>-10.199999809265</ele>
        <time>2022-05-26T08:03:41.000Z</time>
      </trkpt>
      <trkpt lat="47.27508" lon="-2.44848">
        <ele>-10.199999809265</ele>
        <time>2022-05-26T08:03:42.000Z</time>
      </trkpt>
      <trkpt lat="47.27503" lon="-2.44859">
        <ele>-9.8000001907349</ele>
        <time>2022-05-26T08:03:44.000Z</time>
      </trkpt>
      <trkpt lat="47.27503" lon="-2.44865">
        <ele>-9.3999996185303</ele>
        <time>2022-05-26T08:03:45.000Z</time>
      </trkpt>
      <trkpt lat="47.27504" lon="-2.44872">
        <ele>-9</ele>
        <time>2022-05-26T08:03:46.000Z</time>
      </trkpt>
      <trkpt lat="47.27505" lon="-2.44879">
        <ele>-8.6000003814697</ele>
        <time>2022-05-26T08:03:47.000Z</time>
      </trkpt>
      <trkpt lat="47.27507" lon="-2.44886">
        <ele>-8.1999998092651</ele>
        <time>2022-05-26T08:03:48.000Z</time>
      </trkpt>
      <trkpt lat="47.27509" lon="-2.449">
        <ele>-8.1999998092651</ele>
        <time>2022-05-26T08:03:50.000Z</time>
      </trkpt>
      <trkpt lat="47.2752" lon="-2.44939">
        <ele>-8.1999998092651</ele>
        <time>2022-05-26T08:03:55.000Z</time>
      </trkpt>
      <trkpt lat="47.27537" lon="-2.44989">
        <ele>-8.1999998092651</ele>
        <time>2022-05-26T08:04:02.000Z</time>
      </trkpt>
      <trkpt lat="47.27562" lon="-2.45053">
        <ele>-8.1999998092651</ele>
        <time>2022-05-26T08:04:11.000Z</time>
      </trkpt>
      <trkpt lat="47.27584" lon="-2.45094">
        <ele>-8.1999998092651</ele>
        <time>2022-05-26T08:04:17.000Z</time>
      </trkpt>
      <trkpt lat="47.27592" lon="-2.45118">
        <ele>-8.1999998092651</ele>
        <time>2022-05-26T08:04:20.000Z</time>
      </trkpt>
      <trkpt lat="47.27595" lon="-2.45135">
        <ele>-8.1999998092651</ele>
        <time>2022-05-26T08:04:22.000Z</time>
      </trkpt>
      <trkpt lat="47.27602" lon="-2.45184">
        <ele>-8.1999998092651</ele>
        <time>2022-05-26T08:04:28.000Z</time>
      </trkpt>
      <trkpt lat="47.27608" lon="-2.45235">
        <ele>-8.1999998092651</ele>
        <time>2022-05-26T08:04:34.000Z</time>
      </trkpt>
      <trkpt lat="47.27614" lon="-2.45302">
        <ele>-8.1999998092651</ele>
        <time>2022-05-26T08:04:42.000Z</time>
      </trkpt>
      <trkpt lat="47.27619" lon="-2.45348">
        <ele>-8.1999998092651</ele>
        <time>2022-05-26T08:04:48.000Z</time>
      </trkpt>
      <trkpt lat="47.27619" lon="-2.45355">
        <ele>-8.1999998092651</ele>
        <time>2022-05-26T08:04:49.000Z</time>
      </trkpt>
      <trkpt lat="47.27613" lon="-2.4537">
        <ele>-8.1999998092651</ele>
        <time>2022-05-26T08:04:52.000Z</time>
      </trkpt>
      <trkpt lat="47.27602" lon="-2.45371">
        <ele>-8.1999998092651</ele>
        <time>2022-05-26T08:04:54.000Z</time>
      </trkpt>
      <trkpt lat="47.27585" lon="-2.45374">
        <ele>-8.1999998092651</ele>
        <time>2022-05-26T08:04:57.000Z</time>
      </trkpt>
      <trkpt lat="47.27545" lon="-2.45389">
        <ele>-8.1999998092651</ele>
        <time>2022-05-26T08:05:04.000Z</time>
      </trkpt>
      <trkpt lat="47.27522" lon="-2.45398">
        <ele>-8.1999998092651</ele>
        <time>2022-05-26T08:05:08.000Z</time>
      </trkpt>
      <trkpt lat="47.27506" lon="-2.45402">
        <ele>-8.1999998092651</ele>
        <time>2022-05-26T08:05:11.000Z</time>
      </trkpt>
      <trkpt lat="47.27491" lon="-2.45408">
        <ele>-8.1999998092651</ele>
        <time>2022-05-26T08:05:14.000Z</time>
      </trkpt>
      <trkpt lat="47.27489" lon="-2.45413">
        <ele>-8.1999998092651</ele>
        <time>2022-05-26T08:05:15.000Z</time>
      </trkpt>
      <trkpt lat="47.2749" lon="-2.45431">
        <ele>-8.1999998092651</ele>
        <time>2022-05-26T08:05:18.000Z</time>
      </trkpt>
      <trkpt lat="47.27492" lon="-2.45445">
        <ele>-7.8000001907349</ele>
        <time>2022-05-26T08:05:20.000Z</time>
      </trkpt>
      <trkpt lat="47.27493" lon="-2.45452">
        <ele>-7.4000000953674</ele>
        <time>2022-05-26T08:05:21.000Z</time>
      </trkpt>
      <trkpt lat="47.27494" lon="-2.45459">
        <ele>-6.5999999046326</ele>
        <time>2022-05-26T08:05:22.000Z</time>
      </trkpt>
      <trkpt lat="47.27495" lon="-2.45465">
        <ele>-6.1999998092651</ele>
        <time>2022-05-26T08:05:23.000Z</time>
      </trkpt>
      <trkpt lat="47.27495" lon="-2.45472">
        <ele>-6.1999998092651</ele>
        <time>2022-05-26T08:05:24.000Z</time>
      </trkpt>
      <trkpt lat="47.27486" lon="-2.45488">
        <ele>-6.1999998092651</ele>
        <time>2022-05-26T08:05:27.000Z</time>
      </trkpt>
      <trkpt lat="47.27475" lon="-2.45495">
        <ele>-6.1999998092651</ele>
        <time>2022-05-26T08:05:29.000Z</time>
      </trkpt>
      <trkpt lat="47.27454" lon="-2.45506">
        <ele>-6.1999998092651</ele>
        <time>2022-05-26T08:05:33.000Z</time>
      </trkpt>
      <trkpt lat="47.2744" lon="-2.45516">
        <ele>-6.1999998092651</ele>
        <time>2022-05-26T08:05:36.000Z</time>
      </trkpt>
      <trkpt lat="47.27437" lon="-2.45522">
        <ele>-6.1999998092651</ele>
        <time>2022-05-26T08:05:37.000Z</time>
      </trkpt>
      <trkpt lat="47.27433" lon="-2.45549">
        <ele>-6.1999998092651</ele>
        <time>2022-05-26T08:05:41.000Z</time>
      </trkpt>
      <trkpt lat="47.27421" lon="-2.45562">
        <ele>-6.1999998092651</ele>
        <time>2022-05-26T08:05:44.000Z</time>
      </trkpt>
      <trkpt lat="47.27405" lon="-2.45569">
        <ele>-6.1999998092651</ele>
        <time>2022-05-26T08:05:47.000Z</time>
      </trkpt>
      <trkpt lat="47.27389" lon="-2.45572">
        <ele>-6.1999998092651</ele>
        <time>2022-05-26T08:05:50.000Z</time>
      </trkpt>
      <trkpt lat="47.27367" lon="-2.45579">
        <ele>-6.1999998092651</ele>
        <time>2022-05-26T08:05:54.000Z</time>
      </trkpt>
      <trkpt lat="47.27355" lon="-2.45587">
        <ele>-6.1999998092651</ele>
        <time>2022-05-26T08:05:56.000Z</time>
      </trkpt>
      <trkpt lat="47.27344" lon="-2.45593">
        <ele>-6.1999998092651</ele>
        <time>2022-05-26T08:05:58.000Z</time>
      </trkpt>
      <trkpt lat="47.27333" lon="-2.45601">
        <ele>-6.1999998092651</ele>
        <time>2022-05-26T08:06:00.000Z</time>
      </trkpt>
      <trkpt lat="47.27329" lon="-2.45606">
        <ele>-6.1999998092651</ele>
        <time>2022-05-26T08:06:01.000Z</time>
      </trkpt>
      <trkpt lat="47.27324" lon="-2.45627">
        <ele>-6.1999998092651</ele>
        <time>2022-05-26T08:06:04.000Z</time>
      </trkpt>
      <trkpt lat="47.27329" lon="-2.45648">
        <ele>-6.1999998092651</ele>
        <time>2022-05-26T08:06:07.000Z</time>
      </trkpt>
      <trkpt lat="47.27331" lon="-2.45656">
        <ele>-6.1999998092651</ele>
        <time>2022-05-26T08:06:08.000Z</time>
      </trkpt>
      <trkpt lat="47.27353" lon="-2.45716">
        <ele>-6.1999998092651</ele>
        <time>2022-05-26T08:06:16.000Z</time>
      </trkpt>
      <trkpt lat="47.27369" lon="-2.45761">
        <ele>-6.1999998092651</ele>
        <time>2022-05-26T08:06:22.000Z</time>
      </trkpt>
      <trkpt lat="47.27375" lon="-2.45778">
        <ele>-6.1999998092651</ele>
        <time>2022-05-26T08:06:26.000Z</time>
      </trkpt>
      <trkpt lat="47.27386" lon="-2.45777">
        <ele>-6.1999998092651</ele>
        <time>2022-05-26T08:06:29.000Z</time>
      </trkpt>
      <trkpt lat="47.2739" lon="-2.45776">
        <ele>-6.1999998092651</ele>
        <time>2022-05-26T08:06:30.000Z</time>
      </trkpt>
      <trkpt lat="47.27419" lon="-2.4577">
        <ele>-6.1999998092651</ele>
        <time>2022-05-26T08:06:36.000Z</time>
      </trkpt>
      <trkpt lat="47.27454" lon="-2.45762">
        <ele>-6.1999998092651</ele>
        <time>2022-05-26T08:06:43.000Z</time>
      </trkpt>
      <trkpt lat="47.27489" lon="-2.45751">
        <ele>-6.1999998092651</ele>
        <time>2022-05-26T08:06:50.000Z</time>
      </trkpt>
      <trkpt lat="47.27533" lon="-2.45736">
        <ele>-6.1999998092651</ele>
        <time>2022-05-26T08:06:58.000Z</time>
      </trkpt>
      <trkpt lat="47.2757" lon="-2.45722">
        <ele>-6.1999998092651</ele>
        <time>2022-05-26T08:07:05.000Z</time>
      </trkpt>
      <trkpt lat="47.27575" lon="-2.4572">
        <ele>-5.8000001907349</ele>
        <time>2022-05-26T08:07:06.000Z</time>
      </trkpt>
      <trkpt lat="47.27581" lon="-2.45718">
        <ele>-5.4000000953674</ele>
        <time>2022-05-26T08:07:07.000Z</time>
      </trkpt>
      <trkpt lat="47.27586" lon="-2.45717">
        <ele>-5</ele>
        <time>2022-05-26T08:07:08.000Z</time>
      </trkpt>
      <trkpt lat="47.2759" lon="-2.45715">
        <ele>-4.5999999046326</ele>
        <time>2022-05-26T08:07:09.000Z</time>
      </trkpt>
      <trkpt lat="47.27595" lon="-2.45714">
        <ele>-4.1999998092651</ele>
        <time>2022-05-26T08:07:10.000Z</time>
      </trkpt>
      <trkpt lat="47.276" lon="-2.45713">
        <ele>-4.1999998092651</ele>
        <time>2022-05-26T08:07:11.000Z</time>
      </trkpt>
      <trkpt lat="47.27623" lon="-2.45705">
        <ele>-4.1999998092651</ele>
        <time>2022-05-26T08:07:16.000Z</time>
      </trkpt>
      <trkpt lat="47.2763" lon="-2.45711">
        <ele>-4.1999998092651</ele>
        <time>2022-05-26T08:07:18.000Z</time>
      </trkpt>
      <trkpt lat="47.27639" lon="-2.45738">
        <ele>-4.1999998092651</ele>
        <time>2022-05-26T08:07:22.000Z</time>
      </trkpt>
      <trkpt lat="47.27642" lon="-2.45768">
        <ele>-4.5999999046326</ele>
        <time>2022-05-26T08:07:25.000Z</time>
      </trkpt>
      <trkpt lat="47.27643" lon="-2.45778">
        <ele>-5</ele>
        <time>2022-05-26T08:07:26.000Z</time>
      </trkpt>
      <trkpt lat="47.27644" lon="-2.45787">
        <ele>-5.4000000953674</ele>
        <time>2022-05-26T08:07:27.000Z</time>
      </trkpt>
      <trkpt lat="47.27644" lon="-2.45796">
        <ele>-5.8000001907349</ele>
        <time>2022-05-26T08:07:28.000Z</time>
      </trkpt>
      <trkpt lat="47.27645" lon="-2.45806">
        <ele>-6.1999998092651</ele>
        <time>2022-05-26T08:07:29.000Z</time>
      </trkpt>
      <trkpt lat="47.27645" lon="-2.45826">
        <ele>-6.1999998092651</ele>
        <time>2022-05-26T08:07:31.000Z</time>
      </trkpt>
      <trkpt lat="47.27642" lon="-2.45906">
        <ele>-6.1999998092651</ele>
        <time>2022-05-26T08:07:39.000Z</time>
      </trkpt>
      <trkpt lat="47.27641" lon="-2.45925">
        <ele>-6.5999999046326</ele>
        <time>2022-05-26T08:07:41.000Z</time>
      </trkpt>
      <trkpt lat="47.27641" lon="-2.45934">
        <ele>-7</ele>
        <time>2022-05-26T08:07:42.000Z</time>
      </trkpt>
      <trkpt lat="47.27641" lon="-2.45943">
        <ele>-7.5999999046326</ele>
        <time>2022-05-26T08:07:43.000Z</time>
      </trkpt>
      <trkpt lat="47.27641" lon="-2.45953">
        <ele>-8</ele>
        <time>2022-05-26T08:07:44.000Z</time>
      </trkpt>
      <trkpt lat="47.27641" lon="-2.45962">
        <ele>-8.3999996185303</ele>
        <time>2022-05-26T08:07:45.000Z</time>
      </trkpt>
      <trkpt lat="47.2764" lon="-2.4598">
        <ele>-8.3999996185303</ele>
        <time>2022-05-26T08:07:47.000Z</time>
      </trkpt>
      <trkpt lat="47.27643" lon="-2.46014">
        <ele>-8.3999996185303</ele>
        <time>2022-05-26T08:07:51.000Z</time>
      </trkpt>
      <trkpt lat="47.27652" lon="-2.46064">
        <ele>-8.3999996185303</ele>
        <time>2022-05-26T08:07:57.000Z</time>
      </trkpt>
      <trkpt lat="47.27657" lon="-2.46089">
        <ele>-8.3999996185303</ele>
        <time>2022-05-26T08:08:00.000Z</time>
      </trkpt>
      <trkpt lat="47.2766" lon="-2.46106">
        <ele>-8.3999996185303</ele>
        <time>2022-05-26T08:08:02.000Z</time>
      </trkpt>
      <trkpt lat="47.27668" lon="-2.46145">
        <ele>-8.3999996185303</ele>
        <time>2022-05-26T08:08:07.000Z</time>
      </trkpt>
      <trkpt lat="47.2767" lon="-2.46159">
        <ele>-8.3999996185303</ele>
        <time>2022-05-26T08:08:09.000Z</time>
      </trkpt>
      <trkpt lat="47.27669" lon="-2.46183">
        <ele>-8.3999996185303</ele>
        <time>2022-05-26T08:08:12.000Z</time>
      </trkpt>
      <trkpt lat="47.27669" lon="-2.46191">
        <ele>-8</ele>
        <time>2022-05-26T08:08:13.000Z</time>
      </trkpt>
      <trkpt lat="47.27668" lon="-2.462">
        <ele>-7.5999999046326</ele>
        <time>2022-05-26T08:08:14.000Z</time>
      </trkpt>
      <trkpt lat="47.27669" lon="-2.4621">
        <ele>-7</ele>
        <time>2022-05-26T08:08:15.000Z</time>
      </trkpt>
      <trkpt lat="47.27669" lon="-2.46219">
        <ele>-6.1999998092651</ele>
        <time>2022-05-26T08:08:16.000Z</time>
      </trkpt>
      <trkpt lat="47.27672" lon="-2.46254">
        <ele>-6.1999998092651</ele>
        <time>2022-05-26T08:08:20.000Z</time>
      </trkpt>
      <trkpt lat="47.27671" lon="-2.46262">
        <ele>-6.1999998092651</ele>
        <time>2022-05-26T08:08:21.000Z</time>
      </trkpt>
      <trkpt lat="47.27659" lon="-2.46287">
        <ele>-6.1999998092651</ele>
        <time>2022-05-26T08:08:25.000Z</time>
      </trkpt>
      <trkpt lat="47.27667" lon="-2.46304">
        <ele>-6.1999998092651</ele>
        <time>2022-05-26T08:08:28.000Z</time>
      </trkpt>
      <trkpt lat="47.27673" lon="-2.46316">
        <ele>-6.1999998092651</ele>
        <time>2022-05-26T08:08:30.000Z</time>
      </trkpt>
      <trkpt lat="47.27675" lon="-2.46329">
        <ele>-6.1999998092651</ele>
        <time>2022-05-26T08:08:32.000Z</time>
      </trkpt>
      <trkpt lat="47.27683" lon="-2.46364">
        <ele>-6.1999998092651</ele>
        <time>2022-05-26T08:08:37.000Z</time>
      </trkpt>
      <trkpt lat="47.27686" lon="-2.46372">
        <ele>-6.1999998092651</ele>
        <time>2022-05-26T08:08:38.000Z</time>
      </trkpt>
      <trkpt lat="47.27703" lon="-2.46419">
        <ele>-6.1999998092651</ele>
        <time>2022-05-26T08:08:44.000Z</time>
      </trkpt>
      <trkpt lat="47.27711" lon="-2.46434">
        <ele>-6.1999998092651</ele>
        <time>2022-05-26T08:08:46.000Z</time>
      </trkpt>
      <trkpt lat="47.27722" lon="-2.46455">
        <ele>-6.1999998092651</ele>
        <time>2022-05-26T08:08:49.000Z</time>
      </trkpt>
      <trkpt lat="47.27734" lon="-2.46492">
        <ele>-6.1999998092651</ele>
        <time>2022-05-26T08:08:54.000Z</time>
      </trkpt>
      <trkpt lat="47.27743" lon="-2.46536">
        <ele>-6.1999998092651</ele>
        <time>2022-05-26T08:09:00.000Z</time>
      </trkpt>
      <trkpt lat="47.27757" lon="-2.46584">
        <ele>-6.1999998092651</ele>
        <time>2022-05-26T08:09:07.000Z</time>
      </trkpt>
      <trkpt lat="47.27765" lon="-2.466">
        <ele>-6.1999998092651</ele>
        <time>2022-05-26T08:09:10.000Z</time>
      </trkpt>
      <trkpt lat="47.27766" lon="-2.46606">
        <ele>-6.1999998092651</ele>
        <time>2022-05-26T08:09:11.000Z</time>
      </trkpt>
      <trkpt lat="47.27761" lon="-2.46629">
        <ele>-6.1999998092651</ele>
        <time>2022-05-26T08:09:15.000Z</time>
      </trkpt>
      <trkpt lat="47.27765" lon="-2.46647">
        <ele>-6.1999998092651</ele>
        <time>2022-05-26T08:09:18.000Z</time>
      </trkpt>
      <trkpt lat="47.27765" lon="-2.46668">
        <ele>-6.1999998092651</ele>
        <time>2022-05-26T08:09:21.000Z</time>
      </trkpt>
      <trkpt lat="47.27764" lon="-2.46677">
        <ele>-6.1999998092651</ele>
        <time>2022-05-26T08:09:22.000Z</time>
      </trkpt>
      <trkpt lat="47.27762" lon="-2.46703">
        <ele>-6.1999998092651</ele>
        <time>2022-05-26T08:09:25.000Z</time>
      </trkpt>
      <trkpt lat="47.27761" lon="-2.46711">
        <ele>-6.1999998092651</ele>
        <time>2022-05-26T08:09:26.000Z</time>
      </trkpt>
      <trkpt lat="47.27761" lon="-2.46719">
        <ele>-6.1999998092651</ele>
        <time>2022-05-26T08:09:27.000Z</time>
      </trkpt>
      <trkpt lat="47.27761" lon="-2.46727">
        <ele>-6.5999999046326</ele>
        <time>2022-05-26T08:09:28.000Z</time>
      </trkpt>
      <trkpt lat="47.27761" lon="-2.46734">
        <ele>-7.1999998092651</ele>
        <time>2022-05-26T08:09:29.000Z</time>
      </trkpt>
      <trkpt lat="47.27762" lon="-2.46741">
        <ele>-8</ele>
        <time>2022-05-26T08:09:30.000Z</time>
      </trkpt>
      <trkpt lat="47.27763" lon="-2.46748">
        <ele>-8.3999996185303</ele>
        <time>2022-05-26T08:09:31.000Z</time>
      </trkpt>
      <trkpt lat="47.27769" lon="-2.4677">
        <ele>-8.3999996185303</ele>
        <time>2022-05-26T08:09:34.000Z</time>
      </trkpt>
      <trkpt lat="47.27771" lon="-2.46778">
        <ele>-8.3999996185303</ele>
        <time>2022-05-26T08:09:35.000Z</time>
      </trkpt>
      <trkpt lat="47.27782" lon="-2.46815">
        <ele>-8.3999996185303</ele>
        <time>2022-05-26T08:09:40.000Z</time>
      </trkpt>
      <trkpt lat="47.27786" lon="-2.46833">
        <ele>-8.3999996185303</ele>
        <time>2022-05-26T08:09:43.000Z</time>
      </trkpt>
      <trkpt lat="47.27792" lon="-2.46853">
        <ele>-8.3999996185303</ele>
        <time>2022-05-26T08:09:46.000Z</time>
      </trkpt>
      <trkpt lat="47.27794" lon="-2.46861">
        <ele>-8.3999996185303</ele>
        <time>2022-05-26T08:09:47.000Z</time>
      </trkpt>
      <trkpt lat="47.27799" lon="-2.46894">
        <ele>-8.3999996185303</ele>
        <time>2022-05-26T08:09:51.000Z</time>
      </trkpt>
      <trkpt lat="47.27802" lon="-2.46901">
        <ele>-8.3999996185303</ele>
        <time>2022-05-26T08:09:52.000Z</time>
      </trkpt>
      <trkpt lat="47.27811" lon="-2.46922">
        <ele>-8.3999996185303</ele>
        <time>2022-05-26T08:09:55.000Z</time>
      </trkpt>
      <trkpt lat="47.27814" lon="-2.46929">
        <ele>-8.3999996185303</ele>
        <time>2022-05-26T08:09:56.000Z</time>
      </trkpt>
      <trkpt lat="47.27834" lon="-2.46947">
        <ele>-8.3999996185303</ele>
        <time>2022-05-26T08:10:00.000Z</time>
      </trkpt>
      <trkpt lat="47.27839" lon="-2.4695">
        <ele>-8.3999996185303</ele>
        <time>2022-05-26T08:10:01.000Z</time>
      </trkpt>
      <trkpt lat="47.27863" lon="-2.46968">
        <ele>-8.3999996185303</ele>
        <time>2022-05-26T08:10:06.000Z</time>
      </trkpt>
      <trkpt lat="47.27887" lon="-2.46991">
        <ele>-8.3999996185303</ele>
        <time>2022-05-26T08:10:12.000Z</time>
      </trkpt>
      <trkpt lat="47.27891" lon="-2.46996">
        <ele>-8.3999996185303</ele>
        <time>2022-05-26T08:10:13.000Z</time>
      </trkpt>
      <trkpt lat="47.27899" lon="-2.47004">
        <ele>-8.3999996185303</ele>
        <time>2022-05-26T08:10:15.000Z</time>
      </trkpt>
      <trkpt lat="47.27914" lon="-2.47021">
        <ele>-8.3999996185303</ele>
        <time>2022-05-26T08:10:19.000Z</time>
      </trkpt>
      <trkpt lat="47.27936" lon="-2.47051">
        <ele>-8.3999996185303</ele>
        <time>2022-05-26T08:10:25.000Z</time>
      </trkpt>
      <trkpt lat="47.27954" lon="-2.47087">
        <ele>-8.3999996185303</ele>
        <time>2022-05-26T08:10:31.000Z</time>
      </trkpt>
      <trkpt lat="47.27957" lon="-2.47094">
        <ele>-8.3999996185303</ele>
        <time>2022-05-26T08:10:32.000Z</time>
      </trkpt>
      <trkpt lat="47.27964" lon="-2.47122">
        <ele>-8.3999996185303</ele>
        <time>2022-05-26T08:10:36.000Z</time>
      </trkpt>
      <trkpt lat="47.27965" lon="-2.47129">
        <ele>-8.3999996185303</ele>
        <time>2022-05-26T08:10:37.000Z</time>
      </trkpt>
      <trkpt lat="47.27975" lon="-2.47183">
        <ele>-8.3999996185303</ele>
        <time>2022-05-26T08:10:44.000Z</time>
      </trkpt>
      <trkpt lat="47.27985" lon="-2.47238">
        <ele>-8.3999996185303</ele>
        <time>2022-05-26T08:10:51.000Z</time>
      </trkpt>
      <trkpt lat="47.27994" lon="-2.47287">
        <ele>-8.3999996185303</ele>
        <time>2022-05-26T08:10:58.000Z</time>
      </trkpt>
      <trkpt lat="47.28001" lon="-2.47325">
        <ele>-8.3999996185303</ele>
        <time>2022-05-26T08:11:04.000Z</time>
      </trkpt>
      <trkpt lat="47.28004" lon="-2.4733">
        <ele>-8.3999996185303</ele>
        <time>2022-05-26T08:11:05.000Z</time>
      </trkpt>
      <trkpt lat="47.28015" lon="-2.47338">
        <ele>-8.3999996185303</ele>
        <time>2022-05-26T08:11:08.000Z</time>
      </trkpt>
      <trkpt lat="47.28028" lon="-2.47333">
        <ele>-8.3999996185303</ele>
        <time>2022-05-26T08:11:11.000Z</time>
      </trkpt>
      <trkpt lat="47.28033" lon="-2.47331">
        <ele>-8.3999996185303</ele>
        <time>2022-05-26T08:11:12.000Z</time>
      </trkpt>
      <trkpt lat="47.28076" lon="-2.4732">
        <ele>-8.3999996185303</ele>
        <time>2022-05-26T08:11:21.000Z</time>
      </trkpt>
      <trkpt lat="47.28096" lon="-2.47315">
        <ele>-8.3999996185303</ele>
        <time>2022-05-26T08:11:25.000Z</time>
      </trkpt>
      <trkpt lat="47.28108" lon="-2.4731">
        <ele>-8.3999996185303</ele>
        <time>2022-05-26T08:11:28.000Z</time>
      </trkpt>
      <trkpt lat="47.28116" lon="-2.4731">
        <ele>-8.8000001907349</ele>
        <time>2022-05-26T08:11:30.000Z</time>
      </trkpt>
      <trkpt lat="47.28119" lon="-2.47312">
        <ele>-9.1999998092651</ele>
        <time>2022-05-26T08:11:31.000Z</time>
      </trkpt>
      <trkpt lat="47.28123" lon="-2.47317">
        <ele>-9.6000003814697</ele>
        <time>2022-05-26T08:11:32.000Z</time>
      </trkpt>
      <trkpt lat="47.28125" lon="-2.47323">
        <ele>-10.60000038147</ele>
        <time>2022-05-26T08:11:33.000Z</time>
      </trkpt>
      <trkpt lat="47.28126" lon="-2.47337">
        <ele>-10.60000038147</ele>
        <time>2022-05-26T08:11:35.000Z</time>
      </trkpt>
      <trkpt lat="47.28124" lon="-2.47353">
        <ele>-10.60000038147</ele>
        <time>2022-05-26T08:11:37.000Z</time>
      </trkpt>
      <trkpt lat="47.2812" lon="-2.47377">
        <ele>-10.60000038147</ele>
        <time>2022-05-26T08:11:40.000Z</time>
      </trkpt>
      <trkpt lat="47.28107" lon="-2.47441">
        <ele>-10.60000038147</ele>
        <time>2022-05-26T08:11:48.000Z</time>
      </trkpt>
      <trkpt lat="47.28095" lon="-2.47509">
        <ele>-10.60000038147</ele>
        <time>2022-05-26T08:11:56.000Z</time>
      </trkpt>
      <trkpt lat="47.28085" lon="-2.47559">
        <ele>-10.60000038147</ele>
        <time>2022-05-26T08:12:02.000Z</time>
      </trkpt>
      <trkpt lat="47.2808" lon="-2.47616">
        <ele>-10.60000038147</ele>
        <time>2022-05-26T08:12:09.000Z</time>
      </trkpt>
      <trkpt lat="47.28081" lon="-2.47665">
        <ele>-10.60000038147</ele>
        <time>2022-05-26T08:12:15.000Z</time>
      </trkpt>
      <trkpt lat="47.28089" lon="-2.47722">
        <ele>-10.60000038147</ele>
        <time>2022-05-26T08:12:22.000Z</time>
      </trkpt>
      <trkpt lat="47.28097" lon="-2.47783">
        <ele>-10.60000038147</ele>
        <time>2022-05-26T08:12:30.000Z</time>
      </trkpt>
      <trkpt lat="47.28105" lon="-2.47836">
        <ele>-10.60000038147</ele>
        <time>2022-05-26T08:12:37.000Z</time>
      </trkpt>
      <trkpt lat="47.2811" lon="-2.47864">
        <ele>-10.60000038147</ele>
        <time>2022-05-26T08:12:41.000Z</time>
      </trkpt>
      <trkpt lat="47.28112" lon="-2.4787">
        <ele>-10.199999809265</ele>
        <time>2022-05-26T08:12:42.000Z</time>
      </trkpt>
      <trkpt lat="47.28113" lon="-2.47877">
        <ele>-9.6000003814697</ele>
        <time>2022-05-26T08:12:43.000Z</time>
      </trkpt>
      <trkpt lat="47.28112" lon="-2.47885">
        <ele>-9.1999998092651</ele>
        <time>2022-05-26T08:12:44.000Z</time>
      </trkpt>
      <trkpt lat="47.28112" lon="-2.47893">
        <ele>-8.8000001907349</ele>
        <time>2022-05-26T08:12:45.000Z</time>
      </trkpt>
      <trkpt lat="47.28113" lon="-2.47901">
        <ele>-8.3999996185303</ele>
        <time>2022-05-26T08:12:46.000Z</time>
      </trkpt>
      <trkpt lat="47.28114" lon="-2.4791">
        <ele>-8.3999996185303</ele>
        <time>2022-05-26T08:12:47.000Z</time>
      </trkpt>
      <trkpt lat="47.28127" lon="-2.47937">
        <ele>-8.3999996185303</ele>
        <time>2022-05-26T08:12:51.000Z</time>
      </trkpt>
      <trkpt lat="47.28147" lon="-2.47952">
        <ele>-8.3999996185303</ele>
        <time>2022-05-26T08:12:55.000Z</time>
      </trkpt>
      <trkpt lat="47.28155" lon="-2.4797">
        <ele>-8.3999996185303</ele>
        <time>2022-05-26T08:12:58.000Z</time>
      </trkpt>
      <trkpt lat="47.28156" lon="-2.48002">
        <ele>-8.3999996185303</ele>
        <time>2022-05-26T08:13:02.000Z</time>
      </trkpt>
      <trkpt lat="47.28165" lon="-2.48078">
        <ele>-8.3999996185303</ele>
        <time>2022-05-26T08:13:11.000Z</time>
      </trkpt>
      <trkpt lat="47.28174" lon="-2.48136">
        <ele>-8.3999996185303</ele>
        <time>2022-05-26T08:13:18.000Z</time>
      </trkpt>
      <trkpt lat="47.28182" lon="-2.48193">
        <ele>-8.3999996185303</ele>
        <time>2022-05-26T08:13:25.000Z</time>
      </trkpt>
      <trkpt lat="47.28188" lon="-2.48213">
        <ele>-8.3999996185303</ele>
        <time>2022-05-26T08:13:28.000Z</time>
      </trkpt>
      <trkpt lat="47.28193" lon="-2.48225">
        <ele>-8.3999996185303</ele>
        <time>2022-05-26T08:13:30.000Z</time>
      </trkpt>
      <trkpt lat="47.282" lon="-2.48234">
        <ele>-8.3999996185303</ele>
        <time>2022-05-26T08:13:32.000Z</time>
      </trkpt>
      <trkpt lat="47.28203" lon="-2.4824">
        <ele>-8.3999996185303</ele>
        <time>2022-05-26T08:13:33.000Z</time>
      </trkpt>
      <trkpt lat="47.28204" lon="-2.48247">
        <ele>-8.3999996185303</ele>
        <time>2022-05-26T08:13:34.000Z</time>
      </trkpt>
      <trkpt lat="47.28201" lon="-2.48276">
        <ele>-8.3999996185303</ele>
        <time>2022-05-26T08:13:38.000Z</time>
      </trkpt>
      <trkpt lat="47.28196" lon="-2.48312">
        <ele>-8.3999996185303</ele>
        <time>2022-05-26T08:13:43.000Z</time>
      </trkpt>
      <trkpt lat="47.28195" lon="-2.4832">
        <ele>-8.3999996185303</ele>
        <time>2022-05-26T08:13:44.000Z</time>
      </trkpt>
      <trkpt lat="47.28196" lon="-2.48341">
        <ele>-8.3999996185303</ele>
        <time>2022-05-26T08:13:47.000Z</time>
      </trkpt>
      <trkpt lat="47.28202" lon="-2.48351">
        <ele>-8.3999996185303</ele>
        <time>2022-05-26T08:13:49.000Z</time>
      </trkpt>
      <trkpt lat="47.28213" lon="-2.4835">
        <ele>-8.3999996185303</ele>
        <time>2022-05-26T08:13:51.000Z</time>
      </trkpt>
      <trkpt lat="47.28225" lon="-2.48345">
        <ele>-8.3999996185303</ele>
        <time>2022-05-26T08:13:53.000Z</time>
      </trkpt>
      <trkpt lat="47.2823" lon="-2.48344">
        <ele>-8.3999996185303</ele>
        <time>2022-05-26T08:13:54.000Z</time>
      </trkpt>
      <trkpt lat="47.28236" lon="-2.48344">
        <ele>-8.3999996185303</ele>
        <time>2022-05-26T08:13:55.000Z</time>
      </trkpt>
      <trkpt lat="47.28252" lon="-2.48355">
        <ele>-8.3999996185303</ele>
        <time>2022-05-26T08:13:58.000Z</time>
      </trkpt>
      <trkpt lat="47.28272" lon="-2.4837">
        <ele>-8.3999996185303</ele>
        <time>2022-05-26T08:14:02.000Z</time>
      </trkpt>
      <trkpt lat="47.28288" lon="-2.48367">
        <ele>-8.3999996185303</ele>
        <time>2022-05-26T08:14:05.000Z</time>
      </trkpt>
      <trkpt lat="47.28293" lon="-2.48369">
        <ele>-8.8000001907349</ele>
        <time>2022-05-26T08:14:06.000Z</time>
      </trkpt>
      <trkpt lat="47.28297" lon="-2.48373">
        <ele>-9.3999996185303</ele>
        <time>2022-05-26T08:14:07.000Z</time>
      </trkpt>
      <trkpt lat="47.283" lon="-2.48378">
        <ele>-9.8000001907349</ele>
        <time>2022-05-26T08:14:08.000Z</time>
      </trkpt>
      <trkpt lat="47.28304" lon="-2.48381">
        <ele>-10.199999809265</ele>
        <time>2022-05-26T08:14:09.000Z</time>
      </trkpt>
      <trkpt lat="47.28309" lon="-2.48382">
        <ele>-10.60000038147</ele>
        <time>2022-05-26T08:14:10.000Z</time>
      </trkpt>
      <trkpt lat="47.28315" lon="-2.48382">
        <ele>-10.60000038147</ele>
        <time>2022-05-26T08:14:11.000Z</time>
      </trkpt>
      <trkpt lat="47.28331" lon="-2.48373">
        <ele>-10.60000038147</ele>
        <time>2022-05-26T08:14:14.000Z</time>
      </trkpt>
      <trkpt lat="47.28336" lon="-2.48368">
        <ele>-10.60000038147</ele>
        <time>2022-05-26T08:14:15.000Z</time>
      </trkpt>
      <trkpt lat="47.28341" lon="-2.48364">
        <ele>-10.60000038147</ele>
        <time>2022-05-26T08:14:16.000Z</time>
      </trkpt>
      <trkpt lat="47.28353" lon="-2.4836">
        <ele>-10.60000038147</ele>
        <time>2022-05-26T08:14:18.000Z</time>
      </trkpt>
      <trkpt lat="47.28365" lon="-2.48357">
        <ele>-10.60000038147</ele>
        <time>2022-05-26T08:14:20.000Z</time>
      </trkpt>
      <trkpt lat="47.28382" lon="-2.48354">
        <ele>-10.60000038147</ele>
        <time>2022-05-26T08:14:23.000Z</time>
      </trkpt>
      <trkpt lat="47.28387" lon="-2.48355">
        <ele>-10.60000038147</ele>
        <time>2022-05-26T08:14:24.000Z</time>
      </trkpt>
      <trkpt lat="47.28399" lon="-2.48358">
        <ele>-10.60000038147</ele>
        <time>2022-05-26T08:14:26.000Z</time>
      </trkpt>
      <trkpt lat="47.28405" lon="-2.48361">
        <ele>-10.60000038147</ele>
        <time>2022-05-26T08:14:27.000Z</time>
      </trkpt>
      <trkpt lat="47.2843" lon="-2.48384">
        <ele>-10.60000038147</ele>
        <time>2022-05-26T08:14:32.000Z</time>
      </trkpt>
      <trkpt lat="47.28441" lon="-2.48392">
        <ele>-10.60000038147</ele>
        <time>2022-05-26T08:14:34.000Z</time>
      </trkpt>
      <trkpt lat="47.28449" lon="-2.484">
        <ele>-10.60000038147</ele>
        <time>2022-05-26T08:14:36.000Z</time>
      </trkpt>
      <trkpt lat="47.2845" lon="-2.48407">
        <ele>-10.60000038147</ele>
        <time>2022-05-26T08:14:37.000Z</time>
      </trkpt>
      <trkpt lat="47.28447" lon="-2.48431">
        <ele>-10.60000038147</ele>
        <time>2022-05-26T08:14:40.000Z</time>
      </trkpt>
      <trkpt lat="47.28447" lon="-2.48439">
        <ele>-10.60000038147</ele>
        <time>2022-05-26T08:14:41.000Z</time>
      </trkpt>
      <trkpt lat="47.28443" lon="-2.48482">
        <ele>-10.60000038147</ele>
        <time>2022-05-26T08:14:46.000Z</time>
      </trkpt>
      <trkpt lat="47.28441" lon="-2.48507">
        <ele>-10.60000038147</ele>
        <time>2022-05-26T08:14:49.000Z</time>
      </trkpt>
      <trkpt lat="47.28437" lon="-2.48522">
        <ele>-10.60000038147</ele>
        <time>2022-05-26T08:14:51.000Z</time>
      </trkpt>
      <trkpt lat="47.28436" lon="-2.48544">
        <ele>-10.60000038147</ele>
        <time>2022-05-26T08:14:54.000Z</time>
      </trkpt>
      <trkpt lat="47.28445" lon="-2.48551">
        <ele>-10.60000038147</ele>
        <time>2022-05-26T08:14:56.000Z</time>
      </trkpt>
      <trkpt lat="47.28451" lon="-2.48554">
        <ele>-10.60000038147</ele>
        <time>2022-05-26T08:14:57.000Z</time>
      </trkpt>
      <trkpt lat="47.28469" lon="-2.48564">
        <ele>-10.60000038147</ele>
        <time>2022-05-26T08:15:00.000Z</time>
      </trkpt>
      <trkpt lat="47.28473" lon="-2.48571">
        <ele>-10.60000038147</ele>
        <time>2022-05-26T08:15:01.000Z</time>
      </trkpt>
      <trkpt lat="47.28478" lon="-2.48594">
        <ele>-10.60000038147</ele>
        <time>2022-05-26T08:15:04.000Z</time>
      </trkpt>
      <trkpt lat="47.2848" lon="-2.48601">
        <ele>-10.60000038147</ele>
        <time>2022-05-26T08:15:05.000Z</time>
      </trkpt>
      <trkpt lat="47.28481" lon="-2.48609">
        <ele>-10.60000038147</ele>
        <time>2022-05-26T08:15:06.000Z</time>
      </trkpt>
      <trkpt lat="47.28479" lon="-2.48625">
        <ele>-10.60000038147</ele>
        <time>2022-05-26T08:15:08.000Z</time>
      </trkpt>
      <trkpt lat="47.28471" lon="-2.48674">
        <ele>-10.60000038147</ele>
        <time>2022-05-26T08:15:14.000Z</time>
      </trkpt>
      <trkpt lat="47.28481" lon="-2.48695">
        <ele>-10.60000038147</ele>
        <time>2022-05-26T08:15:17.000Z</time>
      </trkpt>
      <trkpt lat="47.28499" lon="-2.48715">
        <ele>-10.60000038147</ele>
        <time>2022-05-26T08:15:21.000Z</time>
      </trkpt>
      <trkpt lat="47.28503" lon="-2.48721">
        <ele>-10.60000038147</ele>
        <time>2022-05-26T08:15:22.000Z</time>
      </trkpt>
      <trkpt lat="47.28515" lon="-2.48737">
        <ele>-10.60000038147</ele>
        <time>2022-05-26T08:15:25.000Z</time>
      </trkpt>
      <trkpt lat="47.28526" lon="-2.48754">
        <ele>-10.60000038147</ele>
        <time>2022-05-26T08:15:28.000Z</time>
      </trkpt>
      <trkpt lat="47.28546" lon="-2.48789">
        <ele>-10.60000038147</ele>
        <time>2022-05-26T08:15:34.000Z</time>
      </trkpt>
      <trkpt lat="47.28564" lon="-2.48822">
        <ele>-10.60000038147</ele>
        <time>2022-05-26T08:15:39.000Z</time>
      </trkpt>
      <trkpt lat="47.28568" lon="-2.48827">
        <ele>-10.60000038147</ele>
        <time>2022-05-26T08:15:40.000Z</time>
      </trkpt>
      <trkpt lat="47.2858" lon="-2.48855">
        <ele>-10.60000038147</ele>
        <time>2022-05-26T08:15:44.000Z</time>
      </trkpt>
      <trkpt lat="47.28581" lon="-2.48864">
        <ele>-10.60000038147</ele>
        <time>2022-05-26T08:15:45.000Z</time>
      </trkpt>
      <trkpt lat="47.28581" lon="-2.48873">
        <ele>-10.60000038147</ele>
        <time>2022-05-26T08:15:46.000Z</time>
      </trkpt>
      <trkpt lat="47.28579" lon="-2.48897">
        <ele>-10.60000038147</ele>
        <time>2022-05-26T08:15:49.000Z</time>
      </trkpt>
      <trkpt lat="47.28569" lon="-2.48916">
        <ele>-10.60000038147</ele>
        <time>2022-05-26T08:15:52.000Z</time>
      </trkpt>
      <trkpt lat="47.28557" lon="-2.4892">
        <ele>-10.60000038147</ele>
        <time>2022-05-26T08:15:54.000Z</time>
      </trkpt>
      <trkpt lat="47.28551" lon="-2.48922">
        <ele>-10.60000038147</ele>
        <time>2022-05-26T08:15:55.000Z</time>
      </trkpt>
      <trkpt lat="47.28539" lon="-2.48926">
        <ele>-10.60000038147</ele>
        <time>2022-05-26T08:15:57.000Z</time>
      </trkpt>
      <trkpt lat="47.28521" lon="-2.48929">
        <ele>-10.60000038147</ele>
        <time>2022-05-26T08:16:00.000Z</time>
      </trkpt>
      <trkpt lat="47.28503" lon="-2.48926">
        <ele>-10.60000038147</ele>
        <time>2022-05-26T08:16:03.000Z</time>
      </trkpt>
      <trkpt lat="47.28491" lon="-2.48924">
        <ele>-10.60000038147</ele>
        <time>2022-05-26T08:16:05.000Z</time>
      </trkpt>
      <trkpt lat="47.28485" lon="-2.48923">
        <ele>-10.60000038147</ele>
        <time>2022-05-26T08:16:06.000Z</time>
      </trkpt>
      <trkpt lat="47.28474" lon="-2.4893">
        <ele>-10.60000038147</ele>
        <time>2022-05-26T08:16:08.000Z</time>
      </trkpt>
      <trkpt lat="47.28467" lon="-2.48951">
        <ele>-10.60000038147</ele>
        <time>2022-05-26T08:16:11.000Z</time>
      </trkpt>
      <trkpt lat="47.28467" lon="-2.48967">
        <ele>-10.60000038147</ele>
        <time>2022-05-26T08:16:14.000Z</time>
      </trkpt>
      <trkpt lat="47.28478" lon="-2.48974">
        <ele>-10.60000038147</ele>
        <time>2022-05-26T08:16:18.000Z</time>
      </trkpt>
      <trkpt lat="47.28488" lon="-2.48979">
        <ele>-10.60000038147</ele>
        <time>2022-05-26T08:16:23.000Z</time>
      </trkpt>
      <trkpt lat="47.2849" lon="-2.4898">
        <ele>-10.60000038147</ele>
        <time>2022-05-26T08:16:36.000Z</time>
      </trkpt>
      <trkpt lat="47.28501" lon="-2.48982">
        <ele>-10.60000038147</ele>
        <time>2022-05-26T08:16:40.000Z</time>
      </trkpt>
      <trkpt lat="47.28525" lon="-2.48974">
        <ele>-10.60000038147</ele>
        <time>2022-05-26T08:16:45.000Z</time>
      </trkpt>
      <trkpt lat="47.2853" lon="-2.48974">
        <ele>-10.60000038147</ele>
        <time>2022-05-26T08:16:46.000Z</time>
      </trkpt>
      <trkpt lat="47.28555" lon="-2.48972">
        <ele>-10.60000038147</ele>
        <time>2022-05-26T08:16:51.000Z</time>
      </trkpt>
      <trkpt lat="47.2857" lon="-2.48974">
        <ele>-10.60000038147</ele>
        <time>2022-05-26T08:16:54.000Z</time>
      </trkpt>
      <trkpt lat="47.28579" lon="-2.4898">
        <ele>-10.60000038147</ele>
        <time>2022-05-26T08:16:56.000Z</time>
      </trkpt>
      <trkpt lat="47.28589" lon="-2.48998">
        <ele>-10.60000038147</ele>
        <time>2022-05-26T08:16:59.000Z</time>
      </trkpt>
      <trkpt lat="47.28591" lon="-2.49004">
        <ele>-10.60000038147</ele>
        <time>2022-05-26T08:17:00.000Z</time>
      </trkpt>
      <trkpt lat="47.28593" lon="-2.49011">
        <ele>-10.60000038147</ele>
        <time>2022-05-26T08:17:01.000Z</time>
      </trkpt>
      <trkpt lat="47.28597" lon="-2.49033">
        <ele>-10.60000038147</ele>
        <time>2022-05-26T08:17:04.000Z</time>
      </trkpt>
      <trkpt lat="47.28597" lon="-2.49075">
        <ele>-10.60000038147</ele>
        <time>2022-05-26T08:17:09.000Z</time>
      </trkpt>
      <trkpt lat="47.28597" lon="-2.49101">
        <ele>-10.60000038147</ele>
        <time>2022-05-26T08:17:12.000Z</time>
      </trkpt>
      <trkpt lat="47.28601" lon="-2.49117">
        <ele>-10.60000038147</ele>
        <time>2022-05-26T08:17:14.000Z</time>
      </trkpt>
      <trkpt lat="47.2861" lon="-2.4916">
        <ele>-10.60000038147</ele>
        <time>2022-05-26T08:17:20.000Z</time>
      </trkpt>
      <trkpt lat="47.28611" lon="-2.49194">
        <ele>-10.60000038147</ele>
        <time>2022-05-26T08:17:24.000Z</time>
      </trkpt>
      <trkpt lat="47.28612" lon="-2.49202">
        <ele>-10.60000038147</ele>
        <time>2022-05-26T08:17:25.000Z</time>
      </trkpt>
      <trkpt lat="47.28614" lon="-2.49217">
        <ele>-10.60000038147</ele>
        <time>2022-05-26T08:17:27.000Z</time>
      </trkpt>
      <trkpt lat="47.28617" lon="-2.49233">
        <ele>-10.60000038147</ele>
        <time>2022-05-26T08:17:29.000Z</time>
      </trkpt>
      <trkpt lat="47.28618" lon="-2.49241">
        <ele>-10.60000038147</ele>
        <time>2022-05-26T08:17:30.000Z</time>
      </trkpt>
      <trkpt lat="47.28627" lon="-2.4928">
        <ele>-10.60000038147</ele>
        <time>2022-05-26T08:17:35.000Z</time>
      </trkpt>
      <trkpt lat="47.28635" lon="-2.49323">
        <ele>-10.60000038147</ele>
        <time>2022-05-26T08:17:41.000Z</time>
      </trkpt>
      <trkpt lat="47.28635" lon="-2.4933">
        <ele>-10.60000038147</ele>
        <time>2022-05-26T08:17:42.000Z</time>
      </trkpt>
      <trkpt lat="47.28634" lon="-2.49353">
        <ele>-10.60000038147</ele>
        <time>2022-05-26T08:17:45.000Z</time>
      </trkpt>
      <trkpt lat="47.28634" lon="-2.494">
        <ele>-10.60000038147</ele>
        <time>2022-05-26T08:17:51.000Z</time>
      </trkpt>
      <trkpt lat="47.28635" lon="-2.49414">
        <ele>-10.60000038147</ele>
        <time>2022-05-26T08:17:53.000Z</time>
      </trkpt>
      <trkpt lat="47.28637" lon="-2.49436">
        <ele>-10.60000038147</ele>
        <time>2022-05-26T08:17:56.000Z</time>
      </trkpt>
      <trkpt lat="47.28637" lon="-2.49497">
        <ele>-10.60000038147</ele>
        <time>2022-05-26T08:18:04.000Z</time>
      </trkpt>
      <trkpt lat="47.28636" lon="-2.49545">
        <ele>-10.60000038147</ele>
        <time>2022-05-26T08:18:10.000Z</time>
      </trkpt>
      <trkpt lat="47.28638" lon="-2.49577">
        <ele>-10.60000038147</ele>
        <time>2022-05-26T08:18:14.000Z</time>
      </trkpt>
      <trkpt lat="47.28639" lon="-2.49594">
        <ele>-10.60000038147</ele>
        <time>2022-05-26T08:18:16.000Z</time>
      </trkpt>
      <trkpt lat="47.28639" lon="-2.49629">
        <ele>-10.60000038147</ele>
        <time>2022-05-26T08:18:20.000Z</time>
      </trkpt>
      <trkpt lat="47.28637" lon="-2.49636">
        <ele>-10.60000038147</ele>
        <time>2022-05-26T08:18:21.000Z</time>
      </trkpt>
      <trkpt lat="47.28622" lon="-2.49646">
        <ele>-10.60000038147</ele>
        <time>2022-05-26T08:18:24.000Z</time>
      </trkpt>
      <trkpt lat="47.28605" lon="-2.49651">
        <ele>-10.60000038147</ele>
        <time>2022-05-26T08:18:27.000Z</time>
      </trkpt>
      <trkpt lat="47.28588" lon="-2.49655">
        <ele>-10.60000038147</ele>
        <time>2022-05-26T08:18:30.000Z</time>
      </trkpt>
      <trkpt lat="47.28583" lon="-2.49658">
        <ele>-10.60000038147</ele>
        <time>2022-05-26T08:18:31.000Z</time>
      </trkpt>
      <trkpt lat="47.28566" lon="-2.49664">
        <ele>-10.60000038147</ele>
        <time>2022-05-26T08:18:34.000Z</time>
      </trkpt>
      <trkpt lat="47.28561" lon="-2.49665">
        <ele>-10.60000038147</ele>
        <time>2022-05-26T08:18:35.000Z</time>
      </trkpt>
      <trkpt lat="47.28545" lon="-2.49671">
        <ele>-10.60000038147</ele>
        <time>2022-05-26T08:18:38.000Z</time>
      </trkpt>
      <trkpt lat="47.2853" lon="-2.49682">
        <ele>-10.60000038147</ele>
        <time>2022-05-26T08:18:41.000Z</time>
      </trkpt>
      <trkpt lat="47.28522" lon="-2.49691">
        <ele>-10.60000038147</ele>
        <time>2022-05-26T08:18:43.000Z</time>
      </trkpt>
      <trkpt lat="47.28519" lon="-2.49704">
        <ele>-10.60000038147</ele>
        <time>2022-05-26T08:18:45.000Z</time>
      </trkpt>
      <trkpt lat="47.28518" lon="-2.49722">
        <ele>-10.60000038147</ele>
        <time>2022-05-26T08:18:48.000Z</time>
      </trkpt>
      <trkpt lat="47.28506" lon="-2.49725">
        <ele>-10.60000038147</ele>
        <time>2022-05-26T08:18:51.000Z</time>
      </trkpt>
      <trkpt lat="47.28502" lon="-2.49726">
        <ele>-10.60000038147</ele>
        <time>2022-05-26T08:18:52.000Z</time>
      </trkpt>
      <trkpt lat="47.28482" lon="-2.4973">
        <ele>-10.60000038147</ele>
        <time>2022-05-26T08:18:56.000Z</time>
      </trkpt>
      <trkpt lat="47.28439" lon="-2.49736">
        <ele>-10.60000038147</ele>
        <time>2022-05-26T08:19:04.000Z</time>
      </trkpt>
      <trkpt lat="47.28422" lon="-2.49736">
        <ele>-10.60000038147</ele>
        <time>2022-05-26T08:19:07.000Z</time>
      </trkpt>
      <trkpt lat="47.28411" lon="-2.49735">
        <ele>-10.60000038147</ele>
        <time>2022-05-26T08:19:09.000Z</time>
      </trkpt>
      <trkpt lat="47.28397" lon="-2.49744">
        <ele>-10.60000038147</ele>
        <time>2022-05-26T08:19:12.000Z</time>
      </trkpt>
      <trkpt lat="47.28364" lon="-2.49767">
        <ele>-10.60000038147</ele>
        <time>2022-05-26T08:19:19.000Z</time>
      </trkpt>
      <trkpt lat="47.2835" lon="-2.49777">
        <ele>-10.60000038147</ele>
        <time>2022-05-26T08:19:22.000Z</time>
      </trkpt>
      <trkpt lat="47.28345" lon="-2.49789">
        <ele>-10.60000038147</ele>
        <time>2022-05-26T08:19:24.000Z</time>
      </trkpt>
      <trkpt lat="47.28344" lon="-2.49802">
        <ele>-10.60000038147</ele>
        <time>2022-05-26T08:19:26.000Z</time>
      </trkpt>
      <trkpt lat="47.28344" lon="-2.49816">
        <ele>-10.60000038147</ele>
        <time>2022-05-26T08:19:28.000Z</time>
      </trkpt>
      <trkpt lat="47.28355" lon="-2.49829">
        <ele>-10.60000038147</ele>
        <time>2022-05-26T08:19:31.000Z</time>
      </trkpt>
      <trkpt lat="47.28365" lon="-2.49832">
        <ele>-10.60000038147</ele>
        <time>2022-05-26T08:19:33.000Z</time>
      </trkpt>
      <trkpt lat="47.2838" lon="-2.49838">
        <ele>-10.60000038147</ele>
        <time>2022-05-26T08:19:36.000Z</time>
      </trkpt>
      <trkpt lat="47.28396" lon="-2.49861">
        <ele>-10.60000038147</ele>
        <time>2022-05-26T08:19:40.000Z</time>
      </trkpt>
      <trkpt lat="47.284" lon="-2.49876">
        <ele>-10.60000038147</ele>
        <time>2022-05-26T08:19:42.000Z</time>
      </trkpt>
      <trkpt lat="47.28407" lon="-2.49898">
        <ele>-10.60000038147</ele>
        <time>2022-05-26T08:19:45.000Z</time>
      </trkpt>
      <trkpt lat="47.28411" lon="-2.49904">
        <ele>-10.60000038147</ele>
        <time>2022-05-26T08:19:46.000Z</time>
      </trkpt>
      <trkpt lat="47.28426" lon="-2.49914">
        <ele>-10.60000038147</ele>
        <time>2022-05-26T08:19:49.000Z</time>
      </trkpt>
      <trkpt lat="47.28447" lon="-2.49912">
        <ele>-10.60000038147</ele>
        <time>2022-05-26T08:19:53.000Z</time>
      </trkpt>
      <trkpt lat="47.28456" lon="-2.49903">
        <ele>-10.60000038147</ele>
        <time>2022-05-26T08:19:55.000Z</time>
      </trkpt>
      <trkpt lat="47.28461" lon="-2.499">
        <ele>-10.60000038147</ele>
        <time>2022-05-26T08:19:56.000Z</time>
      </trkpt>
      <trkpt lat="47.28467" lon="-2.49897">
        <ele>-10.60000038147</ele>
        <time>2022-05-26T08:19:57.000Z</time>
      </trkpt>
      <trkpt lat="47.28482" lon="-2.49893">
        <ele>-10.60000038147</ele>
        <time>2022-05-26T08:20:00.000Z</time>
      </trkpt>
      <trkpt lat="47.28493" lon="-2.49891">
        <ele>-10.60000038147</ele>
        <time>2022-05-26T08:20:02.000Z</time>
      </trkpt>
      <trkpt lat="47.28516" lon="-2.49888">
        <ele>-10.60000038147</ele>
        <time>2022-05-26T08:20:06.000Z</time>
      </trkpt>
      <trkpt lat="47.28524" lon="-2.49893">
        <ele>-10.60000038147</ele>
        <time>2022-05-26T08:20:08.000Z</time>
      </trkpt>
      <trkpt lat="47.2853" lon="-2.49912">
        <ele>-10.60000038147</ele>
        <time>2022-05-26T08:20:11.000Z</time>
      </trkpt>
      <trkpt lat="47.28532" lon="-2.49925">
        <ele>-10.60000038147</ele>
        <time>2022-05-26T08:20:13.000Z</time>
      </trkpt>
      <trkpt lat="47.28534" lon="-2.49947">
        <ele>-10.60000038147</ele>
        <time>2022-05-26T08:20:16.000Z</time>
      </trkpt>
      <trkpt lat="47.28534" lon="-2.49954">
        <ele>-10.60000038147</ele>
        <time>2022-05-26T08:20:17.000Z</time>
      </trkpt>
      <trkpt lat="47.28538" lon="-2.50008">
        <ele>-10.60000038147</ele>
        <time>2022-05-26T08:20:24.000Z</time>
      </trkpt>
      <trkpt lat="47.28546" lon="-2.50046">
        <ele>-10.60000038147</ele>
        <time>2022-05-26T08:20:29.000Z</time>
      </trkpt>
      <trkpt lat="47.28552" lon="-2.50089">
        <ele>-10.60000038147</ele>
        <time>2022-05-26T08:20:35.000Z</time>
      </trkpt>
      <trkpt lat="47.28556" lon="-2.50131">
        <ele>-10.60000038147</ele>
        <time>2022-05-26T08:20:41.000Z</time>
      </trkpt>
      <trkpt lat="47.28557" lon="-2.50152">
        <ele>-10.60000038147</ele>
        <time>2022-05-26T08:20:44.000Z</time>
      </trkpt>
      <trkpt lat="47.28551" lon="-2.50164">
        <ele>-10.60000038147</ele>
        <time>2022-05-26T08:20:46.000Z</time>
      </trkpt>
      <trkpt lat="47.28539" lon="-2.50167">
        <ele>-10.60000038147</ele>
        <time>2022-05-26T08:20:49.000Z</time>
      </trkpt>
      <trkpt lat="47.28521" lon="-2.50171">
        <ele>-10.60000038147</ele>
        <time>2022-05-26T08:20:54.000Z</time>
      </trkpt>
      <trkpt lat="47.28513" lon="-2.50164">
        <ele>-10.60000038147</ele>
        <time>2022-05-26T08:20:57.000Z</time>
      </trkpt>
      <trkpt lat="47.28502" lon="-2.50163">
        <ele>-10.60000038147</ele>
        <time>2022-05-26T08:21:01.000Z</time>
      </trkpt>
      <trkpt lat="47.28499" lon="-2.50174">
        <ele>-10.60000038147</ele>
        <time>2022-05-26T08:21:04.000Z</time>
      </trkpt>
      <trkpt lat="47.28498" lon="-2.50179">
        <ele>-10.60000038147</ele>
        <time>2022-05-26T08:21:05.000Z</time>
      </trkpt>
      <trkpt lat="47.28499" lon="-2.50198">
        <ele>-10.60000038147</ele>
        <time>2022-05-26T08:21:09.000Z</time>
      </trkpt>
      <trkpt lat="47.28497" lon="-2.50223">
        <ele>-10.60000038147</ele>
        <time>2022-05-26T08:21:14.000Z</time>
      </trkpt>
      <trkpt lat="47.28488" lon="-2.50241">
        <ele>-10.60000038147</ele>
        <time>2022-05-26T08:21:19.000Z</time>
      </trkpt>
      <trkpt lat="47.28485" lon="-2.50253">
        <ele>-10.60000038147</ele>
        <time>2022-05-26T08:21:23.000Z</time>
      </trkpt>
      <trkpt lat="47.28487" lon="-2.50256">
        <ele>-10.60000038147</ele>
        <time>2022-05-26T08:21:24.000Z</time>
      </trkpt>
      <trkpt lat="47.28491" lon="-2.50264">
        <ele>-10.60000038147</ele>
        <time>2022-05-26T08:21:27.000Z</time>
      </trkpt>
      <trkpt lat="47.28499" lon="-2.50274">
        <ele>-10.60000038147</ele>
        <time>2022-05-26T08:21:31.000Z</time>
      </trkpt>
      <trkpt lat="47.28502" lon="-2.50275">
        <ele>-10.60000038147</ele>
        <time>2022-05-26T08:21:32.000Z</time>
      </trkpt>
      <trkpt lat="47.28507" lon="-2.50278">
        <ele>-10.60000038147</ele>
        <time>2022-05-26T08:21:36.000Z</time>
      </trkpt>
      <trkpt lat="47.28509" lon="-2.50279">
        <ele>-10.60000038147</ele>
        <time>2022-05-26T08:22:22.000Z</time>
      </trkpt>
      <trkpt lat="47.28514" lon="-2.50281">
        <ele>-10.60000038147</ele>
        <time>2022-05-26T08:22:25.000Z</time>
      </trkpt>
      <trkpt lat="47.28532" lon="-2.5029">
        <ele>-10.60000038147</ele>
        <time>2022-05-26T08:22:31.000Z</time>
      </trkpt>
      <trkpt lat="47.28536" lon="-2.50293">
        <ele>-10.60000038147</ele>
        <time>2022-05-26T08:22:32.000Z</time>
      </trkpt>
      <trkpt lat="47.2855" lon="-2.50305">
        <ele>-10.60000038147</ele>
        <time>2022-05-26T08:22:36.000Z</time>
      </trkpt>
      <trkpt lat="47.28553" lon="-2.50308">
        <ele>-10.60000038147</ele>
        <time>2022-05-26T08:22:37.000Z</time>
      </trkpt>
      <trkpt lat="47.28557" lon="-2.50311">
        <ele>-10.60000038147</ele>
        <time>2022-05-26T08:22:38.000Z</time>
      </trkpt>
      <trkpt lat="47.28578" lon="-2.50323">
        <ele>-10.60000038147</ele>
        <time>2022-05-26T08:22:43.000Z</time>
      </trkpt>
      <trkpt lat="47.28597" lon="-2.50328">
        <ele>-10.60000038147</ele>
        <time>2022-05-26T08:22:47.000Z</time>
      </trkpt>
      <trkpt lat="47.28607" lon="-2.50328">
        <ele>-10.60000038147</ele>
        <time>2022-05-26T08:22:49.000Z</time>
      </trkpt>
      <trkpt lat="47.28612" lon="-2.50329">
        <ele>-10.60000038147</ele>
        <time>2022-05-26T08:22:50.000Z</time>
      </trkpt>
      <trkpt lat="47.28626" lon="-2.50336">
        <ele>-10.60000038147</ele>
        <time>2022-05-26T08:22:53.000Z</time>
      </trkpt>
      <trkpt lat="47.28631" lon="-2.50339">
        <ele>-10.60000038147</ele>
        <time>2022-05-26T08:22:54.000Z</time>
      </trkpt>
      <trkpt lat="47.28669" lon="-2.50366">
        <ele>-10.60000038147</ele>
        <time>2022-05-26T08:23:03.000Z</time>
      </trkpt>
      <trkpt lat="47.28677" lon="-2.50372">
        <ele>-10.199999809265</ele>
        <time>2022-05-26T08:23:05.000Z</time>
      </trkpt>
      <trkpt lat="47.28681" lon="-2.50376">
        <ele>-9.3999996185303</ele>
        <time>2022-05-26T08:23:06.000Z</time>
      </trkpt>
      <trkpt lat="47.28684" lon="-2.50379">
        <ele>-9</ele>
        <time>2022-05-26T08:23:07.000Z</time>
      </trkpt>
      <trkpt lat="47.28688" lon="-2.50383">
        <ele>-8.6000003814697</ele>
        <time>2022-05-26T08:23:08.000Z</time>
      </trkpt>
      <trkpt lat="47.28692" lon="-2.50387">
        <ele>-8.6000003814697</ele>
        <time>2022-05-26T08:23:09.000Z</time>
      </trkpt>
      <trkpt lat="47.28704" lon="-2.50398">
        <ele>-8.6000003814697</ele>
        <time>2022-05-26T08:23:12.000Z</time>
      </trkpt>
      <trkpt lat="47.28716" lon="-2.5041">
        <ele>-8.6000003814697</ele>
        <time>2022-05-26T08:23:15.000Z</time>
      </trkpt>
      <trkpt lat="47.28738" lon="-2.50438">
        <ele>-8.6000003814697</ele>
        <time>2022-05-26T08:23:21.000Z</time>
      </trkpt>
      <trkpt lat="47.28763" lon="-2.50464">
        <ele>-8.6000003814697</ele>
        <time>2022-05-26T08:23:27.000Z</time>
      </trkpt>
      <trkpt lat="47.28792" lon="-2.50485">
        <ele>-8.6000003814697</ele>
        <time>2022-05-26T08:23:34.000Z</time>
      </trkpt>
      <trkpt lat="47.28827" lon="-2.50507">
        <ele>-8.6000003814697</ele>
        <time>2022-05-26T08:23:42.000Z</time>
      </trkpt>
      <trkpt lat="47.28865" lon="-2.50534">
        <ele>-8.6000003814697</ele>
        <time>2022-05-26T08:23:50.000Z</time>
      </trkpt>
      <trkpt lat="47.28893" lon="-2.50553">
        <ele>-8.6000003814697</ele>
        <time>2022-05-26T08:23:56.000Z</time>
      </trkpt>
      <trkpt lat="47.2892" lon="-2.50575">
        <ele>-8.6000003814697</ele>
        <time>2022-05-26T08:24:02.000Z</time>
      </trkpt>
      <trkpt lat="47.28954" lon="-2.50597">
        <ele>-8.6000003814697</ele>
        <time>2022-05-26T08:24:09.000Z</time>
      </trkpt>
      <trkpt lat="47.28987" lon="-2.50619">
        <ele>-8.6000003814697</ele>
        <time>2022-05-26T08:24:16.000Z</time>
      </trkpt>
      <trkpt lat="47.29019" lon="-2.50643">
        <ele>-8.6000003814697</ele>
        <time>2022-05-26T08:24:23.000Z</time>
      </trkpt>
      <trkpt lat="47.29039" lon="-2.50658">
        <ele>-8.6000003814697</ele>
        <time>2022-05-26T08:24:28.000Z</time>
      </trkpt>
      <trkpt lat="47.29046" lon="-2.50657">
        <ele>-8.6000003814697</ele>
        <time>2022-05-26T08:24:30.000Z</time>
      </trkpt>
      <trkpt lat="47.29048" lon="-2.50651">
        <ele>-8.6000003814697</ele>
        <time>2022-05-26T08:24:31.000Z</time>
      </trkpt>
      <trkpt lat="47.29052" lon="-2.50624">
        <ele>-8.6000003814697</ele>
        <time>2022-05-26T08:24:35.000Z</time>
      </trkpt>
      <trkpt lat="47.29059" lon="-2.50605">
        <ele>-8.6000003814697</ele>
        <time>2022-05-26T08:24:38.000Z</time>
      </trkpt>
      <trkpt lat="47.29067" lon="-2.50586">
        <ele>-8.6000003814697</ele>
        <time>2022-05-26T08:24:41.000Z</time>
      </trkpt>
      <trkpt lat="47.29085" lon="-2.50542">
        <ele>-8.6000003814697</ele>
        <time>2022-05-26T08:24:47.000Z</time>
      </trkpt>
      <trkpt lat="47.29103" lon="-2.50497">
        <ele>-8.6000003814697</ele>
        <time>2022-05-26T08:24:54.000Z</time>
      </trkpt>
      <trkpt lat="47.29117" lon="-2.50463">
        <ele>-8.6000003814697</ele>
        <time>2022-05-26T08:25:00.000Z</time>
      </trkpt>
      <trkpt lat="47.29119" lon="-2.50459">
        <ele>-8.6000003814697</ele>
        <time>2022-05-26T08:25:01.000Z</time>
      </trkpt>
      <trkpt lat="47.29129" lon="-2.50456">
        <ele>-8.6000003814697</ele>
        <time>2022-05-26T08:25:04.000Z</time>
      </trkpt>
      <trkpt lat="47.29139" lon="-2.50461">
        <ele>-8.6000003814697</ele>
        <time>2022-05-26T08:25:07.000Z</time>
      </trkpt>
      <trkpt lat="47.29148" lon="-2.50466">
        <ele>-8.6000003814697</ele>
        <time>2022-05-26T08:25:10.000Z</time>
      </trkpt>
      <trkpt lat="47.29168" lon="-2.50478">
        <ele>-8.6000003814697</ele>
        <time>2022-05-26T08:25:17.000Z</time>
      </trkpt>
      <trkpt lat="47.29189" lon="-2.50494">
        <ele>-8.6000003814697</ele>
        <time>2022-05-26T08:25:24.000Z</time>
      </trkpt>
      <trkpt lat="47.29212" lon="-2.50525">
        <ele>-8.6000003814697</ele>
        <time>2022-05-26T08:25:32.000Z</time>
      </trkpt>
      <trkpt lat="47.29217" lon="-2.50537">
        <ele>-8.6000003814697</ele>
        <time>2022-05-26T08:25:34.000Z</time>
      </trkpt>
      <trkpt lat="47.29216" lon="-2.50552">
        <ele>-8.6000003814697</ele>
        <time>2022-05-26T08:25:36.000Z</time>
      </trkpt>
      <trkpt lat="47.29213" lon="-2.50582">
        <ele>-8.6000003814697</ele>
        <time>2022-05-26T08:25:40.000Z</time>
      </trkpt>
      <trkpt lat="47.29213" lon="-2.50589">
        <ele>-8.6000003814697</ele>
        <time>2022-05-26T08:25:41.000Z</time>
      </trkpt>
      <trkpt lat="47.29211" lon="-2.50628">
        <ele>-8.6000003814697</ele>
        <time>2022-05-26T08:25:47.000Z</time>
      </trkpt>
      <trkpt lat="47.29212" lon="-2.50648">
        <ele>-8.6000003814697</ele>
        <time>2022-05-26T08:25:50.000Z</time>
      </trkpt>
      <trkpt lat="47.29214" lon="-2.50662">
        <ele>-8.6000003814697</ele>
        <time>2022-05-26T08:25:52.000Z</time>
      </trkpt>
      <trkpt lat="47.2922" lon="-2.50691">
        <ele>-8.6000003814697</ele>
        <time>2022-05-26T08:25:56.000Z</time>
      </trkpt>
      <trkpt lat="47.29218" lon="-2.50707">
        <ele>-8.6000003814697</ele>
        <time>2022-05-26T08:25:58.000Z</time>
      </trkpt>
      <trkpt lat="47.29213" lon="-2.5073">
        <ele>-8.6000003814697</ele>
        <time>2022-05-26T08:26:01.000Z</time>
      </trkpt>
      <trkpt lat="47.29209" lon="-2.50743">
        <ele>-8.6000003814697</ele>
        <time>2022-05-26T08:26:03.000Z</time>
      </trkpt>
      <trkpt lat="47.29205" lon="-2.50786">
        <ele>-8.6000003814697</ele>
        <time>2022-05-26T08:26:10.000Z</time>
      </trkpt>
      <trkpt lat="47.29206" lon="-2.50791">
        <ele>-8.6000003814697</ele>
        <time>2022-05-26T08:26:11.000Z</time>
      </trkpt>
      <trkpt lat="47.29214" lon="-2.50804">
        <ele>-8.6000003814697</ele>
        <time>2022-05-26T08:26:14.000Z</time>
      </trkpt>
      <trkpt lat="47.29221" lon="-2.50815">
        <ele>-8.6000003814697</ele>
        <time>2022-05-26T08:26:16.000Z</time>
      </trkpt>
      <trkpt lat="47.29233" lon="-2.50838">
        <ele>-8.6000003814697</ele>
        <time>2022-05-26T08:26:20.000Z</time>
      </trkpt>
      <trkpt lat="47.29242" lon="-2.50855">
        <ele>-8.6000003814697</ele>
        <time>2022-05-26T08:26:23.000Z</time>
      </trkpt>
      <trkpt lat="47.29253" lon="-2.50869">
        <ele>-8.6000003814697</ele>
        <time>2022-05-26T08:26:26.000Z</time>
      </trkpt>
      <trkpt lat="47.29275" lon="-2.50892">
        <ele>-8.6000003814697</ele>
        <time>2022-05-26T08:26:32.000Z</time>
      </trkpt>
      <trkpt lat="47.29292" lon="-2.50904">
        <ele>-8.6000003814697</ele>
        <time>2022-05-26T08:26:37.000Z</time>
      </trkpt>
      <trkpt lat="47.29304" lon="-2.50904">
        <ele>-8.6000003814697</ele>
        <time>2022-05-26T08:26:40.000Z</time>
      </trkpt>
      <trkpt lat="47.29308" lon="-2.50906">
        <ele>-8.6000003814697</ele>
        <time>2022-05-26T08:26:41.000Z</time>
      </trkpt>
      <trkpt lat="47.29316" lon="-2.50911">
        <ele>-8.6000003814697</ele>
        <time>2022-05-26T08:26:44.000Z</time>
      </trkpt>
      <trkpt lat="47.29319" lon="-2.50912">
        <ele>-8.6000003814697</ele>
        <time>2022-05-26T08:26:45.000Z</time>
      </trkpt>
      <trkpt lat="47.29335" lon="-2.50924">
        <ele>-8.6000003814697</ele>
        <time>2022-05-26T08:26:52.000Z</time>
      </trkpt>
      <trkpt lat="47.29348" lon="-2.50931">
        <ele>-8.6000003814697</ele>
        <time>2022-05-26T08:26:58.000Z</time>
      </trkpt>
      <trkpt lat="47.29356" lon="-2.50932">
        <ele>-8.6000003814697</ele>
        <time>2022-05-26T08:27:01.000Z</time>
      </trkpt>
      <trkpt lat="47.29361" lon="-2.50931">
        <ele>-8.6000003814697</ele>
        <time>2022-05-26T08:27:02.000Z</time>
      </trkpt>
      <trkpt lat="47.29376" lon="-2.50942">
        <ele>-8.6000003814697</ele>
        <time>2022-05-26T08:27:06.000Z</time>
      </trkpt>
      <trkpt lat="47.29382" lon="-2.50951">
        <ele>-8.6000003814697</ele>
        <time>2022-05-26T08:27:08.000Z</time>
      </trkpt>
      <trkpt lat="47.29387" lon="-2.50962">
        <ele>-8.6000003814697</ele>
        <time>2022-05-26T08:27:10.000Z</time>
      </trkpt>
      <trkpt lat="47.29389" lon="-2.50968">
        <ele>-8.6000003814697</ele>
        <time>2022-05-26T08:27:11.000Z</time>
      </trkpt>
      <trkpt lat="47.29393" lon="-2.50994">
        <ele>-8.6000003814697</ele>
        <time>2022-05-26T08:27:15.000Z</time>
      </trkpt>
      <trkpt lat="47.29395" lon="-2.51007">
        <ele>-8.6000003814697</ele>
        <time>2022-05-26T08:27:19.000Z</time>
      </trkpt>
      <trkpt lat="47.29405" lon="-2.51024">
        <ele>-8.6000003814697</ele>
        <time>2022-05-26T08:27:24.000Z</time>
      </trkpt>
      <trkpt lat="47.29422" lon="-2.51052">
        <ele>-8.6000003814697</ele>
        <time>2022-05-26T08:27:31.000Z</time>
      </trkpt>
      <trkpt lat="47.29437" lon="-2.51075">
        <ele>-8.6000003814697</ele>
        <time>2022-05-26T08:27:37.000Z</time>
      </trkpt>
      <trkpt lat="47.29459" lon="-2.51103">
        <ele>-8.6000003814697</ele>
        <time>2022-05-26T08:27:44.000Z</time>
      </trkpt>
      <trkpt lat="47.29477" lon="-2.51125">
        <ele>-8.6000003814697</ele>
        <time>2022-05-26T08:27:49.000Z</time>
      </trkpt>
      <trkpt lat="47.2948" lon="-2.51129">
        <ele>-8.6000003814697</ele>
        <time>2022-05-26T08:27:50.000Z</time>
      </trkpt>
      <trkpt lat="47.29494" lon="-2.51151">
        <ele>-8.6000003814697</ele>
        <time>2022-05-26T08:27:56.000Z</time>
      </trkpt>
      <trkpt lat="47.29502" lon="-2.51176">
        <ele>-8.6000003814697</ele>
        <time>2022-05-26T08:28:01.000Z</time>
      </trkpt>
      <trkpt lat="47.29504" lon="-2.51182">
        <ele>-8.6000003814697</ele>
        <time>2022-05-26T08:28:02.000Z</time>
      </trkpt>
      <trkpt lat="47.2951" lon="-2.51201">
        <ele>-8.6000003814697</ele>
        <time>2022-05-26T08:28:06.000Z</time>
      </trkpt>
      <trkpt lat="47.29518" lon="-2.51225">
        <ele>-8.6000003814697</ele>
        <time>2022-05-26T08:28:13.000Z</time>
      </trkpt>
      <trkpt lat="47.29528" lon="-2.51254">
        <ele>-8.6000003814697</ele>
        <time>2022-05-26T08:28:20.000Z</time>
      </trkpt>
      <trkpt lat="47.29536" lon="-2.51282">
        <ele>-8.6000003814697</ele>
        <time>2022-05-26T08:28:26.000Z</time>
      </trkpt>
      <trkpt lat="47.29546" lon="-2.51317">
        <ele>-8.6000003814697</ele>
        <time>2022-05-26T08:28:33.000Z</time>
      </trkpt>
      <trkpt lat="47.29552" lon="-2.51323">
        <ele>-8.6000003814697</ele>
        <time>2022-05-26T08:28:35.000Z</time>
      </trkpt>
      <trkpt lat="47.29557" lon="-2.51326">
        <ele>-8.6000003814697</ele>
        <time>2022-05-26T08:28:36.000Z</time>
      </trkpt>
      <trkpt lat="47.2959" lon="-2.51342">
        <ele>-8.6000003814697</ele>
        <time>2022-05-26T08:28:42.000Z</time>
      </trkpt>
      <trkpt lat="47.29595" lon="-2.51346">
        <ele>-8.6000003814697</ele>
        <time>2022-05-26T08:28:43.000Z</time>
      </trkpt>
      <trkpt lat="47.29615" lon="-2.51364">
        <ele>-8.6000003814697</ele>
        <time>2022-05-26T08:28:47.000Z</time>
      </trkpt>
      <trkpt lat="47.29647" lon="-2.51389">
        <ele>-8.6000003814697</ele>
        <time>2022-05-26T08:28:53.000Z</time>
      </trkpt>
      <trkpt lat="47.29688" lon="-2.51421">
        <ele>-8.6000003814697</ele>
        <time>2022-05-26T08:29:01.000Z</time>
      </trkpt>
      <trkpt lat="47.29719" lon="-2.51442">
        <ele>-8.6000003814697</ele>
        <time>2022-05-26T08:29:07.000Z</time>
      </trkpt>
      <trkpt lat="47.29771" lon="-2.51476">
        <ele>-8.6000003814697</ele>
        <time>2022-05-26T08:29:17.000Z</time>
      </trkpt>
      <trkpt lat="47.29796" lon="-2.51486">
        <ele>-8.6000003814697</ele>
        <time>2022-05-26T08:29:22.000Z</time>
      </trkpt>
      <trkpt lat="47.29806" lon="-2.51491">
        <ele>-8.6000003814697</ele>
        <time>2022-05-26T08:29:24.000Z</time>
      </trkpt>
      <trkpt lat="47.29809" lon="-2.51512">
        <ele>-8.6000003814697</ele>
        <time>2022-05-26T08:29:27.000Z</time>
      </trkpt>
      <trkpt lat="47.2982" lon="-2.51537">
        <ele>-8.6000003814697</ele>
        <time>2022-05-26T08:29:31.000Z</time>
      </trkpt>
      <trkpt lat="47.29827" lon="-2.51555">
        <ele>-8.6000003814697</ele>
        <time>2022-05-26T08:29:34.000Z</time>
      </trkpt>
      <trkpt lat="47.29832" lon="-2.51568">
        <ele>-8.6000003814697</ele>
        <time>2022-05-26T08:29:36.000Z</time>
      </trkpt>
      <trkpt lat="47.29845" lon="-2.51608">
        <ele>-8.6000003814697</ele>
        <time>2022-05-26T08:29:42.000Z</time>
      </trkpt>
      <trkpt lat="47.2986" lon="-2.51659">
        <ele>-8.6000003814697</ele>
        <time>2022-05-26T08:29:49.000Z</time>
      </trkpt>
      <trkpt lat="47.29874" lon="-2.51714">
        <ele>-8.6000003814697</ele>
        <time>2022-05-26T08:29:56.000Z</time>
      </trkpt>
      <trkpt lat="47.29894" lon="-2.5177">
        <ele>-8.6000003814697</ele>
        <time>2022-05-26T08:30:03.000Z</time>
      </trkpt>
      <trkpt lat="47.29916" lon="-2.51822">
        <ele>-8.6000003814697</ele>
        <time>2022-05-26T08:30:10.000Z</time>
      </trkpt>
      <trkpt lat="47.29949" lon="-2.51868">
        <ele>-8.6000003814697</ele>
        <time>2022-05-26T08:30:18.000Z</time>
      </trkpt>
      <trkpt lat="47.29982" lon="-2.51913">
        <ele>-8.6000003814697</ele>
        <time>2022-05-26T08:30:27.000Z</time>
      </trkpt>
      <trkpt lat="47.30011" lon="-2.51958">
        <ele>-8.6000003814697</ele>
        <time>2022-05-26T08:30:35.000Z</time>
      </trkpt>
      <trkpt lat="47.3002" lon="-2.5198">
        <ele>-8.6000003814697</ele>
        <time>2022-05-26T08:30:38.000Z</time>
      </trkpt>
      <trkpt lat="47.30023" lon="-2.51997">
        <ele>-8.6000003814697</ele>
        <time>2022-05-26T08:30:40.000Z</time>
      </trkpt>
      <trkpt lat="47.30024" lon="-2.52014">
        <ele>-8.6000003814697</ele>
        <time>2022-05-26T08:30:42.000Z</time>
      </trkpt>
      <trkpt lat="47.30028" lon="-2.5205">
        <ele>-8.6000003814697</ele>
        <time>2022-05-26T08:30:46.000Z</time>
      </trkpt>
      <trkpt lat="47.30033" lon="-2.52102">
        <ele>-8.6000003814697</ele>
        <time>2022-05-26T08:30:52.000Z</time>
      </trkpt>
      <trkpt lat="47.30039" lon="-2.52156">
        <ele>-8.6000003814697</ele>
        <time>2022-05-26T08:30:58.000Z</time>
      </trkpt>
      <trkpt lat="47.30045" lon="-2.52217">
        <ele>-8.6000003814697</ele>
        <time>2022-05-26T08:31:05.000Z</time>
      </trkpt>
      <trkpt lat="47.30046" lon="-2.52242">
        <ele>-8.6000003814697</ele>
        <time>2022-05-26T08:31:08.000Z</time>
      </trkpt>
      <trkpt lat="47.30047" lon="-2.52267">
        <ele>-8.6000003814697</ele>
        <time>2022-05-26T08:31:11.000Z</time>
      </trkpt>
      <trkpt lat="47.30051" lon="-2.52298">
        <ele>-8.6000003814697</ele>
        <time>2022-05-26T08:31:15.000Z</time>
      </trkpt>
      <trkpt lat="47.30054" lon="-2.52333">
        <ele>-8.6000003814697</ele>
        <time>2022-05-26T08:31:19.000Z</time>
      </trkpt>
      <trkpt lat="47.30059" lon="-2.52351">
        <ele>-8.6000003814697</ele>
        <time>2022-05-26T08:31:21.000Z</time>
      </trkpt>
      <trkpt lat="47.30063" lon="-2.52381">
        <ele>-8.6000003814697</ele>
        <time>2022-05-26T08:31:24.000Z</time>
      </trkpt>
      <trkpt lat="47.30071" lon="-2.52448">
        <ele>-8.6000003814697</ele>
        <time>2022-05-26T08:31:31.000Z</time>
      </trkpt>
      <trkpt lat="47.30077" lon="-2.52493">
        <ele>-8.6000003814697</ele>
        <time>2022-05-26T08:31:36.000Z</time>
      </trkpt>
      <trkpt lat="47.30079" lon="-2.52502">
        <ele>-8.6000003814697</ele>
        <time>2022-05-26T08:31:37.000Z</time>
      </trkpt>
      <trkpt lat="47.3008" lon="-2.52511">
        <ele>-8.6000003814697</ele>
        <time>2022-05-26T08:31:38.000Z</time>
      </trkpt>
      <trkpt lat="47.30083" lon="-2.52548">
        <ele>-8.6000003814697</ele>
        <time>2022-05-26T08:31:42.000Z</time>
      </trkpt>
      <trkpt lat="47.30085" lon="-2.52557">
        <ele>-8.6000003814697</ele>
        <time>2022-05-26T08:31:43.000Z</time>
      </trkpt>
      <trkpt lat="47.30087" lon="-2.52575">
        <ele>-8.6000003814697</ele>
        <time>2022-05-26T08:31:45.000Z</time>
      </trkpt>
      <trkpt lat="47.30088" lon="-2.52584">
        <ele>-8.6000003814697</ele>
        <time>2022-05-26T08:31:46.000Z</time>
      </trkpt>
      <trkpt lat="47.30091" lon="-2.52626">
        <ele>-8.6000003814697</ele>
        <time>2022-05-26T08:31:51.000Z</time>
      </trkpt>
      <trkpt lat="47.30093" lon="-2.52634">
        <ele>-8.6000003814697</ele>
        <time>2022-05-26T08:31:52.000Z</time>
      </trkpt>
      <trkpt lat="47.30094" lon="-2.5265">
        <ele>-8.6000003814697</ele>
        <time>2022-05-26T08:31:54.000Z</time>
      </trkpt>
      <trkpt lat="47.30094" lon="-2.52658">
        <ele>-8.6000003814697</ele>
        <time>2022-05-26T08:31:55.000Z</time>
      </trkpt>
      <trkpt lat="47.30096" lon="-2.5272">
        <ele>-8.6000003814697</ele>
        <time>2022-05-26T08:32:02.000Z</time>
      </trkpt>
      <trkpt lat="47.3009" lon="-2.52772">
        <ele>-8.6000003814697</ele>
        <time>2022-05-26T08:32:08.000Z</time>
      </trkpt>
      <trkpt lat="47.30079" lon="-2.52829">
        <ele>-8.6000003814697</ele>
        <time>2022-05-26T08:32:15.000Z</time>
      </trkpt>
      <trkpt lat="47.30068" lon="-2.52902">
        <ele>-8.6000003814697</ele>
        <time>2022-05-26T08:32:24.000Z</time>
      </trkpt>
      <trkpt lat="47.30052" lon="-2.52967">
        <ele>-8.6000003814697</ele>
        <time>2022-05-26T08:32:32.000Z</time>
      </trkpt>
      <trkpt lat="47.30037" lon="-2.5304">
        <ele>-8.6000003814697</ele>
        <time>2022-05-26T08:32:41.000Z</time>
      </trkpt>
      <trkpt lat="47.30037" lon="-2.53058">
        <ele>-8.6000003814697</ele>
        <time>2022-05-26T08:32:43.000Z</time>
      </trkpt>
      <trkpt lat="47.30038" lon="-2.53085">
        <ele>-8.6000003814697</ele>
        <time>2022-05-26T08:32:46.000Z</time>
      </trkpt>
      <trkpt lat="47.30043" lon="-2.53156">
        <ele>-8.6000003814697</ele>
        <time>2022-05-26T08:32:54.000Z</time>
      </trkpt>
      <trkpt lat="47.30047" lon="-2.53228">
        <ele>-8.6000003814697</ele>
        <time>2022-05-26T08:33:02.000Z</time>
      </trkpt>
      <trkpt lat="47.30048" lon="-2.533">
        <ele>-8.6000003814697</ele>
        <time>2022-05-26T08:33:10.000Z</time>
      </trkpt>
      <trkpt lat="47.30043" lon="-2.5336">
        <ele>-8.6000003814697</ele>
        <time>2022-05-26T08:33:17.000Z</time>
      </trkpt>
      <trkpt lat="47.30026" lon="-2.53416">
        <ele>-8.6000003814697</ele>
        <time>2022-05-26T08:33:24.000Z</time>
      </trkpt>
      <trkpt lat="47.29998" lon="-2.53466">
        <ele>-8.6000003814697</ele>
        <time>2022-05-26T08:33:31.000Z</time>
      </trkpt>
      <trkpt lat="47.29963" lon="-2.53528">
        <ele>-8.6000003814697</ele>
        <time>2022-05-26T08:33:40.000Z</time>
      </trkpt>
      <trkpt lat="47.29959" lon="-2.53535">
        <ele>-8.6000003814697</ele>
        <time>2022-05-26T08:33:41.000Z</time>
      </trkpt>
      <trkpt lat="47.29927" lon="-2.53592">
        <ele>-8.6000003814697</ele>
        <time>2022-05-26T08:33:49.000Z</time>
      </trkpt>
      <trkpt lat="47.29913" lon="-2.53636">
        <ele>-8.6000003814697</ele>
        <time>2022-05-26T08:33:54.000Z</time>
      </trkpt>
      <trkpt lat="47.29912" lon="-2.53645">
        <ele>-8.6000003814697</ele>
        <time>2022-05-26T08:33:55.000Z</time>
      </trkpt>
      <trkpt lat="47.29907" lon="-2.53682">
        <ele>-8.6000003814697</ele>
        <time>2022-05-26T08:33:59.000Z</time>
      </trkpt>
      <trkpt lat="47.29907" lon="-2.53707">
        <ele>-8.6000003814697</ele>
        <time>2022-05-26T08:34:02.000Z</time>
      </trkpt>
      <trkpt lat="47.29904" lon="-2.53714">
        <ele>-8.6000003814697</ele>
        <time>2022-05-26T08:34:03.000Z</time>
      </trkpt>
      <trkpt lat="47.29894" lon="-2.53733">
        <ele>-8.6000003814697</ele>
        <time>2022-05-26T08:34:06.000Z</time>
      </trkpt>
      <trkpt lat="47.2989" lon="-2.53739">
        <ele>-8.6000003814697</ele>
        <time>2022-05-26T08:34:07.000Z</time>
      </trkpt>
      <trkpt lat="47.29877" lon="-2.53754">
        <ele>-8.6000003814697</ele>
        <time>2022-05-26T08:34:10.000Z</time>
      </trkpt>
      <trkpt lat="47.29865" lon="-2.5377">
        <ele>-8.6000003814697</ele>
        <time>2022-05-26T08:34:13.000Z</time>
      </trkpt>
      <trkpt lat="47.29839" lon="-2.53801">
        <ele>-8.6000003814697</ele>
        <time>2022-05-26T08:34:19.000Z</time>
      </trkpt>
      <trkpt lat="47.29835" lon="-2.53808">
        <ele>-8.6000003814697</ele>
        <time>2022-05-26T08:34:20.000Z</time>
      </trkpt>
      <trkpt lat="47.29821" lon="-2.53835">
        <ele>-8.6000003814697</ele>
        <time>2022-05-26T08:34:24.000Z</time>
      </trkpt>
      <trkpt lat="47.29816" lon="-2.5387">
        <ele>-8.6000003814697</ele>
        <time>2022-05-26T08:34:28.000Z</time>
      </trkpt>
      <trkpt lat="47.29811" lon="-2.53895">
        <ele>-8.6000003814697</ele>
        <time>2022-05-26T08:34:31.000Z</time>
      </trkpt>
      <trkpt lat="47.29806" lon="-2.5391">
        <ele>-8.6000003814697</ele>
        <time>2022-05-26T08:34:33.000Z</time>
      </trkpt>
      <trkpt lat="47.29792" lon="-2.53936">
        <ele>-8.6000003814697</ele>
        <time>2022-05-26T08:34:37.000Z</time>
      </trkpt>
      <trkpt lat="47.29787" lon="-2.53939">
        <ele>-8.6000003814697</ele>
        <time>2022-05-26T08:34:38.000Z</time>
      </trkpt>
      <trkpt lat="47.29761" lon="-2.53946">
        <ele>-8.6000003814697</ele>
        <time>2022-05-26T08:34:43.000Z</time>
      </trkpt>
      <trkpt lat="47.29755" lon="-2.53946">
        <ele>-8.6000003814697</ele>
        <time>2022-05-26T08:34:44.000Z</time>
      </trkpt>
      <trkpt lat="47.29721" lon="-2.53945">
        <ele>-8.6000003814697</ele>
        <time>2022-05-26T08:34:50.000Z</time>
      </trkpt>
      <trkpt lat="47.29706" lon="-2.53942">
        <ele>-8.6000003814697</ele>
        <time>2022-05-26T08:34:53.000Z</time>
      </trkpt>
      <trkpt lat="47.29704" lon="-2.53937">
        <ele>-8.6000003814697</ele>
        <time>2022-05-26T08:34:54.000Z</time>
      </trkpt>
      <trkpt lat="47.29705" lon="-2.53919">
        <ele>-8.6000003814697</ele>
        <time>2022-05-26T08:34:57.000Z</time>
      </trkpt>
      <trkpt lat="47.29706" lon="-2.53907">
        <ele>-8.6000003814697</ele>
        <time>2022-05-26T08:34:59.000Z</time>
      </trkpt>
      <trkpt lat="47.29707" lon="-2.53886">
        <ele>-8.6000003814697</ele>
        <time>2022-05-26T08:35:02.000Z</time>
      </trkpt>
      <trkpt lat="47.29708" lon="-2.53832">
        <ele>-8.6000003814697</ele>
        <time>2022-05-26T08:35:09.000Z</time>
      </trkpt>
      <trkpt lat="47.29708" lon="-2.53801">
        <ele>-8.6000003814697</ele>
        <time>2022-05-26T08:35:13.000Z</time>
      </trkpt>
      <trkpt lat="47.29702" lon="-2.53792">
        <ele>-8.6000003814697</ele>
        <time>2022-05-26T08:35:15.000Z</time>
      </trkpt>
      <trkpt lat="47.29689" lon="-2.53788">
        <ele>-8.6000003814697</ele>
        <time>2022-05-26T08:35:18.000Z</time>
      </trkpt>
      <trkpt lat="47.29665" lon="-2.53792">
        <ele>-8.6000003814697</ele>
        <time>2022-05-26T08:35:22.000Z</time>
      </trkpt>
      <trkpt lat="47.29659" lon="-2.53794">
        <ele>-8.1999998092651</ele>
        <time>2022-05-26T08:35:23.000Z</time>
      </trkpt>
      <trkpt lat="47.29654" lon="-2.53797">
        <ele>-7.8000001907349</ele>
        <time>2022-05-26T08:35:24.000Z</time>
      </trkpt>
      <trkpt lat="47.29648" lon="-2.53801">
        <ele>-7.4000000953674</ele>
        <time>2022-05-26T08:35:25.000Z</time>
      </trkpt>
      <trkpt lat="47.29643" lon="-2.53804">
        <ele>-7</ele>
        <time>2022-05-26T08:35:26.000Z</time>
      </trkpt>
      <trkpt lat="47.29638" lon="-2.53808">
        <ele>-6.5999999046326</ele>
        <time>2022-05-26T08:35:27.000Z</time>
      </trkpt>
      <trkpt lat="47.29627" lon="-2.53818">
        <ele>-6.5999999046326</ele>
        <time>2022-05-26T08:35:29.000Z</time>
      </trkpt>
      <trkpt lat="47.29606" lon="-2.53837">
        <ele>-6.5999999046326</ele>
        <time>2022-05-26T08:35:33.000Z</time>
      </trkpt>
      <trkpt lat="47.29576" lon="-2.53866">
        <ele>-6.5999999046326</ele>
        <time>2022-05-26T08:35:39.000Z</time>
      </trkpt>
      <trkpt lat="47.29571" lon="-2.53872">
        <ele>-6.5999999046326</ele>
        <time>2022-05-26T08:35:40.000Z</time>
      </trkpt>
      <trkpt lat="47.29561" lon="-2.53896">
        <ele>-6.5999999046326</ele>
        <time>2022-05-26T08:35:43.000Z</time>
      </trkpt>
      <trkpt lat="47.29558" lon="-2.53903">
        <ele>-6.5999999046326</ele>
        <time>2022-05-26T08:35:44.000Z</time>
      </trkpt>
      <trkpt lat="47.2954" lon="-2.53943">
        <ele>-6.5999999046326</ele>
        <time>2022-05-26T08:35:50.000Z</time>
      </trkpt>
      <trkpt lat="47.2951" lon="-2.53996">
        <ele>-6.5999999046326</ele>
        <time>2022-05-26T08:35:58.000Z</time>
      </trkpt>
      <trkpt lat="47.29478" lon="-2.54034">
        <ele>-6.5999999046326</ele>
        <time>2022-05-26T08:36:05.000Z</time>
      </trkpt>
      <trkpt lat="47.29473" lon="-2.54038">
        <ele>-6.5999999046326</ele>
        <time>2022-05-26T08:36:06.000Z</time>
      </trkpt>
      <trkpt lat="47.2943" lon="-2.54067">
        <ele>-6.5999999046326</ele>
        <time>2022-05-26T08:36:14.000Z</time>
      </trkpt>
      <trkpt lat="47.29415" lon="-2.54078">
        <ele>-6.5999999046326</ele>
        <time>2022-05-26T08:36:17.000Z</time>
      </trkpt>
      <trkpt lat="47.29408" lon="-2.5409">
        <ele>-6.5999999046326</ele>
        <time>2022-05-26T08:36:19.000Z</time>
      </trkpt>
      <trkpt lat="47.29404" lon="-2.54103">
        <ele>-6.5999999046326</ele>
        <time>2022-05-26T08:36:21.000Z</time>
      </trkpt>
      <trkpt lat="47.29401" lon="-2.54122">
        <ele>-6.5999999046326</ele>
        <time>2022-05-26T08:36:24.000Z</time>
      </trkpt>
      <trkpt lat="47.29392" lon="-2.54136">
        <ele>-6.5999999046326</ele>
        <time>2022-05-26T08:36:27.000Z</time>
      </trkpt>
      <trkpt lat="47.29387" lon="-2.5414">
        <ele>-6.5999999046326</ele>
        <time>2022-05-26T08:36:28.000Z</time>
      </trkpt>
      <trkpt lat="47.29351" lon="-2.54167">
        <ele>-6.5999999046326</ele>
        <time>2022-05-26T08:36:35.000Z</time>
      </trkpt>
      <trkpt lat="47.29346" lon="-2.54172">
        <ele>-6.5999999046326</ele>
        <time>2022-05-26T08:36:36.000Z</time>
      </trkpt>
      <trkpt lat="47.29327" lon="-2.54187">
        <ele>-6.5999999046326</ele>
        <time>2022-05-26T08:36:40.000Z</time>
      </trkpt>
      <trkpt lat="47.293" lon="-2.54211">
        <ele>-6.5999999046326</ele>
        <time>2022-05-26T08:36:46.000Z</time>
      </trkpt>
      <trkpt lat="47.2928" lon="-2.54228">
        <ele>-6.5999999046326</ele>
        <time>2022-05-26T08:36:50.000Z</time>
      </trkpt>
      <trkpt lat="47.29275" lon="-2.54232">
        <ele>-6.5999999046326</ele>
        <time>2022-05-26T08:36:51.000Z</time>
      </trkpt>
      <trkpt lat="47.2924" lon="-2.54258">
        <ele>-6.5999999046326</ele>
        <time>2022-05-26T08:36:57.000Z</time>
      </trkpt>
      <trkpt lat="47.29208" lon="-2.54281">
        <ele>-6.5999999046326</ele>
        <time>2022-05-26T08:37:03.000Z</time>
      </trkpt>
      <trkpt lat="47.29185" lon="-2.54288">
        <ele>-6.5999999046326</ele>
        <time>2022-05-26T08:37:07.000Z</time>
      </trkpt>
      <trkpt lat="47.2918" lon="-2.54288">
        <ele>-6.5999999046326</ele>
        <time>2022-05-26T08:37:08.000Z</time>
      </trkpt>
      <trkpt lat="47.29146" lon="-2.54292">
        <ele>-6.5999999046326</ele>
        <time>2022-05-26T08:37:14.000Z</time>
      </trkpt>
      <trkpt lat="47.29118" lon="-2.54293">
        <ele>-6.5999999046326</ele>
        <time>2022-05-26T08:37:19.000Z</time>
      </trkpt>
      <trkpt lat="47.29108" lon="-2.54291">
        <ele>-6.5999999046326</ele>
        <time>2022-05-26T08:37:21.000Z</time>
      </trkpt>
      <trkpt lat="47.29098" lon="-2.54289">
        <ele>-6.5999999046326</ele>
        <time>2022-05-26T08:37:23.000Z</time>
      </trkpt>
      <trkpt lat="47.29083" lon="-2.54283">
        <ele>-6.5999999046326</ele>
        <time>2022-05-26T08:37:27.000Z</time>
      </trkpt>
      <trkpt lat="47.29076" lon="-2.54285">
        <ele>-6.5999999046326</ele>
        <time>2022-05-26T08:37:31.000Z</time>
      </trkpt>
      <trkpt lat="47.29075" lon="-2.54285">
        <ele>-6.5999999046326</ele>
        <time>2022-05-26T08:37:32.000Z</time>
      </trkpt>
      <trkpt lat="47.29072" lon="-2.54288">
        <ele>-6.5999999046326</ele>
        <time>2022-05-26T08:54:53.000Z</time>
      </trkpt>
      <trkpt lat="47.2907" lon="-2.54286">
        <ele>-6.5999999046326</ele>
        <time>2022-05-26T08:54:55.000Z</time>
      </trkpt>
      <trkpt lat="47.29062" lon="-2.54277">
        <ele>-6.5999999046326</ele>
        <time>2022-05-26T08:55:02.000Z</time>
      </trkpt>
      <trkpt lat="47.29056" lon="-2.5427">
        <ele>-6.5999999046326</ele>
        <time>2022-05-26T08:55:08.000Z</time>
      </trkpt>
      <trkpt lat="47.29049" lon="-2.54249">
        <ele>-6.5999999046326</ele>
        <time>2022-05-26T08:55:13.000Z</time>
      </trkpt>
      <trkpt lat="47.29049" lon="-2.54225">
        <ele>-6.5999999046326</ele>
        <time>2022-05-26T08:55:17.000Z</time>
      </trkpt>
      <trkpt lat="47.29056" lon="-2.54192">
        <ele>-6.5999999046326</ele>
        <time>2022-05-26T08:55:23.000Z</time>
      </trkpt>
      <trkpt lat="47.29058" lon="-2.54186">
        <ele>-6.5999999046326</ele>
        <time>2022-05-26T08:55:24.000Z</time>
      </trkpt>
      <trkpt lat="47.29064" lon="-2.54169">
        <ele>-6.5999999046326</ele>
        <time>2022-05-26T08:55:27.000Z</time>
      </trkpt>
      <trkpt lat="47.29066" lon="-2.54163">
        <ele>-6.5999999046326</ele>
        <time>2022-05-26T08:55:28.000Z</time>
      </trkpt>
      <trkpt lat="47.2907" lon="-2.54135">
        <ele>-6.5999999046326</ele>
        <time>2022-05-26T08:55:32.000Z</time>
      </trkpt>
      <trkpt lat="47.29069" lon="-2.54121">
        <ele>-6.5999999046326</ele>
        <time>2022-05-26T08:55:34.000Z</time>
      </trkpt>
      <trkpt lat="47.29068" lon="-2.54101">
        <ele>-6.5999999046326</ele>
        <time>2022-05-26T08:55:37.000Z</time>
      </trkpt>
      <trkpt lat="47.2907" lon="-2.5409">
        <ele>-6.5999999046326</ele>
        <time>2022-05-26T08:55:39.000Z</time>
      </trkpt>
      <trkpt lat="47.29072" lon="-2.54085">
        <ele>-6.5999999046326</ele>
        <time>2022-05-26T08:55:40.000Z</time>
      </trkpt>
      <trkpt lat="47.29086" lon="-2.54048">
        <ele>-6.5999999046326</ele>
        <time>2022-05-26T08:55:46.000Z</time>
      </trkpt>
      <trkpt lat="47.29105" lon="-2.53996">
        <ele>-6.5999999046326</ele>
        <time>2022-05-26T08:55:54.000Z</time>
      </trkpt>
      <trkpt lat="47.29113" lon="-2.5397">
        <ele>-6.1999998092651</ele>
        <time>2022-05-26T08:55:58.000Z</time>
      </trkpt>
      <trkpt lat="47.29114" lon="-2.53963">
        <ele>-5.8000001907349</ele>
        <time>2022-05-26T08:55:59.000Z</time>
      </trkpt>
      <trkpt lat="47.29115" lon="-2.53956">
        <ele>-5.4000000953674</ele>
        <time>2022-05-26T08:56:00.000Z</time>
      </trkpt>
      <trkpt lat="47.29116" lon="-2.5395">
        <ele>-4.5999999046326</ele>
        <time>2022-05-26T08:56:01.000Z</time>
      </trkpt>
      <trkpt lat="47.29116" lon="-2.53943">
        <ele>-4.5999999046326</ele>
        <time>2022-05-26T08:56:02.000Z</time>
      </trkpt>
      <trkpt lat="47.29116" lon="-2.53937">
        <ele>-4.5999999046326</ele>
        <time>2022-05-26T08:56:03.000Z</time>
      </trkpt>
      <trkpt lat="47.29112" lon="-2.53917">
        <ele>-4.5999999046326</ele>
        <time>2022-05-26T08:56:06.000Z</time>
      </trkpt>
      <trkpt lat="47.29111" lon="-2.53903">
        <ele>-4.5999999046326</ele>
        <time>2022-05-26T08:56:08.000Z</time>
      </trkpt>
      <trkpt lat="47.29107" lon="-2.53879">
        <ele>-4.5999999046326</ele>
        <time>2022-05-26T08:56:12.000Z</time>
      </trkpt>
      <trkpt lat="47.29102" lon="-2.53857">
        <ele>-4.1999998092651</ele>
        <time>2022-05-26T08:56:16.000Z</time>
      </trkpt>
      <trkpt lat="47.291" lon="-2.53852">
        <ele>-3.5999999046326</ele>
        <time>2022-05-26T08:56:17.000Z</time>
      </trkpt>
      <trkpt lat="47.29099" lon="-2.53846">
        <ele>-3.2000000476837</ele>
        <time>2022-05-26T08:56:18.000Z</time>
      </trkpt>
      <trkpt lat="47.29098" lon="-2.5384">
        <ele>-2.7999999523163</ele>
        <time>2022-05-26T08:56:19.000Z</time>
      </trkpt>
      <trkpt lat="47.29097" lon="-2.53833">
        <ele>-2.4000000953674</ele>
        <time>2022-05-26T08:56:20.000Z</time>
      </trkpt>
      <trkpt lat="47.29092" lon="-2.53799">
        <ele>-2.4000000953674</ele>
        <time>2022-05-26T08:56:25.000Z</time>
      </trkpt>
      <trkpt lat="47.29092" lon="-2.53778">
        <ele>-2.4000000953674</ele>
        <time>2022-05-26T08:56:28.000Z</time>
      </trkpt>
      <trkpt lat="47.29092" lon="-2.53764">
        <ele>-2.4000000953674</ele>
        <time>2022-05-26T08:56:30.000Z</time>
      </trkpt>
      <trkpt lat="47.29095" lon="-2.53716">
        <ele>-2.4000000953674</ele>
        <time>2022-05-26T08:56:37.000Z</time>
      </trkpt>
      <trkpt lat="47.29098" lon="-2.53656">
        <ele>-2.4000000953674</ele>
        <time>2022-05-26T08:56:45.000Z</time>
      </trkpt>
      <trkpt lat="47.291" lon="-2.53614">
        <ele>-2.4000000953674</ele>
        <time>2022-05-26T08:56:51.000Z</time>
      </trkpt>
      <trkpt lat="47.29101" lon="-2.53607">
        <ele>-2.4000000953674</ele>
        <time>2022-05-26T08:56:52.000Z</time>
      </trkpt>
      <trkpt lat="47.29104" lon="-2.53562">
        <ele>-2.4000000953674</ele>
        <time>2022-05-26T08:56:58.000Z</time>
      </trkpt>
      <trkpt lat="47.29104" lon="-2.53556">
        <ele>-2.4000000953674</ele>
        <time>2022-05-26T08:56:59.000Z</time>
      </trkpt>
      <trkpt lat="47.29111" lon="-2.53542">
        <ele>-2.4000000953674</ele>
        <time>2022-05-26T08:57:02.000Z</time>
      </trkpt>
      <trkpt lat="47.29126" lon="-2.53526">
        <ele>-2.4000000953674</ele>
        <time>2022-05-26T08:57:07.000Z</time>
      </trkpt>
      <trkpt lat="47.2914" lon="-2.53512">
        <ele>-2.4000000953674</ele>
        <time>2022-05-26T08:57:11.000Z</time>
      </trkpt>
      <trkpt lat="47.29144" lon="-2.53498">
        <ele>-2.4000000953674</ele>
        <time>2022-05-26T08:57:13.000Z</time>
      </trkpt>
      <trkpt lat="47.29143" lon="-2.53468">
        <ele>-2.4000000953674</ele>
        <time>2022-05-26T08:57:17.000Z</time>
      </trkpt>
      <trkpt lat="47.29137" lon="-2.53422">
        <ele>-2.4000000953674</ele>
        <time>2022-05-26T08:57:23.000Z</time>
      </trkpt>
      <trkpt lat="47.29136" lon="-2.53414">
        <ele>-2.4000000953674</ele>
        <time>2022-05-26T08:57:24.000Z</time>
      </trkpt>
      <trkpt lat="47.29132" lon="-2.53364">
        <ele>-2.4000000953674</ele>
        <time>2022-05-26T08:57:31.000Z</time>
      </trkpt>
      <trkpt lat="47.29131" lon="-2.53335">
        <ele>-2</ele>
        <time>2022-05-26T08:57:35.000Z</time>
      </trkpt>
      <trkpt lat="47.2913" lon="-2.53327">
        <ele>-1.6000000238419</ele>
        <time>2022-05-26T08:57:36.000Z</time>
      </trkpt>
      <trkpt lat="47.2913" lon="-2.5332">
        <ele>-1.2000000476837</ele>
        <time>2022-05-26T08:57:37.000Z</time>
      </trkpt>
      <trkpt lat="47.2913" lon="-2.53313">
        <ele>-0.80000001192093</ele>
        <time>2022-05-26T08:57:38.000Z</time>
      </trkpt>
      <trkpt lat="47.29129" lon="-2.53306">
        <ele>-0.40000000596046</ele>
        <time>2022-05-26T08:57:39.000Z</time>
      </trkpt>
      <trkpt lat="47.29126" lon="-2.53274">
        <ele>-0.40000000596046</ele>
        <time>2022-05-26T08:57:44.000Z</time>
      </trkpt>
      <trkpt lat="47.29124" lon="-2.53268">
        <ele>-0.40000000596046</ele>
        <time>2022-05-26T08:57:45.000Z</time>
      </trkpt>
      <trkpt lat="47.29116" lon="-2.53242">
        <ele>-0.40000000596046</ele>
        <time>2022-05-26T08:57:49.000Z</time>
      </trkpt>
      <trkpt lat="47.29115" lon="-2.53235">
        <ele>-0.40000000596046</ele>
        <time>2022-05-26T08:57:50.000Z</time>
      </trkpt>
      <trkpt lat="47.29105" lon="-2.53188">
        <ele>-0.40000000596046</ele>
        <time>2022-05-26T08:57:56.000Z</time>
      </trkpt>
      <trkpt lat="47.29092" lon="-2.53141">
        <ele>-0.40000000596046</ele>
        <time>2022-05-26T08:58:02.000Z</time>
      </trkpt>
      <trkpt lat="47.29089" lon="-2.53135">
        <ele>-0.40000000596046</ele>
        <time>2022-05-26T08:58:03.000Z</time>
      </trkpt>
      <trkpt lat="47.29079" lon="-2.53114">
        <ele>-0.40000000596046</ele>
        <time>2022-05-26T08:58:06.000Z</time>
      </trkpt>
      <trkpt lat="47.29075" lon="-2.53107">
        <ele>-0.40000000596046</ele>
        <time>2022-05-26T08:58:07.000Z</time>
      </trkpt>
      <trkpt lat="47.29072" lon="-2.531">
        <ele>-0.40000000596046</ele>
        <time>2022-05-26T08:58:08.000Z</time>
      </trkpt>
      <trkpt lat="47.29052" lon="-2.53052">
        <ele>-0.40000000596046</ele>
        <time>2022-05-26T08:58:15.000Z</time>
      </trkpt>
      <trkpt lat="47.2904" lon="-2.53025">
        <ele>-0.40000000596046</ele>
        <time>2022-05-26T08:58:19.000Z</time>
      </trkpt>
      <trkpt lat="47.29028" lon="-2.52998">
        <ele>-0.40000000596046</ele>
        <time>2022-05-26T08:58:23.000Z</time>
      </trkpt>
      <trkpt lat="47.29022" lon="-2.52985">
        <ele>15.1</ele>
        <time>2022-05-26T08:58:25.000Z</time>
      </trkpt>
      <trkpt lat="47.29019" lon="-2.52979">
        <ele>0.40000000596046</ele>
        <time>2022-05-26T08:58:26.000Z</time>
      </trkpt>
      <trkpt lat="47.29016" lon="-2.52972">
        <ele>0.80000001192093</ele>
        <time>2022-05-26T08:58:27.000Z</time>
      </trkpt>
      <trkpt lat="47.29013" lon="-2.52965">
        <ele>1.2000000476837</ele>
        <time>2022-05-26T08:58:28.000Z</time>
      </trkpt>
      <trkpt lat="47.29011" lon="-2.52957">
        <ele>1.6000000238419</ele>
        <time>2022-05-26T08:58:29.000Z</time>
      </trkpt>
      <trkpt lat="47.29005" lon="-2.52938">
        <ele>1.6000000238419</ele>
        <time>2022-05-26T08:58:31.000Z</time>
      </trkpt>
      <trkpt lat="47.28984" lon="-2.52874">
        <ele>1.6000000238419</ele>
        <time>2022-05-26T08:58:40.000Z</time>
      </trkpt>
      <trkpt lat="47.28983" lon="-2.52868">
        <ele>1.6000000238419</ele>
        <time>2022-05-26T08:58:41.000Z</time>
      </trkpt>
      <trkpt lat="47.28979" lon="-2.52856">
        <ele>1.6000000238419</ele>
        <time>2022-05-26T08:58:43.000Z</time>
      </trkpt>
      <trkpt lat="47.28972" lon="-2.52856">
        <ele>1.6000000238419</ele>
        <time>2022-05-26T08:58:45.000Z</time>
      </trkpt>
      <trkpt lat="47.28959" lon="-2.52876">
        <ele>2</ele>
        <time>2022-05-26T08:58:49.000Z</time>
      </trkpt>
      <trkpt lat="47.28956" lon="-2.52882">
        <ele>2.4000000953674</ele>
        <time>2022-05-26T08:58:50.000Z</time>
      </trkpt>
      <trkpt lat="47.28953" lon="-2.52887">
        <ele>2.7999999523163</ele>
        <time>2022-05-26T08:58:51.000Z</time>
      </trkpt>
      <trkpt lat="47.2895" lon="-2.52893">
        <ele>3.2000000476837</ele>
        <time>2022-05-26T08:58:52.000Z</time>
      </trkpt>
      <trkpt lat="47.28946" lon="-2.52899">
        <ele>3.5999999046326</ele>
        <time>2022-05-26T08:58:53.000Z</time>
      </trkpt>
      <trkpt lat="47.2893" lon="-2.52924">
        <ele>3.5999999046326</ele>
        <time>2022-05-26T08:58:58.000Z</time>
      </trkpt>
      <trkpt lat="47.28908" lon="-2.52956">
        <ele>3.5999999046326</ele>
        <time>2022-05-26T08:59:05.000Z</time>
      </trkpt>
      <trkpt lat="47.28904" lon="-2.52961">
        <ele>4</ele>
        <time>2022-05-26T08:59:06.000Z</time>
      </trkpt>
      <trkpt lat="47.28902" lon="-2.52965">
        <ele>4.4000000953674</ele>
        <time>2022-05-26T08:59:07.000Z</time>
      </trkpt>
      <trkpt lat="47.28899" lon="-2.5297">
        <ele>5</ele>
        <time>2022-05-26T08:59:08.000Z</time>
      </trkpt>
      <trkpt lat="47.28897" lon="-2.52975">
        <ele>5.4000000953674</ele>
        <time>2022-05-26T08:59:09.000Z</time>
      </trkpt>
      <trkpt lat="47.28894" lon="-2.52979">
        <ele>5.8000001907349</ele>
        <time>2022-05-26T08:59:10.000Z</time>
      </trkpt>
      <trkpt lat="47.28875" lon="-2.53008">
        <ele>5.8000001907349</ele>
        <time>2022-05-26T08:59:17.000Z</time>
      </trkpt>
      <trkpt lat="47.28874" lon="-2.53013">
        <ele>5.8000001907349</ele>
        <time>2022-05-26T08:59:18.000Z</time>
      </trkpt>
      <trkpt lat="47.28875" lon="-2.53022">
        <ele>5.8000001907349</ele>
        <time>2022-05-26T08:59:20.000Z</time>
      </trkpt>
      <trkpt lat="47.28876" lon="-2.53055">
        <ele>5.8000001907349</ele>
        <time>2022-05-26T08:59:26.000Z</time>
      </trkpt>
      <trkpt lat="47.28874" lon="-2.5306">
        <ele>6.1999998092651</ele>
        <time>2022-05-26T08:59:27.000Z</time>
      </trkpt>
      <trkpt lat="47.28872" lon="-2.53064">
        <ele>6.5999999046326</ele>
        <time>2022-05-26T08:59:28.000Z</time>
      </trkpt>
      <trkpt lat="47.2887" lon="-2.53069">
        <ele>7</ele>
        <time>2022-05-26T08:59:29.000Z</time>
      </trkpt>
      <trkpt lat="47.28867" lon="-2.53073">
        <ele>7.4000000953674</ele>
        <time>2022-05-26T08:59:30.000Z</time>
      </trkpt>
      <trkpt lat="47.28864" lon="-2.53076">
        <ele>7.8000001907349</ele>
        <time>2022-05-26T08:59:31.000Z</time>
      </trkpt>
      <trkpt lat="47.28853" lon="-2.53085">
        <ele>7.8000001907349</ele>
        <time>2022-05-26T08:59:34.000Z</time>
      </trkpt>
      <trkpt lat="47.28849" lon="-2.53087">
        <ele>7.8000001907349</ele>
        <time>2022-05-26T08:59:35.000Z</time>
      </trkpt>
      <trkpt lat="47.28825" lon="-2.53096">
        <ele>7.4000000953674</ele>
        <time>2022-05-26T08:59:40.000Z</time>
      </trkpt>
      <trkpt lat="47.28821" lon="-2.53097">
        <ele>7</ele>
        <time>2022-05-26T08:59:41.000Z</time>
      </trkpt>
      <trkpt lat="47.28816" lon="-2.53099">
        <ele>6.5999999046326</ele>
        <time>2022-05-26T08:59:42.000Z</time>
      </trkpt>
      <trkpt lat="47.28812" lon="-2.53101">
        <ele>6.1999998092651</ele>
        <time>2022-05-26T08:59:43.000Z</time>
      </trkpt>
      <trkpt lat="47.28807" lon="-2.53102">
        <ele>5.5999999046326</ele>
        <time>2022-05-26T08:59:44.000Z</time>
      </trkpt>
      <trkpt lat="47.28783" lon="-2.53107">
        <ele>5.5999999046326</ele>
        <time>2022-05-26T08:59:49.000Z</time>
      </trkpt>
      <trkpt lat="47.28772" lon="-2.53108">
        <ele>5.1999998092651</ele>
        <time>2022-05-26T08:59:52.000Z</time>
      </trkpt>
      <trkpt lat="47.28769" lon="-2.53107">
        <ele>4.8000001907349</ele>
        <time>2022-05-26T08:59:53.000Z</time>
      </trkpt>
      <trkpt lat="47.28766" lon="-2.53103">
        <ele>4.4000000953674</ele>
        <time>2022-05-26T08:59:54.000Z</time>
      </trkpt>
      <trkpt lat="47.28764" lon="-2.53098">
        <ele>3.7999999523163</ele>
        <time>2022-05-26T08:59:55.000Z</time>
      </trkpt>
      <trkpt lat="47.28763" lon="-2.53092">
        <ele>3.4000000953674</ele>
        <time>2022-05-26T08:59:56.000Z</time>
      </trkpt>
      <trkpt lat="47.28755" lon="-2.53039">
        <ele>3.4000000953674</ele>
        <time>2022-05-26T09:00:03.000Z</time>
      </trkpt>
      <trkpt lat="47.28749" lon="-2.52973">
        <ele>3.4000000953674</ele>
        <time>2022-05-26T09:00:11.000Z</time>
      </trkpt>
      <trkpt lat="47.28743" lon="-2.52906">
        <ele>3.4000000953674</ele>
        <time>2022-05-26T09:00:18.000Z</time>
      </trkpt>
      <trkpt lat="47.28739" lon="-2.52865">
        <ele>3</ele>
        <time>2022-05-26T09:00:22.000Z</time>
      </trkpt>
      <trkpt lat="47.28738" lon="-2.52854">
        <ele>2.5999999046326</ele>
        <time>2022-05-26T09:00:23.000Z</time>
      </trkpt>
      <trkpt lat="47.28737" lon="-2.52843">
        <ele>2.2000000476837</ele>
        <time>2022-05-26T09:00:24.000Z</time>
      </trkpt>
      <trkpt lat="47.28736" lon="-2.52833">
        <ele>1.7999999523163</ele>
        <time>2022-05-26T09:00:25.000Z</time>
      </trkpt>
      <trkpt lat="47.28735" lon="-2.52822">
        <ele>1.3999999761581</ele>
        <time>2022-05-26T09:00:26.000Z</time>
      </trkpt>
      <trkpt lat="47.28734" lon="-2.52811">
        <ele>1.3999999761581</ele>
        <time>2022-05-26T09:00:27.000Z</time>
      </trkpt>
      <trkpt lat="47.28728" lon="-2.52744">
        <ele>1</ele>
        <time>2022-05-26T09:00:33.000Z</time>
      </trkpt>
      <trkpt lat="47.28727" lon="-2.52733">
        <ele>0.60000002384186</ele>
        <time>2022-05-26T09:00:34.000Z</time>
      </trkpt>
      <trkpt lat="47.28726" lon="-2.52722">
        <ele>11</ele>
        <time>2022-05-26T09:00:35.000Z</time>
      </trkpt>
      <trkpt lat="47.28725" lon="-2.52712">
        <ele>-0.40000000596046</ele>
        <time>2022-05-26T09:00:36.000Z</time>
      </trkpt>
      <trkpt lat="47.28724" lon="-2.52701">
        <ele>-0.80000001192093</ele>
        <time>2022-05-26T09:00:37.000Z</time>
      </trkpt>
      <trkpt lat="47.28721" lon="-2.5266">
        <ele>-0.80000001192093</ele>
        <time>2022-05-26T09:00:41.000Z</time>
      </trkpt>
      <trkpt lat="47.28719" lon="-2.5264">
        <ele>-1.2000000476837</ele>
        <time>2022-05-26T09:00:43.000Z</time>
      </trkpt>
      <trkpt lat="47.28718" lon="-2.5263">
        <ele>-1.6000000238419</ele>
        <time>2022-05-26T09:00:44.000Z</time>
      </trkpt>
      <trkpt lat="47.28717" lon="-2.52619">
        <ele>-2.4000000953674</ele>
        <time>2022-05-26T09:00:45.000Z</time>
      </trkpt>
      <trkpt lat="47.28716" lon="-2.52608">
        <ele>-2.7999999523163</ele>
        <time>2022-05-26T09:00:46.000Z</time>
      </trkpt>
      <trkpt lat="47.28716" lon="-2.52576">
        <ele>-2.7999999523163</ele>
        <time>2022-05-26T09:00:49.000Z</time>
      </trkpt>
      <trkpt lat="47.28721" lon="-2.52521">
        <ele>-2.7999999523163</ele>
        <time>2022-05-26T09:00:54.000Z</time>
      </trkpt>
      <trkpt lat="47.28724" lon="-2.5251">
        <ele>-2.7999999523163</ele>
        <time>2022-05-26T09:00:55.000Z</time>
      </trkpt>
      <trkpt lat="47.28734" lon="-2.52472">
        <ele>-2.7999999523163</ele>
        <time>2022-05-26T09:00:59.000Z</time>
      </trkpt>
      <trkpt lat="47.28746" lon="-2.52421">
        <ele>-2.7999999523163</ele>
        <time>2022-05-26T09:01:05.000Z</time>
      </trkpt>
      <trkpt lat="47.28747" lon="-2.52394">
        <ele>-2.7999999523163</ele>
        <time>2022-05-26T09:01:08.000Z</time>
      </trkpt>
      <trkpt lat="47.28745" lon="-2.52377">
        <ele>-2.7999999523163</ele>
        <time>2022-05-26T09:01:10.000Z</time>
      </trkpt>
      <trkpt lat="47.28738" lon="-2.52342">
        <ele>-2.4000000953674</ele>
        <time>2022-05-26T09:01:14.000Z</time>
      </trkpt>
      <trkpt lat="47.28737" lon="-2.52333">
        <ele>-2</ele>
        <time>2022-05-26T09:01:15.000Z</time>
      </trkpt>
      <trkpt lat="47.28735" lon="-2.52325">
        <ele>-1.6000000238419</ele>
        <time>2022-05-26T09:01:16.000Z</time>
      </trkpt>
      <trkpt lat="47.28733" lon="-2.52316">
        <ele>-1.2000000476837</ele>
        <time>2022-05-26T09:01:17.000Z</time>
      </trkpt>
      <trkpt lat="47.28732" lon="-2.52308">
        <ele>-0.80000001192093</ele>
        <time>2022-05-26T09:01:18.000Z</time>
      </trkpt>
      <trkpt lat="47.28719" lon="-2.52246">
        <ele>-0.80000001192093</ele>
        <time>2022-05-26T09:01:25.000Z</time>
      </trkpt>
      <trkpt lat="47.28704" lon="-2.52196">
        <ele>-0.80000001192093</ele>
        <time>2022-05-26T09:01:31.000Z</time>
      </trkpt>
      <trkpt lat="47.28681" lon="-2.5213">
        <ele>-0.80000001192093</ele>
        <time>2022-05-26T09:01:39.000Z</time>
      </trkpt>
      <trkpt lat="47.28654" lon="-2.52056">
        <ele>-0.80000001192093</ele>
        <time>2022-05-26T09:01:48.000Z</time>
      </trkpt>
      <trkpt lat="47.28642" lon="-2.52019">
        <ele>-0.80000001192093</ele>
        <time>2022-05-26T09:01:52.000Z</time>
      </trkpt>
      <trkpt lat="47.28638" lon="-2.51999">
        <ele>-0.80000001192093</ele>
        <time>2022-05-26T09:01:54.000Z</time>
      </trkpt>
      <trkpt lat="47.28634" lon="-2.51935">
        <ele>-0.80000001192093</ele>
        <time>2022-05-26T09:02:00.000Z</time>
      </trkpt>
      <trkpt lat="47.28633" lon="-2.51914">
        <ele>-1.2000000476837</ele>
        <time>2022-05-26T09:02:02.000Z</time>
      </trkpt>
      <trkpt lat="47.28632" lon="-2.51904">
        <ele>-1.6000000238419</ele>
        <time>2022-05-26T09:02:03.000Z</time>
      </trkpt>
      <trkpt lat="47.28631" lon="-2.51893">
        <ele>-2</ele>
        <time>2022-05-26T09:02:04.000Z</time>
      </trkpt>
      <trkpt lat="47.2863" lon="-2.51884">
        <ele>-2.4000000953674</ele>
        <time>2022-05-26T09:02:05.000Z</time>
      </trkpt>
      <trkpt lat="47.28628" lon="-2.51874">
        <ele>-2.7999999523163</ele>
        <time>2022-05-26T09:02:06.000Z</time>
      </trkpt>
      <trkpt lat="47.28623" lon="-2.51856">
        <ele>-2.7999999523163</ele>
        <time>2022-05-26T09:02:08.000Z</time>
      </trkpt>
      <trkpt lat="47.28614" lon="-2.51841">
        <ele>-2.7999999523163</ele>
        <time>2022-05-26T09:02:10.000Z</time>
      </trkpt>
      <trkpt lat="47.28605" lon="-2.51828">
        <ele>-2.7999999523163</ele>
        <time>2022-05-26T09:02:12.000Z</time>
      </trkpt>
      <trkpt lat="47.28589" lon="-2.51811">
        <ele>-2.7999999523163</ele>
        <time>2022-05-26T09:02:15.000Z</time>
      </trkpt>
      <trkpt lat="47.28564" lon="-2.51779">
        <ele>-2.7999999523163</ele>
        <time>2022-05-26T09:02:20.000Z</time>
      </trkpt>
      <trkpt lat="47.2856" lon="-2.51771">
        <ele>-2.7999999523163</ele>
        <time>2022-05-26T09:02:21.000Z</time>
      </trkpt>
      <trkpt lat="47.28551" lon="-2.51733">
        <ele>-2.7999999523163</ele>
        <time>2022-05-26T09:02:25.000Z</time>
      </trkpt>
      <trkpt lat="47.28542" lon="-2.51667">
        <ele>-3.2000000476837</ele>
        <time>2022-05-26T09:02:31.000Z</time>
      </trkpt>
      <trkpt lat="47.28541" lon="-2.51656">
        <ele>-3.7999999523163</ele>
        <time>2022-05-26T09:02:32.000Z</time>
      </trkpt>
      <trkpt lat="47.2854" lon="-2.51645">
        <ele>-4.1999998092651</ele>
        <time>2022-05-26T09:02:33.000Z</time>
      </trkpt>
      <trkpt lat="47.28538" lon="-2.51634">
        <ele>-4.5999999046326</ele>
        <time>2022-05-26T09:02:34.000Z</time>
      </trkpt>
      <trkpt lat="47.28537" lon="-2.51624">
        <ele>-5</ele>
        <time>2022-05-26T09:02:35.000Z</time>
      </trkpt>
      <trkpt lat="47.28527" lon="-2.51541">
        <ele>-5</ele>
        <time>2022-05-26T09:02:43.000Z</time>
      </trkpt>
      <trkpt lat="47.28526" lon="-2.51532">
        <ele>-5</ele>
        <time>2022-05-26T09:02:44.000Z</time>
      </trkpt>
      <trkpt lat="47.28518" lon="-2.51497">
        <ele>-5</ele>
        <time>2022-05-26T09:02:48.000Z</time>
      </trkpt>
      <trkpt lat="47.28515" lon="-2.51489">
        <ele>-5</ele>
        <time>2022-05-26T09:02:49.000Z</time>
      </trkpt>
      <trkpt lat="47.28495" lon="-2.51463">
        <ele>-5</ele>
        <time>2022-05-26T09:02:53.000Z</time>
      </trkpt>
      <trkpt lat="47.28461" lon="-2.51427">
        <ele>-5</ele>
        <time>2022-05-26T09:03:00.000Z</time>
      </trkpt>
      <trkpt lat="47.28453" lon="-2.51416">
        <ele>-5</ele>
        <time>2022-05-26T09:03:02.000Z</time>
      </trkpt>
      <trkpt lat="47.28445" lon="-2.51393">
        <ele>-5</ele>
        <time>2022-05-26T09:03:05.000Z</time>
      </trkpt>
      <trkpt lat="47.28443" lon="-2.51385">
        <ele>-5</ele>
        <time>2022-05-26T09:03:06.000Z</time>
      </trkpt>
      <trkpt lat="47.28442" lon="-2.51376">
        <ele>-5</ele>
        <time>2022-05-26T09:03:07.000Z</time>
      </trkpt>
      <trkpt lat="47.28437" lon="-2.51338">
        <ele>-5</ele>
        <time>2022-05-26T09:03:11.000Z</time>
      </trkpt>
      <trkpt lat="47.28435" lon="-2.51329">
        <ele>-5</ele>
        <time>2022-05-26T09:03:12.000Z</time>
      </trkpt>
      <trkpt lat="47.28426" lon="-2.51306">
        <ele>-5</ele>
        <time>2022-05-26T09:03:15.000Z</time>
      </trkpt>
      <trkpt lat="47.2841" lon="-2.51278">
        <ele>-5</ele>
        <time>2022-05-26T09:03:19.000Z</time>
      </trkpt>
      <trkpt lat="47.28404" lon="-2.51272">
        <ele>-5</ele>
        <time>2022-05-26T09:03:20.000Z</time>
      </trkpt>
      <trkpt lat="47.28387" lon="-2.51259">
        <ele>-5</ele>
        <time>2022-05-26T09:03:23.000Z</time>
      </trkpt>
      <trkpt lat="47.28374" lon="-2.5125">
        <ele>-5</ele>
        <time>2022-05-26T09:03:25.000Z</time>
      </trkpt>
      <trkpt lat="47.2833" lon="-2.51219">
        <ele>-5.4000000953674</ele>
        <time>2022-05-26T09:03:32.000Z</time>
      </trkpt>
      <trkpt lat="47.28324" lon="-2.51215">
        <ele>-5.8000001907349</ele>
        <time>2022-05-26T09:03:33.000Z</time>
      </trkpt>
      <trkpt lat="47.28317" lon="-2.51209">
        <ele>-6.1999998092651</ele>
        <time>2022-05-26T09:03:34.000Z</time>
      </trkpt>
      <trkpt lat="47.28312" lon="-2.51203">
        <ele>-6.5999999046326</ele>
        <time>2022-05-26T09:03:35.000Z</time>
      </trkpt>
      <trkpt lat="47.28307" lon="-2.51197">
        <ele>-7</ele>
        <time>2022-05-26T09:03:36.000Z</time>
      </trkpt>
      <trkpt lat="47.28302" lon="-2.51189">
        <ele>-7</ele>
        <time>2022-05-26T09:03:37.000Z</time>
      </trkpt>
      <trkpt lat="47.28286" lon="-2.51147">
        <ele>-7</ele>
        <time>2022-05-26T09:03:42.000Z</time>
      </trkpt>
      <trkpt lat="47.2827" lon="-2.51091">
        <ele>-7</ele>
        <time>2022-05-26T09:03:49.000Z</time>
      </trkpt>
      <trkpt lat="47.28264" lon="-2.51068">
        <ele>-7</ele>
        <time>2022-05-26T09:03:52.000Z</time>
      </trkpt>
      <trkpt lat="47.28257" lon="-2.51055">
        <ele>-7</ele>
        <time>2022-05-26T09:03:54.000Z</time>
      </trkpt>
      <trkpt lat="47.28254" lon="-2.51047">
        <ele>-7</ele>
        <time>2022-05-26T09:03:55.000Z</time>
      </trkpt>
      <trkpt lat="47.2825" lon="-2.51029">
        <ele>-7</ele>
        <time>2022-05-26T09:03:57.000Z</time>
      </trkpt>
      <trkpt lat="47.28243" lon="-2.50991">
        <ele>-7</ele>
        <time>2022-05-26T09:04:01.000Z</time>
      </trkpt>
      <trkpt lat="47.28239" lon="-2.50962">
        <ele>-7</ele>
        <time>2022-05-26T09:04:04.000Z</time>
      </trkpt>
      <trkpt lat="47.28225" lon="-2.50877">
        <ele>-7</ele>
        <time>2022-05-26T09:04:13.000Z</time>
      </trkpt>
      <trkpt lat="47.28212" lon="-2.50806">
        <ele>-7</ele>
        <time>2022-05-26T09:04:21.000Z</time>
      </trkpt>
      <trkpt lat="47.28208" lon="-2.50743">
        <ele>-7</ele>
        <time>2022-05-26T09:04:28.000Z</time>
      </trkpt>
      <trkpt lat="47.28209" lon="-2.50726">
        <ele>-7</ele>
        <time>2022-05-26T09:04:30.000Z</time>
      </trkpt>
      <trkpt lat="47.28215" lon="-2.507">
        <ele>-7</ele>
        <time>2022-05-26T09:04:33.000Z</time>
      </trkpt>
      <trkpt lat="47.28215" lon="-2.50691">
        <ele>-7</ele>
        <time>2022-05-26T09:04:34.000Z</time>
      </trkpt>
      <trkpt lat="47.28217" lon="-2.50664">
        <ele>-7</ele>
        <time>2022-05-26T09:04:37.000Z</time>
      </trkpt>
      <trkpt lat="47.28227" lon="-2.50617">
        <ele>-7</ele>
        <time>2022-05-26T09:04:42.000Z</time>
      </trkpt>
      <trkpt lat="47.28249" lon="-2.50535">
        <ele>-7</ele>
        <time>2022-05-26T09:04:51.000Z</time>
      </trkpt>
      <trkpt lat="47.28251" lon="-2.50526">
        <ele>-7</ele>
        <time>2022-05-26T09:04:52.000Z</time>
      </trkpt>
      <trkpt lat="47.28271" lon="-2.50451">
        <ele>-7</ele>
        <time>2022-05-26T09:05:00.000Z</time>
      </trkpt>
      <trkpt lat="47.28279" lon="-2.50413">
        <ele>-7</ele>
        <time>2022-05-26T09:05:04.000Z</time>
      </trkpt>
      <trkpt lat="47.28279" lon="-2.50404">
        <ele>-7</ele>
        <time>2022-05-26T09:05:05.000Z</time>
      </trkpt>
      <trkpt lat="47.28278" lon="-2.50341">
        <ele>-7</ele>
        <time>2022-05-26T09:05:12.000Z</time>
      </trkpt>
      <trkpt lat="47.28272" lon="-2.50306">
        <ele>-7</ele>
        <time>2022-05-26T09:05:16.000Z</time>
      </trkpt>
      <trkpt lat="47.28269" lon="-2.50298">
        <ele>-7</ele>
        <time>2022-05-26T09:05:17.000Z</time>
      </trkpt>
      <trkpt lat="47.28259" lon="-2.50274">
        <ele>-7</ele>
        <time>2022-05-26T09:05:20.000Z</time>
      </trkpt>
      <trkpt lat="47.28249" lon="-2.50257">
        <ele>-7</ele>
        <time>2022-05-26T09:05:23.000Z</time>
      </trkpt>
      <trkpt lat="47.28246" lon="-2.50253">
        <ele>-7</ele>
        <time>2022-05-26T09:05:24.000Z</time>
      </trkpt>
      <trkpt lat="47.28231" lon="-2.50233">
        <ele>-7</ele>
        <time>2022-05-26T09:05:28.000Z</time>
      </trkpt>
      <trkpt lat="47.28217" lon="-2.50205">
        <ele>-7</ele>
        <time>2022-05-26T09:05:32.000Z</time>
      </trkpt>
      <trkpt lat="47.28214" lon="-2.50197">
        <ele>-7</ele>
        <time>2022-05-26T09:05:33.000Z</time>
      </trkpt>
      <trkpt lat="47.282" lon="-2.50148">
        <ele>-7</ele>
        <time>2022-05-26T09:05:39.000Z</time>
      </trkpt>
      <trkpt lat="47.28191" lon="-2.50099">
        <ele>-7</ele>
        <time>2022-05-26T09:05:45.000Z</time>
      </trkpt>
      <trkpt lat="47.28185" lon="-2.50077">
        <ele>-7</ele>
        <time>2022-05-26T09:05:48.000Z</time>
      </trkpt>
      <trkpt lat="47.2818" lon="-2.50061">
        <ele>-7</ele>
        <time>2022-05-26T09:05:50.000Z</time>
      </trkpt>
      <trkpt lat="47.28174" lon="-2.50036">
        <ele>-7</ele>
        <time>2022-05-26T09:05:53.000Z</time>
      </trkpt>
      <trkpt lat="47.28171" lon="-2.50017">
        <ele>-7</ele>
        <time>2022-05-26T09:05:55.000Z</time>
      </trkpt>
      <trkpt lat="47.28162" lon="-2.49954">
        <ele>-7</ele>
        <time>2022-05-26T09:06:01.000Z</time>
      </trkpt>
      <trkpt lat="47.28154" lon="-2.49894">
        <ele>-7</ele>
        <time>2022-05-26T09:06:07.000Z</time>
      </trkpt>
      <trkpt lat="47.28146" lon="-2.49837">
        <ele>-7</ele>
        <time>2022-05-26T09:06:13.000Z</time>
      </trkpt>
      <trkpt lat="47.28146" lon="-2.49827">
        <ele>-7</ele>
        <time>2022-05-26T09:06:14.000Z</time>
      </trkpt>
      <trkpt lat="47.28141" lon="-2.49792">
        <ele>-7</ele>
        <time>2022-05-26T09:06:18.000Z</time>
      </trkpt>
      <trkpt lat="47.28134" lon="-2.49736">
        <ele>-7</ele>
        <time>2022-05-26T09:06:25.000Z</time>
      </trkpt>
      <trkpt lat="47.28131" lon="-2.49696">
        <ele>-7</ele>
        <time>2022-05-26T09:06:31.000Z</time>
      </trkpt>
      <trkpt lat="47.2813" lon="-2.4969">
        <ele>-7</ele>
        <time>2022-05-26T09:06:32.000Z</time>
      </trkpt>
      <trkpt lat="47.28129" lon="-2.49684">
        <ele>-6.5999999046326</ele>
        <time>2022-05-26T09:06:33.000Z</time>
      </trkpt>
      <trkpt lat="47.28127" lon="-2.49677">
        <ele>-6.1999998092651</ele>
        <time>2022-05-26T09:06:34.000Z</time>
      </trkpt>
      <trkpt lat="47.28125" lon="-2.49671">
        <ele>-5.8000001907349</ele>
        <time>2022-05-26T09:06:35.000Z</time>
      </trkpt>
      <trkpt lat="47.28124" lon="-2.49664">
        <ele>-5.4000000953674</ele>
        <time>2022-05-26T09:06:36.000Z</time>
      </trkpt>
      <trkpt lat="47.28122" lon="-2.49658">
        <ele>-5</ele>
        <time>2022-05-26T09:06:37.000Z</time>
      </trkpt>
      <trkpt lat="47.2812" lon="-2.49651">
        <ele>-5</ele>
        <time>2022-05-26T09:06:38.000Z</time>
      </trkpt>
      <trkpt lat="47.2811" lon="-2.49633">
        <ele>-5</ele>
        <time>2022-05-26T09:06:41.000Z</time>
      </trkpt>
      <trkpt lat="47.28106" lon="-2.49627">
        <ele>-5</ele>
        <time>2022-05-26T09:06:42.000Z</time>
      </trkpt>
      <trkpt lat="47.2809" lon="-2.49607">
        <ele>-5</ele>
        <time>2022-05-26T09:06:46.000Z</time>
      </trkpt>
      <trkpt lat="47.28087" lon="-2.496">
        <ele>-5</ele>
        <time>2022-05-26T09:06:47.000Z</time>
      </trkpt>
      <trkpt lat="47.28075" lon="-2.49581">
        <ele>-5</ele>
        <time>2022-05-26T09:06:50.000Z</time>
      </trkpt>
      <trkpt lat="47.2807" lon="-2.49574">
        <ele>-5</ele>
        <time>2022-05-26T09:06:51.000Z</time>
      </trkpt>
      <trkpt lat="47.28035" lon="-2.49529">
        <ele>-5</ele>
        <time>2022-05-26T09:06:58.000Z</time>
      </trkpt>
      <trkpt lat="47.28004" lon="-2.49487">
        <ele>-5</ele>
        <time>2022-05-26T09:07:05.000Z</time>
      </trkpt>
      <trkpt lat="47.27972" lon="-2.49443">
        <ele>-5</ele>
        <time>2022-05-26T09:07:12.000Z</time>
      </trkpt>
      <trkpt lat="47.2793" lon="-2.49386">
        <ele>-5</ele>
        <time>2022-05-26T09:07:21.000Z</time>
      </trkpt>
      <trkpt lat="47.27926" lon="-2.49379">
        <ele>-5</ele>
        <time>2022-05-26T09:07:22.000Z</time>
      </trkpt>
      <trkpt lat="47.27892" lon="-2.49333">
        <ele>-5</ele>
        <time>2022-05-26T09:07:29.000Z</time>
      </trkpt>
      <trkpt lat="47.27854" lon="-2.4929">
        <ele>-5</ele>
        <time>2022-05-26T09:07:36.000Z</time>
      </trkpt>
      <trkpt lat="47.27817" lon="-2.49268">
        <ele>-5</ele>
        <time>2022-05-26T09:07:42.000Z</time>
      </trkpt>
      <trkpt lat="47.27783" lon="-2.49259">
        <ele>-5</ele>
        <time>2022-05-26T09:07:47.000Z</time>
      </trkpt>
      <trkpt lat="47.27736" lon="-2.49257">
        <ele>-5</ele>
        <time>2022-05-26T09:07:54.000Z</time>
      </trkpt>
      <trkpt lat="47.27698" lon="-2.49255">
        <ele>-5</ele>
        <time>2022-05-26T09:08:00.000Z</time>
      </trkpt>
      <trkpt lat="47.2766" lon="-2.49243">
        <ele>-5</ele>
        <time>2022-05-26T09:08:06.000Z</time>
      </trkpt>
      <trkpt lat="47.27654" lon="-2.49242">
        <ele>-5</ele>
        <time>2022-05-26T09:08:07.000Z</time>
      </trkpt>
      <trkpt lat="47.27637" lon="-2.4924">
        <ele>-5</ele>
        <time>2022-05-26T09:08:10.000Z</time>
      </trkpt>
      <trkpt lat="47.27629" lon="-2.49226">
        <ele>-5</ele>
        <time>2022-05-26T09:08:12.000Z</time>
      </trkpt>
      <trkpt lat="47.27621" lon="-2.49211">
        <ele>-5</ele>
        <time>2022-05-26T09:08:14.000Z</time>
      </trkpt>
      <trkpt lat="47.27609" lon="-2.49188">
        <ele>-5</ele>
        <time>2022-05-26T09:08:17.000Z</time>
      </trkpt>
      <trkpt lat="47.27593" lon="-2.49148">
        <ele>-5</ele>
        <time>2022-05-26T09:08:22.000Z</time>
      </trkpt>
      <trkpt lat="47.27591" lon="-2.49139">
        <ele>-5</ele>
        <time>2022-05-26T09:08:23.000Z</time>
      </trkpt>
      <trkpt lat="47.27588" lon="-2.49121">
        <ele>-5</ele>
        <time>2022-05-26T09:08:25.000Z</time>
      </trkpt>
      <trkpt lat="47.27587" lon="-2.49094">
        <ele>-5</ele>
        <time>2022-05-26T09:08:28.000Z</time>
      </trkpt>
      <trkpt lat="47.27587" lon="-2.49034">
        <ele>-5</ele>
        <time>2022-05-26T09:08:35.000Z</time>
      </trkpt>
      <trkpt lat="47.27588" lon="-2.49025">
        <ele>-4.5999999046326</ele>
        <time>2022-05-26T09:08:36.000Z</time>
      </trkpt>
      <trkpt lat="47.27588" lon="-2.49017">
        <ele>-4.1999998092651</ele>
        <time>2022-05-26T09:08:37.000Z</time>
      </trkpt>
      <trkpt lat="47.27589" lon="-2.49008">
        <ele>-3.7999999523163</ele>
        <time>2022-05-26T09:08:38.000Z</time>
      </trkpt>
      <trkpt lat="47.27589" lon="-2.48999">
        <ele>-3.4000000953674</ele>
        <time>2022-05-26T09:08:39.000Z</time>
      </trkpt>
      <trkpt lat="47.2759" lon="-2.48991">
        <ele>-3</ele>
        <time>2022-05-26T09:08:40.000Z</time>
      </trkpt>
      <trkpt lat="47.27592" lon="-2.48964">
        <ele>-3</ele>
        <time>2022-05-26T09:08:43.000Z</time>
      </trkpt>
      <trkpt lat="47.27596" lon="-2.48903">
        <ele>-3</ele>
        <time>2022-05-26T09:08:50.000Z</time>
      </trkpt>
      <trkpt lat="47.27596" lon="-2.48894">
        <ele>-3</ele>
        <time>2022-05-26T09:08:51.000Z</time>
      </trkpt>
      <trkpt lat="47.27601" lon="-2.4884">
        <ele>-3</ele>
        <time>2022-05-26T09:08:57.000Z</time>
      </trkpt>
      <trkpt lat="47.27602" lon="-2.48831">
        <ele>-3</ele>
        <time>2022-05-26T09:08:58.000Z</time>
      </trkpt>
      <trkpt lat="47.27604" lon="-2.48793">
        <ele>-3</ele>
        <time>2022-05-26T09:09:02.000Z</time>
      </trkpt>
      <trkpt lat="47.27603" lon="-2.48775">
        <ele>-3</ele>
        <time>2022-05-26T09:09:04.000Z</time>
      </trkpt>
      <trkpt lat="47.27597" lon="-2.48721">
        <ele>-3</ele>
        <time>2022-05-26T09:09:10.000Z</time>
      </trkpt>
      <trkpt lat="47.2759" lon="-2.48648">
        <ele>-3</ele>
        <time>2022-05-26T09:09:18.000Z</time>
      </trkpt>
      <trkpt lat="47.27584" lon="-2.48584">
        <ele>-3</ele>
        <time>2022-05-26T09:09:25.000Z</time>
      </trkpt>
      <trkpt lat="47.27583" lon="-2.48575">
        <ele>-3</ele>
        <time>2022-05-26T09:09:26.000Z</time>
      </trkpt>
      <trkpt lat="47.2758" lon="-2.48546">
        <ele>-3</ele>
        <time>2022-05-26T09:09:30.000Z</time>
      </trkpt>
      <trkpt lat="47.27578" lon="-2.48542">
        <ele>-3</ele>
        <time>2022-05-26T09:09:31.000Z</time>
      </trkpt>
      <trkpt lat="47.27573" lon="-2.48541">
        <ele>-3</ele>
        <time>2022-05-26T09:09:33.000Z</time>
      </trkpt>
      <trkpt lat="47.27568" lon="-2.48543">
        <ele>-3</ele>
        <time>2022-05-26T09:09:35.000Z</time>
      </trkpt>
      <trkpt lat="47.27554" lon="-2.48546">
        <ele>-3</ele>
        <time>2022-05-26T09:09:39.000Z</time>
      </trkpt>
      <trkpt lat="47.27531" lon="-2.48549">
        <ele>-3</ele>
        <time>2022-05-26T09:09:46.000Z</time>
      </trkpt>
      <trkpt lat="47.27518" lon="-2.48555">
        <ele>-3</ele>
        <time>2022-05-26T09:09:51.000Z</time>
      </trkpt>
      <trkpt lat="47.27498" lon="-2.48565">
        <ele>-3</ele>
        <time>2022-05-26T09:09:57.000Z</time>
      </trkpt>
      <trkpt lat="47.27473" lon="-2.4856">
        <ele>-3</ele>
        <time>2022-05-26T09:10:03.000Z</time>
      </trkpt>
      <trkpt lat="47.27469" lon="-2.48553">
        <ele>-3</ele>
        <time>2022-05-26T09:10:05.000Z</time>
      </trkpt>
      <trkpt lat="47.27468" lon="-2.48547">
        <ele>-3</ele>
        <time>2022-05-26T09:10:06.000Z</time>
      </trkpt>
      <trkpt lat="47.27468" lon="-2.48507">
        <ele>-3</ele>
        <time>2022-05-26T09:10:12.000Z</time>
      </trkpt>
      <trkpt lat="47.27462" lon="-2.48446">
        <ele>-3</ele>
        <time>2022-05-26T09:10:21.000Z</time>
      </trkpt>
      <trkpt lat="47.27456" lon="-2.48414">
        <ele>-3</ele>
        <time>2022-05-26T09:10:26.000Z</time>
      </trkpt>
      <trkpt lat="47.27452" lon="-2.48401">
        <ele>-3</ele>
        <time>2022-05-26T09:10:28.000Z</time>
      </trkpt>
      <trkpt lat="47.27437" lon="-2.48358">
        <ele>-3</ele>
        <time>2022-05-26T09:10:35.000Z</time>
      </trkpt>
      <trkpt lat="47.27433" lon="-2.48345">
        <ele>-3</ele>
        <time>2022-05-26T09:10:37.000Z</time>
      </trkpt>
      <trkpt lat="47.27431" lon="-2.48323">
        <ele>-3</ele>
        <time>2022-05-26T09:10:40.000Z</time>
      </trkpt>
      <trkpt lat="47.27421" lon="-2.48254">
        <ele>-3</ele>
        <time>2022-05-26T09:10:49.000Z</time>
      </trkpt>
      <trkpt lat="47.27411" lon="-2.48197">
        <ele>-3</ele>
        <time>2022-05-26T09:10:57.000Z</time>
      </trkpt>
      <trkpt lat="47.27409" lon="-2.48177">
        <ele>-3</ele>
        <time>2022-05-26T09:11:00.000Z</time>
      </trkpt>
      <trkpt lat="47.27408" lon="-2.48158">
        <ele>-3</ele>
        <time>2022-05-26T09:11:03.000Z</time>
      </trkpt>
      <trkpt lat="47.27407" lon="-2.48144">
        <ele>-3</ele>
        <time>2022-05-26T09:11:05.000Z</time>
      </trkpt>
      <trkpt lat="47.27416" lon="-2.48129">
        <ele>-3</ele>
        <time>2022-05-26T09:11:08.000Z</time>
      </trkpt>
      <trkpt lat="47.2743" lon="-2.48129">
        <ele>-3</ele>
        <time>2022-05-26T09:11:11.000Z</time>
      </trkpt>
      <trkpt lat="47.27439" lon="-2.48128">
        <ele>-3</ele>
        <time>2022-05-26T09:11:13.000Z</time>
      </trkpt>
      <trkpt lat="47.27443" lon="-2.48128">
        <ele>-2.5999999046326</ele>
        <time>2022-05-26T09:11:14.000Z</time>
      </trkpt>
      <trkpt lat="47.27447" lon="-2.48127">
        <ele>-2.2000000476837</ele>
        <time>2022-05-26T09:11:15.000Z</time>
      </trkpt>
      <trkpt lat="47.27451" lon="-2.48126">
        <ele>-1.7999999523163</ele>
        <time>2022-05-26T09:11:16.000Z</time>
      </trkpt>
      <trkpt lat="47.27455" lon="-2.48125">
        <ele>-1.3999999761581</ele>
        <time>2022-05-26T09:11:17.000Z</time>
      </trkpt>
      <trkpt lat="47.2746" lon="-2.48123">
        <ele>-1</ele>
        <time>2022-05-26T09:11:18.000Z</time>
      </trkpt>
      <trkpt lat="47.2748" lon="-2.48115">
        <ele>-1</ele>
        <time>2022-05-26T09:11:23.000Z</time>
      </trkpt>
      <trkpt lat="47.27484" lon="-2.48114">
        <ele>-1</ele>
        <time>2022-05-26T09:11:24.000Z</time>
      </trkpt>
      <trkpt lat="47.27491" lon="-2.48112">
        <ele>-0.60000002384186</ele>
        <time>2022-05-26T09:11:26.000Z</time>
      </trkpt>
      <trkpt lat="47.27494" lon="-2.48109">
        <ele>0.40000000596046</ele>
        <time>2022-05-26T09:11:27.000Z</time>
      </trkpt>
      <trkpt lat="47.27494" lon="-2.48104">
        <ele>0.80000001192093</ele>
        <time>2022-05-26T09:11:28.000Z</time>
      </trkpt>
      <trkpt lat="47.27493" lon="-2.481">
        <ele>1.2000000476837</ele>
        <time>2022-05-26T09:11:29.000Z</time>
      </trkpt>
      <trkpt lat="47.27486" lon="-2.48088">
        <ele>1.2000000476837</ele>
        <time>2022-05-26T09:11:32.000Z</time>
      </trkpt>
      <trkpt lat="47.27471" lon="-2.48058">
        <ele>1.2000000476837</ele>
        <time>2022-05-26T09:11:37.000Z</time>
      </trkpt>
      <trkpt lat="47.27447" lon="-2.48012">
        <ele>1.2000000476837</ele>
        <time>2022-05-26T09:11:43.000Z</time>
      </trkpt>
      <trkpt lat="47.27442" lon="-2.48003">
        <ele>0.80000001192093</ele>
        <time>2022-05-26T09:11:44.000Z</time>
      </trkpt>
      <trkpt lat="47.27437" lon="-2.47994">
        <ele>0.40000000596046</ele>
        <time>2022-05-26T09:11:45.000Z</time>
      </trkpt>
      <trkpt lat="47.27432" lon="-2.47986">
        <ele>10.3</ele>
        <time>2022-05-26T09:11:46.000Z</time>
      </trkpt>
      <trkpt lat="47.27427" lon="-2.47978">
        <ele>-0.40000000596046</ele>
        <time>2022-05-26T09:11:47.000Z</time>
      </trkpt>
      <trkpt lat="47.27422" lon="-2.47969">
        <ele>-0.80000001192093</ele>
        <time>2022-05-26T09:11:48.000Z</time>
      </trkpt>
      <trkpt lat="47.27416" lon="-2.47961">
        <ele>-0.80000001192093</ele>
        <time>2022-05-26T09:11:49.000Z</time>
      </trkpt>
      <trkpt lat="47.27399" lon="-2.47941">
        <ele>-1.2000000476837</ele>
        <time>2022-05-26T09:11:52.000Z</time>
      </trkpt>
      <trkpt lat="47.27393" lon="-2.47935">
        <ele>-1.6000000238419</ele>
        <time>2022-05-26T09:11:53.000Z</time>
      </trkpt>
      <trkpt lat="47.27387" lon="-2.4793">
        <ele>-2</ele>
        <time>2022-05-26T09:11:54.000Z</time>
      </trkpt>
      <trkpt lat="47.27381" lon="-2.47925">
        <ele>-2.4000000953674</ele>
        <time>2022-05-26T09:11:55.000Z</time>
      </trkpt>
      <trkpt lat="47.27375" lon="-2.47919">
        <ele>-2.7999999523163</ele>
        <time>2022-05-26T09:11:56.000Z</time>
      </trkpt>
      <trkpt lat="47.27344" lon="-2.47895">
        <ele>-2.7999999523163</ele>
        <time>2022-05-26T09:12:01.000Z</time>
      </trkpt>
      <trkpt lat="47.27297" lon="-2.47858">
        <ele>-2.7999999523163</ele>
        <time>2022-05-26T09:12:09.000Z</time>
      </trkpt>
      <trkpt lat="47.27264" lon="-2.47825">
        <ele>-2.7999999523163</ele>
        <time>2022-05-26T09:12:15.000Z</time>
      </trkpt>
      <trkpt lat="47.27238" lon="-2.47783">
        <ele>-2.7999999523163</ele>
        <time>2022-05-26T09:12:21.000Z</time>
      </trkpt>
      <trkpt lat="47.27219" lon="-2.47738">
        <ele>-2.7999999523163</ele>
        <time>2022-05-26T09:12:27.000Z</time>
      </trkpt>
      <trkpt lat="47.27217" lon="-2.47729">
        <ele>-2.7999999523163</ele>
        <time>2022-05-26T09:12:28.000Z</time>
      </trkpt>
      <trkpt lat="47.27212" lon="-2.47713">
        <ele>-2.7999999523163</ele>
        <time>2022-05-26T09:12:30.000Z</time>
      </trkpt>
      <trkpt lat="47.27206" lon="-2.47678">
        <ele>-2.7999999523163</ele>
        <time>2022-05-26T09:12:34.000Z</time>
      </trkpt>
      <trkpt lat="47.27204" lon="-2.47657">
        <ele>-2.7999999523163</ele>
        <time>2022-05-26T09:12:37.000Z</time>
      </trkpt>
      <trkpt lat="47.27206" lon="-2.47651">
        <ele>-2.7999999523163</ele>
        <time>2022-05-26T09:12:38.000Z</time>
      </trkpt>
      <trkpt lat="47.27215" lon="-2.47637">
        <ele>-2.7999999523163</ele>
        <time>2022-05-26T09:12:41.000Z</time>
      </trkpt>
      <trkpt lat="47.27233" lon="-2.47625">
        <ele>-2.4000000953674</ele>
        <time>2022-05-26T09:12:45.000Z</time>
      </trkpt>
      <trkpt lat="47.27237" lon="-2.47621">
        <ele>-2</ele>
        <time>2022-05-26T09:12:46.000Z</time>
      </trkpt>
      <trkpt lat="47.27242" lon="-2.47619">
        <ele>-1.6000000238419</ele>
        <time>2022-05-26T09:12:47.000Z</time>
      </trkpt>
      <trkpt lat="47.27246" lon="-2.47615">
        <ele>-1.2000000476837</ele>
        <time>2022-05-26T09:12:48.000Z</time>
      </trkpt>
      <trkpt lat="47.27251" lon="-2.47612">
        <ele>-0.80000001192093</ele>
        <time>2022-05-26T09:12:49.000Z</time>
      </trkpt>
      <trkpt lat="47.27265" lon="-2.47603">
        <ele>-0.80000001192093</ele>
        <time>2022-05-26T09:12:52.000Z</time>
      </trkpt>
      <trkpt lat="47.27295" lon="-2.47584">
        <ele>-0.80000001192093</ele>
        <time>2022-05-26T09:12:59.000Z</time>
      </trkpt>
      <trkpt lat="47.27299" lon="-2.47582">
        <ele>-0.40000000596046</ele>
        <time>2022-05-26T09:13:00.000Z</time>
      </trkpt>
      <trkpt lat="47.27303" lon="-2.47579">
        <ele>14.9</ele>
        <time>2022-05-26T09:13:01.000Z</time>
      </trkpt>
      <trkpt lat="47.27306" lon="-2.47577">
        <ele>0.40000000596046</ele>
        <time>2022-05-26T09:13:02.000Z</time>
      </trkpt>
      <trkpt lat="47.27308" lon="-2.47575">
        <ele>0.80000001192093</ele>
        <time>2022-05-26T09:13:03.000Z</time>
      </trkpt>
      <trkpt lat="47.27309" lon="-2.47572">
        <ele>1.2000000476837</ele>
        <time>2022-05-26T09:13:04.000Z</time>
      </trkpt>
      <trkpt lat="47.27308" lon="-2.47569">
        <ele>1.2000000476837</ele>
        <time>2022-05-26T09:13:05.000Z</time>
      </trkpt>
      <trkpt lat="47.27303" lon="-2.47561">
        <ele>1.2000000476837</ele>
        <time>2022-05-26T09:13:07.000Z</time>
      </trkpt>
      <trkpt lat="47.2729" lon="-2.47539">
        <ele>1.2000000476837</ele>
        <time>2022-05-26T09:13:11.000Z</time>
      </trkpt>
      <trkpt lat="47.27287" lon="-2.47532">
        <ele>1.2000000476837</ele>
        <time>2022-05-26T09:13:12.000Z</time>
      </trkpt>
      <trkpt lat="47.27282" lon="-2.47517">
        <ele>1.2000000476837</ele>
        <time>2022-05-26T09:13:14.000Z</time>
      </trkpt>
      <trkpt lat="47.2728" lon="-2.4751">
        <ele>1.2000000476837</ele>
        <time>2022-05-26T09:13:15.000Z</time>
      </trkpt>
      <trkpt lat="47.27272" lon="-2.47471">
        <ele>1.2000000476837</ele>
        <time>2022-05-26T09:13:20.000Z</time>
      </trkpt>
      <trkpt lat="47.27267" lon="-2.47429">
        <ele>1.2000000476837</ele>
        <time>2022-05-26T09:13:26.000Z</time>
      </trkpt>
      <trkpt lat="47.27268" lon="-2.47423">
        <ele>1.2000000476837</ele>
        <time>2022-05-26T09:13:27.000Z</time>
      </trkpt>
      <trkpt lat="47.27272" lon="-2.47411">
        <ele>1.2000000476837</ele>
        <time>2022-05-26T09:13:29.000Z</time>
      </trkpt>
      <trkpt lat="47.27286" lon="-2.47388">
        <ele>1.2000000476837</ele>
        <time>2022-05-26T09:13:34.000Z</time>
      </trkpt>
      <trkpt lat="47.27292" lon="-2.47377">
        <ele>1.2000000476837</ele>
        <time>2022-05-26T09:13:36.000Z</time>
      </trkpt>
      <trkpt lat="47.27293" lon="-2.47365">
        <ele>1.2000000476837</ele>
        <time>2022-05-26T09:13:38.000Z</time>
      </trkpt>
      <trkpt lat="47.27295" lon="-2.47346">
        <ele>1.2000000476837</ele>
        <time>2022-05-26T09:13:41.000Z</time>
      </trkpt>
      <trkpt lat="47.27299" lon="-2.47327">
        <ele>1.2000000476837</ele>
        <time>2022-05-26T09:13:44.000Z</time>
      </trkpt>
      <trkpt lat="47.27308" lon="-2.47311">
        <ele>1.2000000476837</ele>
        <time>2022-05-26T09:13:48.000Z</time>
      </trkpt>
      <trkpt lat="47.27316" lon="-2.47306">
        <ele>1.2000000476837</ele>
        <time>2022-05-26T09:13:50.000Z</time>
      </trkpt>
      <trkpt lat="47.27325" lon="-2.473">
        <ele>1.2000000476837</ele>
        <time>2022-05-26T09:13:52.000Z</time>
      </trkpt>
      <trkpt lat="47.27331" lon="-2.473">
        <ele>1.2000000476837</ele>
        <time>2022-05-26T09:13:53.000Z</time>
      </trkpt>
      <trkpt lat="47.27343" lon="-2.47299">
        <ele>1.2000000476837</ele>
        <time>2022-05-26T09:13:55.000Z</time>
      </trkpt>
      <trkpt lat="47.27354" lon="-2.47294">
        <ele>1.2000000476837</ele>
        <time>2022-05-26T09:13:57.000Z</time>
      </trkpt>
      <trkpt lat="47.2737" lon="-2.47282">
        <ele>1.2000000476837</ele>
        <time>2022-05-26T09:14:00.000Z</time>
      </trkpt>
      <trkpt lat="47.27384" lon="-2.4727">
        <ele>0.80000001192093</ele>
        <time>2022-05-26T09:14:03.000Z</time>
      </trkpt>
      <trkpt lat="47.27389" lon="-2.47265">
        <ele>0.40000000596046</ele>
        <time>2022-05-26T09:14:04.000Z</time>
      </trkpt>
      <trkpt lat="47.27394" lon="-2.47261">
        <ele>11.8</ele>
        <time>2022-05-26T09:14:05.000Z</time>
      </trkpt>
      <trkpt lat="47.27398" lon="-2.47258">
        <ele>-0.60000002384186</ele>
        <time>2022-05-26T09:14:06.000Z</time>
      </trkpt>
      <trkpt lat="47.27403" lon="-2.47254">
        <ele>-1</ele>
        <time>2022-05-26T09:14:07.000Z</time>
      </trkpt>
      <trkpt lat="47.27408" lon="-2.47251">
        <ele>-1</ele>
        <time>2022-05-26T09:14:08.000Z</time>
      </trkpt>
      <trkpt lat="47.27428" lon="-2.47239">
        <ele>-1</ele>
        <time>2022-05-26T09:14:12.000Z</time>
      </trkpt>
      <trkpt lat="47.27454" lon="-2.47222">
        <ele>-1</ele>
        <time>2022-05-26T09:14:17.000Z</time>
      </trkpt>
      <trkpt lat="47.27475" lon="-2.47206">
        <ele>-1.3999999761581</ele>
        <time>2022-05-26T09:14:21.000Z</time>
      </trkpt>
      <trkpt lat="47.27479" lon="-2.47203">
        <ele>-1.7999999523163</ele>
        <time>2022-05-26T09:14:22.000Z</time>
      </trkpt>
      <trkpt lat="47.27484" lon="-2.472">
        <ele>-2.2000000476837</ele>
        <time>2022-05-26T09:14:23.000Z</time>
      </trkpt>
      <trkpt lat="47.27489" lon="-2.47196">
        <ele>-2.5999999046326</ele>
        <time>2022-05-26T09:14:24.000Z</time>
      </trkpt>
      <trkpt lat="47.27493" lon="-2.47193">
        <ele>-3</ele>
        <time>2022-05-26T09:14:25.000Z</time>
      </trkpt>
      <trkpt lat="47.27498" lon="-2.4719">
        <ele>-3</ele>
        <time>2022-05-26T09:14:26.000Z</time>
      </trkpt>
      <trkpt lat="47.27501" lon="-2.47187">
        <ele>-3</ele>
        <time>2022-05-26T09:14:27.000Z</time>
      </trkpt>
      <trkpt lat="47.27503" lon="-2.47178">
        <ele>-3</ele>
        <time>2022-05-26T09:14:29.000Z</time>
      </trkpt>
      <trkpt lat="47.27497" lon="-2.4716">
        <ele>-3</ele>
        <time>2022-05-26T09:14:32.000Z</time>
      </trkpt>
      <trkpt lat="47.27482" lon="-2.47113">
        <ele>-3</ele>
        <time>2022-05-26T09:14:39.000Z</time>
      </trkpt>
      <trkpt lat="47.27475" lon="-2.47086">
        <ele>-3</ele>
        <time>2022-05-26T09:14:43.000Z</time>
      </trkpt>
      <trkpt lat="47.2748" lon="-2.47074">
        <ele>-3</ele>
        <time>2022-05-26T09:14:45.000Z</time>
      </trkpt>
      <trkpt lat="47.27492" lon="-2.47061">
        <ele>-3</ele>
        <time>2022-05-26T09:14:48.000Z</time>
      </trkpt>
      <trkpt lat="47.27496" lon="-2.47056">
        <ele>-3</ele>
        <time>2022-05-26T09:14:49.000Z</time>
      </trkpt>
      <trkpt lat="47.27529" lon="-2.47015">
        <ele>-3</ele>
        <time>2022-05-26T09:14:57.000Z</time>
      </trkpt>
      <trkpt lat="47.27536" lon="-2.47005">
        <ele>-3</ele>
        <time>2022-05-26T09:14:59.000Z</time>
      </trkpt>
      <trkpt lat="47.27548" lon="-2.46982">
        <ele>-3</ele>
        <time>2022-05-26T09:15:03.000Z</time>
      </trkpt>
      <trkpt lat="47.27552" lon="-2.46977">
        <ele>-3</ele>
        <time>2022-05-26T09:15:04.000Z</time>
      </trkpt>
      <trkpt lat="47.27561" lon="-2.46976">
        <ele>-3</ele>
        <time>2022-05-26T09:15:06.000Z</time>
      </trkpt>
      <trkpt lat="47.27579" lon="-2.46987">
        <ele>-3</ele>
        <time>2022-05-26T09:15:10.000Z</time>
      </trkpt>
      <trkpt lat="47.27583" lon="-2.46989">
        <ele>-3</ele>
        <time>2022-05-26T09:15:11.000Z</time>
      </trkpt>
      <trkpt lat="47.27595" lon="-2.46992">
        <ele>-3</ele>
        <time>2022-05-26T09:15:14.000Z</time>
      </trkpt>
      <trkpt lat="47.27614" lon="-2.46992">
        <ele>-3</ele>
        <time>2022-05-26T09:15:19.000Z</time>
      </trkpt>
      <trkpt lat="47.27618" lon="-2.46992">
        <ele>-3</ele>
        <time>2022-05-26T09:15:20.000Z</time>
      </trkpt>
      <trkpt lat="47.27627" lon="-2.4699">
        <ele>-3</ele>
        <time>2022-05-26T09:15:22.000Z</time>
      </trkpt>
      <trkpt lat="47.27638" lon="-2.46993">
        <ele>-3</ele>
        <time>2022-05-26T09:15:24.000Z</time>
      </trkpt>
      <trkpt lat="47.27644" lon="-2.46993">
        <ele>-3.4000000953674</ele>
        <time>2022-05-26T09:15:25.000Z</time>
      </trkpt>
      <trkpt lat="47.2765" lon="-2.46995">
        <ele>-3.7999999523163</ele>
        <time>2022-05-26T09:15:26.000Z</time>
      </trkpt>
      <trkpt lat="47.27655" lon="-2.46994">
        <ele>-4.1999998092651</ele>
        <time>2022-05-26T09:15:27.000Z</time>
      </trkpt>
      <trkpt lat="47.27659" lon="-2.46993">
        <ele>-4.5999999046326</ele>
        <time>2022-05-26T09:15:28.000Z</time>
      </trkpt>
      <trkpt lat="47.2766" lon="-2.4699">
        <ele>-5</ele>
        <time>2022-05-26T09:15:29.000Z</time>
      </trkpt>
      <trkpt lat="47.27664" lon="-2.46967">
        <ele>-5</ele>
        <time>2022-05-26T09:15:33.000Z</time>
      </trkpt>
      <trkpt lat="47.27663" lon="-2.46961">
        <ele>-5</ele>
        <time>2022-05-26T09:15:34.000Z</time>
      </trkpt>
      <trkpt lat="47.27665" lon="-2.46942">
        <ele>-5</ele>
        <time>2022-05-26T09:15:37.000Z</time>
      </trkpt>
      <trkpt lat="47.27667" lon="-2.46931">
        <ele>-5</ele>
        <time>2022-05-26T09:15:39.000Z</time>
      </trkpt>
      <trkpt lat="47.27669" lon="-2.46928">
        <ele>-5</ele>
        <time>2022-05-26T09:15:40.000Z</time>
      </trkpt>
      <trkpt lat="47.27677" lon="-2.46928">
        <ele>-5</ele>
        <time>2022-05-26T09:15:42.000Z</time>
      </trkpt>
      <trkpt lat="47.27687" lon="-2.46933">
        <ele>-5</ele>
        <time>2022-05-26T09:15:44.000Z</time>
      </trkpt>
      <trkpt lat="47.27695" lon="-2.46935">
        <ele>-5</ele>
        <time>2022-05-26T09:15:46.000Z</time>
      </trkpt>
      <trkpt lat="47.27724" lon="-2.46935">
        <ele>-5</ele>
        <time>2022-05-26T09:15:52.000Z</time>
      </trkpt>
      <trkpt lat="47.27756" lon="-2.46934">
        <ele>-5</ele>
        <time>2022-05-26T09:15:58.000Z</time>
      </trkpt>
      <trkpt lat="47.2776" lon="-2.46933">
        <ele>-5.4000000953674</ele>
        <time>2022-05-26T09:15:59.000Z</time>
      </trkpt>
      <trkpt lat="47.27763" lon="-2.46934">
        <ele>-6.4000000953674</ele>
        <time>2022-05-26T09:16:00.000Z</time>
      </trkpt>
      <trkpt lat="47.27765" lon="-2.46934">
        <ele>-6.8000001907349</ele>
        <time>2022-05-26T09:16:01.000Z</time>
      </trkpt>
      <trkpt lat="47.27768" lon="-2.46932">
        <ele>-7.1999998092651</ele>
        <time>2022-05-26T09:16:02.000Z</time>
      </trkpt>
      <trkpt lat="47.27768" lon="-2.46929">
        <ele>-7.1999998092651</ele>
        <time>2022-05-26T09:16:03.000Z</time>
      </trkpt>
      <trkpt lat="47.27769" lon="-2.46922">
        <ele>-7.1999998092651</ele>
        <time>2022-05-26T09:16:05.000Z</time>
      </trkpt>
      <trkpt lat="47.27775" lon="-2.46899">
        <ele>-7.1999998092651</ele>
        <time>2022-05-26T09:16:11.000Z</time>
      </trkpt>
      <trkpt lat="47.2778" lon="-2.46887">
        <ele>-7.1999998092651</ele>
        <time>2022-05-26T09:16:13.000Z</time>
      </trkpt>
      <trkpt lat="47.27784" lon="-2.46872">
        <ele>-7.1999998092651</ele>
        <time>2022-05-26T09:16:16.000Z</time>
      </trkpt>
      <trkpt lat="47.27784" lon="-2.46855">
        <ele>-7.1999998092651</ele>
        <time>2022-05-26T09:16:21.000Z</time>
      </trkpt>
      <trkpt lat="47.27784" lon="-2.46836">
        <ele>-7.1999998092651</ele>
        <time>2022-05-26T09:16:26.000Z</time>
      </trkpt>
      <trkpt lat="47.27778" lon="-2.46811">
        <ele>-7.1999998092651</ele>
        <time>2022-05-26T09:16:31.000Z</time>
      </trkpt>
      <trkpt lat="47.27772" lon="-2.46785">
        <ele>-7.1999998092651</ele>
        <time>2022-05-26T09:16:35.000Z</time>
      </trkpt>
      <trkpt lat="47.2777" lon="-2.46771">
        <ele>-7.1999998092651</ele>
        <time>2022-05-26T09:16:37.000Z</time>
      </trkpt>
      <trkpt lat="47.27761" lon="-2.4674">
        <ele>-7.1999998092651</ele>
        <time>2022-05-26T09:16:42.000Z</time>
      </trkpt>
      <trkpt lat="47.27759" lon="-2.46728">
        <ele>-7.1999998092651</ele>
        <time>2022-05-26T09:16:44.000Z</time>
      </trkpt>
      <trkpt lat="47.27758" lon="-2.46714">
        <ele>-7.1999998092651</ele>
        <time>2022-05-26T09:16:46.000Z</time>
      </trkpt>
      <trkpt lat="47.27763" lon="-2.46692">
        <ele>-7.1999998092651</ele>
        <time>2022-05-26T09:16:49.000Z</time>
      </trkpt>
      <trkpt lat="47.27763" lon="-2.46671">
        <ele>-7.1999998092651</ele>
        <time>2022-05-26T09:16:52.000Z</time>
      </trkpt>
      <trkpt lat="47.27762" lon="-2.46664">
        <ele>-7.1999998092651</ele>
        <time>2022-05-26T09:16:53.000Z</time>
      </trkpt>
      <trkpt lat="47.27764" lon="-2.46658">
        <ele>-7.1999998092651</ele>
        <time>2022-05-26T09:16:54.000Z</time>
      </trkpt>
      <trkpt lat="47.27762" lon="-2.46632">
        <ele>-7.1999998092651</ele>
        <time>2022-05-26T09:16:58.000Z</time>
      </trkpt>
      <trkpt lat="47.27764" lon="-2.46615">
        <ele>-7.1999998092651</ele>
        <time>2022-05-26T09:17:01.000Z</time>
      </trkpt>
      <trkpt lat="47.27763" lon="-2.46592">
        <ele>-7.1999998092651</ele>
        <time>2022-05-26T09:17:05.000Z</time>
      </trkpt>
      <trkpt lat="47.27756" lon="-2.46583">
        <ele>-7.1999998092651</ele>
        <time>2022-05-26T09:17:07.000Z</time>
      </trkpt>
      <trkpt lat="47.27753" lon="-2.46578">
        <ele>-7.1999998092651</ele>
        <time>2022-05-26T09:17:08.000Z</time>
      </trkpt>
      <trkpt lat="47.2775" lon="-2.46571">
        <ele>-7.1999998092651</ele>
        <time>2022-05-26T09:17:09.000Z</time>
      </trkpt>
      <trkpt lat="47.2774" lon="-2.46541">
        <ele>-7.1999998092651</ele>
        <time>2022-05-26T09:17:13.000Z</time>
      </trkpt>
      <trkpt lat="47.27738" lon="-2.46532">
        <ele>-7.1999998092651</ele>
        <time>2022-05-26T09:17:14.000Z</time>
      </trkpt>
      <trkpt lat="47.2772" lon="-2.46459">
        <ele>-7.1999998092651</ele>
        <time>2022-05-26T09:17:22.000Z</time>
      </trkpt>
      <trkpt lat="47.27701" lon="-2.4642">
        <ele>-7.1999998092651</ele>
        <time>2022-05-26T09:17:27.000Z</time>
      </trkpt>
      <trkpt lat="47.27687" lon="-2.46378">
        <ele>-7.1999998092651</ele>
        <time>2022-05-26T09:17:32.000Z</time>
      </trkpt>
      <trkpt lat="47.27685" lon="-2.4637">
        <ele>-7.1999998092651</ele>
        <time>2022-05-26T09:17:33.000Z</time>
      </trkpt>
      <trkpt lat="47.27675" lon="-2.46338">
        <ele>-7.1999998092651</ele>
        <time>2022-05-26T09:17:37.000Z</time>
      </trkpt>
      <trkpt lat="47.27673" lon="-2.46321">
        <ele>-7.1999998092651</ele>
        <time>2022-05-26T09:17:39.000Z</time>
      </trkpt>
      <trkpt lat="47.2767" lon="-2.46306">
        <ele>-7.1999998092651</ele>
        <time>2022-05-26T09:17:41.000Z</time>
      </trkpt>
      <trkpt lat="47.27664" lon="-2.46294">
        <ele>-7.1999998092651</ele>
        <time>2022-05-26T09:17:43.000Z</time>
      </trkpt>
      <trkpt lat="47.27659" lon="-2.46283">
        <ele>-7.1999998092651</ele>
        <time>2022-05-26T09:17:45.000Z</time>
      </trkpt>
      <trkpt lat="47.27663" lon="-2.46272">
        <ele>-7.1999998092651</ele>
        <time>2022-05-26T09:17:47.000Z</time>
      </trkpt>
      <trkpt lat="47.2767" lon="-2.46262">
        <ele>-7.1999998092651</ele>
        <time>2022-05-26T09:17:49.000Z</time>
      </trkpt>
      <trkpt lat="47.27673" lon="-2.46255">
        <ele>-7.1999998092651</ele>
        <time>2022-05-26T09:17:50.000Z</time>
      </trkpt>
      <trkpt lat="47.27674" lon="-2.46247">
        <ele>-7.1999998092651</ele>
        <time>2022-05-26T09:17:51.000Z</time>
      </trkpt>
      <trkpt lat="47.27671" lon="-2.46223">
        <ele>-7.1999998092651</ele>
        <time>2022-05-26T09:17:54.000Z</time>
      </trkpt>
      <trkpt lat="47.27668" lon="-2.46164">
        <ele>-7.1999998092651</ele>
        <time>2022-05-26T09:18:01.000Z</time>
      </trkpt>
      <trkpt lat="47.27668" lon="-2.46147">
        <ele>-7.1999998092651</ele>
        <time>2022-05-26T09:18:03.000Z</time>
      </trkpt>
      <trkpt lat="47.27665" lon="-2.46129">
        <ele>-7.1999998092651</ele>
        <time>2022-05-26T09:18:05.000Z</time>
      </trkpt>
      <trkpt lat="47.27654" lon="-2.46073">
        <ele>-7.1999998092651</ele>
        <time>2022-05-26T09:18:11.000Z</time>
      </trkpt>
      <trkpt lat="47.27643" lon="-2.46015">
        <ele>-7.1999998092651</ele>
        <time>2022-05-26T09:18:17.000Z</time>
      </trkpt>
      <trkpt lat="47.2764" lon="-2.45995">
        <ele>-7.1999998092651</ele>
        <time>2022-05-26T09:18:19.000Z</time>
      </trkpt>
      <trkpt lat="47.27639" lon="-2.45965">
        <ele>-7.1999998092651</ele>
        <time>2022-05-26T09:18:22.000Z</time>
      </trkpt>
      <trkpt lat="47.27638" lon="-2.45907">
        <ele>-7.1999998092651</ele>
        <time>2022-05-26T09:18:28.000Z</time>
      </trkpt>
      <trkpt lat="47.27639" lon="-2.45888">
        <ele>-7.1999998092651</ele>
        <time>2022-05-26T09:18:30.000Z</time>
      </trkpt>
      <trkpt lat="47.2764" lon="-2.45852">
        <ele>-7.1999998092651</ele>
        <time>2022-05-26T09:18:34.000Z</time>
      </trkpt>
      <trkpt lat="47.27641" lon="-2.45843">
        <ele>-7.1999998092651</ele>
        <time>2022-05-26T09:18:35.000Z</time>
      </trkpt>
      <trkpt lat="47.27643" lon="-2.45809">
        <ele>-7.1999998092651</ele>
        <time>2022-05-26T09:18:39.000Z</time>
      </trkpt>
      <trkpt lat="47.27643" lon="-2.45791">
        <ele>-7.1999998092651</ele>
        <time>2022-05-26T09:18:41.000Z</time>
      </trkpt>
      <trkpt lat="47.27641" lon="-2.4576">
        <ele>-7.1999998092651</ele>
        <time>2022-05-26T09:18:45.000Z</time>
      </trkpt>
      <trkpt lat="47.27637" lon="-2.45723">
        <ele>-7.1999998092651</ele>
        <time>2022-05-26T09:18:51.000Z</time>
      </trkpt>
      <trkpt lat="47.27635" lon="-2.45719">
        <ele>-6.8000001907349</ele>
        <time>2022-05-26T09:18:52.000Z</time>
      </trkpt>
      <trkpt lat="47.27634" lon="-2.45714">
        <ele>-5.8000001907349</ele>
        <time>2022-05-26T09:18:53.000Z</time>
      </trkpt>
      <trkpt lat="47.27632" lon="-2.4571">
        <ele>-5.4000000953674</ele>
        <time>2022-05-26T09:18:54.000Z</time>
      </trkpt>
      <trkpt lat="47.2763" lon="-2.45707">
        <ele>-5</ele>
        <time>2022-05-26T09:18:55.000Z</time>
      </trkpt>
      <trkpt lat="47.27625" lon="-2.45704">
        <ele>-5</ele>
        <time>2022-05-26T09:18:57.000Z</time>
      </trkpt>
      <trkpt lat="47.27621" lon="-2.45705">
        <ele>-5</ele>
        <time>2022-05-26T09:18:58.000Z</time>
      </trkpt>
      <trkpt lat="47.27614" lon="-2.45708">
        <ele>-5</ele>
        <time>2022-05-26T09:19:00.000Z</time>
      </trkpt>
      <trkpt lat="47.27597" lon="-2.45716">
        <ele>-5</ele>
        <time>2022-05-26T09:19:04.000Z</time>
      </trkpt>
      <trkpt lat="47.27582" lon="-2.45721">
        <ele>-5</ele>
        <time>2022-05-26T09:19:07.000Z</time>
      </trkpt>
      <trkpt lat="47.27543" lon="-2.45734">
        <ele>-5</ele>
        <time>2022-05-26T09:19:14.000Z</time>
      </trkpt>
      <trkpt lat="47.27508" lon="-2.45745">
        <ele>-5</ele>
        <time>2022-05-26T09:19:21.000Z</time>
      </trkpt>
      <trkpt lat="47.27473" lon="-2.4576">
        <ele>-5</ele>
        <time>2022-05-26T09:19:28.000Z</time>
      </trkpt>
      <trkpt lat="47.2744" lon="-2.45768">
        <ele>-5</ele>
        <time>2022-05-26T09:19:34.000Z</time>
      </trkpt>
      <trkpt lat="47.27402" lon="-2.45774">
        <ele>-5</ele>
        <time>2022-05-26T09:19:40.000Z</time>
      </trkpt>
      <trkpt lat="47.27385" lon="-2.45778">
        <ele>-5</ele>
        <time>2022-05-26T09:19:43.000Z</time>
      </trkpt>
      <trkpt lat="47.27374" lon="-2.45778">
        <ele>-5</ele>
        <time>2022-05-26T09:19:45.000Z</time>
      </trkpt>
      <trkpt lat="47.27365" lon="-2.45759">
        <ele>-5</ele>
        <time>2022-05-26T09:19:48.000Z</time>
      </trkpt>
      <trkpt lat="47.27361" lon="-2.45743">
        <ele>-5</ele>
        <time>2022-05-26T09:19:50.000Z</time>
      </trkpt>
      <trkpt lat="47.27351" lon="-2.45714">
        <ele>-5</ele>
        <time>2022-05-26T09:19:54.000Z</time>
      </trkpt>
      <trkpt lat="47.27333" lon="-2.45664">
        <ele>-5</ele>
        <time>2022-05-26T09:20:01.000Z</time>
      </trkpt>
      <trkpt lat="47.27322" lon="-2.45617">
        <ele>-5</ele>
        <time>2022-05-26T09:20:07.000Z</time>
      </trkpt>
      <trkpt lat="47.27331" lon="-2.45596">
        <ele>-5</ele>
        <time>2022-05-26T09:20:10.000Z</time>
      </trkpt>
      <trkpt lat="47.27347" lon="-2.45586">
        <ele>-5</ele>
        <time>2022-05-26T09:20:13.000Z</time>
      </trkpt>
      <trkpt lat="47.27353" lon="-2.45584">
        <ele>-5</ele>
        <time>2022-05-26T09:20:14.000Z</time>
      </trkpt>
      <trkpt lat="47.27358" lon="-2.4558">
        <ele>-5</ele>
        <time>2022-05-26T09:20:15.000Z</time>
      </trkpt>
      <trkpt lat="47.27375" lon="-2.45573">
        <ele>-5</ele>
        <time>2022-05-26T09:20:18.000Z</time>
      </trkpt>
      <trkpt lat="47.27381" lon="-2.45572">
        <ele>-5</ele>
        <time>2022-05-26T09:20:19.000Z</time>
      </trkpt>
      <trkpt lat="47.27421" lon="-2.45557">
        <ele>-5</ele>
        <time>2022-05-26T09:20:26.000Z</time>
      </trkpt>
      <trkpt lat="47.27426" lon="-2.45553">
        <ele>-5</ele>
        <time>2022-05-26T09:20:27.000Z</time>
      </trkpt>
      <trkpt lat="47.27434" lon="-2.45539">
        <ele>-5</ele>
        <time>2022-05-26T09:20:29.000Z</time>
      </trkpt>
      <trkpt lat="47.27436" lon="-2.45516">
        <ele>-5</ele>
        <time>2022-05-26T09:20:32.000Z</time>
      </trkpt>
      <trkpt lat="47.27448" lon="-2.45504">
        <ele>-5</ele>
        <time>2022-05-26T09:20:35.000Z</time>
      </trkpt>
      <trkpt lat="47.27453" lon="-2.45501">
        <ele>-5</ele>
        <time>2022-05-26T09:20:36.000Z</time>
      </trkpt>
      <trkpt lat="47.27479" lon="-2.45486">
        <ele>-5</ele>
        <time>2022-05-26T09:20:41.000Z</time>
      </trkpt>
      <trkpt lat="47.27495" lon="-2.45466">
        <ele>-5</ele>
        <time>2022-05-26T09:20:45.000Z</time>
      </trkpt>
      <trkpt lat="47.27494" lon="-2.45459">
        <ele>-5</ele>
        <time>2022-05-26T09:20:46.000Z</time>
      </trkpt>
      <trkpt lat="47.2749" lon="-2.45435">
        <ele>-5</ele>
        <time>2022-05-26T09:20:49.000Z</time>
      </trkpt>
      <trkpt lat="47.27489" lon="-2.45426">
        <ele>-5</ele>
        <time>2022-05-26T09:20:50.000Z</time>
      </trkpt>
      <trkpt lat="47.27487" lon="-2.4541">
        <ele>-5</ele>
        <time>2022-05-26T09:20:52.000Z</time>
      </trkpt>
      <trkpt lat="47.27491" lon="-2.45399">
        <ele>-5</ele>
        <time>2022-05-26T09:20:54.000Z</time>
      </trkpt>
      <trkpt lat="47.27506" lon="-2.45396">
        <ele>-5</ele>
        <time>2022-05-26T09:20:57.000Z</time>
      </trkpt>
      <trkpt lat="47.27541" lon="-2.45382">
        <ele>-5</ele>
        <time>2022-05-26T09:21:04.000Z</time>
      </trkpt>
      <trkpt lat="47.2757" lon="-2.45369">
        <ele>-5</ele>
        <time>2022-05-26T09:21:09.000Z</time>
      </trkpt>
      <trkpt lat="47.27593" lon="-2.45363">
        <ele>-5.4000000953674</ele>
        <time>2022-05-26T09:21:13.000Z</time>
      </trkpt>
      <trkpt lat="47.27599" lon="-2.45362">
        <ele>-5.8000001907349</ele>
        <time>2022-05-26T09:21:14.000Z</time>
      </trkpt>
      <trkpt lat="47.27604" lon="-2.45361">
        <ele>-6.1999998092651</ele>
        <time>2022-05-26T09:21:15.000Z</time>
      </trkpt>
      <trkpt lat="47.27609" lon="-2.45361">
        <ele>-6.5999999046326</ele>
        <time>2022-05-26T09:21:16.000Z</time>
      </trkpt>
      <trkpt lat="47.27614" lon="-2.45359">
        <ele>-7</ele>
        <time>2022-05-26T09:21:17.000Z</time>
      </trkpt>
      <trkpt lat="47.27619" lon="-2.4535">
        <ele>-7</ele>
        <time>2022-05-26T09:21:19.000Z</time>
      </trkpt>
      <trkpt lat="47.27617" lon="-2.45327">
        <ele>-7</ele>
        <time>2022-05-26T09:21:22.000Z</time>
      </trkpt>
      <trkpt lat="47.2761" lon="-2.45281">
        <ele>-7</ele>
        <time>2022-05-26T09:21:27.000Z</time>
      </trkpt>
      <trkpt lat="47.27606" lon="-2.45233">
        <ele>-7.5999999046326</ele>
        <time>2022-05-26T09:21:32.000Z</time>
      </trkpt>
      <trkpt lat="47.27605" lon="-2.45224">
        <ele>-8</ele>
        <time>2022-05-26T09:21:33.000Z</time>
      </trkpt>
      <trkpt lat="47.27604" lon="-2.45215">
        <ele>-8.3999996185303</ele>
        <time>2022-05-26T09:21:34.000Z</time>
      </trkpt>
      <trkpt lat="47.27603" lon="-2.45205">
        <ele>-8.8000001907349</ele>
        <time>2022-05-26T09:21:35.000Z</time>
      </trkpt>
      <trkpt lat="47.27602" lon="-2.45195">
        <ele>-9.1999998092651</ele>
        <time>2022-05-26T09:21:36.000Z</time>
      </trkpt>
      <trkpt lat="47.27594" lon="-2.45137">
        <ele>-9.1999998092651</ele>
        <time>2022-05-26T09:21:42.000Z</time>
      </trkpt>
      <trkpt lat="47.27591" lon="-2.4512">
        <ele>-9.1999998092651</ele>
        <time>2022-05-26T09:21:44.000Z</time>
      </trkpt>
      <trkpt lat="47.27583" lon="-2.45094">
        <ele>-9.1999998092651</ele>
        <time>2022-05-26T09:21:47.000Z</time>
      </trkpt>
      <trkpt lat="47.2758" lon="-2.45086">
        <ele>-9.1999998092651</ele>
        <time>2022-05-26T09:21:48.000Z</time>
      </trkpt>
      <trkpt lat="47.27564" lon="-2.45057">
        <ele>-9.1999998092651</ele>
        <time>2022-05-26T09:21:52.000Z</time>
      </trkpt>
      <trkpt lat="47.27542" lon="-2.45007">
        <ele>-9.1999998092651</ele>
        <time>2022-05-26T09:21:59.000Z</time>
      </trkpt>
      <trkpt lat="47.27522" lon="-2.44946">
        <ele>-9.1999998092651</ele>
        <time>2022-05-26T09:22:07.000Z</time>
      </trkpt>
      <trkpt lat="47.27507" lon="-2.44889">
        <ele>-9.1999998092651</ele>
        <time>2022-05-26T09:22:14.000Z</time>
      </trkpt>
      <trkpt lat="47.27501" lon="-2.44858">
        <ele>-9.1999998092651</ele>
        <time>2022-05-26T09:22:18.000Z</time>
      </trkpt>
      <trkpt lat="47.27496" lon="-2.44852">
        <ele>-9.1999998092651</ele>
        <time>2022-05-26T09:22:19.000Z</time>
      </trkpt>
      <trkpt lat="47.27479" lon="-2.44849">
        <ele>-9.1999998092651</ele>
        <time>2022-05-26T09:22:22.000Z</time>
      </trkpt>
      <trkpt lat="47.27474" lon="-2.4485">
        <ele>-9.1999998092651</ele>
        <time>2022-05-26T09:22:23.000Z</time>
      </trkpt>
      <trkpt lat="47.27462" lon="-2.4485">
        <ele>-9.1999998092651</ele>
        <time>2022-05-26T09:22:25.000Z</time>
      </trkpt>
      <trkpt lat="47.27452" lon="-2.44859">
        <ele>-9.1999998092651</ele>
        <time>2022-05-26T09:22:27.000Z</time>
      </trkpt>
      <trkpt lat="47.2744" lon="-2.44878">
        <ele>-9.1999998092651</ele>
        <time>2022-05-26T09:22:30.000Z</time>
      </trkpt>
      <trkpt lat="47.27435" lon="-2.44885">
        <ele>-9.1999998092651</ele>
        <time>2022-05-26T09:22:31.000Z</time>
      </trkpt>
      <trkpt lat="47.274" lon="-2.44917">
        <ele>-9.1999998092651</ele>
        <time>2022-05-26T09:22:38.000Z</time>
      </trkpt>
      <trkpt lat="47.2736" lon="-2.44938">
        <ele>-8.8000001907349</ele>
        <time>2022-05-26T09:22:45.000Z</time>
      </trkpt>
      <trkpt lat="47.27355" lon="-2.44941">
        <ele>-8.3999996185303</ele>
        <time>2022-05-26T09:22:46.000Z</time>
      </trkpt>
      <trkpt lat="47.27349" lon="-2.44944">
        <ele>-7.8000001907349</ele>
        <time>2022-05-26T09:22:47.000Z</time>
      </trkpt>
      <trkpt lat="47.27344" lon="-2.44948">
        <ele>-7.4000000953674</ele>
        <time>2022-05-26T09:22:48.000Z</time>
      </trkpt>
      <trkpt lat="47.27338" lon="-2.4495">
        <ele>-7</ele>
        <time>2022-05-26T09:22:49.000Z</time>
      </trkpt>
      <trkpt lat="47.27321" lon="-2.44959">
        <ele>-7</ele>
        <time>2022-05-26T09:22:52.000Z</time>
      </trkpt>
      <trkpt lat="47.27315" lon="-2.44961">
        <ele>-7</ele>
        <time>2022-05-26T09:22:53.000Z</time>
      </trkpt>
      <trkpt lat="47.27303" lon="-2.44963">
        <ele>-7</ele>
        <time>2022-05-26T09:22:55.000Z</time>
      </trkpt>
      <trkpt lat="47.27285" lon="-2.44964">
        <ele>-7</ele>
        <time>2022-05-26T09:22:58.000Z</time>
      </trkpt>
      <trkpt lat="47.27259" lon="-2.44967">
        <ele>-7</ele>
        <time>2022-05-26T09:23:02.000Z</time>
      </trkpt>
      <trkpt lat="47.27246" lon="-2.44974">
        <ele>-7</ele>
        <time>2022-05-26T09:23:04.000Z</time>
      </trkpt>
      <trkpt lat="47.2721" lon="-2.44988">
        <ele>-7</ele>
        <time>2022-05-26T09:23:10.000Z</time>
      </trkpt>
      <trkpt lat="47.27167" lon="-2.44996">
        <ele>-7</ele>
        <time>2022-05-26T09:23:17.000Z</time>
      </trkpt>
      <trkpt lat="47.27113" lon="-2.45">
        <ele>-7</ele>
        <time>2022-05-26T09:23:26.000Z</time>
      </trkpt>
      <trkpt lat="47.27107" lon="-2.45">
        <ele>-6.5999999046326</ele>
        <time>2022-05-26T09:23:27.000Z</time>
      </trkpt>
      <trkpt lat="47.27102" lon="-2.44999">
        <ele>-6.1999998092651</ele>
        <time>2022-05-26T09:23:28.000Z</time>
      </trkpt>
      <trkpt lat="47.27096" lon="-2.44999">
        <ele>-5.8000001907349</ele>
        <time>2022-05-26T09:23:29.000Z</time>
      </trkpt>
      <trkpt lat="47.27091" lon="-2.44997">
        <ele>-5.4000000953674</ele>
        <time>2022-05-26T09:23:30.000Z</time>
      </trkpt>
      <trkpt lat="47.27086" lon="-2.44996">
        <ele>-5</ele>
        <time>2022-05-26T09:23:31.000Z</time>
      </trkpt>
      <trkpt lat="47.27081" lon="-2.44995">
        <ele>-5</ele>
        <time>2022-05-26T09:23:32.000Z</time>
      </trkpt>
      <trkpt lat="47.27062" lon="-2.44991">
        <ele>-5</ele>
        <time>2022-05-26T09:23:37.000Z</time>
      </trkpt>
      <trkpt lat="47.27058" lon="-2.44974">
        <ele>-5</ele>
        <time>2022-05-26T09:23:40.000Z</time>
      </trkpt>
      <trkpt lat="47.27058" lon="-2.4496">
        <ele>-5</ele>
        <time>2022-05-26T09:23:42.000Z</time>
      </trkpt>
      <trkpt lat="47.27056" lon="-2.44931">
        <ele>-5</ele>
        <time>2022-05-26T09:23:46.000Z</time>
      </trkpt>
      <trkpt lat="47.27053" lon="-2.44884">
        <ele>-5</ele>
        <time>2022-05-26T09:23:52.000Z</time>
      </trkpt>
      <trkpt lat="47.27051" lon="-2.44817">
        <ele>-5</ele>
        <time>2022-05-26T09:24:00.000Z</time>
      </trkpt>
      <trkpt lat="47.27047" lon="-2.44756">
        <ele>-5</ele>
        <time>2022-05-26T09:24:07.000Z</time>
      </trkpt>
      <trkpt lat="47.27038" lon="-2.44694">
        <ele>-5</ele>
        <time>2022-05-26T09:24:14.000Z</time>
      </trkpt>
      <trkpt lat="47.27024" lon="-2.4462">
        <ele>-5</ele>
        <time>2022-05-26T09:24:22.000Z</time>
      </trkpt>
      <trkpt lat="47.27011" lon="-2.44546">
        <ele>-5</ele>
        <time>2022-05-26T09:24:30.000Z</time>
      </trkpt>
      <trkpt lat="47.26999" lon="-2.44488">
        <ele>-5</ele>
        <time>2022-05-26T09:24:37.000Z</time>
      </trkpt>
      <trkpt lat="47.26988" lon="-2.44475">
        <ele>-5</ele>
        <time>2022-05-26T09:24:40.000Z</time>
      </trkpt>
      <trkpt lat="47.26976" lon="-2.44465">
        <ele>-5</ele>
        <time>2022-05-26T09:24:43.000Z</time>
      </trkpt>
      <trkpt lat="47.26974" lon="-2.44459">
        <ele>-5</ele>
        <time>2022-05-26T09:24:44.000Z</time>
      </trkpt>
      <trkpt lat="47.26972" lon="-2.44453">
        <ele>-4.5999999046326</ele>
        <time>2022-05-26T09:24:46.000Z</time>
      </trkpt>
      <trkpt lat="47.26972" lon="-2.44448">
        <ele>-4</ele>
        <time>2022-05-26T09:24:47.000Z</time>
      </trkpt>
      <trkpt lat="47.26972" lon="-2.44442">
        <ele>-3.5999999046326</ele>
        <time>2022-05-26T09:24:48.000Z</time>
      </trkpt>
      <trkpt lat="47.26972" lon="-2.44433">
        <ele>-3</ele>
        <time>2022-05-26T09:24:49.000Z</time>
      </trkpt>
      <trkpt lat="47.26973" lon="-2.44426">
        <ele>-2.5999999046326</ele>
        <time>2022-05-26T09:24:50.000Z</time>
      </trkpt>
      <trkpt lat="47.26973" lon="-2.44418">
        <ele>-2.5999999046326</ele>
        <time>2022-05-26T09:24:51.000Z</time>
      </trkpt>
      <trkpt lat="47.26973" lon="-2.44403">
        <ele>-2.5999999046326</ele>
        <time>2022-05-26T09:24:53.000Z</time>
      </trkpt>
      <trkpt lat="47.2697" lon="-2.44381">
        <ele>-2.5999999046326</ele>
        <time>2022-05-26T09:24:56.000Z</time>
      </trkpt>
      <trkpt lat="47.26968" lon="-2.44373">
        <ele>-2.5999999046326</ele>
        <time>2022-05-26T09:24:57.000Z</time>
      </trkpt>
      <trkpt lat="47.26954" lon="-2.4433">
        <ele>-2.5999999046326</ele>
        <time>2022-05-26T09:25:03.000Z</time>
      </trkpt>
      <trkpt lat="47.26952" lon="-2.44322">
        <ele>-2.5999999046326</ele>
        <time>2022-05-26T09:25:04.000Z</time>
      </trkpt>
      <trkpt lat="47.26947" lon="-2.44307">
        <ele>-2.5999999046326</ele>
        <time>2022-05-26T09:25:06.000Z</time>
      </trkpt>
      <trkpt lat="47.26943" lon="-2.44291">
        <ele>-2.5999999046326</ele>
        <time>2022-05-26T09:25:08.000Z</time>
      </trkpt>
      <trkpt lat="47.2694" lon="-2.44275">
        <ele>-2.5999999046326</ele>
        <time>2022-05-26T09:25:10.000Z</time>
      </trkpt>
      <trkpt lat="47.26933" lon="-2.44234">
        <ele>-2.5999999046326</ele>
        <time>2022-05-26T09:25:15.000Z</time>
      </trkpt>
      <trkpt lat="47.26928" lon="-2.44204">
        <ele>-2.5999999046326</ele>
        <time>2022-05-26T09:25:19.000Z</time>
      </trkpt>
      <trkpt lat="47.26924" lon="-2.44193">
        <ele>-2.5999999046326</ele>
        <time>2022-05-26T09:25:21.000Z</time>
      </trkpt>
      <trkpt lat="47.26917" lon="-2.44185">
        <ele>-2.5999999046326</ele>
        <time>2022-05-26T09:25:23.000Z</time>
      </trkpt>
      <trkpt lat="47.26914" lon="-2.44181">
        <ele>-2.5999999046326</ele>
        <time>2022-05-26T09:25:24.000Z</time>
      </trkpt>
      <trkpt lat="47.2691" lon="-2.4417">
        <ele>-2.5999999046326</ele>
        <time>2022-05-26T09:25:26.000Z</time>
      </trkpt>
      <trkpt lat="47.2691" lon="-2.44152">
        <ele>-2.5999999046326</ele>
        <time>2022-05-26T09:25:30.000Z</time>
      </trkpt>
      <trkpt lat="47.26916" lon="-2.44148">
        <ele>-2.5999999046326</ele>
        <time>2022-05-26T09:25:32.000Z</time>
      </trkpt>
      <trkpt lat="47.2692" lon="-2.44147">
        <ele>-2.5999999046326</ele>
        <time>2022-05-26T09:25:33.000Z</time>
      </trkpt>
      <trkpt lat="47.26937" lon="-2.44139">
        <ele>-2.5999999046326</ele>
        <time>2022-05-26T09:25:37.000Z</time>
      </trkpt>
      <trkpt lat="47.2694" lon="-2.44134">
        <ele>-2.5999999046326</ele>
        <time>2022-05-26T09:25:38.000Z</time>
      </trkpt>
      <trkpt lat="47.2694" lon="-2.44115">
        <ele>-2.5999999046326</ele>
        <time>2022-05-26T09:25:41.000Z</time>
      </trkpt>
      <trkpt lat="47.2694" lon="-2.44109">
        <ele>-2.5999999046326</ele>
        <time>2022-05-26T09:25:42.000Z</time>
      </trkpt>
      <trkpt lat="47.26938" lon="-2.4406">
        <ele>-2.5999999046326</ele>
        <time>2022-05-26T09:25:50.000Z</time>
      </trkpt>
      <trkpt lat="47.26938" lon="-2.4404">
        <ele>-2.5999999046326</ele>
        <time>2022-05-26T09:25:53.000Z</time>
      </trkpt>
      <trkpt lat="47.26939" lon="-2.44026">
        <ele>-2.5999999046326</ele>
        <time>2022-05-26T09:25:55.000Z</time>
      </trkpt>
      <trkpt lat="47.26942" lon="-2.4397">
        <ele>-2.5999999046326</ele>
        <time>2022-05-26T09:26:02.000Z</time>
      </trkpt>
      <trkpt lat="47.26943" lon="-2.43913">
        <ele>-2.5999999046326</ele>
        <time>2022-05-26T09:26:09.000Z</time>
      </trkpt>
      <trkpt lat="47.26943" lon="-2.43848">
        <ele>-2.5999999046326</ele>
        <time>2022-05-26T09:26:17.000Z</time>
      </trkpt>
      <trkpt lat="47.26942" lon="-2.43789">
        <ele>-2.5999999046326</ele>
        <time>2022-05-26T09:26:24.000Z</time>
      </trkpt>
      <trkpt lat="47.26945" lon="-2.43738">
        <ele>-2.5999999046326</ele>
        <time>2022-05-26T09:26:30.000Z</time>
      </trkpt>
      <trkpt lat="47.26947" lon="-2.4372">
        <ele>-3</ele>
        <time>2022-05-26T09:26:32.000Z</time>
      </trkpt>
      <trkpt lat="47.26949" lon="-2.43711">
        <ele>-3.4000000953674</ele>
        <time>2022-05-26T09:26:33.000Z</time>
      </trkpt>
      <trkpt lat="47.2695" lon="-2.43702">
        <ele>-3.7999999523163</ele>
        <time>2022-05-26T09:26:34.000Z</time>
      </trkpt>
      <trkpt lat="47.26951" lon="-2.43693">
        <ele>-4.1999998092651</ele>
        <time>2022-05-26T09:26:35.000Z</time>
      </trkpt>
      <trkpt lat="47.26952" lon="-2.43685">
        <ele>-4.5999999046326</ele>
        <time>2022-05-26T09:26:36.000Z</time>
      </trkpt>
      <trkpt lat="47.26953" lon="-2.43676">
        <ele>-4.5999999046326</ele>
        <time>2022-05-26T09:26:37.000Z</time>
      </trkpt>
      <trkpt lat="47.26954" lon="-2.43662">
        <ele>-4.5999999046326</ele>
        <time>2022-05-26T09:26:39.000Z</time>
      </trkpt>
      <trkpt lat="47.26959" lon="-2.43643">
        <ele>-4.5999999046326</ele>
        <time>2022-05-26T09:26:42.000Z</time>
      </trkpt>
      <trkpt lat="47.26969" lon="-2.43629">
        <ele>-4.5999999046326</ele>
        <time>2022-05-26T09:26:45.000Z</time>
      </trkpt>
      <trkpt lat="47.26973" lon="-2.43624">
        <ele>-4.5999999046326</ele>
        <time>2022-05-26T09:26:46.000Z</time>
      </trkpt>
      <trkpt lat="47.26998" lon="-2.43583">
        <ele>-4.5999999046326</ele>
        <time>2022-05-26T09:26:53.000Z</time>
      </trkpt>
      <trkpt lat="47.27005" lon="-2.43572">
        <ele>-4.5999999046326</ele>
        <time>2022-05-26T09:26:55.000Z</time>
      </trkpt>
      <trkpt lat="47.27009" lon="-2.43568">
        <ele>-5.1999998092651</ele>
        <time>2022-05-26T09:26:56.000Z</time>
      </trkpt>
      <trkpt lat="47.27014" lon="-2.43563">
        <ele>-5.5999999046326</ele>
        <time>2022-05-26T09:26:57.000Z</time>
      </trkpt>
      <trkpt lat="47.27019" lon="-2.43557">
        <ele>-6</ele>
        <time>2022-05-26T09:26:58.000Z</time>
      </trkpt>
      <trkpt lat="47.27024" lon="-2.43551">
        <ele>-6.4000000953674</ele>
        <time>2022-05-26T09:26:59.000Z</time>
      </trkpt>
      <trkpt lat="47.27028" lon="-2.43544">
        <ele>-6.8000001907349</ele>
        <time>2022-05-26T09:27:00.000Z</time>
      </trkpt>
      <trkpt lat="47.27033" lon="-2.43537">
        <ele>-6.8000001907349</ele>
        <time>2022-05-26T09:27:01.000Z</time>
      </trkpt>
      <trkpt lat="47.27042" lon="-2.43525">
        <ele>-6.8000001907349</ele>
        <time>2022-05-26T09:27:03.000Z</time>
      </trkpt>
      <trkpt lat="47.27073" lon="-2.43482">
        <ele>-6.8000001907349</ele>
        <time>2022-05-26T09:27:10.000Z</time>
      </trkpt>
      <trkpt lat="47.27102" lon="-2.43438">
        <ele>-6.8000001907349</ele>
        <time>2022-05-26T09:27:17.000Z</time>
      </trkpt>
      <trkpt lat="47.2713" lon="-2.43401">
        <ele>-7.1999998092651</ele>
        <time>2022-05-26T09:27:23.000Z</time>
      </trkpt>
      <trkpt lat="47.27134" lon="-2.43395">
        <ele>-7.5999999046326</ele>
        <time>2022-05-26T09:27:24.000Z</time>
      </trkpt>
      <trkpt lat="47.27139" lon="-2.43388">
        <ele>-8</ele>
        <time>2022-05-26T09:27:25.000Z</time>
      </trkpt>
      <trkpt lat="47.27144" lon="-2.43382">
        <ele>-8.3999996185303</ele>
        <time>2022-05-26T09:27:26.000Z</time>
      </trkpt>
      <trkpt lat="47.27149" lon="-2.43375">
        <ele>-8.8000001907349</ele>
        <time>2022-05-26T09:27:27.000Z</time>
      </trkpt>
      <trkpt lat="47.27177" lon="-2.43337">
        <ele>-8.8000001907349</ele>
        <time>2022-05-26T09:27:33.000Z</time>
      </trkpt>
      <trkpt lat="47.27217" lon="-2.43289">
        <ele>-8.8000001907349</ele>
        <time>2022-05-26T09:27:41.000Z</time>
      </trkpt>
      <trkpt lat="47.27252" lon="-2.43261">
        <ele>-8.8000001907349</ele>
        <time>2022-05-26T09:27:47.000Z</time>
      </trkpt>
      <trkpt lat="47.27299" lon="-2.43224">
        <ele>-8.8000001907349</ele>
        <time>2022-05-26T09:27:55.000Z</time>
      </trkpt>
      <trkpt lat="47.27334" lon="-2.43198">
        <ele>-8.8000001907349</ele>
        <time>2022-05-26T09:28:01.000Z</time>
      </trkpt>
      <trkpt lat="47.27372" lon="-2.43171">
        <ele>-8.8000001907349</ele>
        <time>2022-05-26T09:28:08.000Z</time>
      </trkpt>
      <trkpt lat="47.27406" lon="-2.4315">
        <ele>-8.8000001907349</ele>
        <time>2022-05-26T09:28:14.000Z</time>
      </trkpt>
      <trkpt lat="47.27443" lon="-2.43127">
        <ele>-8.8000001907349</ele>
        <time>2022-05-26T09:28:21.000Z</time>
      </trkpt>
      <trkpt lat="47.2746" lon="-2.43112">
        <ele>-8.8000001907349</ele>
        <time>2022-05-26T09:28:26.000Z</time>
      </trkpt>
      <trkpt lat="47.2747" lon="-2.431">
        <ele>-8.8000001907349</ele>
        <time>2022-05-26T09:28:31.000Z</time>
      </trkpt>
      <trkpt lat="47.27471" lon="-2.43099">
        <ele>-8.8000001907349</ele>
        <time>2022-05-26T09:28:33.000Z</time>
      </trkpt>
      <trkpt lat="47.27473" lon="-2.43097">
        <ele>-8.8000001907349</ele>
        <time>2022-05-26T09:28:36.000Z</time>
      </trkpt>
      <trkpt lat="47.27474" lon="-2.43095">
        <ele>-8.8000001907349</ele>
        <time>2022-05-26T09:28:37.000Z</time>
      </trkpt>
      <trkpt lat="47.27485" lon="-2.43081">
        <ele>-8.8000001907349</ele>
        <time>2022-05-26T09:28:42.000Z</time>
      </trkpt>
      <trkpt lat="47.27489" lon="-2.43077">
        <ele>-8.8000001907349</ele>
        <time>2022-05-26T09:28:43.000Z</time>
      </trkpt>
      <trkpt lat="47.27506" lon="-2.43061">
        <ele>-8.8000001907349</ele>
        <time>2022-05-26T09:28:47.000Z</time>
      </trkpt>
      <trkpt lat="47.27535" lon="-2.43039">
        <ele>-8.8000001907349</ele>
        <time>2022-05-26T09:28:52.000Z</time>
      </trkpt>
      <trkpt lat="47.27572" lon="-2.43014">
        <ele>-8.8000001907349</ele>
        <time>2022-05-26T09:28:59.000Z</time>
      </trkpt>
      <trkpt lat="47.27602" lon="-2.42997">
        <ele>-8.8000001907349</ele>
        <time>2022-05-26T09:29:05.000Z</time>
      </trkpt>
      <trkpt lat="47.27612" lon="-2.42994">
        <ele>-8.8000001907349</ele>
        <time>2022-05-26T09:29:07.000Z</time>
      </trkpt>
      <trkpt lat="47.2762" lon="-2.42992">
        <ele>-8.8000001907349</ele>
        <time>2022-05-26T09:29:09.000Z</time>
      </trkpt>
      <trkpt lat="47.27631" lon="-2.4298">
        <ele>-8.8000001907349</ele>
        <time>2022-05-26T09:29:12.000Z</time>
      </trkpt>
      <trkpt lat="47.27637" lon="-2.4297">
        <ele>-8.8000001907349</ele>
        <time>2022-05-26T09:29:14.000Z</time>
      </trkpt>
      <trkpt lat="47.27648" lon="-2.42955">
        <ele>-8.8000001907349</ele>
        <time>2022-05-26T09:29:18.000Z</time>
      </trkpt>
      <trkpt lat="47.27655" lon="-2.42942">
        <ele>-8.8000001907349</ele>
        <time>2022-05-26T09:29:23.000Z</time>
      </trkpt>
      <trkpt lat="47.27667" lon="-2.42925">
        <ele>-8.8000001907349</ele>
        <time>2022-05-26T09:29:29.000Z</time>
      </trkpt>
      <trkpt lat="47.27672" lon="-2.42915">
        <ele>-8.8000001907349</ele>
        <time>2022-05-26T09:29:33.000Z</time>
      </trkpt>
      <trkpt lat="47.27677" lon="-2.42906">
        <ele>-8.8000001907349</ele>
        <time>2022-05-26T09:29:39.000Z</time>
      </trkpt>
      <trkpt lat="47.27678" lon="-2.42903">
        <ele>-8.8000001907349</ele>
        <time>2022-05-26T09:29:43.000Z</time>
      </trkpt>
      <trkpt lat="47.27678" lon="-2.42898">
        <ele>-8.8000001907349</ele>
        <time>2022-05-26T09:29:45.000Z</time>
      </trkpt>
      <trkpt lat="47.2768" lon="-2.42878">
        <ele>-8.8000001907349</ele>
        <time>2022-05-26T09:29:50.000Z</time>
      </trkpt>
      <trkpt lat="47.27686" lon="-2.42854">
        <ele>-8.8000001907349</ele>
        <time>2022-05-26T09:29:56.000Z</time>
      </trkpt>
      <trkpt lat="47.27687" lon="-2.42835">
        <ele>-8.8000001907349</ele>
        <time>2022-05-26T09:30:01.000Z</time>
      </trkpt>
      <trkpt lat="47.27689" lon="-2.42827">
        <ele>-8.8000001907349</ele>
        <time>2022-05-26T09:30:05.000Z</time>
      </trkpt>
      <trkpt lat="47.27691" lon="-2.4282">
        <ele>-8.8000001907349</ele>
        <time>2022-05-26T09:30:08.000Z</time>
      </trkpt>
      <trkpt lat="47.27695" lon="-2.42798">
        <ele>-8.8000001907349</ele>
        <time>2022-05-26T09:30:14.000Z</time>
      </trkpt>
      <trkpt lat="47.27702" lon="-2.42793">
        <ele>-8.8000001907349</ele>
        <time>2022-05-26T09:30:17.000Z</time>
      </trkpt>
      <trkpt lat="47.27705" lon="-2.42794">
        <ele>-8.8000001907349</ele>
        <time>2022-05-26T09:30:18.000Z</time>
      </trkpt>
      <trkpt lat="47.27722" lon="-2.42802">
        <ele>-8.8000001907349</ele>
        <time>2022-05-26T09:30:23.000Z</time>
      </trkpt>
      <trkpt lat="47.27749" lon="-2.42808">
        <ele>-8.8000001907349</ele>
        <time>2022-05-26T09:30:29.000Z</time>
      </trkpt>
      <trkpt lat="47.27783" lon="-2.42815">
        <ele>-8.8000001907349</ele>
        <time>2022-05-26T09:30:36.000Z</time>
      </trkpt>
      <trkpt lat="47.27814" lon="-2.4282">
        <ele>-8.8000001907349</ele>
        <time>2022-05-26T09:30:43.000Z</time>
      </trkpt>
      <trkpt lat="47.27828" lon="-2.42816">
        <ele>-8.8000001907349</ele>
        <time>2022-05-26T09:30:47.000Z</time>
      </trkpt>
      <trkpt lat="47.27832" lon="-2.428">
        <ele>-8.8000001907349</ele>
        <time>2022-05-26T09:30:50.000Z</time>
      </trkpt>
      <trkpt lat="47.27831" lon="-2.42794">
        <ele>-8.8000001907349</ele>
        <time>2022-05-26T09:30:51.000Z</time>
      </trkpt>
      <trkpt lat="47.27831" lon="-2.42787">
        <ele>-8.3999996185303</ele>
        <time>2022-05-26T09:30:52.000Z</time>
      </trkpt>
      <trkpt lat="47.27831" lon="-2.42781">
        <ele>-8</ele>
        <time>2022-05-26T09:30:53.000Z</time>
      </trkpt>
      <trkpt lat="47.2783" lon="-2.42774">
        <ele>-7.5999999046326</ele>
        <time>2022-05-26T09:30:54.000Z</time>
      </trkpt>
      <trkpt lat="47.2783" lon="-2.42767">
        <ele>-7.1999998092651</ele>
        <time>2022-05-26T09:30:55.000Z</time>
      </trkpt>
      <trkpt lat="47.2783" lon="-2.4276">
        <ele>-6.8000001907349</ele>
        <time>2022-05-26T09:30:56.000Z</time>
      </trkpt>
      <trkpt lat="47.27831" lon="-2.4273">
        <ele>-6.8000001907349</ele>
        <time>2022-05-26T09:31:01.000Z</time>
      </trkpt>
      <trkpt lat="47.27831" lon="-2.42724">
        <ele>-6.8000001907349</ele>
        <time>2022-05-26T09:31:03.000Z</time>
      </trkpt>
      <trkpt lat="47.27835" lon="-2.42718">
        <ele>-6.8000001907349</ele>
        <time>2022-05-26T09:31:05.000Z</time>
      </trkpt>
      <trkpt lat="47.27851" lon="-2.42715">
        <ele>-6.8000001907349</ele>
        <time>2022-05-26T09:31:09.000Z</time>
      </trkpt>
      <trkpt lat="47.27857" lon="-2.42714">
        <ele>-6.8000001907349</ele>
        <time>2022-05-26T09:31:10.000Z</time>
      </trkpt>
      <trkpt lat="47.27866" lon="-2.42712">
        <ele>-7.1999998092651</ele>
        <time>2022-05-26T09:31:12.000Z</time>
      </trkpt>
      <trkpt lat="47.27871" lon="-2.4271">
        <ele>-7.5999999046326</ele>
        <time>2022-05-26T09:31:13.000Z</time>
      </trkpt>
      <trkpt lat="47.27877" lon="-2.42708">
        <ele>-8</ele>
        <time>2022-05-26T09:31:14.000Z</time>
      </trkpt>
      <trkpt lat="47.27882" lon="-2.42705">
        <ele>-9</ele>
        <time>2022-05-26T09:31:15.000Z</time>
      </trkpt>
      <trkpt lat="47.27905" lon="-2.42689">
        <ele>-9</ele>
        <time>2022-05-26T09:31:20.000Z</time>
      </trkpt>
      <trkpt lat="47.27909" lon="-2.42685">
        <ele>-9</ele>
        <time>2022-05-26T09:31:21.000Z</time>
      </trkpt>
      <trkpt lat="47.27919" lon="-2.42682">
        <ele>-9</ele>
        <time>2022-05-26T09:31:24.000Z</time>
      </trkpt>
      <trkpt lat="47.27934" lon="-2.42672">
        <ele>-9</ele>
        <time>2022-05-26T09:31:28.000Z</time>
      </trkpt>
      <trkpt lat="47.27962" lon="-2.42653">
        <ele>-9</ele>
        <time>2022-05-26T09:31:34.000Z</time>
      </trkpt>
      <trkpt lat="47.27972" lon="-2.42648">
        <ele>-9</ele>
        <time>2022-05-26T09:31:36.000Z</time>
      </trkpt>
      <trkpt lat="47.27988" lon="-2.42644">
        <ele>-9</ele>
        <time>2022-05-26T09:31:39.000Z</time>
      </trkpt>
      <trkpt lat="47.28003" lon="-2.42639">
        <ele>-9</ele>
        <time>2022-05-26T09:31:42.000Z</time>
      </trkpt>
      <trkpt lat="47.28013" lon="-2.42631">
        <ele>-9</ele>
        <time>2022-05-26T09:31:44.000Z</time>
      </trkpt>
      <trkpt lat="47.28026" lon="-2.42617">
        <ele>-9</ele>
        <time>2022-05-26T09:31:47.000Z</time>
      </trkpt>
      <trkpt lat="47.2804" lon="-2.42604">
        <ele>-9</ele>
        <time>2022-05-26T09:31:50.000Z</time>
      </trkpt>
      <trkpt lat="47.28049" lon="-2.42597">
        <ele>-9</ele>
        <time>2022-05-26T09:31:52.000Z</time>
      </trkpt>
      <trkpt lat="47.28065" lon="-2.42587">
        <ele>-9</ele>
        <time>2022-05-26T09:31:55.000Z</time>
      </trkpt>
      <trkpt lat="47.28079" lon="-2.42567">
        <ele>-9</ele>
        <time>2022-05-26T09:31:59.000Z</time>
      </trkpt>
      <trkpt lat="47.28083" lon="-2.42553">
        <ele>-9</ele>
        <time>2022-05-26T09:32:03.000Z</time>
      </trkpt>
      <trkpt lat="47.28087" lon="-2.42546">
        <ele>-9</ele>
        <time>2022-05-26T09:32:06.000Z</time>
      </trkpt>
      <trkpt lat="47.28092" lon="-2.42542">
        <ele>-9</ele>
        <time>2022-05-26T09:32:08.000Z</time>
      </trkpt>
      <trkpt lat="47.28099" lon="-2.42539">
        <ele>-9</ele>
        <time>2022-05-26T09:32:10.000Z</time>
      </trkpt>
      <trkpt lat="47.28109" lon="-2.42537">
        <ele>-9</ele>
        <time>2022-05-26T09:32:12.000Z</time>
      </trkpt>
      <trkpt lat="47.28148" lon="-2.42528">
        <ele>-9</ele>
        <time>2022-05-26T09:32:19.000Z</time>
      </trkpt>
      <trkpt lat="47.28175" lon="-2.42524">
        <ele>-9</ele>
        <time>2022-05-26T09:32:24.000Z</time>
      </trkpt>
      <trkpt lat="47.28185" lon="-2.42523">
        <ele>-9</ele>
        <time>2022-05-26T09:32:26.000Z</time>
      </trkpt>
      <trkpt lat="47.28199" lon="-2.42512">
        <ele>-9</ele>
        <time>2022-05-26T09:32:29.000Z</time>
      </trkpt>
      <trkpt lat="47.28203" lon="-2.42508">
        <ele>-9</ele>
        <time>2022-05-26T09:32:30.000Z</time>
      </trkpt>
      <trkpt lat="47.28214" lon="-2.42492">
        <ele>-9</ele>
        <time>2022-05-26T09:32:33.000Z</time>
      </trkpt>
      <trkpt lat="47.28221" lon="-2.42479">
        <ele>-9</ele>
        <time>2022-05-26T09:32:35.000Z</time>
      </trkpt>
      <trkpt lat="47.28242" lon="-2.4243">
        <ele>-9</ele>
        <time>2022-05-26T09:32:42.000Z</time>
      </trkpt>
      <trkpt lat="47.28255" lon="-2.42382">
        <ele>-9</ele>
        <time>2022-05-26T09:32:48.000Z</time>
      </trkpt>
      <trkpt lat="47.28264" lon="-2.42332">
        <ele>-9</ele>
        <time>2022-05-26T09:32:54.000Z</time>
      </trkpt>
      <trkpt lat="47.28274" lon="-2.4227">
        <ele>-9</ele>
        <time>2022-05-26T09:33:01.000Z</time>
      </trkpt>
      <trkpt lat="47.28282" lon="-2.42212">
        <ele>-9</ele>
        <time>2022-05-26T09:33:07.000Z</time>
      </trkpt>
      <trkpt lat="47.28296" lon="-2.42133">
        <ele>-9</ele>
        <time>2022-05-26T09:33:15.000Z</time>
      </trkpt>
      <trkpt lat="47.28306" lon="-2.42067">
        <ele>-9</ele>
        <time>2022-05-26T09:33:22.000Z</time>
      </trkpt>
      <trkpt lat="47.28306" lon="-2.42052">
        <ele>-9</ele>
        <time>2022-05-26T09:33:24.000Z</time>
      </trkpt>
      <trkpt lat="47.28307" lon="-2.42038">
        <ele>-9</ele>
        <time>2022-05-26T09:33:26.000Z</time>
      </trkpt>
      <trkpt lat="47.28314" lon="-2.41997">
        <ele>-9</ele>
        <time>2022-05-26T09:33:31.000Z</time>
      </trkpt>
      <trkpt lat="47.28327" lon="-2.41947">
        <ele>-9</ele>
        <time>2022-05-26T09:33:37.000Z</time>
      </trkpt>
      <trkpt lat="47.28343" lon="-2.41889">
        <ele>-9</ele>
        <time>2022-05-26T09:33:44.000Z</time>
      </trkpt>
      <trkpt lat="47.2836" lon="-2.41816">
        <ele>-9</ele>
        <time>2022-05-26T09:33:52.000Z</time>
      </trkpt>
      <trkpt lat="47.28372" lon="-2.4176">
        <ele>-9</ele>
        <time>2022-05-26T09:33:59.000Z</time>
      </trkpt>
      <trkpt lat="47.28388" lon="-2.41707">
        <ele>-9</ele>
        <time>2022-05-26T09:34:05.000Z</time>
      </trkpt>
      <trkpt lat="47.28401" lon="-2.4164">
        <ele>-9</ele>
        <time>2022-05-26T09:34:12.000Z</time>
      </trkpt>
      <trkpt lat="47.28408" lon="-2.41574">
        <ele>-9</ele>
        <time>2022-05-26T09:34:19.000Z</time>
      </trkpt>
      <trkpt lat="47.28414" lon="-2.41507">
        <ele>-9</ele>
        <time>2022-05-26T09:34:27.000Z</time>
      </trkpt>
      <trkpt lat="47.2842" lon="-2.41444">
        <ele>-9</ele>
        <time>2022-05-26T09:34:34.000Z</time>
      </trkpt>
      <trkpt lat="47.28431" lon="-2.41393">
        <ele>-9</ele>
        <time>2022-05-26T09:34:40.000Z</time>
      </trkpt>
      <trkpt lat="47.28446" lon="-2.41337">
        <ele>-9</ele>
        <time>2022-05-26T09:34:47.000Z</time>
      </trkpt>
      <trkpt lat="47.28454" lon="-2.41296">
        <ele>-9</ele>
        <time>2022-05-26T09:34:53.000Z</time>
      </trkpt>
      <trkpt lat="47.28456" lon="-2.41284">
        <ele>-9</ele>
        <time>2022-05-26T09:34:55.000Z</time>
      </trkpt>
      <trkpt lat="47.28453" lon="-2.41272">
        <ele>-9</ele>
        <time>2022-05-26T09:34:57.000Z</time>
      </trkpt>
      <trkpt lat="47.2844" lon="-2.41262">
        <ele>-9</ele>
        <time>2022-05-26T09:35:00.000Z</time>
      </trkpt>
      <trkpt lat="47.28411" lon="-2.41248">
        <ele>-9</ele>
        <time>2022-05-26T09:35:06.000Z</time>
      </trkpt>
      <trkpt lat="47.28403" lon="-2.41245">
        <ele>-9</ele>
        <time>2022-05-26T09:35:10.000Z</time>
      </trkpt>
      <trkpt lat="47.28395" lon="-2.41239">
        <ele>-9</ele>
        <time>2022-05-26T09:35:16.000Z</time>
      </trkpt>
      <trkpt lat="47.2838" lon="-2.41234">
        <ele>-9</ele>
        <time>2022-05-26T09:35:20.000Z</time>
      </trkpt>
      <trkpt lat="47.28376" lon="-2.41233">
        <ele>-9</ele>
        <time>2022-05-26T09:35:21.000Z</time>
      </trkpt>
      <trkpt lat="47.28362" lon="-2.41222">
        <ele>-9</ele>
        <time>2022-05-26T09:35:25.000Z</time>
      </trkpt>
      <trkpt lat="47.2836" lon="-2.41216">
        <ele>-9</ele>
        <time>2022-05-26T09:35:29.000Z</time>
      </trkpt>
      <trkpt lat="47.28356" lon="-2.41207">
        <ele>-9</ele>
        <time>2022-05-26T09:35:33.000Z</time>
      </trkpt>
      <trkpt lat="47.28358" lon="-2.41199">
        <ele>-9</ele>
        <time>2022-05-26T09:35:35.000Z</time>
      </trkpt>
      <trkpt lat="47.28362" lon="-2.41189">
        <ele>-9</ele>
        <time>2022-05-26T09:35:37.000Z</time>
      </trkpt>
      <trkpt lat="47.28366" lon="-2.4117">
        <ele>-9</ele>
        <time>2022-05-26T09:35:40.000Z</time>
      </trkpt>
      <trkpt lat="47.28371" lon="-2.4115">
        <ele>-9</ele>
        <time>2022-05-26T09:35:43.000Z</time>
      </trkpt>
      <trkpt lat="47.28379" lon="-2.41114">
        <ele>-9</ele>
        <time>2022-05-26T09:35:48.000Z</time>
      </trkpt>
      <trkpt lat="47.28383" lon="-2.41102">
        <ele>-9</ele>
        <time>2022-05-26T09:35:50.000Z</time>
      </trkpt>
      <trkpt lat="47.28384" lon="-2.41093">
        <ele>-9</ele>
        <time>2022-05-26T09:35:52.000Z</time>
      </trkpt>
      <trkpt lat="47.28382" lon="-2.4109">
        <ele>-9</ele>
        <time>2022-05-26T09:35:53.000Z</time>
      </trkpt>
      <trkpt lat="47.2837" lon="-2.41082">
        <ele>-9</ele>
        <time>2022-05-26T09:35:57.000Z</time>
      </trkpt>
      <trkpt lat="47.28354" lon="-2.41073">
        <ele>-9</ele>
        <time>2022-05-26T09:36:01.000Z</time>
      </trkpt>
      <trkpt lat="47.28341" lon="-2.41068">
        <ele>-9</ele>
        <time>2022-05-26T09:36:04.000Z</time>
      </trkpt>
      <trkpt lat="47.28332" lon="-2.41064">
        <ele>-9</ele>
        <time>2022-05-26T09:36:06.000Z</time>
      </trkpt>
      <trkpt lat="47.28314" lon="-2.41052">
        <ele>-9</ele>
        <time>2022-05-26T09:36:10.000Z</time>
      </trkpt>
      <trkpt lat="47.28277" lon="-2.41032">
        <ele>-9</ele>
        <time>2022-05-26T09:36:18.000Z</time>
      </trkpt>
      <trkpt lat="47.28258" lon="-2.41022">
        <ele>-9</ele>
        <time>2022-05-26T09:36:23.000Z</time>
      </trkpt>
      <trkpt lat="47.28254" lon="-2.41014">
        <ele>-9</ele>
        <time>2022-05-26T09:36:25.000Z</time>
      </trkpt>
      <trkpt lat="47.28255" lon="-2.41009">
        <ele>-9</ele>
        <time>2022-05-26T09:36:26.000Z</time>
      </trkpt>
      <trkpt lat="47.28254" lon="-2.41">
        <ele>-9</ele>
        <time>2022-05-26T09:36:28.000Z</time>
      </trkpt>
      <trkpt lat="47.28252" lon="-2.40998">
        <ele>-9</ele>
        <time>2022-05-26T09:36:29.000Z</time>
      </trkpt>
      <trkpt lat="47.28246" lon="-2.40992">
        <ele>-9</ele>
        <time>2022-05-26T09:36:33.000Z</time>
      </trkpt>
      <trkpt lat="47.28244" lon="-2.40992">
        <ele>-9</ele>
        <time>2022-05-26T09:36:42.000Z</time>
      </trkpt>
      <trkpt lat="47.2824" lon="-2.40988">
        <ele>-9</ele>
        <time>2022-05-26T09:36:44.000Z</time>
      </trkpt>
      <trkpt lat="47.28239" lon="-2.40985">
        <ele>-9</ele>
        <time>2022-05-26T09:36:45.000Z</time>
      </trkpt>
      <trkpt lat="47.28238" lon="-2.40975">
        <ele>-9</ele>
        <time>2022-05-26T09:36:47.000Z</time>
      </trkpt>
      <trkpt lat="47.28244" lon="-2.40943">
        <ele>-9</ele>
        <time>2022-05-26T09:36:52.000Z</time>
      </trkpt>
      <trkpt lat="47.28258" lon="-2.40906">
        <ele>-9</ele>
        <time>2022-05-26T09:36:58.000Z</time>
      </trkpt>
      <trkpt lat="47.28261" lon="-2.40901">
        <ele>-9</ele>
        <time>2022-05-26T09:36:59.000Z</time>
      </trkpt>
      <trkpt lat="47.28262" lon="-2.40894">
        <ele>-9</ele>
        <time>2022-05-26T09:37:00.000Z</time>
      </trkpt>
      <trkpt lat="47.2826" lon="-2.40883">
        <ele>-9</ele>
        <time>2022-05-26T09:37:02.000Z</time>
      </trkpt>
      <trkpt lat="47.28248" lon="-2.40869">
        <ele>-9</ele>
        <time>2022-05-26T09:37:05.000Z</time>
      </trkpt>
      <trkpt lat="47.28208" lon="-2.40837">
        <ele>-9</ele>
        <time>2022-05-26T09:37:13.000Z</time>
      </trkpt>
      <trkpt lat="47.28174" lon="-2.40811">
        <ele>-9</ele>
        <time>2022-05-26T09:37:19.000Z</time>
      </trkpt>
      <trkpt lat="47.28147" lon="-2.4079">
        <ele>-9</ele>
        <time>2022-05-26T09:37:24.000Z</time>
      </trkpt>
      <trkpt lat="47.28142" lon="-2.40787">
        <ele>-9</ele>
        <time>2022-05-26T09:37:25.000Z</time>
      </trkpt>
      <trkpt lat="47.28131" lon="-2.40771">
        <ele>-9</ele>
        <time>2022-05-26T09:37:28.000Z</time>
      </trkpt>
      <trkpt lat="47.28135" lon="-2.40752">
        <ele>-9</ele>
        <time>2022-05-26T09:37:31.000Z</time>
      </trkpt>
      <trkpt lat="47.28137" lon="-2.4074">
        <ele>-9</ele>
        <time>2022-05-26T09:37:34.000Z</time>
      </trkpt>
      <trkpt lat="47.28134" lon="-2.40736">
        <ele>-9</ele>
        <time>2022-05-26T09:37:37.000Z</time>
      </trkpt>
      <trkpt lat="47.28132" lon="-2.40736">
        <ele>-9</ele>
        <time>2022-05-26T09:37:38.000Z</time>
      </trkpt>
      <trkpt lat="47.28123" lon="-2.40734">
        <ele>-9</ele>
        <time>2022-05-26T09:37:41.000Z</time>
      </trkpt>
      <trkpt lat="47.28116" lon="-2.4073">
        <ele>-9</ele>
        <time>2022-05-26T09:37:43.000Z</time>
      </trkpt>
      <trkpt lat="47.28106" lon="-2.40724">
        <ele>-8.3999996185303</ele>
        <time>2022-05-26T09:37:46.000Z</time>
      </trkpt>
      <trkpt lat="47.28102" lon="-2.40721">
        <ele>-8</ele>
        <time>2022-05-26T09:37:47.000Z</time>
      </trkpt>
      <trkpt lat="47.28098" lon="-2.40719">
        <ele>-7.5999999046326</ele>
        <time>2022-05-26T09:37:48.000Z</time>
      </trkpt>
      <trkpt lat="47.28094" lon="-2.40716">
        <ele>-7.1999998092651</ele>
        <time>2022-05-26T09:37:49.000Z</time>
      </trkpt>
      <trkpt lat="47.28091" lon="-2.40714">
        <ele>-6.8000001907349</ele>
        <time>2022-05-26T09:37:50.000Z</time>
      </trkpt>
      <trkpt lat="47.28087" lon="-2.40712">
        <ele>-6.8000001907349</ele>
        <time>2022-05-26T09:37:51.000Z</time>
      </trkpt>
      <trkpt lat="47.28077" lon="-2.40706">
        <ele>-6.8000001907349</ele>
        <time>2022-05-26T09:37:55.000Z</time>
      </trkpt>
      <trkpt lat="47.28076" lon="-2.40705">
        <ele>-6.8000001907349</ele>
        <time>2022-05-26T09:37:57.000Z</time>
      </trkpt>
      <trkpt lat="47.28073" lon="-2.40705">
        <ele>-6.8000001907349</ele>
        <time>2022-05-26T09:38:00.000Z</time>
      </trkpt>
      <trkpt lat="47.28071" lon="-2.40702">
        <ele>-6.8000001907349</ele>
        <time>2022-05-26T09:38:01.000Z</time>
      </trkpt>
      <trkpt lat="47.2807" lon="-2.407">
        <ele>-6.8000001907349</ele>
        <time>2022-05-26T09:38:02.000Z</time>
      </trkpt>
      <trkpt lat="47.28066" lon="-2.40686">
        <ele>-6.8000001907349</ele>
        <time>2022-05-26T09:38:05.000Z</time>
      </trkpt>
      <trkpt lat="47.28064" lon="-2.40681">
        <ele>-6.8000001907349</ele>
        <time>2022-05-26T09:38:06.000Z</time>
      </trkpt>
      <trkpt lat="47.28061" lon="-2.40675">
        <ele>-6.8000001907349</ele>
        <time>2022-05-26T09:38:07.000Z</time>
      </trkpt>
      <trkpt lat="47.28057" lon="-2.40655">
        <ele>-6.8000001907349</ele>
        <time>2022-05-26T09:38:10.000Z</time>
      </trkpt>
      <trkpt lat="47.28054" lon="-2.40642">
        <ele>-6.8000001907349</ele>
        <time>2022-05-26T09:38:12.000Z</time>
      </trkpt>
      <trkpt lat="47.2805" lon="-2.40627">
        <ele>-6.8000001907349</ele>
        <time>2022-05-26T09:38:14.000Z</time>
      </trkpt>
      <trkpt lat="47.28049" lon="-2.40619">
        <ele>-6.8000001907349</ele>
        <time>2022-05-26T09:38:15.000Z</time>
      </trkpt>
      <trkpt lat="47.28053" lon="-2.40595">
        <ele>-6.8000001907349</ele>
        <time>2022-05-26T09:38:18.000Z</time>
      </trkpt>
      <trkpt lat="47.28054" lon="-2.40587">
        <ele>-6.8000001907349</ele>
        <time>2022-05-26T09:38:19.000Z</time>
      </trkpt>
      <trkpt lat="47.28065" lon="-2.4053">
        <ele>-6.8000001907349</ele>
        <time>2022-05-26T09:38:26.000Z</time>
      </trkpt>
      <trkpt lat="47.28079" lon="-2.40478">
        <ele>-6.8000001907349</ele>
        <time>2022-05-26T09:38:32.000Z</time>
      </trkpt>
      <trkpt lat="47.28082" lon="-2.4047">
        <ele>-6.8000001907349</ele>
        <time>2022-05-26T09:38:33.000Z</time>
      </trkpt>
      <trkpt lat="47.28107" lon="-2.40425">
        <ele>-6.8000001907349</ele>
        <time>2022-05-26T09:38:39.000Z</time>
      </trkpt>
      <trkpt lat="47.28114" lon="-2.40389">
        <ele>-6.8000001907349</ele>
        <time>2022-05-26T09:38:43.000Z</time>
      </trkpt>
      <trkpt lat="47.28123" lon="-2.40311">
        <ele>-6.8000001907349</ele>
        <time>2022-05-26T09:38:51.000Z</time>
      </trkpt>
      <trkpt lat="47.2813" lon="-2.4024">
        <ele>-6.8000001907349</ele>
        <time>2022-05-26T09:38:58.000Z</time>
      </trkpt>
      <trkpt lat="47.2814" lon="-2.40156">
        <ele>-6.8000001907349</ele>
        <time>2022-05-26T09:39:06.000Z</time>
      </trkpt>
      <trkpt lat="47.28141" lon="-2.40146">
        <ele>-6.8000001907349</ele>
        <time>2022-05-26T09:39:07.000Z</time>
      </trkpt>
      <trkpt lat="47.28144" lon="-2.40103">
        <ele>-6.4000000953674</ele>
        <time>2022-05-26T09:39:11.000Z</time>
      </trkpt>
      <trkpt lat="47.28145" lon="-2.40093">
        <ele>-6</ele>
        <time>2022-05-26T09:39:12.000Z</time>
      </trkpt>
      <trkpt lat="47.28146" lon="-2.40084">
        <ele>-5.5999999046326</ele>
        <time>2022-05-26T09:39:13.000Z</time>
      </trkpt>
      <trkpt lat="47.28147" lon="-2.40074">
        <ele>-5.1999998092651</ele>
        <time>2022-05-26T09:39:14.000Z</time>
      </trkpt>
      <trkpt lat="47.28148" lon="-2.40065">
        <ele>-4.8000001907349</ele>
        <time>2022-05-26T09:39:15.000Z</time>
      </trkpt>
      <trkpt lat="47.28148" lon="-2.40056">
        <ele>-4.8000001907349</ele>
        <time>2022-05-26T09:39:16.000Z</time>
      </trkpt>
      <trkpt lat="47.28151" lon="-2.40029">
        <ele>-4.8000001907349</ele>
        <time>2022-05-26T09:39:19.000Z</time>
      </trkpt>
      <trkpt lat="47.28153" lon="-2.40012">
        <ele>-4.8000001907349</ele>
        <time>2022-05-26T09:39:21.000Z</time>
      </trkpt>
      <trkpt lat="47.28154" lon="-2.39994">
        <ele>-4.8000001907349</ele>
        <time>2022-05-26T09:39:23.000Z</time>
      </trkpt>
      <trkpt lat="47.28155" lon="-2.39986">
        <ele>-4.8000001907349</ele>
        <time>2022-05-26T09:39:24.000Z</time>
      </trkpt>
      <trkpt lat="47.28157" lon="-2.3996">
        <ele>-4.8000001907349</ele>
        <time>2022-05-26T09:39:27.000Z</time>
      </trkpt>
      <trkpt lat="47.28159" lon="-2.39934">
        <ele>-4.8000001907349</ele>
        <time>2022-05-26T09:39:30.000Z</time>
      </trkpt>
      <trkpt lat="47.28161" lon="-2.39915">
        <ele>-4.8000001907349</ele>
        <time>2022-05-26T09:39:32.000Z</time>
      </trkpt>
      <trkpt lat="47.28162" lon="-2.39876">
        <ele>-4.8000001907349</ele>
        <time>2022-05-26T09:39:36.000Z</time>
      </trkpt>
      <trkpt lat="47.28166" lon="-2.3981">
        <ele>-4.8000001907349</ele>
        <time>2022-05-26T09:39:43.000Z</time>
      </trkpt>
      <trkpt lat="47.28171" lon="-2.39726">
        <ele>-4.8000001907349</ele>
        <time>2022-05-26T09:39:52.000Z</time>
      </trkpt>
      <trkpt lat="47.28172" lon="-2.39717">
        <ele>-4.8000001907349</ele>
        <time>2022-05-26T09:39:53.000Z</time>
      </trkpt>
      <trkpt lat="47.28174" lon="-2.39649">
        <ele>-4.8000001907349</ele>
        <time>2022-05-26T09:40:01.000Z</time>
      </trkpt>
      <trkpt lat="47.28175" lon="-2.39592">
        <ele>-4.8000001907349</ele>
        <time>2022-05-26T09:40:08.000Z</time>
      </trkpt>
      <trkpt lat="47.28178" lon="-2.39508">
        <ele>-4.8000001907349</ele>
        <time>2022-05-26T09:40:17.000Z</time>
      </trkpt>
      <trkpt lat="47.28178" lon="-2.39434">
        <ele>-4.8000001907349</ele>
        <time>2022-05-26T09:40:25.000Z</time>
      </trkpt>
      <trkpt lat="47.28177" lon="-2.39351">
        <ele>-4.8000001907349</ele>
        <time>2022-05-26T09:40:34.000Z</time>
      </trkpt>
      <trkpt lat="47.28176" lon="-2.39284">
        <ele>-4.8000001907349</ele>
        <time>2022-05-26T09:40:42.000Z</time>
      </trkpt>
      <trkpt lat="47.28175" lon="-2.39264">
        <ele>-4.8000001907349</ele>
        <time>2022-05-26T09:40:46.000Z</time>
      </trkpt>
      <trkpt lat="47.28175" lon="-2.3924">
        <ele>-4.8000001907349</ele>
        <time>2022-05-26T09:40:51.000Z</time>
      </trkpt>
      <trkpt lat="47.28172" lon="-2.39205">
        <ele>-4.8000001907349</ele>
        <time>2022-05-26T09:40:56.000Z</time>
      </trkpt>
      <trkpt lat="47.28169" lon="-2.39131">
        <ele>-4.8000001907349</ele>
        <time>2022-05-26T09:41:04.000Z</time>
      </trkpt>
      <trkpt lat="47.28165" lon="-2.39068">
        <ele>-4.8000001907349</ele>
        <time>2022-05-26T09:41:11.000Z</time>
      </trkpt>
      <trkpt lat="47.28158" lon="-2.38987">
        <ele>-4.8000001907349</ele>
        <time>2022-05-26T09:41:20.000Z</time>
      </trkpt>
      <trkpt lat="47.28152" lon="-2.3895">
        <ele>-4.8000001907349</ele>
        <time>2022-05-26T09:41:24.000Z</time>
      </trkpt>
      <trkpt lat="47.28147" lon="-2.38932">
        <ele>-4.8000001907349</ele>
        <time>2022-05-26T09:41:26.000Z</time>
      </trkpt>
      <trkpt lat="47.28133" lon="-2.38867">
        <ele>-4.8000001907349</ele>
        <time>2022-05-26T09:41:33.000Z</time>
      </trkpt>
      <trkpt lat="47.28128" lon="-2.38802">
        <ele>-4.8000001907349</ele>
        <time>2022-05-26T09:41:40.000Z</time>
      </trkpt>
      <trkpt lat="47.28122" lon="-2.38717">
        <ele>-4.8000001907349</ele>
        <time>2022-05-26T09:41:49.000Z</time>
      </trkpt>
      <trkpt lat="47.28114" lon="-2.3864">
        <ele>-4.8000001907349</ele>
        <time>2022-05-26T09:41:57.000Z</time>
      </trkpt>
      <trkpt lat="47.28106" lon="-2.38553">
        <ele>-4.8000001907349</ele>
        <time>2022-05-26T09:42:06.000Z</time>
      </trkpt>
      <trkpt lat="47.28094" lon="-2.38479">
        <ele>-4.8000001907349</ele>
        <time>2022-05-26T09:42:14.000Z</time>
      </trkpt>
      <trkpt lat="47.28079" lon="-2.38397">
        <ele>-4.8000001907349</ele>
        <time>2022-05-26T09:42:23.000Z</time>
      </trkpt>
      <trkpt lat="47.28063" lon="-2.38313">
        <ele>-4.8000001907349</ele>
        <time>2022-05-26T09:42:32.000Z</time>
      </trkpt>
      <trkpt lat="47.28062" lon="-2.38303">
        <ele>-4.8000001907349</ele>
        <time>2022-05-26T09:42:33.000Z</time>
      </trkpt>
      <trkpt lat="47.28045" lon="-2.3822">
        <ele>-4.8000001907349</ele>
        <time>2022-05-26T09:42:42.000Z</time>
      </trkpt>
      <trkpt lat="47.28042" lon="-2.38202">
        <ele>-4.8000001907349</ele>
        <time>2022-05-26T09:42:44.000Z</time>
      </trkpt>
      <trkpt lat="47.28028" lon="-2.3813">
        <ele>-4.8000001907349</ele>
        <time>2022-05-26T09:42:53.000Z</time>
      </trkpt>
      <trkpt lat="47.28022" lon="-2.381">
        <ele>-4.8000001907349</ele>
        <time>2022-05-26T09:42:59.000Z</time>
      </trkpt>
      <trkpt lat="47.28018" lon="-2.38081">
        <ele>-4.8000001907349</ele>
        <time>2022-05-26T09:43:05.000Z</time>
      </trkpt>
      <trkpt lat="47.28015" lon="-2.38055">
        <ele>-4.8000001907349</ele>
        <time>2022-05-26T09:43:10.000Z</time>
      </trkpt>
      <trkpt lat="47.28012" lon="-2.38041">
        <ele>-4.8000001907349</ele>
        <time>2022-05-26T09:43:12.000Z</time>
      </trkpt>
      <trkpt lat="47.28007" lon="-2.38018">
        <ele>-4.8000001907349</ele>
        <time>2022-05-26T09:43:15.000Z</time>
      </trkpt>
      <trkpt lat="47.27993" lon="-2.37941">
        <ele>-4.8000001907349</ele>
        <time>2022-05-26T09:43:24.000Z</time>
      </trkpt>
      <trkpt lat="47.27991" lon="-2.37932">
        <ele>-4.8000001907349</ele>
        <time>2022-05-26T09:43:25.000Z</time>
      </trkpt>
      <trkpt lat="47.27978" lon="-2.37869">
        <ele>-4.8000001907349</ele>
        <time>2022-05-26T09:43:32.000Z</time>
      </trkpt>
      <trkpt lat="47.2797" lon="-2.37819">
        <ele>-4.8000001907349</ele>
        <time>2022-05-26T09:43:38.000Z</time>
      </trkpt>
      <trkpt lat="47.27967" lon="-2.37804">
        <ele>-4.8000001907349</ele>
        <time>2022-05-26T09:43:40.000Z</time>
      </trkpt>
      <trkpt lat="47.2797" lon="-2.37793">
        <ele>-4.8000001907349</ele>
        <time>2022-05-26T09:43:42.000Z</time>
      </trkpt>
      <trkpt lat="47.27981" lon="-2.3779">
        <ele>-4.8000001907349</ele>
        <time>2022-05-26T09:43:45.000Z</time>
      </trkpt>
      <trkpt lat="47.27997" lon="-2.3778">
        <ele>-4.8000001907349</ele>
        <time>2022-05-26T09:43:49.000Z</time>
      </trkpt>
      <trkpt lat="47.28019" lon="-2.3776">
        <ele>-4.8000001907349</ele>
        <time>2022-05-26T09:43:54.000Z</time>
      </trkpt>
      <trkpt lat="47.28051" lon="-2.37728">
        <ele>-4.8000001907349</ele>
        <time>2022-05-26T09:44:01.000Z</time>
      </trkpt>
      <trkpt lat="47.28079" lon="-2.37699">
        <ele>-4.8000001907349</ele>
        <time>2022-05-26T09:44:08.000Z</time>
      </trkpt>
      <trkpt lat="47.28108" lon="-2.37672">
        <ele>-4.8000001907349</ele>
        <time>2022-05-26T09:44:15.000Z</time>
      </trkpt>
      <trkpt lat="47.2813" lon="-2.37647">
        <ele>-4.8000001907349</ele>
        <time>2022-05-26T09:44:20.000Z</time>
      </trkpt>
      <trkpt lat="47.28135" lon="-2.37641">
        <ele>-4.8000001907349</ele>
        <time>2022-05-26T09:44:21.000Z</time>
      </trkpt>
      <trkpt lat="47.28139" lon="-2.37637">
        <ele>-4.8000001907349</ele>
        <time>2022-05-26T09:44:22.000Z</time>
      </trkpt>
      <trkpt lat="47.28151" lon="-2.37633">
        <ele>-4.8000001907349</ele>
        <time>2022-05-26T09:44:24.000Z</time>
      </trkpt>
      <trkpt lat="47.28162" lon="-2.37633">
        <ele>-4.8000001907349</ele>
        <time>2022-05-26T09:44:26.000Z</time>
      </trkpt>
      <trkpt lat="47.28179" lon="-2.37634">
        <ele>-4.8000001907349</ele>
        <time>2022-05-26T09:44:29.000Z</time>
      </trkpt>
      <trkpt lat="47.28215" lon="-2.37639">
        <ele>-4.8000001907349</ele>
        <time>2022-05-26T09:44:35.000Z</time>
      </trkpt>
      <trkpt lat="47.28241" lon="-2.37639">
        <ele>-4.8000001907349</ele>
        <time>2022-05-26T09:44:40.000Z</time>
      </trkpt>
      <trkpt lat="47.28259" lon="-2.37633">
        <ele>-4.8000001907349</ele>
        <time>2022-05-26T09:44:43.000Z</time>
      </trkpt>
      <trkpt lat="47.28268" lon="-2.37628">
        <ele>-4.8000001907349</ele>
        <time>2022-05-26T09:44:45.000Z</time>
      </trkpt>
      <trkpt lat="47.28273" lon="-2.37624">
        <ele>-4.8000001907349</ele>
        <time>2022-05-26T09:44:46.000Z</time>
      </trkpt>
      <trkpt lat="47.28292" lon="-2.37606">
        <ele>-4.8000001907349</ele>
        <time>2022-05-26T09:44:50.000Z</time>
      </trkpt>
      <trkpt lat="47.283" lon="-2.37594">
        <ele>-4.8000001907349</ele>
        <time>2022-05-26T09:44:52.000Z</time>
      </trkpt>
      <trkpt lat="47.28323" lon="-2.37563">
        <ele>-4.8000001907349</ele>
        <time>2022-05-26T09:44:57.000Z</time>
      </trkpt>
      <trkpt lat="47.28328" lon="-2.37558">
        <ele>-4.8000001907349</ele>
        <time>2022-05-26T09:44:58.000Z</time>
      </trkpt>
      <trkpt lat="47.28348" lon="-2.37542">
        <ele>-4.8000001907349</ele>
        <time>2022-05-26T09:45:02.000Z</time>
      </trkpt>
      <trkpt lat="47.28353" lon="-2.3754">
        <ele>-4.8000001907349</ele>
        <time>2022-05-26T09:45:03.000Z</time>
      </trkpt>
      <trkpt lat="47.28366" lon="-2.37534">
        <ele>-4.8000001907349</ele>
        <time>2022-05-26T09:45:06.000Z</time>
      </trkpt>
      <trkpt lat="47.28387" lon="-2.3753">
        <ele>-4.8000001907349</ele>
        <time>2022-05-26T09:45:12.000Z</time>
      </trkpt>
      <trkpt lat="47.28398" lon="-2.37526">
        <ele>-4.8000001907349</ele>
        <time>2022-05-26T09:45:15.000Z</time>
      </trkpt>
      <trkpt lat="47.28403" lon="-2.37523">
        <ele>-4.8000001907349</ele>
        <time>2022-05-26T09:45:16.000Z</time>
      </trkpt>
      <trkpt lat="47.28418" lon="-2.37511">
        <ele>-4.8000001907349</ele>
        <time>2022-05-26T09:45:19.000Z</time>
      </trkpt>
      <trkpt lat="47.28424" lon="-2.37505">
        <ele>-4.8000001907349</ele>
        <time>2022-05-26T09:45:20.000Z</time>
      </trkpt>
      <trkpt lat="47.28439" lon="-2.37471">
        <ele>-4.8000001907349</ele>
        <time>2022-05-26T09:45:24.000Z</time>
      </trkpt>
      <trkpt lat="47.28457" lon="-2.37407">
        <ele>-4.8000001907349</ele>
        <time>2022-05-26T09:45:31.000Z</time>
      </trkpt>
      <trkpt lat="47.28473" lon="-2.37338">
        <ele>-4.8000001907349</ele>
        <time>2022-05-26T09:45:39.000Z</time>
      </trkpt>
      <trkpt lat="47.28482" lon="-2.3728">
        <ele>-4.8000001907349</ele>
        <time>2022-05-26T09:45:46.000Z</time>
      </trkpt>
      <trkpt lat="47.2849" lon="-2.37219">
        <ele>-4.8000001907349</ele>
        <time>2022-05-26T09:45:53.000Z</time>
      </trkpt>
      <trkpt lat="47.28491" lon="-2.37192">
        <ele>-4.8000001907349</ele>
        <time>2022-05-26T09:45:56.000Z</time>
      </trkpt>
      <trkpt lat="47.28492" lon="-2.37175">
        <ele>-4.4000000953674</ele>
        <time>2022-05-26T09:45:58.000Z</time>
      </trkpt>
      <trkpt lat="47.28492" lon="-2.37166">
        <ele>-4</ele>
        <time>2022-05-26T09:45:59.000Z</time>
      </trkpt>
      <trkpt lat="47.28493" lon="-2.37159">
        <ele>-3.4000000953674</ele>
        <time>2022-05-26T09:46:00.000Z</time>
      </trkpt>
      <trkpt lat="47.28494" lon="-2.37151">
        <ele>-3</ele>
        <time>2022-05-26T09:46:01.000Z</time>
      </trkpt>
      <trkpt lat="47.28495" lon="-2.37143">
        <ele>-2.5999999046326</ele>
        <time>2022-05-26T09:46:02.000Z</time>
      </trkpt>
      <trkpt lat="47.28494" lon="-2.37125">
        <ele>-2.5999999046326</ele>
        <time>2022-05-26T09:46:04.000Z</time>
      </trkpt>
      <trkpt lat="47.28494" lon="-2.3707">
        <ele>-2.5999999046326</ele>
        <time>2022-05-26T09:46:10.000Z</time>
      </trkpt>
      <trkpt lat="47.28494" lon="-2.37036">
        <ele>-2.2000000476837</ele>
        <time>2022-05-26T09:46:14.000Z</time>
      </trkpt>
      <trkpt lat="47.28493" lon="-2.37027">
        <ele>-1.7999999523163</ele>
        <time>2022-05-26T09:46:15.000Z</time>
      </trkpt>
      <trkpt lat="47.28493" lon="-2.37019">
        <ele>-1.3999999761581</ele>
        <time>2022-05-26T09:46:16.000Z</time>
      </trkpt>
      <trkpt lat="47.28492" lon="-2.37012">
        <ele>-1</ele>
        <time>2022-05-26T09:46:17.000Z</time>
      </trkpt>
      <trkpt lat="47.28492" lon="-2.37005">
        <ele>-0.60000002384186</ele>
        <time>2022-05-26T09:46:18.000Z</time>
      </trkpt>
      <trkpt lat="47.28491" lon="-2.36991">
        <ele>-0.20000000298023</ele>
        <time>2022-05-26T09:46:20.000Z</time>
      </trkpt>
      <trkpt lat="47.2849" lon="-2.36984">
        <ele>0.20000000298023</ele>
        <time>2022-05-26T09:46:21.000Z</time>
      </trkpt>
      <trkpt lat="47.28489" lon="-2.36977">
        <ele>0.60000002384186</ele>
        <time>2022-05-26T09:46:22.000Z</time>
      </trkpt>
      <trkpt lat="47.28488" lon="-2.36971">
        <ele>1</ele>
        <time>2022-05-26T09:46:23.000Z</time>
      </trkpt>
      <trkpt lat="47.28488" lon="-2.36964">
        <ele>1.3999999761581</ele>
        <time>2022-05-26T09:46:24.000Z</time>
      </trkpt>
      <trkpt lat="47.28487" lon="-2.36952">
        <ele>2</ele>
        <time>2022-05-26T09:46:26.000Z</time>
      </trkpt>
      <trkpt lat="47.28486" lon="-2.36946">
        <ele>2.4000000953674</ele>
        <time>2022-05-26T09:46:27.000Z</time>
      </trkpt>
      <trkpt lat="47.28485" lon="-2.3694">
        <ele>2.7999999523163</ele>
        <time>2022-05-26T09:46:28.000Z</time>
      </trkpt>
      <trkpt lat="47.28484" lon="-2.36934">
        <ele>3.7999999523163</ele>
        <time>2022-05-26T09:46:29.000Z</time>
      </trkpt>
      <trkpt lat="47.28483" lon="-2.36927">
        <ele>3.7999999523163</ele>
        <time>2022-05-26T09:46:30.000Z</time>
      </trkpt>
      <trkpt lat="47.28482" lon="-2.36921">
        <ele>4.1999998092651</ele>
        <time>2022-05-26T09:46:31.000Z</time>
      </trkpt>
      <trkpt lat="47.28481" lon="-2.36914">
        <ele>4.5999999046326</ele>
        <time>2022-05-26T09:46:32.000Z</time>
      </trkpt>
      <trkpt lat="47.28479" lon="-2.36908">
        <ele>5</ele>
        <time>2022-05-26T09:46:33.000Z</time>
      </trkpt>
      <trkpt lat="47.28478" lon="-2.36901">
        <ele>5.4000000953674</ele>
        <time>2022-05-26T09:46:34.000Z</time>
      </trkpt>
      <trkpt lat="47.28476" lon="-2.36895">
        <ele>5.8000001907349</ele>
        <time>2022-05-26T09:46:35.000Z</time>
      </trkpt>
      <trkpt lat="47.28474" lon="-2.36888">
        <ele>5.8000001907349</ele>
        <time>2022-05-26T09:46:36.000Z</time>
      </trkpt>
      <trkpt lat="47.28468" lon="-2.36856">
        <ele>6.1999998092651</ele>
        <time>2022-05-26T09:46:41.000Z</time>
      </trkpt>
      <trkpt lat="47.28467" lon="-2.36849">
        <ele>6.5999999046326</ele>
        <time>2022-05-26T09:46:42.000Z</time>
      </trkpt>
      <trkpt lat="47.28468" lon="-2.36841">
        <ele>7</ele>
        <time>2022-05-26T09:46:43.000Z</time>
      </trkpt>
      <trkpt lat="47.28469" lon="-2.36833">
        <ele>7.4000000953674</ele>
        <time>2022-05-26T09:46:44.000Z</time>
      </trkpt>
      <trkpt lat="47.2847" lon="-2.36826">
        <ele>7.8000001907349</ele>
        <time>2022-05-26T09:46:45.000Z</time>
      </trkpt>
      <trkpt lat="47.28466" lon="-2.36807">
        <ele>7.8000001907349</ele>
        <time>2022-05-26T09:46:48.000Z</time>
      </trkpt>
      <trkpt lat="47.28462" lon="-2.36795">
        <ele>7.8000001907349</ele>
        <time>2022-05-26T09:46:50.000Z</time>
      </trkpt>
      <trkpt lat="47.28459" lon="-2.36782">
        <ele>8.1999998092651</ele>
        <time>2022-05-26T09:46:52.000Z</time>
      </trkpt>
      <trkpt lat="47.28458" lon="-2.36776">
        <ele>9</ele>
        <time>2022-05-26T09:46:53.000Z</time>
      </trkpt>
      <trkpt lat="47.28456" lon="-2.36771">
        <ele>9.3999996185303</ele>
        <time>2022-05-26T09:46:54.000Z</time>
      </trkpt>
      <trkpt lat="47.28454" lon="-2.36766">
        <ele>9.8000001907349</ele>
        <time>2022-05-26T09:46:55.000Z</time>
      </trkpt>
      <trkpt lat="47.28446" lon="-2.36739">
        <ele>9.8000001907349</ele>
        <time>2022-05-26T09:47:00.000Z</time>
      </trkpt>
      <trkpt lat="47.28445" lon="-2.36722">
        <ele>10.199999809265</ele>
        <time>2022-05-26T09:47:03.000Z</time>
      </trkpt>
      <trkpt lat="47.28447" lon="-2.36717">
        <ele>10.60000038147</ele>
        <time>2022-05-26T09:47:04.000Z</time>
      </trkpt>
      <trkpt lat="47.2845" lon="-2.36714">
        <ele>11</ele>
        <time>2022-05-26T09:47:05.000Z</time>
      </trkpt>
      <trkpt lat="47.28454" lon="-2.36712">
        <ele>11.39999961853</ele>
        <time>2022-05-26T09:47:06.000Z</time>
      </trkpt>
      <trkpt lat="47.28457" lon="-2.36709">
        <ele>11.800000190735</ele>
        <time>2022-05-26T09:47:07.000Z</time>
      </trkpt>
      <trkpt lat="47.28461" lon="-2.36706">
        <ele>11.800000190735</ele>
        <time>2022-05-26T09:47:08.000Z</time>
      </trkpt>
      <trkpt lat="47.28468" lon="-2.36698">
        <ele>11.800000190735</ele>
        <time>2022-05-26T09:47:10.000Z</time>
      </trkpt>
      <trkpt lat="47.28475" lon="-2.3669">
        <ele>11.800000190735</ele>
        <time>2022-05-26T09:47:12.000Z</time>
      </trkpt>
      <trkpt lat="47.2849" lon="-2.36674">
        <ele>11.800000190735</ele>
        <time>2022-05-26T09:47:16.000Z</time>
      </trkpt>
      <trkpt lat="47.28492" lon="-2.36668">
        <ele>11.800000190735</ele>
        <time>2022-05-26T09:47:17.000Z</time>
      </trkpt>
      <trkpt lat="47.28488" lon="-2.36644">
        <ele>11.800000190735</ele>
        <time>2022-05-26T09:47:21.000Z</time>
      </trkpt>
      <trkpt lat="47.28475" lon="-2.36598">
        <ele>11.800000190735</ele>
        <time>2022-05-26T09:47:28.000Z</time>
      </trkpt>
      <trkpt lat="47.28467" lon="-2.36571">
        <ele>11.800000190735</ele>
        <time>2022-05-26T09:47:32.000Z</time>
      </trkpt>
      <trkpt lat="47.28469" lon="-2.36558">
        <ele>11.800000190735</ele>
        <time>2022-05-26T09:47:34.000Z</time>
      </trkpt>
      <trkpt lat="47.28473" lon="-2.36553">
        <ele>12.199999809265</ele>
        <time>2022-05-26T09:47:35.000Z</time>
      </trkpt>
      <trkpt lat="47.28477" lon="-2.36548">
        <ele>12.60000038147</ele>
        <time>2022-05-26T09:47:36.000Z</time>
      </trkpt>
      <trkpt lat="47.28481" lon="-2.36543">
        <ele>13</ele>
        <time>2022-05-26T09:47:37.000Z</time>
      </trkpt>
      <trkpt lat="47.28485" lon="-2.36539">
        <ele>13.39999961853</ele>
        <time>2022-05-26T09:47:38.000Z</time>
      </trkpt>
      <trkpt lat="47.28489" lon="-2.36534">
        <ele>14</ele>
        <time>2022-05-26T09:47:39.000Z</time>
      </trkpt>
      <trkpt lat="47.28504" lon="-2.36519">
        <ele>14</ele>
        <time>2022-05-26T09:47:43.000Z</time>
      </trkpt>
      <trkpt lat="47.2851" lon="-2.3651">
        <ele>14.39999961853</ele>
        <time>2022-05-26T09:47:45.000Z</time>
      </trkpt>
      <trkpt lat="47.28513" lon="-2.36506">
        <ele>14.800000190735</ele>
        <time>2022-05-26T09:47:46.000Z</time>
      </trkpt>
      <trkpt lat="47.28516" lon="-2.36503">
        <ele>15.199999809265</ele>
        <time>2022-05-26T09:47:47.000Z</time>
      </trkpt>
      <trkpt lat="47.28518" lon="-2.36499">
        <ele>15.60000038147</ele>
        <time>2022-05-26T09:47:48.000Z</time>
      </trkpt>
      <trkpt lat="47.28518" lon="-2.36495">
        <ele>16.200000762939</ele>
        <time>2022-05-26T09:47:49.000Z</time>
      </trkpt>
      <trkpt lat="47.28518" lon="-2.36485">
        <ele>16.200000762939</ele>
        <time>2022-05-26T09:47:51.000Z</time>
      </trkpt>
      <trkpt lat="47.28514" lon="-2.36464">
        <ele>16.200000762939</ele>
        <time>2022-05-26T09:47:56.000Z</time>
      </trkpt>
      <trkpt lat="47.28502" lon="-2.36448">
        <ele>16.200000762939</ele>
        <time>2022-05-26T09:48:00.000Z</time>
      </trkpt>
      <trkpt lat="47.28493" lon="-2.36442">
        <ele>16.200000762939</ele>
        <time>2022-05-26T09:48:02.000Z</time>
      </trkpt>
      <trkpt lat="47.28486" lon="-2.36433">
        <ele>16.200000762939</ele>
        <time>2022-05-26T09:48:04.000Z</time>
      </trkpt>
      <trkpt lat="47.28479" lon="-2.36426">
        <ele>16.60000038147</ele>
        <time>2022-05-26T09:48:06.000Z</time>
      </trkpt>
      <trkpt lat="47.28476" lon="-2.36423">
        <ele>17</ele>
        <time>2022-05-26T09:48:07.000Z</time>
      </trkpt>
      <trkpt lat="47.28474" lon="-2.3642">
        <ele>17.799999237061</ele>
        <time>2022-05-26T09:48:08.000Z</time>
      </trkpt>
      <trkpt lat="47.28472" lon="-2.36417">
        <ele>18.200000762939</ele>
        <time>2022-05-26T09:48:09.000Z</time>
      </trkpt>
      <trkpt lat="47.28462" lon="-2.36405">
        <ele>18.200000762939</ele>
        <time>2022-05-26T09:48:13.000Z</time>
      </trkpt>
      <trkpt lat="47.28458" lon="-2.36399">
        <ele>18.200000762939</ele>
        <time>2022-05-26T09:48:14.000Z</time>
      </trkpt>
      <trkpt lat="47.28442" lon="-2.36385">
        <ele>18.200000762939</ele>
        <time>2022-05-26T09:48:17.000Z</time>
      </trkpt>
      <trkpt lat="47.28432" lon="-2.36377">
        <ele>18.200000762939</ele>
        <time>2022-05-26T09:48:19.000Z</time>
      </trkpt>
      <trkpt lat="47.28423" lon="-2.36366">
        <ele>18.200000762939</ele>
        <time>2022-05-26T09:48:21.000Z</time>
      </trkpt>
      <trkpt lat="47.2842" lon="-2.3636">
        <ele>18.200000762939</ele>
        <time>2022-05-26T09:48:22.000Z</time>
      </trkpt>
      <trkpt lat="47.28412" lon="-2.36349">
        <ele>17.799999237061</ele>
        <time>2022-05-26T09:48:24.000Z</time>
      </trkpt>
      <trkpt lat="47.28408" lon="-2.36344">
        <ele>17.39999961853</ele>
        <time>2022-05-26T09:48:25.000Z</time>
      </trkpt>
      <trkpt lat="47.28404" lon="-2.36339">
        <ele>17</ele>
        <time>2022-05-26T09:48:26.000Z</time>
      </trkpt>
      <trkpt lat="47.28399" lon="-2.36334">
        <ele>16.60000038147</ele>
        <time>2022-05-26T09:48:27.000Z</time>
      </trkpt>
      <trkpt lat="47.28395" lon="-2.3633">
        <ele>16.200000762939</ele>
        <time>2022-05-26T09:48:28.000Z</time>
      </trkpt>
      <trkpt lat="47.28385" lon="-2.36322">
        <ele>16.200000762939</ele>
        <time>2022-05-26T09:48:30.000Z</time>
      </trkpt>
      <trkpt lat="47.28375" lon="-2.36317">
        <ele>15.800000190735</ele>
        <time>2022-05-26T09:48:32.000Z</time>
      </trkpt>
      <trkpt lat="47.28371" lon="-2.36314">
        <ele>15.199999809265</ele>
        <time>2022-05-26T09:48:33.000Z</time>
      </trkpt>
      <trkpt lat="47.28369" lon="-2.36309">
        <ele>14.800000190735</ele>
        <time>2022-05-26T09:48:34.000Z</time>
      </trkpt>
      <trkpt lat="47.28367" lon="-2.36304">
        <ele>14.39999961853</ele>
        <time>2022-05-26T09:48:35.000Z</time>
      </trkpt>
      <trkpt lat="47.28366" lon="-2.36298">
        <ele>13.800000190735</ele>
        <time>2022-05-26T09:48:36.000Z</time>
      </trkpt>
      <trkpt lat="47.28367" lon="-2.36283">
        <ele>13.800000190735</ele>
        <time>2022-05-26T09:48:38.000Z</time>
      </trkpt>
      <trkpt lat="47.28371" lon="-2.36269">
        <ele>13.800000190735</ele>
        <time>2022-05-26T09:48:40.000Z</time>
      </trkpt>
      <trkpt lat="47.2838" lon="-2.36253">
        <ele>13.800000190735</ele>
        <time>2022-05-26T09:48:44.000Z</time>
      </trkpt>
      <trkpt lat="47.28393" lon="-2.36237">
        <ele>14.199999809265</ele>
        <time>2022-05-26T09:48:50.000Z</time>
      </trkpt>
      <trkpt lat="47.28394" lon="-2.36236">
        <ele>14.800000190735</ele>
        <time>2022-05-26T09:48:51.000Z</time>
      </trkpt>
      <trkpt lat="47.28396" lon="-2.36234">
        <ele>15.199999809265</ele>
        <time>2022-05-26T09:48:52.000Z</time>
      </trkpt>
      <trkpt lat="47.28398" lon="-2.36232">
        <ele>15.60000038147</ele>
        <time>2022-05-26T09:48:53.000Z</time>
      </trkpt>
      <trkpt lat="47.284" lon="-2.36229">
        <ele>16</ele>
        <time>2022-05-26T09:48:54.000Z</time>
      </trkpt>
      <trkpt lat="47.28408" lon="-2.36222">
        <ele>16</ele>
        <time>2022-05-26T09:48:57.000Z</time>
      </trkpt>
      <trkpt lat="47.28411" lon="-2.36222">
        <ele>16.799999237061</ele>
        <time>2022-05-26T09:48:58.000Z</time>
      </trkpt>
      <trkpt lat="47.28414" lon="-2.36222">
        <ele>17.200000762939</ele>
        <time>2022-05-26T09:48:59.000Z</time>
      </trkpt>
      <trkpt lat="47.28417" lon="-2.36222">
        <ele>17.60000038147</ele>
        <time>2022-05-26T09:49:00.000Z</time>
      </trkpt>
      <trkpt lat="47.2842" lon="-2.3622">
        <ele>18.200000762939</ele>
        <time>2022-05-26T09:49:01.000Z</time>
      </trkpt>
      <trkpt lat="47.28423" lon="-2.36218">
        <ele>18.200000762939</ele>
        <time>2022-05-26T09:49:02.000Z</time>
      </trkpt>
      <trkpt lat="47.28435" lon="-2.36212">
        <ele>18.200000762939</ele>
        <time>2022-05-26T09:49:07.000Z</time>
      </trkpt>
      <trkpt lat="47.28436" lon="-2.36212">
        <ele>18.200000762939</ele>
        <time>2022-05-26T09:49:09.000Z</time>
      </trkpt>
      <trkpt lat="47.28443" lon="-2.36205">
        <ele>18.200000762939</ele>
        <time>2022-05-26T09:49:21.000Z</time>
      </trkpt>
      <trkpt lat="47.28443" lon="-2.36203">
        <ele>18.200000762939</ele>
        <time>2022-05-26T09:49:22.000Z</time>
      </trkpt>
      <trkpt lat="47.28443" lon="-2.36197">
        <ele>18.60000038147</ele>
        <time>2022-05-26T09:49:24.000Z</time>
      </trkpt>
      <trkpt lat="47.28442" lon="-2.36194">
        <ele>19</ele>
        <time>2022-05-26T09:49:25.000Z</time>
      </trkpt>
      <trkpt lat="47.28442" lon="-2.3619">
        <ele>19.39999961853</ele>
        <time>2022-05-26T09:49:26.000Z</time>
      </trkpt>
      <trkpt lat="47.28442" lon="-2.36187">
        <ele>19.799999237061</ele>
        <time>2022-05-26T09:49:27.000Z</time>
      </trkpt>
      <trkpt lat="47.28442" lon="-2.36183">
        <ele>20.200000762939</ele>
        <time>2022-05-26T09:49:28.000Z</time>
      </trkpt>
      <trkpt lat="47.28444" lon="-2.36176">
        <ele>20.200000762939</ele>
        <time>2022-05-26T09:49:30.000Z</time>
      </trkpt>
      <trkpt lat="47.28445" lon="-2.36169">
        <ele>20.60000038147</ele>
        <time>2022-05-26T09:49:32.000Z</time>
      </trkpt>
      <trkpt lat="47.28445" lon="-2.36166">
        <ele>21</ele>
        <time>2022-05-26T09:49:33.000Z</time>
      </trkpt>
      <trkpt lat="47.28444" lon="-2.36161">
        <ele>21.60000038147</ele>
        <time>2022-05-26T09:49:34.000Z</time>
      </trkpt>
      <trkpt lat="47.28442" lon="-2.36158">
        <ele>22</ele>
        <time>2022-05-26T09:49:35.000Z</time>
      </trkpt>
      <trkpt lat="47.28441" lon="-2.36155">
        <ele>22.39999961853</ele>
        <time>2022-05-26T09:49:36.000Z</time>
      </trkpt>
      <trkpt lat="47.2844" lon="-2.36146">
        <ele>22.39999961853</ele>
        <time>2022-05-26T09:49:38.000Z</time>
      </trkpt>
      <trkpt lat="47.2844" lon="-2.36141">
        <ele>22.39999961853</ele>
        <time>2022-05-26T09:49:39.000Z</time>
      </trkpt>
      <trkpt lat="47.2844" lon="-2.36131">
        <ele>22.799999237061</ele>
        <time>2022-05-26T09:49:41.000Z</time>
      </trkpt>
      <trkpt lat="47.28439" lon="-2.36127">
        <ele>23.200000762939</ele>
        <time>2022-05-26T09:49:42.000Z</time>
      </trkpt>
      <trkpt lat="47.28438" lon="-2.36123">
        <ele>23.60000038147</ele>
        <time>2022-05-26T09:49:43.000Z</time>
      </trkpt>
      <trkpt lat="47.28438" lon="-2.36119">
        <ele>24</ele>
        <time>2022-05-26T09:49:44.000Z</time>
      </trkpt>
      <trkpt lat="47.28438" lon="-2.36114">
        <ele>24.39999961853</ele>
        <time>2022-05-26T09:49:45.000Z</time>
      </trkpt>
      <trkpt lat="47.28438" lon="-2.36095">
        <ele>24.799999237061</ele>
        <time>2022-05-26T09:49:49.000Z</time>
      </trkpt>
      <trkpt lat="47.28437" lon="-2.3609">
        <ele>25.39999961853</ele>
        <time>2022-05-26T09:49:50.000Z</time>
      </trkpt>
      <trkpt lat="47.28437" lon="-2.36084">
        <ele>25.799999237061</ele>
        <time>2022-05-26T09:49:51.000Z</time>
      </trkpt>
      <trkpt lat="47.28437" lon="-2.36078">
        <ele>26.200000762939</ele>
        <time>2022-05-26T09:49:52.000Z</time>
      </trkpt>
      <trkpt lat="47.28437" lon="-2.36073">
        <ele>26.60000038147</ele>
        <time>2022-05-26T09:49:53.000Z</time>
      </trkpt>
      <trkpt lat="47.28436" lon="-2.36069">
        <ele>26.60000038147</ele>
        <time>2022-05-26T09:49:54.000Z</time>
      </trkpt>
      <trkpt lat="47.28437" lon="-2.36045">
        <ele>27</ele>
        <time>2022-05-26T09:49:59.000Z</time>
      </trkpt>
      <trkpt lat="47.28438" lon="-2.3604">
        <ele>27.60000038147</ele>
        <time>2022-05-26T09:50:00.000Z</time>
      </trkpt>
      <trkpt lat="47.28438" lon="-2.36036">
        <ele>28</ele>
        <time>2022-05-26T09:50:01.000Z</time>
      </trkpt>
      <trkpt lat="47.28438" lon="-2.36032">
        <ele>28.39999961853</ele>
        <time>2022-05-26T09:50:02.000Z</time>
      </trkpt>
      <trkpt lat="47.28438" lon="-2.36028">
        <ele>28.799999237061</ele>
        <time>2022-05-26T09:50:03.000Z</time>
      </trkpt>
      <trkpt lat="47.28439" lon="-2.36022">
        <ele>28.799999237061</ele>
        <time>2022-05-26T09:50:05.000Z</time>
      </trkpt>
      <trkpt lat="47.28443" lon="-2.36018">
        <ele>28.799999237061</ele>
        <time>2022-05-26T09:50:10.000Z</time>
      </trkpt>
      <trkpt lat="47.28447" lon="-2.36">
        <ele>28.799999237061</ele>
        <time>2022-05-26T09:50:15.000Z</time>
      </trkpt>
      <trkpt lat="47.28448" lon="-2.35995">
        <ele>28.799999237061</ele>
        <time>2022-05-26T09:50:16.000Z</time>
      </trkpt>
      <trkpt lat="47.28444" lon="-2.35988">
        <ele>28.799999237061</ele>
        <time>2022-05-26T09:50:19.000Z</time>
      </trkpt>
      <trkpt lat="47.28435" lon="-2.35993">
        <ele>28.799999237061</ele>
        <time>2022-05-26T09:50:23.000Z</time>
      </trkpt>
      <trkpt lat="47.28421" lon="-2.36004">
        <ele>28.799999237061</ele>
        <time>2022-05-26T09:50:27.000Z</time>
      </trkpt>
      <trkpt lat="47.28404" lon="-2.36017">
        <ele>28.799999237061</ele>
        <time>2022-05-26T09:50:32.000Z</time>
      </trkpt>
      <trkpt lat="47.28385" lon="-2.36022">
        <ele>28.799999237061</ele>
        <time>2022-05-26T09:50:36.000Z</time>
      </trkpt>
      <trkpt lat="47.28379" lon="-2.36022">
        <ele>28.200000762939</ele>
        <time>2022-05-26T09:50:37.000Z</time>
      </trkpt>
      <trkpt lat="47.28372" lon="-2.36022">
        <ele>27.60000038147</ele>
        <time>2022-05-26T09:50:38.000Z</time>
      </trkpt>
      <trkpt lat="47.28365" lon="-2.36021">
        <ele>27.200000762939</ele>
        <time>2022-05-26T09:50:39.000Z</time>
      </trkpt>
      <trkpt lat="47.28359" lon="-2.36021">
        <ele>26.60000038147</ele>
        <time>2022-05-26T09:50:40.000Z</time>
      </trkpt>
      <trkpt lat="47.28352" lon="-2.36024">
        <ele>26</ele>
        <time>2022-05-26T09:50:41.000Z</time>
      </trkpt>
      <trkpt lat="47.28345" lon="-2.36029">
        <ele>25.200000762939</ele>
        <time>2022-05-26T09:50:42.000Z</time>
      </trkpt>
      <trkpt lat="47.28339" lon="-2.36035">
        <ele>24.60000038147</ele>
        <time>2022-05-26T09:50:43.000Z</time>
      </trkpt>
      <trkpt lat="47.28333" lon="-2.3604">
        <ele>24</ele>
        <time>2022-05-26T09:50:44.000Z</time>
      </trkpt>
      <trkpt lat="47.28328" lon="-2.36046">
        <ele>23.200000762939</ele>
        <time>2022-05-26T09:50:45.000Z</time>
      </trkpt>
      <trkpt lat="47.28323" lon="-2.36052">
        <ele>22.799999237061</ele>
        <time>2022-05-26T09:50:46.000Z</time>
      </trkpt>
      <trkpt lat="47.28317" lon="-2.36053">
        <ele>22.39999961853</ele>
        <time>2022-05-26T09:50:47.000Z</time>
      </trkpt>
      <trkpt lat="47.28313" lon="-2.36052">
        <ele>22</ele>
        <time>2022-05-26T09:50:48.000Z</time>
      </trkpt>
      <trkpt lat="47.28308" lon="-2.3605">
        <ele>21.60000038147</ele>
        <time>2022-05-26T09:50:49.000Z</time>
      </trkpt>
      <trkpt lat="47.28303" lon="-2.36048">
        <ele>21.200000762939</ele>
        <time>2022-05-26T09:50:50.000Z</time>
      </trkpt>
      <trkpt lat="47.28292" lon="-2.36044">
        <ele>21.200000762939</ele>
        <time>2022-05-26T09:50:52.000Z</time>
      </trkpt>
      <trkpt lat="47.28284" lon="-2.36037">
        <ele>20.60000038147</ele>
        <time>2022-05-26T09:50:54.000Z</time>
      </trkpt>
      <trkpt lat="47.28281" lon="-2.36032">
        <ele>20</ele>
        <time>2022-05-26T09:50:55.000Z</time>
      </trkpt>
      <trkpt lat="47.28278" lon="-2.36026">
        <ele>19.200000762939</ele>
        <time>2022-05-26T09:50:56.000Z</time>
      </trkpt>
      <trkpt lat="47.28277" lon="-2.3602">
        <ele>18.39999961853</ele>
        <time>2022-05-26T09:50:57.000Z</time>
      </trkpt>
      <trkpt lat="47.28277" lon="-2.36011">
        <ele>17.60000038147</ele>
        <time>2022-05-26T09:50:58.000Z</time>
      </trkpt>
      <trkpt lat="47.28277" lon="-2.36002">
        <ele>16.60000038147</ele>
        <time>2022-05-26T09:50:59.000Z</time>
      </trkpt>
      <trkpt lat="47.28278" lon="-2.35995">
        <ele>15.800000190735</ele>
        <time>2022-05-26T09:51:00.000Z</time>
      </trkpt>
      <trkpt lat="47.28278" lon="-2.35987">
        <ele>14.800000190735</ele>
        <time>2022-05-26T09:51:01.000Z</time>
      </trkpt>
      <trkpt lat="47.28278" lon="-2.3598">
        <ele>13</ele>
        <time>2022-05-26T09:51:02.000Z</time>
      </trkpt>
      <trkpt lat="47.28271" lon="-2.35959">
        <ele>13</ele>
        <time>2022-05-26T09:51:06.000Z</time>
      </trkpt>
      <trkpt lat="47.2826" lon="-2.35931">
        <ele>13</ele>
        <time>2022-05-26T09:51:11.000Z</time>
      </trkpt>
      <trkpt lat="47.28255" lon="-2.35921">
        <ele>13</ele>
        <time>2022-05-26T09:51:14.000Z</time>
      </trkpt>
      <trkpt lat="47.28247" lon="-2.35918">
        <ele>13</ele>
        <time>2022-05-26T09:51:16.000Z</time>
      </trkpt>
      <trkpt lat="47.28226" lon="-2.35914">
        <ele>13</ele>
        <time>2022-05-26T09:51:20.000Z</time>
      </trkpt>
      <trkpt lat="47.28222" lon="-2.35912">
        <ele>13</ele>
        <time>2022-05-26T09:51:21.000Z</time>
      </trkpt>
      <trkpt lat="47.28208" lon="-2.35906">
        <ele>13</ele>
        <time>2022-05-26T09:51:24.000Z</time>
      </trkpt>
      <trkpt lat="47.28205" lon="-2.35902">
        <ele>13</ele>
        <time>2022-05-26T09:51:25.000Z</time>
      </trkpt>
      <trkpt lat="47.28195" lon="-2.35874">
        <ele>13</ele>
        <time>2022-05-26T09:51:29.000Z</time>
      </trkpt>
      <trkpt lat="47.2819" lon="-2.35845">
        <ele>13</ele>
        <time>2022-05-26T09:51:34.000Z</time>
      </trkpt>
      <trkpt lat="47.28178" lon="-2.3581">
        <ele>13</ele>
        <time>2022-05-26T09:51:41.000Z</time>
      </trkpt>
      <trkpt lat="47.28169" lon="-2.35792">
        <ele>13</ele>
        <time>2022-05-26T09:51:46.000Z</time>
      </trkpt>
      <trkpt lat="47.28165" lon="-2.35782">
        <ele>13</ele>
        <time>2022-05-26T09:51:49.000Z</time>
      </trkpt>
      <trkpt lat="47.2816" lon="-2.35776">
        <ele>13</ele>
        <time>2022-05-26T09:51:51.000Z</time>
      </trkpt>
      <trkpt lat="47.28139" lon="-2.35762">
        <ele>13</ele>
        <time>2022-05-26T09:51:57.000Z</time>
      </trkpt>
      <trkpt lat="47.28134" lon="-2.35763">
        <ele>13</ele>
        <time>2022-05-26T09:51:58.000Z</time>
      </trkpt>
      <trkpt lat="47.2813" lon="-2.35764">
        <ele>12.60000038147</ele>
        <time>2022-05-26T09:51:59.000Z</time>
      </trkpt>
      <trkpt lat="47.28122" lon="-2.35764">
        <ele>12.199999809265</ele>
        <time>2022-05-26T09:52:00.000Z</time>
      </trkpt>
      <trkpt lat="47.28115" lon="-2.35765">
        <ele>11.800000190735</ele>
        <time>2022-05-26T09:52:01.000Z</time>
      </trkpt>
      <trkpt lat="47.2811" lon="-2.35769">
        <ele>11.39999961853</ele>
        <time>2022-05-26T09:52:02.000Z</time>
      </trkpt>
      <trkpt lat="47.28106" lon="-2.35773">
        <ele>11</ele>
        <time>2022-05-26T09:52:03.000Z</time>
      </trkpt>
      <trkpt lat="47.28102" lon="-2.35783">
        <ele>11</ele>
        <time>2022-05-26T09:52:05.000Z</time>
      </trkpt>
      <trkpt lat="47.28084" lon="-2.3581">
        <ele>11</ele>
        <time>2022-05-26T09:52:12.000Z</time>
      </trkpt>
      <trkpt lat="47.2808" lon="-2.35796">
        <ele>11</ele>
        <time>2022-05-26T09:52:16.000Z</time>
      </trkpt>
      <trkpt lat="47.28081" lon="-2.3579">
        <ele>11.39999961853</ele>
        <time>2022-05-26T09:52:17.000Z</time>
      </trkpt>
      <trkpt lat="47.28081" lon="-2.35784">
        <ele>12</ele>
        <time>2022-05-26T09:52:18.000Z</time>
      </trkpt>
      <trkpt lat="47.28082" lon="-2.35779">
        <ele>12.39999961853</ele>
        <time>2022-05-26T09:52:19.000Z</time>
      </trkpt>
      <trkpt lat="47.28083" lon="-2.35774">
        <ele>12.800000190735</ele>
        <time>2022-05-26T09:52:20.000Z</time>
      </trkpt>
      <trkpt lat="47.28085" lon="-2.35769">
        <ele>13.199999809265</ele>
        <time>2022-05-26T09:52:21.000Z</time>
      </trkpt>
      <trkpt lat="47.28085" lon="-2.35763">
        <ele>13.199999809265</ele>
        <time>2022-05-26T09:52:22.000Z</time>
      </trkpt>
      <trkpt lat="47.2809" lon="-2.35737">
        <ele>13.800000190735</ele>
        <time>2022-05-26T09:52:26.000Z</time>
      </trkpt>
      <trkpt lat="47.28091" lon="-2.35731">
        <ele>14.199999809265</ele>
        <time>2022-05-26T09:52:27.000Z</time>
      </trkpt>
      <trkpt lat="47.28093" lon="-2.35727">
        <ele>14.60000038147</ele>
        <time>2022-05-26T09:52:28.000Z</time>
      </trkpt>
      <trkpt lat="47.28093" lon="-2.35723">
        <ele>15</ele>
        <time>2022-05-26T09:52:29.000Z</time>
      </trkpt>
      <trkpt lat="47.28095" lon="-2.35718">
        <ele>15.39999961853</ele>
        <time>2022-05-26T09:52:30.000Z</time>
      </trkpt>
      <trkpt lat="47.28095" lon="-2.35707">
        <ele>15.39999961853</ele>
        <time>2022-05-26T09:52:32.000Z</time>
      </trkpt>
      <trkpt lat="47.28091" lon="-2.35675">
        <ele>15.39999961853</ele>
        <time>2022-05-26T09:52:37.000Z</time>
      </trkpt>
      <trkpt lat="47.28089" lon="-2.35666">
        <ele>15.39999961853</ele>
        <time>2022-05-26T09:52:38.000Z</time>
      </trkpt>
      <trkpt lat="47.28083" lon="-2.35647">
        <ele>15</ele>
        <time>2022-05-26T09:52:40.000Z</time>
      </trkpt>
      <trkpt lat="47.28081" lon="-2.35638">
        <ele>14.39999961853</ele>
        <time>2022-05-26T09:52:41.000Z</time>
      </trkpt>
      <trkpt lat="47.2808" lon="-2.35631">
        <ele>14</ele>
        <time>2022-05-26T09:52:42.000Z</time>
      </trkpt>
      <trkpt lat="47.28079" lon="-2.35624">
        <ele>13.39999961853</ele>
        <time>2022-05-26T09:52:43.000Z</time>
      </trkpt>
      <trkpt lat="47.28079" lon="-2.35617">
        <ele>13</ele>
        <time>2022-05-26T09:52:44.000Z</time>
      </trkpt>
      <trkpt lat="47.28078" lon="-2.35609">
        <ele>12.39999961853</ele>
        <time>2022-05-26T09:52:45.000Z</time>
      </trkpt>
      <trkpt lat="47.28077" lon="-2.35601">
        <ele>12</ele>
        <time>2022-05-26T09:52:46.000Z</time>
      </trkpt>
      <trkpt lat="47.28076" lon="-2.35594">
        <ele>11.39999961853</ele>
        <time>2022-05-26T09:52:47.000Z</time>
      </trkpt>
      <trkpt lat="47.28074" lon="-2.3559">
        <ele>11</ele>
        <time>2022-05-26T09:52:48.000Z</time>
      </trkpt>
      <trkpt lat="47.2807" lon="-2.35587">
        <ele>11</ele>
        <time>2022-05-26T09:52:50.000Z</time>
      </trkpt>
      <trkpt lat="47.2807" lon="-2.35586">
        <ele>11</ele>
        <time>2022-05-26T09:52:52.000Z</time>
      </trkpt>
      <trkpt lat="47.28068" lon="-2.35586">
        <ele>11</ele>
        <time>2022-05-26T10:02:20.000Z</time>
      </trkpt>
      <trkpt lat="47.28066" lon="-2.35585">
        <ele>11</ele>
        <time>2022-05-26T10:02:21.000Z</time>
      </trkpt>
      <trkpt lat="47.28058" lon="-2.35582">
        <ele>11</ele>
        <time>2022-05-26T10:02:24.000Z</time>
      </trkpt>
      <trkpt lat="47.28054" lon="-2.35582">
        <ele>11</ele>
        <time>2022-05-26T10:02:25.000Z</time>
      </trkpt>
      <trkpt lat="47.28033" lon="-2.35576">
        <ele>11</ele>
        <time>2022-05-26T10:02:30.000Z</time>
      </trkpt>
      <trkpt lat="47.28029" lon="-2.35576">
        <ele>11</ele>
        <time>2022-05-26T10:02:31.000Z</time>
      </trkpt>
      <trkpt lat="47.28007" lon="-2.35581">
        <ele>11</ele>
        <time>2022-05-26T10:02:36.000Z</time>
      </trkpt>
      <trkpt lat="47.27989" lon="-2.35586">
        <ele>10.39999961853</ele>
        <time>2022-05-26T10:02:40.000Z</time>
      </trkpt>
      <trkpt lat="47.27986" lon="-2.35587">
        <ele>10</ele>
        <time>2022-05-26T10:02:41.000Z</time>
      </trkpt>
      <trkpt lat="47.27981" lon="-2.35587">
        <ele>9.6000003814697</ele>
        <time>2022-05-26T10:02:42.000Z</time>
      </trkpt>
      <trkpt lat="47.27977" lon="-2.35586">
        <ele>9.1999998092651</ele>
        <time>2022-05-26T10:02:43.000Z</time>
      </trkpt>
      <trkpt lat="47.27973" lon="-2.35584">
        <ele>8.8000001907349</ele>
        <time>2022-05-26T10:02:44.000Z</time>
      </trkpt>
      <trkpt lat="47.27968" lon="-2.35582">
        <ele>8.8000001907349</ele>
        <time>2022-05-26T10:02:45.000Z</time>
      </trkpt>
      <trkpt lat="47.27957" lon="-2.35579">
        <ele>8.8000001907349</ele>
        <time>2022-05-26T10:02:47.000Z</time>
      </trkpt>
      <trkpt lat="47.27951" lon="-2.35579">
        <ele>8.8000001907349</ele>
        <time>2022-05-26T10:02:48.000Z</time>
      </trkpt>
      <trkpt lat="47.27934" lon="-2.35582">
        <ele>8.8000001907349</ele>
        <time>2022-05-26T10:02:51.000Z</time>
      </trkpt>
      <trkpt lat="47.27918" lon="-2.35589">
        <ele>8.8000001907349</ele>
        <time>2022-05-26T10:02:54.000Z</time>
      </trkpt>
      <trkpt lat="47.27888" lon="-2.35596">
        <ele>8.3999996185303</ele>
        <time>2022-05-26T10:02:59.000Z</time>
      </trkpt>
      <trkpt lat="47.27882" lon="-2.35598">
        <ele>8</ele>
        <time>2022-05-26T10:03:00.000Z</time>
      </trkpt>
      <trkpt lat="47.27875" lon="-2.356">
        <ele>7.5999999046326</ele>
        <time>2022-05-26T10:03:01.000Z</time>
      </trkpt>
      <trkpt lat="47.27869" lon="-2.35601">
        <ele>7.1999998092651</ele>
        <time>2022-05-26T10:03:02.000Z</time>
      </trkpt>
      <trkpt lat="47.27862" lon="-2.35603">
        <ele>6.8000001907349</ele>
        <time>2022-05-26T10:03:03.000Z</time>
      </trkpt>
      <trkpt lat="47.27827" lon="-2.35612">
        <ele>6.8000001907349</ele>
        <time>2022-05-26T10:03:08.000Z</time>
      </trkpt>
      <trkpt lat="47.2782" lon="-2.35614">
        <ele>6.4000000953674</ele>
        <time>2022-05-26T10:03:09.000Z</time>
      </trkpt>
      <trkpt lat="47.27813" lon="-2.35616">
        <ele>6</ele>
        <time>2022-05-26T10:03:10.000Z</time>
      </trkpt>
      <trkpt lat="47.27806" lon="-2.35618">
        <ele>5.5999999046326</ele>
        <time>2022-05-26T10:03:11.000Z</time>
      </trkpt>
      <trkpt lat="47.27799" lon="-2.35621">
        <ele>5.1999998092651</ele>
        <time>2022-05-26T10:03:12.000Z</time>
      </trkpt>
      <trkpt lat="47.27793" lon="-2.35624">
        <ele>4.8000001907349</ele>
        <time>2022-05-26T10:03:13.000Z</time>
      </trkpt>
      <trkpt lat="47.27786" lon="-2.35627">
        <ele>4.8000001907349</ele>
        <time>2022-05-26T10:03:14.000Z</time>
      </trkpt>
      <trkpt lat="47.27768" lon="-2.35642">
        <ele>4.8000001907349</ele>
        <time>2022-05-26T10:03:17.000Z</time>
      </trkpt>
      <trkpt lat="47.27757" lon="-2.35655">
        <ele>4.8000001907349</ele>
        <time>2022-05-26T10:03:19.000Z</time>
      </trkpt>
      <trkpt lat="47.27752" lon="-2.35662">
        <ele>4.4000000953674</ele>
        <time>2022-05-26T10:03:20.000Z</time>
      </trkpt>
      <trkpt lat="47.27747" lon="-2.3567">
        <ele>3.5999999046326</ele>
        <time>2022-05-26T10:03:21.000Z</time>
      </trkpt>
      <trkpt lat="47.27742" lon="-2.35677">
        <ele>3.2000000476837</ele>
        <time>2022-05-26T10:03:22.000Z</time>
      </trkpt>
      <trkpt lat="47.27738" lon="-2.35684">
        <ele>2.7999999523163</ele>
        <time>2022-05-26T10:03:23.000Z</time>
      </trkpt>
      <trkpt lat="47.27729" lon="-2.35699">
        <ele>2.7999999523163</ele>
        <time>2022-05-26T10:03:25.000Z</time>
      </trkpt>
      <trkpt lat="47.27724" lon="-2.35707">
        <ele>2.7999999523163</ele>
        <time>2022-05-26T10:03:26.000Z</time>
      </trkpt>
      <trkpt lat="47.27707" lon="-2.35725">
        <ele>2.7999999523163</ele>
        <time>2022-05-26T10:03:29.000Z</time>
      </trkpt>
      <trkpt lat="47.27695" lon="-2.35734">
        <ele>2.4000000953674</ele>
        <time>2022-05-26T10:03:31.000Z</time>
      </trkpt>
      <trkpt lat="47.27689" lon="-2.35739">
        <ele>2</ele>
        <time>2022-05-26T10:03:32.000Z</time>
      </trkpt>
      <trkpt lat="47.27685" lon="-2.35744">
        <ele>1.6000000238419</ele>
        <time>2022-05-26T10:03:33.000Z</time>
      </trkpt>
      <trkpt lat="47.27679" lon="-2.35748">
        <ele>1.2000000476837</ele>
        <time>2022-05-26T10:03:34.000Z</time>
      </trkpt>
      <trkpt lat="47.27674" lon="-2.35748">
        <ele>0.60000002384186</ele>
        <time>2022-05-26T10:03:35.000Z</time>
      </trkpt>
      <trkpt lat="47.2767" lon="-2.35744">
        <ele>0.60000002384186</ele>
        <time>2022-05-26T10:03:36.000Z</time>
      </trkpt>
      <trkpt lat="47.27656" lon="-2.35727">
        <ele>0.60000002384186</ele>
        <time>2022-05-26T10:03:39.000Z</time>
      </trkpt>
      <trkpt lat="47.27638" lon="-2.35717">
        <ele>0.20000000298023</ele>
        <time>2022-05-26T10:03:42.000Z</time>
      </trkpt>
      <trkpt lat="47.27631" lon="-2.35715">
        <ele>-0.20000000298023</ele>
        <time>2022-05-26T10:03:43.000Z</time>
      </trkpt>
      <trkpt lat="47.27624" lon="-2.35713">
        <ele>-0.60000002384186</ele>
        <time>2022-05-26T10:03:44.000Z</time>
      </trkpt>
      <trkpt lat="47.27616" lon="-2.35711">
        <ele>-1</ele>
        <time>2022-05-26T10:03:45.000Z</time>
      </trkpt>
      <trkpt lat="47.27609" lon="-2.3571">
        <ele>-1.3999999761581</ele>
        <time>2022-05-26T10:03:46.000Z</time>
      </trkpt>
      <trkpt lat="47.27588" lon="-2.35706">
        <ele>-1.3999999761581</ele>
        <time>2022-05-26T10:03:49.000Z</time>
      </trkpt>
      <trkpt lat="47.27575" lon="-2.35702">
        <ele>-1.3999999761581</ele>
        <time>2022-05-26T10:03:51.000Z</time>
      </trkpt>
      <trkpt lat="47.27549" lon="-2.35695">
        <ele>-1.3999999761581</ele>
        <time>2022-05-26T10:03:55.000Z</time>
      </trkpt>
      <trkpt lat="47.2753" lon="-2.35692">
        <ele>-1.7999999523163</ele>
        <time>2022-05-26T10:03:58.000Z</time>
      </trkpt>
      <trkpt lat="47.27523" lon="-2.3569">
        <ele>-2.2000000476837</ele>
        <time>2022-05-26T10:03:59.000Z</time>
      </trkpt>
      <trkpt lat="47.27516" lon="-2.35688">
        <ele>-2.5999999046326</ele>
        <time>2022-05-26T10:04:00.000Z</time>
      </trkpt>
      <trkpt lat="47.27509" lon="-2.35686">
        <ele>-3</ele>
        <time>2022-05-26T10:04:01.000Z</time>
      </trkpt>
      <trkpt lat="47.27502" lon="-2.35684">
        <ele>-3.4000000953674</ele>
        <time>2022-05-26T10:04:02.000Z</time>
      </trkpt>
      <trkpt lat="47.27469" lon="-2.35677">
        <ele>-3.4000000953674</ele>
        <time>2022-05-26T10:04:07.000Z</time>
      </trkpt>
      <trkpt lat="47.27444" lon="-2.35672">
        <ele>-3.7999999523163</ele>
        <time>2022-05-26T10:04:11.000Z</time>
      </trkpt>
      <trkpt lat="47.27438" lon="-2.35671">
        <ele>-4.1999998092651</ele>
        <time>2022-05-26T10:04:12.000Z</time>
      </trkpt>
      <trkpt lat="47.27432" lon="-2.35669">
        <ele>-4.8000001907349</ele>
        <time>2022-05-26T10:04:13.000Z</time>
      </trkpt>
      <trkpt lat="47.27426" lon="-2.35668">
        <ele>-5.1999998092651</ele>
        <time>2022-05-26T10:04:14.000Z</time>
      </trkpt>
      <trkpt lat="47.2742" lon="-2.35667">
        <ele>-5.5999999046326</ele>
        <time>2022-05-26T10:04:15.000Z</time>
      </trkpt>
      <trkpt lat="47.27414" lon="-2.35667">
        <ele>-5.5999999046326</ele>
        <time>2022-05-26T10:04:16.000Z</time>
      </trkpt>
      <trkpt lat="47.27395" lon="-2.35672">
        <ele>-5.5999999046326</ele>
        <time>2022-05-26T10:04:19.000Z</time>
      </trkpt>
      <trkpt lat="47.27383" lon="-2.3568">
        <ele>-5.5999999046326</ele>
        <time>2022-05-26T10:04:21.000Z</time>
      </trkpt>
      <trkpt lat="47.27365" lon="-2.35692">
        <ele>-5.5999999046326</ele>
        <time>2022-05-26T10:04:24.000Z</time>
      </trkpt>
      <trkpt lat="47.27335" lon="-2.35715">
        <ele>-5.5999999046326</ele>
        <time>2022-05-26T10:04:30.000Z</time>
      </trkpt>
      <trkpt lat="47.27326" lon="-2.35722">
        <ele>-5.5999999046326</ele>
        <time>2022-05-26T10:04:34.000Z</time>
      </trkpt>
      <trkpt lat="47.27324" lon="-2.35726">
        <ele>-5.5999999046326</ele>
        <time>2022-05-26T10:04:37.000Z</time>
      </trkpt>
      <trkpt lat="47.27322" lon="-2.35731">
        <ele>-5.5999999046326</ele>
        <time>2022-05-26T10:04:39.000Z</time>
      </trkpt>
      <trkpt lat="47.27315" lon="-2.35743">
        <ele>-5.5999999046326</ele>
        <time>2022-05-26T10:04:43.000Z</time>
      </trkpt>
      <trkpt lat="47.27312" lon="-2.35743">
        <ele>-5.5999999046326</ele>
        <time>2022-05-26T10:04:44.000Z</time>
      </trkpt>
      <trkpt lat="47.27305" lon="-2.35732">
        <ele>-5.5999999046326</ele>
        <time>2022-05-26T10:04:47.000Z</time>
      </trkpt>
      <trkpt lat="47.27305" lon="-2.35713">
        <ele>-5.5999999046326</ele>
        <time>2022-05-26T10:04:51.000Z</time>
      </trkpt>
      <trkpt lat="47.27299" lon="-2.35698">
        <ele>-5.5999999046326</ele>
        <time>2022-05-26T10:04:54.000Z</time>
      </trkpt>
      <trkpt lat="47.27297" lon="-2.35693">
        <ele>-5.5999999046326</ele>
        <time>2022-05-26T10:04:55.000Z</time>
      </trkpt>
      <trkpt lat="47.27276" lon="-2.35644">
        <ele>-5.5999999046326</ele>
        <time>2022-05-26T10:05:04.000Z</time>
      </trkpt>
      <trkpt lat="47.27256" lon="-2.35598">
        <ele>-5.5999999046326</ele>
        <time>2022-05-26T10:05:12.000Z</time>
      </trkpt>
      <trkpt lat="47.27237" lon="-2.35558">
        <ele>-5.1999998092651</ele>
        <time>2022-05-26T10:05:19.000Z</time>
      </trkpt>
      <trkpt lat="47.27234" lon="-2.35552">
        <ele>-4.8000001907349</ele>
        <time>2022-05-26T10:05:20.000Z</time>
      </trkpt>
      <trkpt lat="47.27232" lon="-2.35546">
        <ele>-4.1999998092651</ele>
        <time>2022-05-26T10:05:21.000Z</time>
      </trkpt>
      <trkpt lat="47.27229" lon="-2.35539">
        <ele>-3.7999999523163</ele>
        <time>2022-05-26T10:05:22.000Z</time>
      </trkpt>
      <trkpt lat="47.27226" lon="-2.35532">
        <ele>-3.4000000953674</ele>
        <time>2022-05-26T10:05:23.000Z</time>
      </trkpt>
      <trkpt lat="47.27223" lon="-2.35526">
        <ele>-3.4000000953674</ele>
        <time>2022-05-26T10:05:24.000Z</time>
      </trkpt>
      <trkpt lat="47.27215" lon="-2.35506">
        <ele>-3.4000000953674</ele>
        <time>2022-05-26T10:05:27.000Z</time>
      </trkpt>
      <trkpt lat="47.27189" lon="-2.35455">
        <ele>-3.4000000953674</ele>
        <time>2022-05-26T10:05:35.000Z</time>
      </trkpt>
      <trkpt lat="47.27161" lon="-2.35402">
        <ele>-3.4000000953674</ele>
        <time>2022-05-26T10:05:43.000Z</time>
      </trkpt>
      <trkpt lat="47.27131" lon="-2.35347">
        <ele>-3.4000000953674</ele>
        <time>2022-05-26T10:05:51.000Z</time>
      </trkpt>
      <trkpt lat="47.27096" lon="-2.35291">
        <ele>-3.4000000953674</ele>
        <time>2022-05-26T10:05:59.000Z</time>
      </trkpt>
      <trkpt lat="47.27055" lon="-2.35227">
        <ele>-3.4000000953674</ele>
        <time>2022-05-26T10:06:08.000Z</time>
      </trkpt>
      <trkpt lat="47.27021" lon="-2.35176">
        <ele>-3.4000000953674</ele>
        <time>2022-05-26T10:06:15.000Z</time>
      </trkpt>
      <trkpt lat="47.26983" lon="-2.35118">
        <ele>-3.4000000953674</ele>
        <time>2022-05-26T10:06:23.000Z</time>
      </trkpt>
      <trkpt lat="47.26978" lon="-2.3511">
        <ele>-3.4000000953674</ele>
        <time>2022-05-26T10:06:24.000Z</time>
      </trkpt>
      <trkpt lat="47.26948" lon="-2.35061">
        <ele>-3.4000000953674</ele>
        <time>2022-05-26T10:06:31.000Z</time>
      </trkpt>
      <trkpt lat="47.26933" lon="-2.35042">
        <ele>-3.4000000953674</ele>
        <time>2022-05-26T10:06:34.000Z</time>
      </trkpt>
      <trkpt lat="47.26923" lon="-2.35031">
        <ele>-3.4000000953674</ele>
        <time>2022-05-26T10:06:36.000Z</time>
      </trkpt>
      <trkpt lat="47.26888" lon="-2.34987">
        <ele>-3.4000000953674</ele>
        <time>2022-05-26T10:06:43.000Z</time>
      </trkpt>
      <trkpt lat="47.26851" lon="-2.34932">
        <ele>-3.4000000953674</ele>
        <time>2022-05-26T10:06:51.000Z</time>
      </trkpt>
      <trkpt lat="47.26809" lon="-2.3487">
        <ele>-3.4000000953674</ele>
        <time>2022-05-26T10:07:00.000Z</time>
      </trkpt>
      <trkpt lat="47.26781" lon="-2.34827">
        <ele>-3.4000000953674</ele>
        <time>2022-05-26T10:07:07.000Z</time>
      </trkpt>
      <trkpt lat="47.26768" lon="-2.3481">
        <ele>-3.4000000953674</ele>
        <time>2022-05-26T10:07:12.000Z</time>
      </trkpt>
      <trkpt lat="47.26764" lon="-2.34808">
        <ele>-3.4000000953674</ele>
        <time>2022-05-26T10:07:13.000Z</time>
      </trkpt>
      <trkpt lat="47.26759" lon="-2.348">
        <ele>-3.4000000953674</ele>
        <time>2022-05-26T10:07:15.000Z</time>
      </trkpt>
      <trkpt lat="47.26758" lon="-2.34796">
        <ele>-3.4000000953674</ele>
        <time>2022-05-26T10:07:17.000Z</time>
      </trkpt>
      <trkpt lat="47.26756" lon="-2.34795">
        <ele>-3.4000000953674</ele>
        <time>2022-05-26T10:07:19.000Z</time>
      </trkpt>
      <trkpt lat="47.26745" lon="-2.34783">
        <ele>-3.4000000953674</ele>
        <time>2022-05-26T10:07:24.000Z</time>
      </trkpt>
      <trkpt lat="47.26742" lon="-2.34779">
        <ele>-3.4000000953674</ele>
        <time>2022-05-26T10:07:25.000Z</time>
      </trkpt>
      <trkpt lat="47.26725" lon="-2.34758">
        <ele>-3.4000000953674</ele>
        <time>2022-05-26T10:07:29.000Z</time>
      </trkpt>
      <trkpt lat="47.26692" lon="-2.34717">
        <ele>-3.4000000953674</ele>
        <time>2022-05-26T10:07:36.000Z</time>
      </trkpt>
      <trkpt lat="47.26651" lon="-2.34667">
        <ele>-3.4000000953674</ele>
        <time>2022-05-26T10:07:44.000Z</time>
      </trkpt>
      <trkpt lat="47.2661" lon="-2.34617">
        <ele>-3.4000000953674</ele>
        <time>2022-05-26T10:07:52.000Z</time>
      </trkpt>
      <trkpt lat="47.26581" lon="-2.34585">
        <ele>-3.4000000953674</ele>
        <time>2022-05-26T10:07:58.000Z</time>
      </trkpt>
      <trkpt lat="47.26576" lon="-2.3458">
        <ele>-3.4000000953674</ele>
        <time>2022-05-26T10:07:59.000Z</time>
      </trkpt>
      <trkpt lat="47.26548" lon="-2.3455">
        <ele>-3.4000000953674</ele>
        <time>2022-05-26T10:08:05.000Z</time>
      </trkpt>
      <trkpt lat="47.26504" lon="-2.34513">
        <ele>-3.4000000953674</ele>
        <time>2022-05-26T10:08:13.000Z</time>
      </trkpt>
      <trkpt lat="47.26453" lon="-2.34477">
        <ele>-3.4000000953674</ele>
        <time>2022-05-26T10:08:21.000Z</time>
      </trkpt>
      <trkpt lat="47.26447" lon="-2.34473">
        <ele>-3.4000000953674</ele>
        <time>2022-05-26T10:08:22.000Z</time>
      </trkpt>
      <trkpt lat="47.26401" lon="-2.34439">
        <ele>-3.4000000953674</ele>
        <time>2022-05-26T10:08:30.000Z</time>
      </trkpt>
      <trkpt lat="47.2636" lon="-2.34403">
        <ele>-3.4000000953674</ele>
        <time>2022-05-26T10:08:38.000Z</time>
      </trkpt>
      <trkpt lat="47.26336" lon="-2.34383">
        <ele>-3.4000000953674</ele>
        <time>2022-05-26T10:08:43.000Z</time>
      </trkpt>
      <trkpt lat="47.2633" lon="-2.34381">
        <ele>-3.4000000953674</ele>
        <time>2022-05-26T10:08:44.000Z</time>
      </trkpt>
      <trkpt lat="47.26316" lon="-2.3437">
        <ele>-3.4000000953674</ele>
        <time>2022-05-26T10:08:47.000Z</time>
      </trkpt>
      <trkpt lat="47.26301" lon="-2.34344">
        <ele>-3.4000000953674</ele>
        <time>2022-05-26T10:08:51.000Z</time>
      </trkpt>
      <trkpt lat="47.26291" lon="-2.34333">
        <ele>-3.4000000953674</ele>
        <time>2022-05-26T10:08:53.000Z</time>
      </trkpt>
      <trkpt lat="47.26275" lon="-2.34317">
        <ele>-3.4000000953674</ele>
        <time>2022-05-26T10:08:56.000Z</time>
      </trkpt>
      <trkpt lat="47.26241" lon="-2.34282">
        <ele>-3.4000000953674</ele>
        <time>2022-05-26T10:09:02.000Z</time>
      </trkpt>
      <trkpt lat="47.26196" lon="-2.34235">
        <ele>-3.4000000953674</ele>
        <time>2022-05-26T10:09:10.000Z</time>
      </trkpt>
      <trkpt lat="47.26191" lon="-2.3423">
        <ele>-3.4000000953674</ele>
        <time>2022-05-26T10:09:11.000Z</time>
      </trkpt>
      <trkpt lat="47.26151" lon="-2.3419">
        <ele>-3.4000000953674</ele>
        <time>2022-05-26T10:09:19.000Z</time>
      </trkpt>
      <trkpt lat="47.26145" lon="-2.34186">
        <ele>-3.4000000953674</ele>
        <time>2022-05-26T10:09:20.000Z</time>
      </trkpt>
      <trkpt lat="47.26132" lon="-2.34181">
        <ele>-3.4000000953674</ele>
        <time>2022-05-26T10:09:22.000Z</time>
      </trkpt>
      <trkpt lat="47.26122" lon="-2.3417">
        <ele>-3.4000000953674</ele>
        <time>2022-05-26T10:09:24.000Z</time>
      </trkpt>
      <trkpt lat="47.26116" lon="-2.34164">
        <ele>-3.4000000953674</ele>
        <time>2022-05-26T10:09:25.000Z</time>
      </trkpt>
      <trkpt lat="47.2609" lon="-2.34149">
        <ele>-3.4000000953674</ele>
        <time>2022-05-26T10:09:29.000Z</time>
      </trkpt>
      <trkpt lat="47.2607" lon="-2.3414">
        <ele>-3.7999999523163</ele>
        <time>2022-05-26T10:09:32.000Z</time>
      </trkpt>
      <trkpt lat="47.26064" lon="-2.34137">
        <ele>-4.4000000953674</ele>
        <time>2022-05-26T10:09:33.000Z</time>
      </trkpt>
      <trkpt lat="47.26057" lon="-2.34133">
        <ele>-4.8000001907349</ele>
        <time>2022-05-26T10:09:34.000Z</time>
      </trkpt>
      <trkpt lat="47.2605" lon="-2.34129">
        <ele>-5.1999998092651</ele>
        <time>2022-05-26T10:09:35.000Z</time>
      </trkpt>
      <trkpt lat="47.26044" lon="-2.34126">
        <ele>-5.5999999046326</ele>
        <time>2022-05-26T10:09:36.000Z</time>
      </trkpt>
      <trkpt lat="47.26037" lon="-2.34123">
        <ele>-5.5999999046326</ele>
        <time>2022-05-26T10:09:37.000Z</time>
      </trkpt>
      <trkpt lat="47.25989" lon="-2.34099">
        <ele>-5.5999999046326</ele>
        <time>2022-05-26T10:09:45.000Z</time>
      </trkpt>
      <trkpt lat="47.25957" lon="-2.34085">
        <ele>-5.5999999046326</ele>
        <time>2022-05-26T10:09:51.000Z</time>
      </trkpt>
      <trkpt lat="47.25924" lon="-2.34073">
        <ele>-5.5999999046326</ele>
        <time>2022-05-26T10:09:58.000Z</time>
      </trkpt>
      <trkpt lat="47.25907" lon="-2.34071">
        <ele>-5.5999999046326</ele>
        <time>2022-05-26T10:10:01.000Z</time>
      </trkpt>
      <trkpt lat="47.25902" lon="-2.34068">
        <ele>-5.5999999046326</ele>
        <time>2022-05-26T10:10:02.000Z</time>
      </trkpt>
      <trkpt lat="47.25895" lon="-2.34045">
        <ele>-5.5999999046326</ele>
        <time>2022-05-26T10:10:05.000Z</time>
      </trkpt>
      <trkpt lat="47.25901" lon="-2.3402">
        <ele>-5.5999999046326</ele>
        <time>2022-05-26T10:10:08.000Z</time>
      </trkpt>
      <trkpt lat="47.25906" lon="-2.34002">
        <ele>-5.5999999046326</ele>
        <time>2022-05-26T10:10:10.000Z</time>
      </trkpt>
      <trkpt lat="47.25915" lon="-2.33976">
        <ele>-5.5999999046326</ele>
        <time>2022-05-26T10:10:13.000Z</time>
      </trkpt>
      <trkpt lat="47.25935" lon="-2.33933">
        <ele>-5.5999999046326</ele>
        <time>2022-05-26T10:10:19.000Z</time>
      </trkpt>
      <trkpt lat="47.2594" lon="-2.33926">
        <ele>-5.5999999046326</ele>
        <time>2022-05-26T10:10:22.000Z</time>
      </trkpt>
      <trkpt lat="47.25943" lon="-2.33916">
        <ele>-5.5999999046326</ele>
        <time>2022-05-26T10:10:26.000Z</time>
      </trkpt>
      <trkpt lat="47.25944" lon="-2.33912">
        <ele>-5.5999999046326</ele>
        <time>2022-05-26T10:10:27.000Z</time>
      </trkpt>
      <trkpt lat="47.25951" lon="-2.33892">
        <ele>-5.5999999046326</ele>
        <time>2022-05-26T10:10:32.000Z</time>
      </trkpt>
      <trkpt lat="47.25957" lon="-2.33874">
        <ele>-5.5999999046326</ele>
        <time>2022-05-26T10:10:37.000Z</time>
      </trkpt>
      <trkpt lat="47.25969" lon="-2.33837">
        <ele>-5.5999999046326</ele>
        <time>2022-05-26T10:10:43.000Z</time>
      </trkpt>
      <trkpt lat="47.25972" lon="-2.3383">
        <ele>-5.5999999046326</ele>
        <time>2022-05-26T10:10:44.000Z</time>
      </trkpt>
      <trkpt lat="47.25986" lon="-2.33793">
        <ele>-5.5999999046326</ele>
        <time>2022-05-26T10:10:49.000Z</time>
      </trkpt>
      <trkpt lat="47.26009" lon="-2.3373">
        <ele>-5.5999999046326</ele>
        <time>2022-05-26T10:10:57.000Z</time>
      </trkpt>
      <trkpt lat="47.26012" lon="-2.33722">
        <ele>-6</ele>
        <time>2022-05-26T10:10:58.000Z</time>
      </trkpt>
      <trkpt lat="47.26014" lon="-2.33714">
        <ele>-6.4000000953674</ele>
        <time>2022-05-26T10:10:59.000Z</time>
      </trkpt>
      <trkpt lat="47.26016" lon="-2.33705">
        <ele>-6.8000001907349</ele>
        <time>2022-05-26T10:11:00.000Z</time>
      </trkpt>
      <trkpt lat="47.26018" lon="-2.33696">
        <ele>-7.1999998092651</ele>
        <time>2022-05-26T10:11:01.000Z</time>
      </trkpt>
      <trkpt lat="47.2602" lon="-2.33689">
        <ele>-7.5999999046326</ele>
        <time>2022-05-26T10:11:02.000Z</time>
      </trkpt>
      <trkpt lat="47.26021" lon="-2.33681">
        <ele>-7.5999999046326</ele>
        <time>2022-05-26T10:11:03.000Z</time>
      </trkpt>
      <trkpt lat="47.26023" lon="-2.33675">
        <ele>-7.5999999046326</ele>
        <time>2022-05-26T10:11:04.000Z</time>
      </trkpt>
      <trkpt lat="47.26029" lon="-2.33669">
        <ele>-7.5999999046326</ele>
        <time>2022-05-26T10:11:06.000Z</time>
      </trkpt>
      <trkpt lat="47.26041" lon="-2.33669">
        <ele>-7.5999999046326</ele>
        <time>2022-05-26T10:11:09.000Z</time>
      </trkpt>
      <trkpt lat="47.26053" lon="-2.33666">
        <ele>-7.5999999046326</ele>
        <time>2022-05-26T10:11:13.000Z</time>
      </trkpt>
      <trkpt lat="47.26059" lon="-2.3365">
        <ele>-7.5999999046326</ele>
        <time>2022-05-26T10:11:16.000Z</time>
      </trkpt>
      <trkpt lat="47.26067" lon="-2.3363">
        <ele>-7.5999999046326</ele>
        <time>2022-05-26T10:11:19.000Z</time>
      </trkpt>
      <trkpt lat="47.26072" lon="-2.33616">
        <ele>-7.5999999046326</ele>
        <time>2022-05-26T10:11:21.000Z</time>
      </trkpt>
      <trkpt lat="47.26075" lon="-2.33607">
        <ele>-7.5999999046326</ele>
        <time>2022-05-26T10:11:22.000Z</time>
      </trkpt>
      <trkpt lat="47.26083" lon="-2.33583">
        <ele>-7.5999999046326</ele>
        <time>2022-05-26T10:11:25.000Z</time>
      </trkpt>
      <trkpt lat="47.26089" lon="-2.33569">
        <ele>-7.5999999046326</ele>
        <time>2022-05-26T10:11:27.000Z</time>
      </trkpt>
      <trkpt lat="47.26101" lon="-2.33536">
        <ele>-7.5999999046326</ele>
        <time>2022-05-26T10:11:31.000Z</time>
      </trkpt>
      <trkpt lat="47.26119" lon="-2.3348">
        <ele>-7.5999999046326</ele>
        <time>2022-05-26T10:11:38.000Z</time>
      </trkpt>
      <trkpt lat="47.26129" lon="-2.33451">
        <ele>-7.5999999046326</ele>
        <time>2022-05-26T10:11:42.000Z</time>
      </trkpt>
      <trkpt lat="47.26134" lon="-2.3344">
        <ele>-7.5999999046326</ele>
        <time>2022-05-26T10:11:44.000Z</time>
      </trkpt>
      <trkpt lat="47.26132" lon="-2.33423">
        <ele>-7.5999999046326</ele>
        <time>2022-05-26T10:11:47.000Z</time>
      </trkpt>
      <trkpt lat="47.26124" lon="-2.33415">
        <ele>-7.5999999046326</ele>
        <time>2022-05-26T10:11:49.000Z</time>
      </trkpt>
      <trkpt lat="47.26116" lon="-2.33406">
        <ele>-7.5999999046326</ele>
        <time>2022-05-26T10:11:51.000Z</time>
      </trkpt>
      <trkpt lat="47.26091" lon="-2.3337">
        <ele>-7.5999999046326</ele>
        <time>2022-05-26T10:11:57.000Z</time>
      </trkpt>
      <trkpt lat="47.26071" lon="-2.33333">
        <ele>-7.5999999046326</ele>
        <time>2022-05-26T10:12:02.000Z</time>
      </trkpt>
      <trkpt lat="47.26049" lon="-2.33271">
        <ele>-7.5999999046326</ele>
        <time>2022-05-26T10:12:09.000Z</time>
      </trkpt>
      <trkpt lat="47.26027" lon="-2.33212">
        <ele>-7.5999999046326</ele>
        <time>2022-05-26T10:12:16.000Z</time>
      </trkpt>
      <trkpt lat="47.26003" lon="-2.33146">
        <ele>-7.5999999046326</ele>
        <time>2022-05-26T10:12:24.000Z</time>
      </trkpt>
      <trkpt lat="47.25993" lon="-2.33113">
        <ele>-7.5999999046326</ele>
        <time>2022-05-26T10:12:28.000Z</time>
      </trkpt>
      <trkpt lat="47.25991" lon="-2.33105">
        <ele>-7.5999999046326</ele>
        <time>2022-05-26T10:12:29.000Z</time>
      </trkpt>
      <trkpt lat="47.25989" lon="-2.33096">
        <ele>-7.5999999046326</ele>
        <time>2022-05-26T10:12:30.000Z</time>
      </trkpt>
      <trkpt lat="47.25987" lon="-2.33087">
        <ele>-7.5999999046326</ele>
        <time>2022-05-26T10:12:31.000Z</time>
      </trkpt>
      <trkpt lat="47.25977" lon="-2.33064">
        <ele>-7.5999999046326</ele>
        <time>2022-05-26T10:12:34.000Z</time>
      </trkpt>
      <trkpt lat="47.25957" lon="-2.33011">
        <ele>-7.5999999046326</ele>
        <time>2022-05-26T10:12:40.000Z</time>
      </trkpt>
      <trkpt lat="47.25935" lon="-2.32949">
        <ele>-7.5999999046326</ele>
        <time>2022-05-26T10:12:47.000Z</time>
      </trkpt>
      <trkpt lat="47.25912" lon="-2.3289">
        <ele>-7.5999999046326</ele>
        <time>2022-05-26T10:12:54.000Z</time>
      </trkpt>
      <trkpt lat="47.25888" lon="-2.32822">
        <ele>-7.5999999046326</ele>
        <time>2022-05-26T10:13:02.000Z</time>
      </trkpt>
      <trkpt lat="47.25864" lon="-2.32747">
        <ele>-7.5999999046326</ele>
        <time>2022-05-26T10:13:11.000Z</time>
      </trkpt>
      <trkpt lat="47.25861" lon="-2.32732">
        <ele>-7.5999999046326</ele>
        <time>2022-05-26T10:13:13.000Z</time>
      </trkpt>
      <trkpt lat="47.25861" lon="-2.32719">
        <ele>-7.5999999046326</ele>
        <time>2022-05-26T10:13:15.000Z</time>
      </trkpt>
      <trkpt lat="47.2586" lon="-2.32712">
        <ele>-7.5999999046326</ele>
        <time>2022-05-26T10:13:16.000Z</time>
      </trkpt>
      <trkpt lat="47.25854" lon="-2.32703">
        <ele>-7.5999999046326</ele>
        <time>2022-05-26T10:13:18.000Z</time>
      </trkpt>
      <trkpt lat="47.25846" lon="-2.32682">
        <ele>-7.5999999046326</ele>
        <time>2022-05-26T10:13:21.000Z</time>
      </trkpt>
      <trkpt lat="47.25844" lon="-2.32674">
        <ele>-7.5999999046326</ele>
        <time>2022-05-26T10:13:22.000Z</time>
      </trkpt>
      <trkpt lat="47.25832" lon="-2.3263">
        <ele>-7.5999999046326</ele>
        <time>2022-05-26T10:13:27.000Z</time>
      </trkpt>
      <trkpt lat="47.25817" lon="-2.32571">
        <ele>-7.5999999046326</ele>
        <time>2022-05-26T10:13:34.000Z</time>
      </trkpt>
      <trkpt lat="47.25801" lon="-2.32503">
        <ele>-7.5999999046326</ele>
        <time>2022-05-26T10:13:42.000Z</time>
      </trkpt>
      <trkpt lat="47.25798" lon="-2.32475">
        <ele>-7.5999999046326</ele>
        <time>2022-05-26T10:13:47.000Z</time>
      </trkpt>
      <trkpt lat="47.25803" lon="-2.32464">
        <ele>-7.5999999046326</ele>
        <time>2022-05-26T10:13:51.000Z</time>
      </trkpt>
      <trkpt lat="47.25808" lon="-2.32458">
        <ele>-7.5999999046326</ele>
        <time>2022-05-26T10:13:54.000Z</time>
      </trkpt>
      <trkpt lat="47.25811" lon="-2.32458">
        <ele>-7.5999999046326</ele>
        <time>2022-05-26T10:13:55.000Z</time>
      </trkpt>
      <trkpt lat="47.25824" lon="-2.32465">
        <ele>-7.5999999046326</ele>
        <time>2022-05-26T10:13:58.000Z</time>
      </trkpt>
      <trkpt lat="47.25833" lon="-2.3247">
        <ele>-7.5999999046326</ele>
        <time>2022-05-26T10:14:00.000Z</time>
      </trkpt>
      <trkpt lat="47.25844" lon="-2.32472">
        <ele>-7.5999999046326</ele>
        <time>2022-05-26T10:14:02.000Z</time>
      </trkpt>
      <trkpt lat="47.25849" lon="-2.32473">
        <ele>-7.5999999046326</ele>
        <time>2022-05-26T10:14:03.000Z</time>
      </trkpt>
      <trkpt lat="47.25874" lon="-2.32472">
        <ele>-7.5999999046326</ele>
        <time>2022-05-26T10:14:08.000Z</time>
      </trkpt>
      <trkpt lat="47.25886" lon="-2.32469">
        <ele>-7.5999999046326</ele>
        <time>2022-05-26T10:14:10.000Z</time>
      </trkpt>
      <trkpt lat="47.25896" lon="-2.3246">
        <ele>-7.5999999046326</ele>
        <time>2022-05-26T10:14:12.000Z</time>
      </trkpt>
      <trkpt lat="47.2591" lon="-2.32444">
        <ele>-7.5999999046326</ele>
        <time>2022-05-26T10:14:15.000Z</time>
      </trkpt>
      <trkpt lat="47.25919" lon="-2.32432">
        <ele>-7.5999999046326</ele>
        <time>2022-05-26T10:14:17.000Z</time>
      </trkpt>
      <trkpt lat="47.25943" lon="-2.32402">
        <ele>-7.5999999046326</ele>
        <time>2022-05-26T10:14:23.000Z</time>
      </trkpt>
      <trkpt lat="47.25949" lon="-2.32393">
        <ele>-7.5999999046326</ele>
        <time>2022-05-26T10:14:25.000Z</time>
      </trkpt>
      <trkpt lat="47.2596" lon="-2.32377">
        <ele>-7.5999999046326</ele>
        <time>2022-05-26T10:14:29.000Z</time>
      </trkpt>
      <trkpt lat="47.25983" lon="-2.32352">
        <ele>-7.5999999046326</ele>
        <time>2022-05-26T10:14:35.000Z</time>
      </trkpt>
      <trkpt lat="47.25986" lon="-2.32347">
        <ele>-7.5999999046326</ele>
        <time>2022-05-26T10:14:36.000Z</time>
      </trkpt>
      <trkpt lat="47.26004" lon="-2.32321">
        <ele>-7.5999999046326</ele>
        <time>2022-05-26T10:14:41.000Z</time>
      </trkpt>
      <trkpt lat="47.26022" lon="-2.32299">
        <ele>-7.5999999046326</ele>
        <time>2022-05-26T10:14:46.000Z</time>
      </trkpt>
      <trkpt lat="47.26039" lon="-2.3228">
        <ele>-7.5999999046326</ele>
        <time>2022-05-26T10:14:50.000Z</time>
      </trkpt>
      <trkpt lat="47.26047" lon="-2.3227">
        <ele>-7.5999999046326</ele>
        <time>2022-05-26T10:14:52.000Z</time>
      </trkpt>
      <trkpt lat="47.26063" lon="-2.32251">
        <ele>-7.5999999046326</ele>
        <time>2022-05-26T10:14:56.000Z</time>
      </trkpt>
      <trkpt lat="47.2607" lon="-2.32243">
        <ele>-7.5999999046326</ele>
        <time>2022-05-26T10:14:58.000Z</time>
      </trkpt>
      <trkpt lat="47.26092" lon="-2.32212">
        <ele>-7.5999999046326</ele>
        <time>2022-05-26T10:15:04.000Z</time>
      </trkpt>
      <trkpt lat="47.26106" lon="-2.32182">
        <ele>-7.5999999046326</ele>
        <time>2022-05-26T10:15:09.000Z</time>
      </trkpt>
      <trkpt lat="47.26121" lon="-2.32144">
        <ele>-7.5999999046326</ele>
        <time>2022-05-26T10:15:15.000Z</time>
      </trkpt>
      <trkpt lat="47.26132" lon="-2.32102">
        <ele>-7.5999999046326</ele>
        <time>2022-05-26T10:15:21.000Z</time>
      </trkpt>
      <trkpt lat="47.26151" lon="-2.32047">
        <ele>-7.5999999046326</ele>
        <time>2022-05-26T10:15:29.000Z</time>
      </trkpt>
      <trkpt lat="47.2616" lon="-2.32029">
        <ele>-7.5999999046326</ele>
        <time>2022-05-26T10:15:33.000Z</time>
      </trkpt>
      <trkpt lat="47.26162" lon="-2.32029">
        <ele>-7.5999999046326</ele>
        <time>2022-05-26T10:15:34.000Z</time>
      </trkpt>
      <trkpt lat="47.26171" lon="-2.32027">
        <ele>-7.5999999046326</ele>
        <time>2022-05-26T10:15:37.000Z</time>
      </trkpt>
      <trkpt lat="47.26184" lon="-2.32021">
        <ele>-7.5999999046326</ele>
        <time>2022-05-26T10:15:41.000Z</time>
      </trkpt>
      <trkpt lat="47.26189" lon="-2.32021">
        <ele>-7.5999999046326</ele>
        <time>2022-05-26T10:15:44.000Z</time>
      </trkpt>
      <trkpt lat="47.26195" lon="-2.32019">
        <ele>-7.5999999046326</ele>
        <time>2022-05-26T10:15:47.000Z</time>
      </trkpt>
      <trkpt lat="47.26195" lon="-2.32017">
        <ele>-7.5999999046326</ele>
        <time>2022-05-26T10:15:48.000Z</time>
      </trkpt>
      <trkpt lat="47.26199" lon="-2.32004">
        <ele>-7.5999999046326</ele>
        <time>2022-05-26T10:15:52.000Z</time>
      </trkpt>
      <trkpt lat="47.26201" lon="-2.32002">
        <ele>-7.5999999046326</ele>
        <time>2022-05-26T10:15:53.000Z</time>
      </trkpt>
      <trkpt lat="47.26216" lon="-2.31986">
        <ele>-7.5999999046326</ele>
        <time>2022-05-26T10:15:59.000Z</time>
      </trkpt>
      <trkpt lat="47.26221" lon="-2.31982">
        <ele>-7.5999999046326</ele>
        <time>2022-05-26T10:16:01.000Z</time>
      </trkpt>
      <trkpt lat="47.26227" lon="-2.31982">
        <ele>-7.5999999046326</ele>
        <time>2022-05-26T10:16:03.000Z</time>
      </trkpt>
      <trkpt lat="47.26237" lon="-2.31971">
        <ele>-7.5999999046326</ele>
        <time>2022-05-26T10:16:07.000Z</time>
      </trkpt>
      <trkpt lat="47.26246" lon="-2.31949">
        <ele>-7.5999999046326</ele>
        <time>2022-05-26T10:16:12.000Z</time>
      </trkpt>
      <trkpt lat="47.26248" lon="-2.31945">
        <ele>-7.5999999046326</ele>
        <time>2022-05-26T10:16:13.000Z</time>
      </trkpt>
      <trkpt lat="47.26263" lon="-2.31922">
        <ele>-7.5999999046326</ele>
        <time>2022-05-26T10:16:18.000Z</time>
      </trkpt>
      <trkpt lat="47.26282" lon="-2.31902">
        <ele>-7.5999999046326</ele>
        <time>2022-05-26T10:16:23.000Z</time>
      </trkpt>
      <trkpt lat="47.26289" lon="-2.31894">
        <ele>-7.5999999046326</ele>
        <time>2022-05-26T10:16:25.000Z</time>
      </trkpt>
      <trkpt lat="47.26291" lon="-2.31882">
        <ele>-7.5999999046326</ele>
        <time>2022-05-26T10:16:27.000Z</time>
      </trkpt>
      <trkpt lat="47.26298" lon="-2.31837">
        <ele>-7.5999999046326</ele>
        <time>2022-05-26T10:16:33.000Z</time>
      </trkpt>
      <trkpt lat="47.26298" lon="-2.3183">
        <ele>-7.5999999046326</ele>
        <time>2022-05-26T10:16:34.000Z</time>
      </trkpt>
      <trkpt lat="47.26301" lon="-2.31795">
        <ele>-7.5999999046326</ele>
        <time>2022-05-26T10:16:39.000Z</time>
      </trkpt>
      <trkpt lat="47.263" lon="-2.31782">
        <ele>-7.5999999046326</ele>
        <time>2022-05-26T10:16:41.000Z</time>
      </trkpt>
      <trkpt lat="47.26299" lon="-2.31749">
        <ele>-7.5999999046326</ele>
        <time>2022-05-26T10:16:46.000Z</time>
      </trkpt>
      <trkpt lat="47.26298" lon="-2.31743">
        <ele>-7.5999999046326</ele>
        <time>2022-05-26T10:16:47.000Z</time>
      </trkpt>
      <trkpt lat="47.26301" lon="-2.31723">
        <ele>-7.5999999046326</ele>
        <time>2022-05-26T10:16:51.000Z</time>
      </trkpt>
      <trkpt lat="47.26319" lon="-2.31714">
        <ele>-7.5999999046326</ele>
        <time>2022-05-26T10:16:55.000Z</time>
      </trkpt>
      <trkpt lat="47.26334" lon="-2.31695">
        <ele>-7.1999998092651</ele>
        <time>2022-05-26T10:17:00.000Z</time>
      </trkpt>
      <trkpt lat="47.26337" lon="-2.31692">
        <ele>-6.8000001907349</ele>
        <time>2022-05-26T10:17:01.000Z</time>
      </trkpt>
      <trkpt lat="47.26339" lon="-2.3169">
        <ele>-6.1999998092651</ele>
        <time>2022-05-26T10:17:02.000Z</time>
      </trkpt>
      <trkpt lat="47.26341" lon="-2.31688">
        <ele>-5.8000001907349</ele>
        <time>2022-05-26T10:17:03.000Z</time>
      </trkpt>
      <trkpt lat="47.26344" lon="-2.31687">
        <ele>-5.4000000953674</ele>
        <time>2022-05-26T10:17:04.000Z</time>
      </trkpt>
      <trkpt lat="47.26355" lon="-2.3168">
        <ele>-5.4000000953674</ele>
        <time>2022-05-26T10:17:09.000Z</time>
      </trkpt>
      <trkpt lat="47.26355" lon="-2.31678">
        <ele>-5.4000000953674</ele>
        <time>2022-05-26T10:17:10.000Z</time>
      </trkpt>
      <trkpt lat="47.26356" lon="-2.31677">
        <ele>-5.4000000953674</ele>
        <time>2022-05-26T10:17:12.000Z</time>
      </trkpt>
      <trkpt lat="47.26359" lon="-2.31676">
        <ele>-5.4000000953674</ele>
        <time>2022-05-26T10:17:35.000Z</time>
      </trkpt>
      <trkpt lat="47.26369" lon="-2.31671">
        <ele>-5</ele>
        <time>2022-05-26T10:17:40.000Z</time>
      </trkpt>
      <trkpt lat="47.26372" lon="-2.3167">
        <ele>-4.5999999046326</ele>
        <time>2022-05-26T10:17:41.000Z</time>
      </trkpt>
      <trkpt lat="47.26374" lon="-2.31669">
        <ele>-4.1999998092651</ele>
        <time>2022-05-26T10:17:42.000Z</time>
      </trkpt>
      <trkpt lat="47.26376" lon="-2.31667">
        <ele>-3.7999999523163</ele>
        <time>2022-05-26T10:17:43.000Z</time>
      </trkpt>
      <trkpt lat="47.26378" lon="-2.31667">
        <ele>-3.4000000953674</ele>
        <time>2022-05-26T10:17:44.000Z</time>
      </trkpt>
      <trkpt lat="47.26386" lon="-2.31662">
        <ele>-3.4000000953674</ele>
        <time>2022-05-26T10:17:47.000Z</time>
      </trkpt>
      <trkpt lat="47.26405" lon="-2.31653">
        <ele>-3.4000000953674</ele>
        <time>2022-05-26T10:17:54.000Z</time>
      </trkpt>
      <trkpt lat="47.26412" lon="-2.31644">
        <ele>-3.4000000953674</ele>
        <time>2022-05-26T10:17:57.000Z</time>
      </trkpt>
      <trkpt lat="47.26412" lon="-2.31639">
        <ele>-3.4000000953674</ele>
        <time>2022-05-26T10:17:58.000Z</time>
      </trkpt>
      <trkpt lat="47.2641" lon="-2.31609">
        <ele>-3.4000000953674</ele>
        <time>2022-05-26T10:18:04.000Z</time>
      </trkpt>
      <trkpt lat="47.2641" lon="-2.31599">
        <ele>-3.4000000953674</ele>
        <time>2022-05-26T10:18:06.000Z</time>
      </trkpt>
      <trkpt lat="47.26409" lon="-2.31585">
        <ele>-3.4000000953674</ele>
        <time>2022-05-26T10:18:09.000Z</time>
      </trkpt>
      <trkpt lat="47.2641" lon="-2.31558">
        <ele>-3.4000000953674</ele>
        <time>2022-05-26T10:18:15.000Z</time>
      </trkpt>
      <trkpt lat="47.26411" lon="-2.31555">
        <ele>-3.4000000953674</ele>
        <time>2022-05-26T10:18:16.000Z</time>
      </trkpt>
      <trkpt lat="47.26415" lon="-2.31554">
        <ele>-3.4000000953674</ele>
        <time>2022-05-26T10:18:18.000Z</time>
      </trkpt>
      <trkpt lat="47.26416" lon="-2.31554">
        <ele>-3</ele>
        <time>2022-05-26T10:18:19.000Z</time>
      </trkpt>
      <trkpt lat="47.26417" lon="-2.31554">
        <ele>-2.4000000953674</ele>
        <time>2022-05-26T10:18:20.000Z</time>
      </trkpt>
      <trkpt lat="47.26417" lon="-2.31554">
        <ele>-2</ele>
        <time>2022-05-26T10:18:21.000Z</time>
      </trkpt>
      <trkpt lat="47.26418" lon="-2.31555">
        <ele>-1.6000000238419</ele>
        <time>2022-05-26T10:18:22.000Z</time>
      </trkpt>
    </trkseg>
  </trk>
</gpx>